<?xml version='1.0' encoding='UTF-8'?><gpx version="1.1" creator="JPX - https://github.com/jenetics/jpx" xmlns="http://www.topografix.com/GPX/1/1"><trk><trkseg><trkpt lat="43.3497333" lon="11.6424517"><ele>564.6</ele><time>2026-04-19T12:02:21.625Z</time></trkpt><trkpt lat="43.3496167" lon="11.6423817"><ele>567.2</ele><time>2026-04-19T12:02:23.625Z</time></trkpt><trkpt lat="43.3495583" lon="11.6423367"><ele>569.8</ele><time>2026-04-19T12:02:24.625Z</time></trkpt><trkpt lat="43.3494917" lon="11.64227"><ele>572.4</ele><time>2026-04-19T12:02:25.626Z</time></trkpt><trkpt lat="43.3494367" lon="11.6421667"><ele>575.0</ele><time>2026-04-19T12:02:26.626Z</time></trkpt><trkpt lat="43.34938" lon="11.6420667"><ele>575.2</ele><time>2026-04-19T12:02:27.625Z</time></trkpt><trkpt lat="43.3493567" lon="11.641945"><ele>575.4</ele><time>2026-04-19T12:02:28.625Z</time></trkpt><trkpt lat="43.34935" lon="11.6418067"><ele>575.6</ele><time>2026-04-19T12:02:29.625Z</time></trkpt><trkpt lat="43.3493617" lon="11.6416583"><ele>575.8</ele><time>2026-04-19T12:02:30.625Z</time></trkpt><trkpt lat="43.349375" lon="11.64151"><ele>576.0</ele><time>2026-04-19T12:02:31.626Z</time></trkpt><trkpt lat="43.34937" lon="11.6413767"><ele>576.0</ele><time>2026-04-19T12:02:32.625Z</time></trkpt><trkpt lat="43.3493367" lon="11.6412583"><ele>576.0</ele><time>2026-04-19T12:02:33.625Z</time></trkpt><trkpt lat="43.3492717" lon="11.6411517"><ele>576.0</ele><time>2026-04-19T12:02:34.626Z</time></trkpt><trkpt lat="43.349175" lon="11.6410683"><ele>576.0</ele><time>2026-04-19T12:02:35.626Z</time></trkpt><trkpt lat="43.349065" lon="11.6409867"><ele>576.0</ele><time>2026-04-19T12:02:36.625Z</time></trkpt><trkpt lat="43.3489517" lon="11.64091"><ele>577.0</ele><time>2026-04-19T12:02:37.625Z</time></trkpt><trkpt lat="43.3488417" lon="11.6407983"><ele>578.0</ele><time>2026-04-19T12:02:38.625Z</time></trkpt><trkpt lat="43.348725" lon="11.6406833"><ele>579.0</ele><time>2026-04-19T12:02:39.625Z</time></trkpt><trkpt lat="43.3486133" lon="11.6405717"><ele>580.0</ele><time>2026-04-19T12:02:40.625Z</time></trkpt><trkpt lat="43.34851" lon="11.6404783"><ele>580.0</ele><time>2026-04-19T12:02:41.625Z</time></trkpt><trkpt lat="43.3484033" lon="11.640385"><ele>580.0</ele><time>2026-04-19T12:02:42.625Z</time></trkpt><trkpt lat="43.3482783" lon="11.6403133"><ele>580.0</ele><time>2026-04-19T12:02:43.626Z</time></trkpt><trkpt lat="43.3481367" lon="11.6402417"><ele>580.0</ele><time>2026-04-19T12:02:44.625Z</time></trkpt><trkpt lat="43.34799" lon="11.6401817"><ele>577.3333333333334</ele><time>2026-04-19T12:02:45.626Z</time></trkpt><trkpt lat="43.3478383" lon="11.6401133"><ele>574.6666666666666</ele><time>2026-04-19T12:02:46.625Z</time></trkpt><trkpt lat="43.34769" lon="11.64005"><ele>572.0</ele><time>2026-04-19T12:02:47.626Z</time></trkpt><trkpt lat="43.34754" lon="11.6399833"><ele>572.0</ele><time>2026-04-19T12:02:48.625Z</time></trkpt><trkpt lat="43.3473783" lon="11.63992"><ele>572.0</ele><time>2026-04-19T12:02:49.626Z</time></trkpt><trkpt lat="43.3472317" lon="11.6398633"><ele>572.0</ele><time>2026-04-19T12:02:50.625Z</time></trkpt><trkpt lat="43.3469717" lon="11.639725"><ele>571.5</ele><time>2026-04-19T12:02:52.625Z</time></trkpt><trkpt lat="43.3468633" lon="11.639625"><ele>571.0</ele><time>2026-04-19T12:02:53.625Z</time></trkpt><trkpt lat="43.346755" lon="11.6395033"><ele>570.5</ele><time>2026-04-19T12:02:54.625Z</time></trkpt><trkpt lat="43.3466617" lon="11.63935"><ele>570.0</ele><time>2026-04-19T12:02:55.626Z</time></trkpt><trkpt lat="43.3465667" lon="11.639185"><ele>569.0</ele><time>2026-04-19T12:02:56.626Z</time></trkpt><trkpt lat="43.3464767" lon="11.63901"><ele>568.0</ele><time>2026-04-19T12:02:57.625Z</time></trkpt><trkpt lat="43.34638" lon="11.638845"><ele>567.0</ele><time>2026-04-19T12:02:58.625Z</time></trkpt><trkpt lat="43.3462783" lon="11.6386917"><ele>565.3333333333334</ele><time>2026-04-19T12:02:59.625Z</time></trkpt><trkpt lat="43.34615" lon="11.6385583"><ele>563.6666666666667</ele><time>2026-04-19T12:03:00.625Z</time></trkpt><trkpt lat="43.346015" lon="11.6384367"><ele>562.0</ele><time>2026-04-19T12:03:01.625Z</time></trkpt><trkpt lat="43.3458733" lon="11.6383217"><ele>562.0</ele><time>2026-04-19T12:03:02.625Z</time></trkpt><trkpt lat="43.34573" lon="11.6382167"><ele>562.0</ele><time>2026-04-19T12:03:03.625Z</time></trkpt><trkpt lat="43.3455883" lon="11.6381083"><ele>562.0</ele><time>2026-04-19T12:03:04.625Z</time></trkpt><trkpt lat="43.34544" lon="11.6379967"><ele>560.0</ele><time>2026-04-19T12:03:05.625Z</time></trkpt><trkpt lat="43.3452917" lon="11.6378767"><ele>558.0</ele><time>2026-04-19T12:03:06.625Z</time></trkpt><trkpt lat="43.3451467" lon="11.637755"><ele>556.0</ele><time>2026-04-19T12:03:07.626Z</time></trkpt><trkpt lat="43.3449983" lon="11.637645"><ele>555.6666666666667</ele><time>2026-04-19T12:03:08.625Z</time></trkpt><trkpt lat="43.3448533" lon="11.63754"><ele>555.3333333333334</ele><time>2026-04-19T12:03:09.625Z</time></trkpt><trkpt lat="43.344695" lon="11.63744"><ele>555.0</ele><time>2026-04-19T12:03:10.625Z</time></trkpt><trkpt lat="43.3445517" lon="11.63737"><ele>553.6666666666666</ele><time>2026-04-19T12:03:11.625Z</time></trkpt><trkpt lat="43.3444" lon="11.637325"><ele>552.3333333333333</ele><time>2026-04-19T12:03:12.625Z</time></trkpt><trkpt lat="43.344115" lon="11.6372517"><ele>551.0</ele><time>2026-04-19T12:03:14.625Z</time></trkpt><trkpt lat="43.34398" lon="11.6371967"><ele>549.0</ele><time>2026-04-19T12:03:15.625Z</time></trkpt><trkpt lat="43.34387" lon="11.6371117"><ele>547.0</ele><time>2026-04-19T12:03:16.625Z</time></trkpt><trkpt lat="43.34379" lon="11.6369933"><ele>545.0</ele><time>2026-04-19T12:03:17.626Z</time></trkpt><trkpt lat="43.3437317" lon="11.6368417"><ele>543.0</ele><time>2026-04-19T12:03:18.625Z</time></trkpt><trkpt lat="43.3437017" lon="11.6366683"><ele>543.0</ele><time>2026-04-19T12:03:19.626Z</time></trkpt><trkpt lat="43.3436917" lon="11.636495"><ele>543.0</ele><time>2026-04-19T12:03:20.625Z</time></trkpt><trkpt lat="43.343715" lon="11.6363183"><ele>543.0</ele><time>2026-04-19T12:03:21.626Z</time></trkpt><trkpt lat="43.3437817" lon="11.6361483"><ele>543.0</ele><time>2026-04-19T12:03:22.625Z</time></trkpt><trkpt lat="43.3438833" lon="11.635995"><ele>544.6666666666666</ele><time>2026-04-19T12:03:23.625Z</time></trkpt><trkpt lat="43.3439983" lon="11.6358583"><ele>546.3333333333333</ele><time>2026-04-19T12:03:24.625Z</time></trkpt><trkpt lat="43.3441167" lon="11.6357233"><ele>548.0</ele><time>2026-04-19T12:03:25.626Z</time></trkpt><trkpt lat="43.3442267" lon="11.6355567"><ele>548.0</ele><time>2026-04-19T12:03:26.625Z</time></trkpt><trkpt lat="43.3443333" lon="11.6354"><ele>548.0</ele><time>2026-04-19T12:03:27.625Z</time></trkpt><trkpt lat="43.3444183" lon="11.6352667"><ele>548.0</ele><time>2026-04-19T12:03:28.625Z</time></trkpt><trkpt lat="43.3444717" lon="11.635145"><ele>548.0</ele><time>2026-04-19T12:03:29.625Z</time></trkpt><trkpt lat="43.3444883" lon="11.6350083"><ele>546.25</ele><time>2026-04-19T12:03:30.625Z</time></trkpt><trkpt lat="43.3444733" lon="11.63485"><ele>544.5</ele><time>2026-04-19T12:03:31.625Z</time></trkpt><trkpt lat="43.3444283" lon="11.63468"><ele>542.75</ele><time>2026-04-19T12:03:32.625Z</time></trkpt><trkpt lat="43.3443617" lon="11.6345117"><ele>541.0</ele><time>2026-04-19T12:03:33.626Z</time></trkpt><trkpt lat="43.3442967" lon="11.6343333"><ele>539.5</ele><time>2026-04-19T12:03:34.626Z</time></trkpt><trkpt lat="43.3442483" lon="11.6341367"><ele>538.0</ele><time>2026-04-19T12:03:35.625Z</time></trkpt><trkpt lat="43.3442083" lon="11.633945"><ele>536.5</ele><time>2026-04-19T12:03:36.626Z</time></trkpt><trkpt lat="43.3441833" lon="11.6337517"><ele>535.0</ele><time>2026-04-19T12:03:37.625Z</time></trkpt><trkpt lat="43.344175" lon="11.63355"><ele>533.0</ele><time>2026-04-19T12:03:38.626Z</time></trkpt><trkpt lat="43.3441967" lon="11.633345"><ele>531.0</ele><time>2026-04-19T12:03:39.626Z</time></trkpt><trkpt lat="43.344225" lon="11.6331433"><ele>529.0</ele><time>2026-04-19T12:03:40.625Z</time></trkpt><trkpt lat="43.3442633" lon="11.6329283"><ele>528.3333333333334</ele><time>2026-04-19T12:03:41.626Z</time></trkpt><trkpt lat="43.34431" lon="11.632715"><ele>527.6666666666666</ele><time>2026-04-19T12:03:42.625Z</time></trkpt><trkpt lat="43.344345" lon="11.6324983"><ele>527.0</ele><time>2026-04-19T12:03:43.625Z</time></trkpt><trkpt lat="43.3443833" lon="11.6322767"><ele>527.0</ele><time>2026-04-19T12:03:44.625Z</time></trkpt><trkpt lat="43.34444" lon="11.6320517"><ele>527.0</ele><time>2026-04-19T12:03:45.625Z</time></trkpt><trkpt lat="43.3444867" lon="11.63182"><ele>527.0</ele><time>2026-04-19T12:03:46.626Z</time></trkpt><trkpt lat="43.3445433" lon="11.6315883"><ele>526.6666666666666</ele><time>2026-04-19T12:03:47.625Z</time></trkpt><trkpt lat="43.34458" lon="11.6313667"><ele>526.3333333333334</ele><time>2026-04-19T12:03:48.625Z</time></trkpt><trkpt lat="43.3446133" lon="11.631165"><ele>526.0</ele><time>2026-04-19T12:03:49.626Z</time></trkpt><trkpt lat="43.3446583" lon="11.630975"><ele>523.6666666666667</ele><time>2026-04-19T12:03:50.626Z</time></trkpt><trkpt lat="43.3447167" lon="11.6307933"><ele>521.3333333333334</ele><time>2026-04-19T12:03:51.625Z</time></trkpt><trkpt lat="43.3448" lon="11.6306133"><ele>519.0</ele><time>2026-04-19T12:03:52.625Z</time></trkpt><trkpt lat="43.3449067" lon="11.6304433"><ele>518.0</ele><time>2026-04-19T12:03:53.626Z</time></trkpt><trkpt lat="43.3450183" lon="11.63027"><ele>517.0</ele><time>2026-04-19T12:03:54.625Z</time></trkpt><trkpt lat="43.34514" lon="11.63008"><ele>516.0</ele><time>2026-04-19T12:03:55.625Z</time></trkpt><trkpt lat="43.3452583" lon="11.629895"><ele>516.0</ele><time>2026-04-19T12:03:56.625Z</time></trkpt><trkpt lat="43.3453817" lon="11.6297117"><ele>516.0</ele><time>2026-04-19T12:03:57.626Z</time></trkpt><trkpt lat="43.3454933" lon="11.6295333"><ele>516.0</ele><time>2026-04-19T12:03:58.626Z</time></trkpt><trkpt lat="43.3455967" lon="11.6293617"><ele>516.0</ele><time>2026-04-19T12:03:59.625Z</time></trkpt><trkpt lat="43.3456833" lon="11.6291867"><ele>516.0</ele><time>2026-04-19T12:04:00.625Z</time></trkpt><trkpt lat="43.345745" lon="11.6290017"><ele>516.0</ele><time>2026-04-19T12:04:01.626Z</time></trkpt><trkpt lat="43.345785" lon="11.6288117"><ele>516.0</ele><time>2026-04-19T12:04:02.625Z</time></trkpt><trkpt lat="43.3458067" lon="11.6286133"><ele>517.25</ele><time>2026-04-19T12:04:03.625Z</time></trkpt><trkpt lat="43.3458333" lon="11.6284317"><ele>518.5</ele><time>2026-04-19T12:04:04.625Z</time></trkpt><trkpt lat="43.3458667" lon="11.628265"><ele>519.75</ele><time>2026-04-19T12:04:05.626Z</time></trkpt><trkpt lat="43.3459283" lon="11.6281317"><ele>521.0</ele><time>2026-04-19T12:04:06.625Z</time></trkpt><trkpt lat="43.3460167" lon="11.628035"><ele>521.0</ele><time>2026-04-19T12:04:07.625Z</time></trkpt><trkpt lat="43.346135" lon="11.6279517"><ele>521.0</ele><time>2026-04-19T12:04:08.626Z</time></trkpt><trkpt lat="43.34626" lon="11.62787"><ele>521.0</ele><time>2026-04-19T12:04:09.626Z</time></trkpt><trkpt lat="43.34638" lon="11.6277883"><ele>521.0</ele><time>2026-04-19T12:04:10.626Z</time></trkpt><trkpt lat="43.3465167" lon="11.62769"><ele>518.6666666666666</ele><time>2026-04-19T12:04:11.626Z</time></trkpt><trkpt lat="43.34664" lon="11.62756"><ele>516.3333333333334</ele><time>2026-04-19T12:04:12.625Z</time></trkpt><trkpt lat="43.346765" lon="11.6274183"><ele>514.0</ele><time>2026-04-19T12:04:13.626Z</time></trkpt><trkpt lat="43.3468933" lon="11.6272683"><ele>514.0</ele><time>2026-04-19T12:04:14.625Z</time></trkpt><trkpt lat="43.3470033" lon="11.627115"><ele>514.0</ele><time>2026-04-19T12:04:15.625Z</time></trkpt><trkpt lat="43.34709" lon="11.62694"><ele>514.0</ele><time>2026-04-19T12:04:16.626Z</time></trkpt><trkpt lat="43.3471633" lon="11.6267783"><ele>514.0</ele><time>2026-04-19T12:04:17.626Z</time></trkpt><trkpt lat="43.3472267" lon="11.6266267"><ele>513.75</ele><time>2026-04-19T12:04:18.625Z</time></trkpt><trkpt lat="43.347285" lon="11.6264933"><ele>513.5</ele><time>2026-04-19T12:04:19.626Z</time></trkpt><trkpt lat="43.3473633" lon="11.6263833"><ele>513.25</ele><time>2026-04-19T12:04:20.625Z</time></trkpt><trkpt lat="43.3474733" lon="11.6262917"><ele>513.0</ele><time>2026-04-19T12:04:21.625Z</time></trkpt><trkpt lat="43.34759" lon="11.6262133"><ele>510.66666666666663</ele><time>2026-04-19T12:04:22.625Z</time></trkpt><trkpt lat="43.347725" lon="11.626115"><ele>508.3333333333333</ele><time>2026-04-19T12:04:23.626Z</time></trkpt><trkpt lat="43.3478633" lon="11.626015"><ele>506.0</ele><time>2026-04-19T12:04:24.626Z</time></trkpt><trkpt lat="43.348" lon="11.625915"><ele>506.0</ele><time>2026-04-19T12:04:25.625Z</time></trkpt><trkpt lat="43.348135" lon="11.6258233"><ele>506.0</ele><time>2026-04-19T12:04:26.626Z</time></trkpt><trkpt lat="43.3482733" lon="11.6257333"><ele>506.0</ele><time>2026-04-19T12:04:27.625Z</time></trkpt><trkpt lat="43.3483933" lon="11.6256467"><ele>506.0</ele><time>2026-04-19T12:04:28.626Z</time></trkpt><trkpt lat="43.3485083" lon="11.6255667"><ele>506.0</ele><time>2026-04-19T12:04:29.626Z</time></trkpt><trkpt lat="43.3486133" lon="11.6254867"><ele>506.0</ele><time>2026-04-19T12:04:30.626Z</time></trkpt><trkpt lat="43.3487033" lon="11.6253917"><ele>506.0</ele><time>2026-04-19T12:04:31.626Z</time></trkpt><trkpt lat="43.34878" lon="11.62527"><ele>506.0</ele><time>2026-04-19T12:04:32.626Z</time></trkpt><trkpt lat="43.348835" lon="11.6251383"><ele>506.75</ele><time>2026-04-19T12:04:33.625Z</time></trkpt><trkpt lat="43.3488633" lon="11.6249917"><ele>507.5</ele><time>2026-04-19T12:04:34.626Z</time></trkpt><trkpt lat="43.3488767" lon="11.6248317"><ele>508.25</ele><time>2026-04-19T12:04:35.626Z</time></trkpt><trkpt lat="43.348885" lon="11.6246733"><ele>509.0</ele><time>2026-04-19T12:04:36.625Z</time></trkpt><trkpt lat="43.3488967" lon="11.624505"><ele>505.5</ele><time>2026-04-19T12:04:37.626Z</time></trkpt><trkpt lat="43.34893" lon="11.6243567"><ele>502.0</ele><time>2026-04-19T12:04:38.625Z</time></trkpt><trkpt lat="43.3489867" lon="11.6242067"><ele>498.5</ele><time>2026-04-19T12:04:39.626Z</time></trkpt><trkpt lat="43.3490567" lon="11.6240883"><ele>495.0</ele><time>2026-04-19T12:04:40.625Z</time></trkpt><trkpt lat="43.349135" lon="11.6239633"><ele>495.0</ele><time>2026-04-19T12:04:41.625Z</time></trkpt><trkpt lat="43.3492067" lon="11.6238417"><ele>495.0</ele><time>2026-04-19T12:04:42.626Z</time></trkpt><trkpt lat="43.3492817" lon="11.6237217"><ele>495.0</ele><time>2026-04-19T12:04:43.625Z</time></trkpt><trkpt lat="43.3493417" lon="11.6235917"><ele>495.0</ele><time>2026-04-19T12:04:44.626Z</time></trkpt><trkpt lat="43.3493767" lon="11.62346"><ele>495.0</ele><time>2026-04-19T12:04:45.626Z</time></trkpt><trkpt lat="43.3493933" lon="11.62329"><ele>494.0</ele><time>2026-04-19T12:04:46.626Z</time></trkpt><trkpt lat="43.3494083" lon="11.6230783"><ele>493.0</ele><time>2026-04-19T12:04:47.625Z</time></trkpt><trkpt lat="43.3494233" lon="11.6228383"><ele>492.0</ele><time>2026-04-19T12:04:48.625Z</time></trkpt><trkpt lat="43.3494483" lon="11.6225817"><ele>489.66666666666663</ele><time>2026-04-19T12:04:49.625Z</time></trkpt><trkpt lat="43.3494783" lon="11.6223067"><ele>487.3333333333333</ele><time>2026-04-19T12:04:50.625Z</time></trkpt><trkpt lat="43.3495133" lon="11.6220283"><ele>485.0</ele><time>2026-04-19T12:04:51.625Z</time></trkpt><trkpt lat="43.3495433" lon="11.621745"><ele>483.66666666666663</ele><time>2026-04-19T12:04:52.625Z</time></trkpt><trkpt lat="43.3495733" lon="11.6214683"><ele>482.33333333333337</ele><time>2026-04-19T12:04:53.625Z</time></trkpt><trkpt lat="43.3496033" lon="11.6211967"><ele>481.0</ele><time>2026-04-19T12:04:54.625Z</time></trkpt><trkpt lat="43.349635" lon="11.620925"><ele>481.0</ele><time>2026-04-19T12:04:55.626Z</time></trkpt><trkpt lat="43.34966" lon="11.6206617"><ele>481.0</ele><time>2026-04-19T12:04:56.625Z</time></trkpt><trkpt lat="43.3496867" lon="11.6204033"><ele>481.0</ele><time>2026-04-19T12:04:57.626Z</time></trkpt><trkpt lat="43.3497133" lon="11.6201583"><ele>483.6666666666667</ele><time>2026-04-19T12:04:58.626Z</time></trkpt><trkpt lat="43.3497517" lon="11.6199083"><ele>486.33333333333337</ele><time>2026-04-19T12:04:59.625Z</time></trkpt><trkpt lat="43.3497917" lon="11.6196567"><ele>489.0</ele><time>2026-04-19T12:05:00.625Z</time></trkpt><trkpt lat="43.349815" lon="11.6194133"><ele>489.66666666666663</ele><time>2026-04-19T12:05:01.625Z</time></trkpt><trkpt lat="43.3498433" lon="11.619185"><ele>490.3333333333333</ele><time>2026-04-19T12:05:02.625Z</time></trkpt><trkpt lat="43.3498767" lon="11.6189817"><ele>491.0</ele><time>2026-04-19T12:05:03.625Z</time></trkpt><trkpt lat="43.3499117" lon="11.6187683"><ele>492.66666666666663</ele><time>2026-04-19T12:05:04.626Z</time></trkpt><trkpt lat="43.3499667" lon="11.6185617"><ele>494.33333333333337</ele><time>2026-04-19T12:05:05.625Z</time></trkpt><trkpt lat="43.35002" lon="11.6183567"><ele>496.0</ele><time>2026-04-19T12:05:06.625Z</time></trkpt><trkpt lat="43.3500833" lon="11.6181567"><ele>496.0</ele><time>2026-04-19T12:05:07.625Z</time></trkpt><trkpt lat="43.3501283" lon="11.617965"><ele>496.0</ele><time>2026-04-19T12:05:08.626Z</time></trkpt><trkpt lat="43.350175" lon="11.61779"><ele>496.0</ele><time>2026-04-19T12:05:09.626Z</time></trkpt><trkpt lat="43.3502017" lon="11.617595"><ele>496.0</ele><time>2026-04-19T12:05:10.626Z</time></trkpt><trkpt lat="43.3502183" lon="11.61739"><ele>496.33333333333337</ele><time>2026-04-19T12:05:11.625Z</time></trkpt><trkpt lat="43.3502167" lon="11.6171783"><ele>496.66666666666663</ele><time>2026-04-19T12:05:12.625Z</time></trkpt><trkpt lat="43.3502067" lon="11.6169633"><ele>497.0</ele><time>2026-04-19T12:05:13.626Z</time></trkpt><trkpt lat="43.3501817" lon="11.6167433"><ele>495.66666666666663</ele><time>2026-04-19T12:05:14.626Z</time></trkpt><trkpt lat="43.3501367" lon="11.6165167"><ele>494.33333333333337</ele><time>2026-04-19T12:05:15.625Z</time></trkpt><trkpt lat="43.3500933" lon="11.616295"><ele>493.0</ele><time>2026-04-19T12:05:16.625Z</time></trkpt><trkpt lat="43.350035" lon="11.61608"><ele>493.0</ele><time>2026-04-19T12:05:17.625Z</time></trkpt><trkpt lat="43.3499683" lon="11.6158667"><ele>493.0</ele><time>2026-04-19T12:05:18.626Z</time></trkpt><trkpt lat="43.3499083" lon="11.6156867"><ele>493.0</ele><time>2026-04-19T12:05:19.625Z</time></trkpt><trkpt lat="43.3498583" lon="11.6155433"><ele>493.0</ele><time>2026-04-19T12:05:20.625Z</time></trkpt><trkpt lat="43.3498133" lon="11.615425"><ele>493.0</ele><time>2026-04-19T12:05:21.625Z</time></trkpt><trkpt lat="43.3497817" lon="11.6153317"><ele>492.99999999999994</ele><time>2026-04-19T12:05:22.626Z</time></trkpt><trkpt lat="43.3497533" lon="11.61517"><ele>492.99999999999994</ele><time>2026-04-19T12:05:24.625Z</time></trkpt><trkpt lat="43.3497517" lon="11.615075"><ele>493.0</ele><time>2026-04-19T12:05:25.626Z</time></trkpt><trkpt lat="43.34975" lon="11.6149583"><ele>493.0</ele><time>2026-04-19T12:05:26.625Z</time></trkpt><trkpt lat="43.3497483" lon="11.614815"><ele>492.0</ele><time>2026-04-19T12:05:27.625Z</time></trkpt><trkpt lat="43.349745" lon="11.614665"><ele>490.99999999999994</ele><time>2026-04-19T12:05:28.625Z</time></trkpt><trkpt lat="43.34975" lon="11.6145233"><ele>489.99999999999994</ele><time>2026-04-19T12:05:29.625Z</time></trkpt><trkpt lat="43.3497567" lon="11.6143967"><ele>489.0</ele><time>2026-04-19T12:05:30.625Z</time></trkpt><trkpt lat="43.3497567" lon="11.6142733"><ele>488.0</ele><time>2026-04-19T12:05:31.625Z</time></trkpt><trkpt lat="43.3497533" lon="11.6141467"><ele>488.4</ele><time>2026-04-19T12:05:32.625Z</time></trkpt><trkpt lat="43.34972" lon="11.6140033"><ele>488.79999999999995</ele><time>2026-04-19T12:05:33.625Z</time></trkpt><trkpt lat="43.34968" lon="11.6138633"><ele>489.2</ele><time>2026-04-19T12:05:34.625Z</time></trkpt><trkpt lat="43.3496417" lon="11.613735"><ele>489.6</ele><time>2026-04-19T12:05:35.625Z</time></trkpt><trkpt lat="43.3496033" lon="11.6136117"><ele>490.0</ele><time>2026-04-19T12:05:36.626Z</time></trkpt><trkpt lat="43.3495717" lon="11.6134983"><ele>490.1666666666667</ele><time>2026-04-19T12:05:37.626Z</time></trkpt><trkpt lat="43.3495467" lon="11.613395"><ele>490.33333333333337</ele><time>2026-04-19T12:05:38.625Z</time></trkpt><trkpt lat="43.349535" lon="11.6132867"><ele>490.5</ele><time>2026-04-19T12:05:39.626Z</time></trkpt><trkpt lat="43.3495417" lon="11.6131733"><ele>490.66666666666663</ele><time>2026-04-19T12:05:40.626Z</time></trkpt><trkpt lat="43.34956" lon="11.61306"><ele>490.8333333333333</ele><time>2026-04-19T12:05:41.625Z</time></trkpt><trkpt lat="43.3495833" lon="11.612935"><ele>491.0</ele><time>2026-04-19T12:05:42.626Z</time></trkpt><trkpt lat="43.3496117" lon="11.6128033"><ele>489.8</ele><time>2026-04-19T12:05:43.625Z</time></trkpt><trkpt lat="43.34964" lon="11.61267"><ele>488.6</ele><time>2026-04-19T12:05:44.625Z</time></trkpt><trkpt lat="43.34967" lon="11.612525"><ele>487.4</ele><time>2026-04-19T12:05:45.626Z</time></trkpt><trkpt lat="43.3497" lon="11.6123833"><ele>486.2</ele><time>2026-04-19T12:05:46.625Z</time></trkpt><trkpt lat="43.34974" lon="11.6122533"><ele>485.0</ele><time>2026-04-19T12:05:47.626Z</time></trkpt><trkpt lat="43.3497833" lon="11.6121317"><ele>483.99999999999994</ele><time>2026-04-19T12:05:48.625Z</time></trkpt><trkpt lat="43.3498233" lon="11.612015"><ele>483.0</ele><time>2026-04-19T12:05:49.626Z</time></trkpt><trkpt lat="43.3498717" lon="11.611905"><ele>482.0</ele><time>2026-04-19T12:05:50.626Z</time></trkpt><trkpt lat="43.3499183" lon="11.611805"><ele>481.0</ele><time>2026-04-19T12:05:51.625Z</time></trkpt><trkpt lat="43.3499767" lon="11.611715"><ele>479.99999999999994</ele><time>2026-04-19T12:05:52.625Z</time></trkpt><trkpt lat="43.3500483" lon="11.611645"><ele>479.0</ele><time>2026-04-19T12:05:53.625Z</time></trkpt><trkpt lat="43.3501267" lon="11.6115917"><ele>478.4</ele><time>2026-04-19T12:05:54.625Z</time></trkpt><trkpt lat="43.35021" lon="11.61154"><ele>477.79999999999995</ele><time>2026-04-19T12:05:55.625Z</time></trkpt><trkpt lat="43.3503033" lon="11.611485"><ele>477.20000000000005</ele><time>2026-04-19T12:05:56.625Z</time></trkpt><trkpt lat="43.3504017" lon="11.6114333"><ele>476.6</ele><time>2026-04-19T12:05:57.625Z</time></trkpt><trkpt lat="43.3505083" lon="11.611385"><ele>476.0</ele><time>2026-04-19T12:05:58.625Z</time></trkpt><trkpt lat="43.3506217" lon="11.6113333"><ele>474.25</ele><time>2026-04-19T12:05:59.625Z</time></trkpt><trkpt lat="43.3507433" lon="11.611265"><ele>472.5</ele><time>2026-04-19T12:06:00.625Z</time></trkpt><trkpt lat="43.3508533" lon="11.611195"><ele>470.75</ele><time>2026-04-19T12:06:01.625Z</time></trkpt><trkpt lat="43.3509667" lon="11.6111367"><ele>469.0</ele><time>2026-04-19T12:06:02.626Z</time></trkpt><trkpt lat="43.3510667" lon="11.6110767"><ele>468.2</ele><time>2026-04-19T12:06:03.626Z</time></trkpt><trkpt lat="43.35117" lon="11.6110133"><ele>467.4</ele><time>2026-04-19T12:06:04.625Z</time></trkpt><trkpt lat="43.351265" lon="11.6109583"><ele>466.6</ele><time>2026-04-19T12:06:05.626Z</time></trkpt><trkpt lat="43.3513483" lon="11.6108833"><ele>465.8</ele><time>2026-04-19T12:06:06.626Z</time></trkpt><trkpt lat="43.351425" lon="11.6107983"><ele>465.0</ele><time>2026-04-19T12:06:07.626Z</time></trkpt><trkpt lat="43.3514933" lon="11.610695"><ele>465.0</ele><time>2026-04-19T12:06:08.625Z</time></trkpt><trkpt lat="43.3515683" lon="11.6105733"><ele>465.0</ele><time>2026-04-19T12:06:09.625Z</time></trkpt><trkpt lat="43.35164" lon="11.6104517"><ele>465.0</ele><time>2026-04-19T12:06:10.626Z</time></trkpt><trkpt lat="43.3517117" lon="11.61033"><ele>465.0</ele><time>2026-04-19T12:06:11.625Z</time></trkpt><trkpt lat="43.3517783" lon="11.6101917"><ele>465.2</ele><time>2026-04-19T12:06:12.625Z</time></trkpt><trkpt lat="43.3518217" lon="11.6100583"><ele>465.4</ele><time>2026-04-19T12:06:13.625Z</time></trkpt><trkpt lat="43.3518583" lon="11.6099217"><ele>465.6</ele><time>2026-04-19T12:06:14.625Z</time></trkpt><trkpt lat="43.3518867" lon="11.6097883"><ele>465.8</ele><time>2026-04-19T12:06:15.625Z</time></trkpt><trkpt lat="43.3519133" lon="11.6096467"><ele>466.0</ele><time>2026-04-19T12:06:16.626Z</time></trkpt><trkpt lat="43.3519417" lon="11.60948"><ele>466.4</ele><time>2026-04-19T12:06:17.625Z</time></trkpt><trkpt lat="43.3519733" lon="11.609325"><ele>466.8</ele><time>2026-04-19T12:06:18.625Z</time></trkpt><trkpt lat="43.352005" lon="11.6091967"><ele>467.19999999999993</ele><time>2026-04-19T12:06:19.626Z</time></trkpt><trkpt lat="43.3520433" lon="11.6090767"><ele>467.59999999999997</ele><time>2026-04-19T12:06:20.626Z</time></trkpt><trkpt lat="43.3521" lon="11.60896"><ele>468.0</ele><time>2026-04-19T12:06:21.625Z</time></trkpt><trkpt lat="43.3521717" lon="11.6088533"><ele>467.8333333333333</ele><time>2026-04-19T12:06:22.625Z</time></trkpt><trkpt lat="43.3522433" lon="11.6087517"><ele>467.66666666666663</ele><time>2026-04-19T12:06:23.625Z</time></trkpt><trkpt lat="43.352305" lon="11.6086617"><ele>467.5</ele><time>2026-04-19T12:06:24.625Z</time></trkpt><trkpt lat="43.3523487" lon="11.6085676"><ele>467.3333333333333</ele><time>2026-04-19T12:06:25.625Z</time></trkpt><trkpt lat="43.3523755" lon="11.608473"><ele>467.16666666666663</ele><time>2026-04-19T12:06:26.625Z</time></trkpt><trkpt lat="43.3523871" lon="11.6083635"><ele>467.0</ele><time>2026-04-19T12:06:27.625Z</time></trkpt><trkpt lat="43.3523792" lon="11.6082393"><ele>467.6</ele><time>2026-04-19T12:06:28.625Z</time></trkpt><trkpt lat="43.3523467" lon="11.608115"><ele>468.20000000000005</ele><time>2026-04-19T12:06:29.625Z</time></trkpt><trkpt lat="43.3523133" lon="11.608"><ele>468.8</ele><time>2026-04-19T12:06:30.625Z</time></trkpt><trkpt lat="43.3522733" lon="11.60788"><ele>469.4</ele><time>2026-04-19T12:06:31.626Z</time></trkpt><trkpt lat="43.3522283" lon="11.6077633"><ele>470.0</ele><time>2026-04-19T12:06:32.625Z</time></trkpt><trkpt lat="43.3521833" lon="11.60764"><ele>472.0</ele><time>2026-04-19T12:06:33.625Z</time></trkpt><trkpt lat="43.352145" lon="11.6075167"><ele>474.0</ele><time>2026-04-19T12:06:34.625Z</time></trkpt><trkpt lat="43.3520983" lon="11.6074"><ele>476.0</ele><time>2026-04-19T12:06:35.625Z</time></trkpt><trkpt lat="43.3520433" lon="11.6072667"><ele>478.0</ele><time>2026-04-19T12:06:36.626Z</time></trkpt><trkpt lat="43.35201" lon="11.607125"><ele>480.0</ele><time>2026-04-19T12:06:37.625Z</time></trkpt><trkpt lat="43.35198" lon="11.6069817"><ele>481.0</ele><time>2026-04-19T12:06:38.625Z</time></trkpt><trkpt lat="43.35195" lon="11.6068517"><ele>482.0</ele><time>2026-04-19T12:06:39.626Z</time></trkpt><trkpt lat="43.3519217" lon="11.6067367"><ele>483.0</ele><time>2026-04-19T12:06:40.624Z</time></trkpt><trkpt lat="43.351915" lon="11.6066267"><ele>484.0</ele><time>2026-04-19T12:06:41.625Z</time></trkpt><trkpt lat="43.3519317" lon="11.6065233"><ele>485.0</ele><time>2026-04-19T12:06:42.625Z</time></trkpt><trkpt lat="43.3519617" lon="11.6064167"><ele>486.0</ele><time>2026-04-19T12:06:43.624Z</time></trkpt><trkpt lat="43.35201" lon="11.6063317"><ele>486.0</ele><time>2026-04-19T12:06:44.625Z</time></trkpt><trkpt lat="43.3520817" lon="11.606265"><ele>486.0</ele><time>2026-04-19T12:06:45.624Z</time></trkpt><trkpt lat="43.3521717" lon="11.6062167"><ele>486.0</ele><time>2026-04-19T12:06:46.625Z</time></trkpt><trkpt lat="43.3522733" lon="11.6061667"><ele>486.0</ele><time>2026-04-19T12:06:47.625Z</time></trkpt><trkpt lat="43.3523767" lon="11.6061333"><ele>486.0</ele><time>2026-04-19T12:06:48.625Z</time></trkpt><trkpt lat="43.352475" lon="11.60613"><ele>487.0</ele><time>2026-04-19T12:06:49.625Z</time></trkpt><trkpt lat="43.3525683" lon="11.6061417"><ele>488.0</ele><time>2026-04-19T12:06:50.624Z</time></trkpt><trkpt lat="43.3526667" lon="11.6061517"><ele>489.0</ele><time>2026-04-19T12:06:51.624Z</time></trkpt><trkpt lat="43.3527483" lon="11.6061467"><ele>490.0</ele><time>2026-04-19T12:06:52.624Z</time></trkpt><trkpt lat="43.3528183" lon="11.6061217"><ele>491.0</ele><time>2026-04-19T12:06:53.625Z</time></trkpt><trkpt lat="43.3528767" lon="11.6060783"><ele>492.0</ele><time>2026-04-19T12:06:54.624Z</time></trkpt><trkpt lat="43.3529233" lon="11.60602"><ele>492.00000000000006</ele><time>2026-04-19T12:06:55.624Z</time></trkpt><trkpt lat="43.3529567" lon="11.60594"><ele>492.0</ele><time>2026-04-19T12:06:56.625Z</time></trkpt><trkpt lat="43.3529783" lon="11.605845"><ele>492.00000000000006</ele><time>2026-04-19T12:06:57.624Z</time></trkpt><trkpt lat="43.3529867" lon="11.60575"><ele>492.00000000000006</ele><time>2026-04-19T12:06:58.625Z</time></trkpt><trkpt lat="43.3529917" lon="11.6056467"><ele>492.0</ele><time>2026-04-19T12:06:59.624Z</time></trkpt><trkpt lat="43.3529867" lon="11.6055367"><ele>492.00000000000006</ele><time>2026-04-19T12:07:00.625Z</time></trkpt><trkpt lat="43.3529717" lon="11.6054233"><ele>492.00000000000006</ele><time>2026-04-19T12:07:01.624Z</time></trkpt><trkpt lat="43.352945" lon="11.6053233"><ele>494.0</ele><time>2026-04-19T12:07:02.624Z</time></trkpt><trkpt lat="43.3529167" lon="11.605205"><ele>496.0</ele><time>2026-04-19T12:07:03.624Z</time></trkpt><trkpt lat="43.352875" lon="11.6049717"><ele>498.0</ele><time>2026-04-19T12:07:05.624Z</time></trkpt><trkpt lat="43.3528717" lon="11.6048483"><ele>500.0</ele><time>2026-04-19T12:07:06.624Z</time></trkpt><trkpt lat="43.35288" lon="11.6047167"><ele>500.0</ele><time>2026-04-19T12:07:07.625Z</time></trkpt><trkpt lat="43.3529183" lon="11.604575"><ele>500.0</ele><time>2026-04-19T12:07:08.625Z</time></trkpt><trkpt lat="43.352955" lon="11.6044433"><ele>500.0</ele><time>2026-04-19T12:07:09.624Z</time></trkpt><trkpt lat="43.3529983" lon="11.6043267"><ele>500.0</ele><time>2026-04-19T12:07:10.625Z</time></trkpt><trkpt lat="43.3530417" lon="11.604215"><ele>500.0</ele><time>2026-04-19T12:07:11.624Z</time></trkpt><trkpt lat="43.3530717" lon="11.60411"><ele>500.49999999999994</ele><time>2026-04-19T12:07:12.624Z</time></trkpt><trkpt lat="43.35308" lon="11.60401"><ele>501.0</ele><time>2026-04-19T12:07:13.624Z</time></trkpt><trkpt lat="43.3530433" lon="11.6038567"><ele>501.5</ele><time>2026-04-19T12:07:15.624Z</time></trkpt><trkpt lat="43.3530017" lon="11.6037767"><ele>502.0</ele><time>2026-04-19T12:07:16.624Z</time></trkpt><trkpt lat="43.3529433" lon="11.603705"><ele>502.49999999999994</ele><time>2026-04-19T12:07:17.624Z</time></trkpt><trkpt lat="43.3528867" lon="11.603625"><ele>503.0</ele><time>2026-04-19T12:07:18.625Z</time></trkpt><trkpt lat="43.35283" lon="11.6035383"><ele>503.4</ele><time>2026-04-19T12:07:19.624Z</time></trkpt><trkpt lat="43.352785" lon="11.603385"><ele>503.79999999999995</ele><time>2026-04-19T12:07:21.624Z</time></trkpt><trkpt lat="43.3528017" lon="11.6032967"><ele>504.2</ele><time>2026-04-19T12:07:22.625Z</time></trkpt><trkpt lat="43.35282" lon="11.6031983"><ele>504.6</ele><time>2026-04-19T12:07:23.625Z</time></trkpt><trkpt lat="43.3528583" lon="11.6030867"><ele>505.0</ele><time>2026-04-19T12:07:24.624Z</time></trkpt><trkpt lat="43.352895" lon="11.6029533"><ele>505.8</ele><time>2026-04-19T12:07:25.625Z</time></trkpt><trkpt lat="43.3529267" lon="11.60282"><ele>506.6</ele><time>2026-04-19T12:07:26.624Z</time></trkpt><trkpt lat="43.3529567" lon="11.6027"><ele>507.4</ele><time>2026-04-19T12:07:27.624Z</time></trkpt><trkpt lat="43.3529717" lon="11.6025767"><ele>508.2</ele><time>2026-04-19T12:07:28.625Z</time></trkpt><trkpt lat="43.3529683" lon="11.6024517"><ele>509.0</ele><time>2026-04-19T12:07:29.624Z</time></trkpt><trkpt lat="43.3529517" lon="11.6023167"><ele>509.0</ele><time>2026-04-19T12:07:30.624Z</time></trkpt><trkpt lat="43.352935" lon="11.6021633"><ele>509.0</ele><time>2026-04-19T12:07:31.625Z</time></trkpt><trkpt lat="43.3529183" lon="11.6019983"><ele>509.0</ele><time>2026-04-19T12:07:32.624Z</time></trkpt><trkpt lat="43.3529067" lon="11.601835"><ele>509.0</ele><time>2026-04-19T12:07:33.624Z</time></trkpt><trkpt lat="43.3529033" lon="11.60168"><ele>508.6</ele><time>2026-04-19T12:07:34.624Z</time></trkpt><trkpt lat="43.352895" lon="11.6015317"><ele>508.2</ele><time>2026-04-19T12:07:35.625Z</time></trkpt><trkpt lat="43.3528833" lon="11.6013967"><ele>507.80000000000007</ele><time>2026-04-19T12:07:36.625Z</time></trkpt><trkpt lat="43.352875" lon="11.60128"><ele>507.40000000000003</ele><time>2026-04-19T12:07:37.624Z</time></trkpt><trkpt lat="43.3528733" lon="11.601155"><ele>507.0</ele><time>2026-04-19T12:07:38.624Z</time></trkpt><trkpt lat="43.3528767" lon="11.6010317"><ele>507.0</ele><time>2026-04-19T12:07:39.624Z</time></trkpt><trkpt lat="43.3529017" lon="11.60091"><ele>507.00000000000006</ele><time>2026-04-19T12:07:40.624Z</time></trkpt><trkpt lat="43.3529383" lon="11.6007917"><ele>507.00000000000006</ele><time>2026-04-19T12:07:41.624Z</time></trkpt><trkpt lat="43.352985" lon="11.6006683"><ele>507.0</ele><time>2026-04-19T12:07:42.625Z</time></trkpt><trkpt lat="43.3530433" lon="11.6005467"><ele>507.0</ele><time>2026-04-19T12:07:43.624Z</time></trkpt><trkpt lat="43.3531167" lon="11.600435"><ele>506.40000000000003</ele><time>2026-04-19T12:07:44.624Z</time></trkpt><trkpt lat="43.3531917" lon="11.600325"><ele>505.80000000000007</ele><time>2026-04-19T12:07:45.624Z</time></trkpt><trkpt lat="43.35327" lon="11.6002333"><ele>505.2</ele><time>2026-04-19T12:07:46.625Z</time></trkpt><trkpt lat="43.3533383" lon="11.6001417"><ele>504.6</ele><time>2026-04-19T12:07:47.624Z</time></trkpt><trkpt lat="43.3533867" lon="11.6000517"><ele>504.0</ele><time>2026-04-19T12:07:48.625Z</time></trkpt><trkpt lat="43.3534183" lon="11.5999617"><ele>504.0</ele><time>2026-04-19T12:07:49.625Z</time></trkpt><trkpt lat="43.35344" lon="11.599855"><ele>504.0</ele><time>2026-04-19T12:07:50.625Z</time></trkpt><trkpt lat="43.3534567" lon="11.5997483"><ele>504.0</ele><time>2026-04-19T12:07:51.624Z</time></trkpt><trkpt lat="43.3534617" lon="11.599635"><ele>504.0</ele><time>2026-04-19T12:07:52.624Z</time></trkpt><trkpt lat="43.3534567" lon="11.5995183"><ele>504.0</ele><time>2026-04-19T12:07:53.625Z</time></trkpt><trkpt lat="43.3534333" lon="11.59939"><ele>504.0</ele><time>2026-04-19T12:07:54.624Z</time></trkpt><trkpt lat="43.35341" lon="11.5992733"><ele>502.79999999999995</ele><time>2026-04-19T12:07:55.624Z</time></trkpt><trkpt lat="43.3533883" lon="11.599145"><ele>501.59999999999997</ele><time>2026-04-19T12:07:56.624Z</time></trkpt><trkpt lat="43.3533733" lon="11.5990083"><ele>500.4</ele><time>2026-04-19T12:07:57.624Z</time></trkpt><trkpt lat="43.35336" lon="11.5988667"><ele>499.2</ele><time>2026-04-19T12:07:58.625Z</time></trkpt><trkpt lat="43.3533533" lon="11.5987283"><ele>498.0</ele><time>2026-04-19T12:07:59.625Z</time></trkpt><trkpt lat="43.3533567" lon="11.5986083"><ele>497.0</ele><time>2026-04-19T12:08:00.625Z</time></trkpt><trkpt lat="43.3533667" lon="11.598505"><ele>496.0</ele><time>2026-04-19T12:08:01.624Z</time></trkpt><trkpt lat="43.3533833" lon="11.5984133"><ele>495.0</ele><time>2026-04-19T12:08:02.624Z</time></trkpt><trkpt lat="43.3534333" lon="11.5983283"><ele>494.0</ele><time>2026-04-19T12:08:04.624Z</time></trkpt><trkpt lat="43.353525" lon="11.59831"><ele>493.0</ele><time>2026-04-19T12:08:06.625Z</time></trkpt><trkpt lat="43.3535983" lon="11.5983067"><ele>492.0</ele><time>2026-04-19T12:08:07.624Z</time></trkpt><trkpt lat="43.3537067" lon="11.5983117"><ele>492.0</ele><time>2026-04-19T12:08:08.625Z</time></trkpt><trkpt lat="43.3538233" lon="11.59832"><ele>492.0</ele><time>2026-04-19T12:08:09.625Z</time></trkpt><trkpt lat="43.3539433" lon="11.5983317"><ele>492.0</ele><time>2026-04-19T12:08:10.624Z</time></trkpt><trkpt lat="43.3540583" lon="11.5983417"><ele>492.0</ele><time>2026-04-19T12:08:11.624Z</time></trkpt><trkpt lat="43.3541617" lon="11.598345"><ele>492.40000000000003</ele><time>2026-04-19T12:08:12.624Z</time></trkpt><trkpt lat="43.3542533" lon="11.59831"><ele>492.80000000000007</ele><time>2026-04-19T12:08:13.624Z</time></trkpt><trkpt lat="43.3543467" lon="11.598255"><ele>493.2</ele><time>2026-04-19T12:08:14.624Z</time></trkpt><trkpt lat="43.3544483" lon="11.5981767"><ele>493.6</ele><time>2026-04-19T12:08:15.625Z</time></trkpt><trkpt lat="43.354545" lon="11.5980883"><ele>494.0</ele><time>2026-04-19T12:08:16.624Z</time></trkpt><trkpt lat="43.3546517" lon="11.5980033"><ele>494.0</ele><time>2026-04-19T12:08:17.625Z</time></trkpt><trkpt lat="43.3547483" lon="11.5978983"><ele>494.0</ele><time>2026-04-19T12:08:18.625Z</time></trkpt><trkpt lat="43.354835" lon="11.597815"><ele>494.0</ele><time>2026-04-19T12:08:19.624Z</time></trkpt><trkpt lat="43.3549017" lon="11.597745"><ele>494.0</ele><time>2026-04-19T12:08:20.624Z</time></trkpt><trkpt lat="43.3549617" lon="11.597685"><ele>494.0</ele><time>2026-04-19T12:08:21.624Z</time></trkpt><trkpt lat="43.3550283" lon="11.5976433"><ele>492.8333333333333</ele><time>2026-04-19T12:08:22.625Z</time></trkpt><trkpt lat="43.355085" lon="11.5976"><ele>491.66666666666663</ele><time>2026-04-19T12:08:23.624Z</time></trkpt><trkpt lat="43.3551383" lon="11.5975383"><ele>490.5</ele><time>2026-04-19T12:08:24.624Z</time></trkpt><trkpt lat="43.3551917" lon="11.5974817"><ele>489.33333333333337</ele><time>2026-04-19T12:08:25.624Z</time></trkpt><trkpt lat="43.35525" lon="11.597445"><ele>488.1666666666667</ele><time>2026-04-19T12:08:26.624Z</time></trkpt><trkpt lat="43.3553633" lon="11.59745"><ele>487.0</ele><time>2026-04-19T12:08:28.624Z</time></trkpt><trkpt lat="43.3554567" lon="11.5975567"><ele>487.0</ele><time>2026-04-19T12:08:30.625Z</time></trkpt><trkpt lat="43.3555217" lon="11.5976317"><ele>487.00000000000006</ele><time>2026-04-19T12:08:31.625Z</time></trkpt><trkpt lat="43.355595" lon="11.597715"><ele>487.00000000000006</ele><time>2026-04-19T12:08:32.624Z</time></trkpt><trkpt lat="43.3556633" lon="11.5978033"><ele>487.0</ele><time>2026-04-19T12:08:33.625Z</time></trkpt><trkpt lat="43.3557417" lon="11.5978783"><ele>487.0</ele><time>2026-04-19T12:08:34.625Z</time></trkpt><trkpt lat="43.3558183" lon="11.5979517"><ele>486.83333333333337</ele><time>2026-04-19T12:08:35.624Z</time></trkpt><trkpt lat="43.3558783" lon="11.598015"><ele>486.6666666666667</ele><time>2026-04-19T12:08:36.624Z</time></trkpt><trkpt lat="43.355945" lon="11.5980717"><ele>486.5</ele><time>2026-04-19T12:08:37.625Z</time></trkpt><trkpt lat="43.356005" lon="11.5981167"><ele>486.33333333333337</ele><time>2026-04-19T12:08:38.624Z</time></trkpt><trkpt lat="43.3560683" lon="11.5981467"><ele>486.1666666666667</ele><time>2026-04-19T12:08:39.625Z</time></trkpt><trkpt lat="43.3561983" lon="11.598115"><ele>486.0</ele><time>2026-04-19T12:08:41.625Z</time></trkpt><trkpt lat="43.356285" lon="11.5980533"><ele>485.20000000000005</ele><time>2026-04-19T12:08:42.624Z</time></trkpt><trkpt lat="43.3563817" lon="11.59798"><ele>484.40000000000003</ele><time>2026-04-19T12:08:43.624Z</time></trkpt><trkpt lat="43.356475" lon="11.5979167"><ele>483.6</ele><time>2026-04-19T12:08:44.624Z</time></trkpt><trkpt lat="43.356575" lon="11.59786"><ele>482.8</ele><time>2026-04-19T12:08:45.624Z</time></trkpt><trkpt lat="43.3566667" lon="11.5978017"><ele>482.0</ele><time>2026-04-19T12:08:46.625Z</time></trkpt><trkpt lat="43.3567533" lon="11.597735"><ele>480.8</ele><time>2026-04-19T12:08:47.625Z</time></trkpt><trkpt lat="43.3568333" lon="11.5976783"><ele>479.6</ele><time>2026-04-19T12:08:48.625Z</time></trkpt><trkpt lat="43.3569117" lon="11.5976183"><ele>478.40000000000003</ele><time>2026-04-19T12:08:49.624Z</time></trkpt><trkpt lat="43.3569967" lon="11.5975433"><ele>477.20000000000005</ele><time>2026-04-19T12:08:50.624Z</time></trkpt><trkpt lat="43.3570767" lon="11.5974533"><ele>476.0</ele><time>2026-04-19T12:08:51.625Z</time></trkpt><trkpt lat="43.3571417" lon="11.5973517"><ele>476.0</ele><time>2026-04-19T12:08:52.625Z</time></trkpt><trkpt lat="43.3571983" lon="11.5972633"><ele>476.0</ele><time>2026-04-19T12:08:53.625Z</time></trkpt><trkpt lat="43.357235" lon="11.5971717"><ele>476.0</ele><time>2026-04-19T12:08:54.624Z</time></trkpt><trkpt lat="43.357275" lon="11.5970533"><ele>476.0</ele><time>2026-04-19T12:08:55.624Z</time></trkpt><trkpt lat="43.3573167" lon="11.5969117"><ele>476.0</ele><time>2026-04-19T12:08:56.624Z</time></trkpt><trkpt lat="43.35736" lon="11.5967583"><ele>475.5</ele><time>2026-04-19T12:08:57.625Z</time></trkpt><trkpt lat="43.3574" lon="11.5965983"><ele>475.0</ele><time>2026-04-19T12:08:58.624Z</time></trkpt><trkpt lat="43.3574317" lon="11.59645"><ele>474.5</ele><time>2026-04-19T12:08:59.625Z</time></trkpt><trkpt lat="43.3574667" lon="11.5963117"><ele>474.0</ele><time>2026-04-19T12:09:00.625Z</time></trkpt><trkpt lat="43.3575067" lon="11.5961717"><ele>473.0</ele><time>2026-04-19T12:09:01.624Z</time></trkpt><trkpt lat="43.3575417" lon="11.5960383"><ele>472.0</ele><time>2026-04-19T12:09:02.624Z</time></trkpt><trkpt lat="43.3575833" lon="11.595925"><ele>471.0</ele><time>2026-04-19T12:09:03.624Z</time></trkpt><trkpt lat="43.3576333" lon="11.5958267"><ele>470.0</ele><time>2026-04-19T12:09:04.625Z</time></trkpt><trkpt lat="43.3576983" lon="11.5957483"><ele>469.0</ele><time>2026-04-19T12:09:05.625Z</time></trkpt><trkpt lat="43.3577733" lon="11.5956783"><ele>469.0</ele><time>2026-04-19T12:09:06.625Z</time></trkpt><trkpt lat="43.3578633" lon="11.5955967"><ele>469.0</ele><time>2026-04-19T12:09:07.625Z</time></trkpt><trkpt lat="43.357965" lon="11.5955017"><ele>469.0</ele><time>2026-04-19T12:09:08.625Z</time></trkpt><trkpt lat="43.3580483" lon="11.5954117"><ele>469.0</ele><time>2026-04-19T12:09:09.625Z</time></trkpt><trkpt lat="43.3581183" lon="11.59532"><ele>469.0</ele><time>2026-04-19T12:09:10.624Z</time></trkpt><trkpt lat="43.3581933" lon="11.5952433"><ele>468.6666666666667</ele><time>2026-04-19T12:09:11.624Z</time></trkpt><trkpt lat="43.35826" lon="11.5951733"><ele>468.33333333333337</ele><time>2026-04-19T12:09:12.624Z</time></trkpt><trkpt lat="43.35832" lon="11.595115"><ele>468.0</ele><time>2026-04-19T12:09:13.625Z</time></trkpt><trkpt lat="43.3583817" lon="11.5950767"><ele>467.66666666666663</ele><time>2026-04-19T12:09:14.625Z</time></trkpt><trkpt lat="43.3584583" lon="11.5950567"><ele>467.3333333333333</ele><time>2026-04-19T12:09:15.625Z</time></trkpt><trkpt lat="43.35854" lon="11.5950533"><ele>467.0</ele><time>2026-04-19T12:09:16.625Z</time></trkpt><trkpt lat="43.358625" lon="11.595035"><ele>466.99999999999994</ele><time>2026-04-19T12:09:17.625Z</time></trkpt><trkpt lat="43.3587017" lon="11.5949983"><ele>467.0</ele><time>2026-04-19T12:09:18.624Z</time></trkpt><trkpt lat="43.3587683" lon="11.594945"><ele>467.0</ele><time>2026-04-19T12:09:19.625Z</time></trkpt><trkpt lat="43.3588317" lon="11.5948717"><ele>467.0</ele><time>2026-04-19T12:09:20.625Z</time></trkpt><trkpt lat="43.3588883" lon="11.594775"><ele>466.99999999999994</ele><time>2026-04-19T12:09:21.624Z</time></trkpt><trkpt lat="43.3589333" lon="11.5946533"><ele>467.0</ele><time>2026-04-19T12:09:22.625Z</time></trkpt><trkpt lat="43.3589717" lon="11.5945083"><ele>466.25</ele><time>2026-04-19T12:09:23.624Z</time></trkpt><trkpt lat="43.3590067" lon="11.5943417"><ele>465.5</ele><time>2026-04-19T12:09:24.624Z</time></trkpt><trkpt lat="43.3590417" lon="11.5941683"><ele>464.75</ele><time>2026-04-19T12:09:25.624Z</time></trkpt><trkpt lat="43.3590917" lon="11.5940017"><ele>464.0</ele><time>2026-04-19T12:09:26.625Z</time></trkpt><trkpt lat="43.3591483" lon="11.5938367"><ele>464.0</ele><time>2026-04-19T12:09:27.624Z</time></trkpt><trkpt lat="43.3591967" lon="11.593675"><ele>464.0</ele><time>2026-04-19T12:09:28.625Z</time></trkpt><trkpt lat="43.359235" lon="11.5935283"><ele>464.0</ele><time>2026-04-19T12:09:29.625Z</time></trkpt><trkpt lat="43.3592683" lon="11.5933767"><ele>464.0</ele><time>2026-04-19T12:09:30.624Z</time></trkpt><trkpt lat="43.3593067" lon="11.593235"><ele>462.8333333333333</ele><time>2026-04-19T12:09:31.624Z</time></trkpt><trkpt lat="43.3593433" lon="11.59311"><ele>461.66666666666663</ele><time>2026-04-19T12:09:32.624Z</time></trkpt><trkpt lat="43.359385" lon="11.5929983"><ele>460.5</ele><time>2026-04-19T12:09:33.624Z</time></trkpt><trkpt lat="43.3594417" lon="11.592915"><ele>459.33333333333337</ele><time>2026-04-19T12:09:34.625Z</time></trkpt><trkpt lat="43.3595017" lon="11.59285"><ele>458.1666666666667</ele><time>2026-04-19T12:09:35.624Z</time></trkpt><trkpt lat="43.35957" lon="11.5928133"><ele>457.0</ele><time>2026-04-19T12:09:36.624Z</time></trkpt><trkpt lat="43.359645" lon="11.592785"><ele>456.20000000000005</ele><time>2026-04-19T12:09:37.625Z</time></trkpt><trkpt lat="43.3597317" lon="11.592765"><ele>455.40000000000003</ele><time>2026-04-19T12:09:38.624Z</time></trkpt><trkpt lat="43.35983" lon="11.5927417"><ele>454.59999999999997</ele><time>2026-04-19T12:09:39.624Z</time></trkpt><trkpt lat="43.3599267" lon="11.5927133"><ele>453.79999999999995</ele><time>2026-04-19T12:09:40.625Z</time></trkpt><trkpt lat="43.360015" lon="11.5927033"><ele>453.0</ele><time>2026-04-19T12:09:41.625Z</time></trkpt><trkpt lat="43.3600983" lon="11.592705"><ele>453.0</ele><time>2026-04-19T12:09:42.624Z</time></trkpt><trkpt lat="43.36018" lon="11.592725"><ele>453.0</ele><time>2026-04-19T12:09:43.624Z</time></trkpt><trkpt lat="43.3602567" lon="11.5927533"><ele>453.0</ele><time>2026-04-19T12:09:44.625Z</time></trkpt><trkpt lat="43.3603367" lon="11.5928067"><ele>453.0</ele><time>2026-04-19T12:09:45.625Z</time></trkpt><trkpt lat="43.3604167" lon="11.5928733"><ele>453.0</ele><time>2026-04-19T12:09:46.625Z</time></trkpt><trkpt lat="43.3604867" lon="11.5929367"><ele>453.0</ele><time>2026-04-19T12:09:47.625Z</time></trkpt><trkpt lat="43.36056" lon="11.59298"><ele>455.2</ele><time>2026-04-19T12:09:48.625Z</time></trkpt><trkpt lat="43.3606467" lon="11.5930067"><ele>457.4</ele><time>2026-04-19T12:09:49.625Z</time></trkpt><trkpt lat="43.3607517" lon="11.5930067"><ele>459.59999999999997</ele><time>2026-04-19T12:09:50.625Z</time></trkpt><trkpt lat="43.3608533" lon="11.592995"><ele>461.79999999999995</ele><time>2026-04-19T12:09:51.624Z</time></trkpt><trkpt lat="43.3609517" lon="11.5930117"><ele>464.0</ele><time>2026-04-19T12:09:52.625Z</time></trkpt><trkpt lat="43.361035" lon="11.593055"><ele>464.0</ele><time>2026-04-19T12:09:53.625Z</time></trkpt><trkpt lat="43.3611217" lon="11.5930917"><ele>464.0</ele><time>2026-04-19T12:09:54.625Z</time></trkpt><trkpt lat="43.3612033" lon="11.593165"><ele>464.0</ele><time>2026-04-19T12:09:55.624Z</time></trkpt><trkpt lat="43.3612967" lon="11.593245"><ele>464.0</ele><time>2026-04-19T12:09:56.624Z</time></trkpt><trkpt lat="43.3613733" lon="11.593335"><ele>464.0</ele><time>2026-04-19T12:09:57.624Z</time></trkpt><trkpt lat="43.3614467" lon="11.5934383"><ele>463.4</ele><time>2026-04-19T12:09:58.624Z</time></trkpt><trkpt lat="43.36151" lon="11.5935433"><ele>462.79999999999995</ele><time>2026-04-19T12:09:59.625Z</time></trkpt><trkpt lat="43.3615783" lon="11.59364"><ele>462.20000000000005</ele><time>2026-04-19T12:10:00.624Z</time></trkpt><trkpt lat="43.36166" lon="11.5937033"><ele>461.6</ele><time>2026-04-19T12:10:01.624Z</time></trkpt><trkpt lat="43.3617467" lon="11.59375"><ele>461.0</ele><time>2026-04-19T12:10:02.625Z</time></trkpt><trkpt lat="43.36183" lon="11.5938067"><ele>460.99999999999994</ele><time>2026-04-19T12:10:03.624Z</time></trkpt><trkpt lat="43.3618867" lon="11.593885"><ele>461.0</ele><time>2026-04-19T12:10:04.624Z</time></trkpt><trkpt lat="43.3619333" lon="11.593975"><ele>461.0</ele><time>2026-04-19T12:10:05.624Z</time></trkpt><trkpt lat="43.36196" lon="11.59409"><ele>461.0</ele><time>2026-04-19T12:10:06.624Z</time></trkpt><trkpt lat="43.3619883" lon="11.5941933"><ele>460.99999999999994</ele><time>2026-04-19T12:10:07.625Z</time></trkpt><trkpt lat="43.3620117" lon="11.5943133"><ele>461.0</ele><time>2026-04-19T12:10:08.625Z</time></trkpt><trkpt lat="43.3620517" lon="11.594415"><ele>460.8333333333333</ele><time>2026-04-19T12:10:09.625Z</time></trkpt><trkpt lat="43.362095" lon="11.594505"><ele>460.66666666666663</ele><time>2026-04-19T12:10:10.624Z</time></trkpt><trkpt lat="43.3621433" lon="11.5945717"><ele>460.5</ele><time>2026-04-19T12:10:11.624Z</time></trkpt><trkpt lat="43.362205" lon="11.59462"><ele>460.33333333333337</ele><time>2026-04-19T12:10:12.624Z</time></trkpt><trkpt lat="43.3622833" lon="11.5946517"><ele>460.1666666666667</ele><time>2026-04-19T12:10:13.624Z</time></trkpt><trkpt lat="43.3623683" lon="11.5946483"><ele>460.0</ele><time>2026-04-19T12:10:14.625Z</time></trkpt><trkpt lat="43.362465" lon="11.5946317"><ele>460.0</ele><time>2026-04-19T12:10:15.624Z</time></trkpt><trkpt lat="43.36256" lon="11.5945917"><ele>460.0</ele><time>2026-04-19T12:10:16.624Z</time></trkpt><trkpt lat="43.3626617" lon="11.59454"><ele>460.0</ele><time>2026-04-19T12:10:17.624Z</time></trkpt><trkpt lat="43.3627633" lon="11.5945083"><ele>460.0</ele><time>2026-04-19T12:10:18.624Z</time></trkpt><trkpt lat="43.3628733" lon="11.5944817"><ele>460.0</ele><time>2026-04-19T12:10:19.624Z</time></trkpt><trkpt lat="43.3629833" lon="11.5944767"><ele>457.2</ele><time>2026-04-19T12:10:20.625Z</time></trkpt><trkpt lat="43.36308" lon="11.5944767"><ele>454.4</ele><time>2026-04-19T12:10:21.624Z</time></trkpt><trkpt lat="43.3631733" lon="11.5945067"><ele>451.6</ele><time>2026-04-19T12:10:22.625Z</time></trkpt><trkpt lat="43.3632733" lon="11.5945617"><ele>448.8</ele><time>2026-04-19T12:10:23.624Z</time></trkpt><trkpt lat="43.36336" lon="11.5946083"><ele>446.0</ele><time>2026-04-19T12:10:24.624Z</time></trkpt><trkpt lat="43.363435" lon="11.5946383"><ele>446.0</ele><time>2026-04-19T12:10:25.624Z</time></trkpt><trkpt lat="43.3635283" lon="11.59476"><ele>446.0</ele><time>2026-04-19T12:10:27.625Z</time></trkpt><trkpt lat="43.3635667" lon="11.5948617"><ele>446.0</ele><time>2026-04-19T12:10:28.624Z</time></trkpt><trkpt lat="43.3636" lon="11.5949717"><ele>446.0</ele><time>2026-04-19T12:10:29.624Z</time></trkpt><trkpt lat="43.3636317" lon="11.5950767"><ele>446.0</ele><time>2026-04-19T12:10:30.625Z</time></trkpt><trkpt lat="43.363685" lon="11.5951683"><ele>446.0</ele><time>2026-04-19T12:10:31.624Z</time></trkpt><trkpt lat="43.363735" lon="11.5952633"><ele>446.0</ele><time>2026-04-19T12:10:32.624Z</time></trkpt><trkpt lat="43.3638" lon="11.595325"><ele>446.0</ele><time>2026-04-19T12:10:33.625Z</time></trkpt><trkpt lat="43.3638783" lon="11.5953867"><ele>446.0</ele><time>2026-04-19T12:10:34.624Z</time></trkpt><trkpt lat="43.3639717" lon="11.5954283"><ele>446.0</ele><time>2026-04-19T12:10:35.625Z</time></trkpt><trkpt lat="43.3640717" lon="11.5954783"><ele>443.6</ele><time>2026-04-19T12:10:36.624Z</time></trkpt><trkpt lat="43.364175" lon="11.5955217"><ele>441.20000000000005</ele><time>2026-04-19T12:10:37.624Z</time></trkpt><trkpt lat="43.3642667" lon="11.595545"><ele>438.79999999999995</ele><time>2026-04-19T12:10:38.624Z</time></trkpt><trkpt lat="43.364365" lon="11.595555"><ele>436.4</ele><time>2026-04-19T12:10:39.625Z</time></trkpt><trkpt lat="43.3644633" lon="11.5955383"><ele>434.0</ele><time>2026-04-19T12:10:40.625Z</time></trkpt><trkpt lat="43.36457" lon="11.5955083"><ele>432.75</ele><time>2026-04-19T12:10:41.625Z</time></trkpt><trkpt lat="43.3646967" lon="11.5954683"><ele>431.5</ele><time>2026-04-19T12:10:42.625Z</time></trkpt><trkpt lat="43.3648133" lon="11.59543"><ele>430.25</ele><time>2026-04-19T12:10:43.624Z</time></trkpt><trkpt lat="43.3649483" lon="11.595375"><ele>429.0</ele><time>2026-04-19T12:10:44.624Z</time></trkpt><trkpt lat="43.3650783" lon="11.5953183"><ele>429.0</ele><time>2026-04-19T12:10:45.624Z</time></trkpt><trkpt lat="43.3652083" lon="11.5952567"><ele>429.0</ele><time>2026-04-19T12:10:46.624Z</time></trkpt><trkpt lat="43.3653333" lon="11.595185"><ele>429.0</ele><time>2026-04-19T12:10:47.624Z</time></trkpt><trkpt lat="43.365435" lon="11.595105"><ele>429.0</ele><time>2026-04-19T12:10:48.625Z</time></trkpt><trkpt lat="43.36554" lon="11.5950033"><ele>430.0</ele><time>2026-04-19T12:10:49.624Z</time></trkpt><trkpt lat="43.3656417" lon="11.5948917"><ele>431.0</ele><time>2026-04-19T12:10:50.624Z</time></trkpt><trkpt lat="43.365745" lon="11.5947667"><ele>432.0</ele><time>2026-04-19T12:10:51.624Z</time></trkpt><trkpt lat="43.3658567" lon="11.5946167"><ele>433.0</ele><time>2026-04-19T12:10:52.624Z</time></trkpt><trkpt lat="43.36598" lon="11.59446"><ele>434.0</ele><time>2026-04-19T12:10:53.624Z</time></trkpt><trkpt lat="43.3661067" lon="11.59431"><ele>435.0</ele><time>2026-04-19T12:10:54.624Z</time></trkpt><trkpt lat="43.3662117" lon="11.594175"><ele>436.0</ele><time>2026-04-19T12:10:55.624Z</time></trkpt><trkpt lat="43.366305" lon="11.5940567"><ele>437.0</ele><time>2026-04-19T12:10:56.625Z</time></trkpt><trkpt lat="43.3663917" lon="11.5939467"><ele>437.6</ele><time>2026-04-19T12:10:57.625Z</time></trkpt><trkpt lat="43.3664633" lon="11.5938617"><ele>438.20000000000005</ele><time>2026-04-19T12:10:58.625Z</time></trkpt><trkpt lat="43.3665483" lon="11.593795"><ele>438.8</ele><time>2026-04-19T12:10:59.624Z</time></trkpt><trkpt lat="43.3666383" lon="11.5937533"><ele>439.4</ele><time>2026-04-19T12:11:00.625Z</time></trkpt><trkpt lat="43.3667383" lon="11.5937117"><ele>440.0</ele><time>2026-04-19T12:11:01.625Z</time></trkpt><trkpt lat="43.366845" lon="11.59367"><ele>440.8</ele><time>2026-04-19T12:11:02.624Z</time></trkpt><trkpt lat="43.36695" lon="11.5936083"><ele>441.6</ele><time>2026-04-19T12:11:03.625Z</time></trkpt><trkpt lat="43.3670367" lon="11.5935267"><ele>442.4</ele><time>2026-04-19T12:11:04.624Z</time></trkpt><trkpt lat="43.3670983" lon="11.5934483"><ele>443.2</ele><time>2026-04-19T12:11:05.625Z</time></trkpt><trkpt lat="43.3671633" lon="11.5933567"><ele>444.0</ele><time>2026-04-19T12:11:06.625Z</time></trkpt><trkpt lat="43.3672133" lon="11.5932467"><ele>444.0</ele><time>2026-04-19T12:11:07.625Z</time></trkpt><trkpt lat="43.367245" lon="11.593155"><ele>444.0</ele><time>2026-04-19T12:11:08.625Z</time></trkpt><trkpt lat="43.36726" lon="11.59306"><ele>444.0</ele><time>2026-04-19T12:11:09.624Z</time></trkpt><trkpt lat="43.3672633" lon="11.59297"><ele>444.0</ele><time>2026-04-19T12:11:10.625Z</time></trkpt><trkpt lat="43.3672467" lon="11.5928583"><ele>444.0</ele><time>2026-04-19T12:11:11.624Z</time></trkpt><trkpt lat="43.3672233" lon="11.5927567"><ele>444.0</ele><time>2026-04-19T12:11:12.624Z</time></trkpt><trkpt lat="43.3671617" lon="11.5925233"><ele>445.6</ele><time>2026-04-19T12:11:14.623Z</time></trkpt><trkpt lat="43.36713" lon="11.592395"><ele>447.2</ele><time>2026-04-19T12:11:15.623Z</time></trkpt><trkpt lat="43.36712" lon="11.592265"><ele>448.80000000000007</ele><time>2026-04-19T12:11:16.624Z</time></trkpt><trkpt lat="43.3671333" lon="11.592135"><ele>450.40000000000003</ele><time>2026-04-19T12:11:17.624Z</time></trkpt><trkpt lat="43.367155" lon="11.59199"><ele>452.0</ele><time>2026-04-19T12:11:18.624Z</time></trkpt><trkpt lat="43.36716" lon="11.5918433"><ele>452.40000000000003</ele><time>2026-04-19T12:11:19.623Z</time></trkpt><trkpt lat="43.3671733" lon="11.5916817"><ele>452.80000000000007</ele><time>2026-04-19T12:11:20.624Z</time></trkpt><trkpt lat="43.36718" lon="11.5915233"><ele>453.2</ele><time>2026-04-19T12:11:21.623Z</time></trkpt><trkpt lat="43.367195" lon="11.5913683"><ele>453.6</ele><time>2026-04-19T12:11:22.624Z</time></trkpt><trkpt lat="43.3672183" lon="11.591235"><ele>454.0</ele><time>2026-04-19T12:11:23.623Z</time></trkpt><trkpt lat="43.3672467" lon="11.5911133"><ele>456.2</ele><time>2026-04-19T12:11:24.623Z</time></trkpt><trkpt lat="43.36728" lon="11.5910117"><ele>458.4</ele><time>2026-04-19T12:11:25.624Z</time></trkpt><trkpt lat="43.3673233" lon="11.59093"><ele>460.6</ele><time>2026-04-19T12:11:26.623Z</time></trkpt><trkpt lat="43.36744" lon="11.5908333"><ele>462.8</ele><time>2026-04-19T12:11:28.624Z</time></trkpt><trkpt lat="43.3675183" lon="11.5908133"><ele>465.0</ele><time>2026-04-19T12:11:29.623Z</time></trkpt><trkpt lat="43.3676067" lon="11.590815"><ele>465.0</ele><time>2026-04-19T12:11:30.623Z</time></trkpt><trkpt lat="43.3677067" lon="11.590845"><ele>465.0</ele><time>2026-04-19T12:11:31.624Z</time></trkpt><trkpt lat="43.3678167" lon="11.5908833"><ele>465.0</ele><time>2026-04-19T12:11:32.623Z</time></trkpt><trkpt lat="43.3679317" lon="11.5909183"><ele>465.0</ele><time>2026-04-19T12:11:33.623Z</time></trkpt><trkpt lat="43.3680267" lon="11.5909583"><ele>465.0</ele><time>2026-04-19T12:11:34.624Z</time></trkpt><trkpt lat="43.3681033" lon="11.591005"><ele>464.85714285714283</ele><time>2026-04-19T12:11:35.623Z</time></trkpt><trkpt lat="43.36815" lon="11.5910683"><ele>464.7142857142858</ele><time>2026-04-19T12:11:36.623Z</time></trkpt><trkpt lat="43.3681883" lon="11.59114"><ele>464.5714285714286</ele><time>2026-04-19T12:11:37.623Z</time></trkpt><trkpt lat="43.36824" lon="11.5912133"><ele>464.42857142857144</ele><time>2026-04-19T12:11:38.623Z</time></trkpt><trkpt lat="43.3683" lon="11.5912667"><ele>464.28571428571433</ele><time>2026-04-19T12:11:39.623Z</time></trkpt><trkpt lat="43.36837" lon="11.5912967"><ele>464.1428571428572</ele><time>2026-04-19T12:11:40.623Z</time></trkpt><trkpt lat="43.3684567" lon="11.5912917"><ele>464.00000000000006</ele><time>2026-04-19T12:11:41.623Z</time></trkpt><trkpt lat="43.3685467" lon="11.59126"><ele>463.99999999999994</ele><time>2026-04-19T12:11:42.623Z</time></trkpt><trkpt lat="43.368625" lon="11.591205"><ele>464.0</ele><time>2026-04-19T12:11:43.624Z</time></trkpt><trkpt lat="43.3687" lon="11.5911517"><ele>464.0</ele><time>2026-04-19T12:11:44.623Z</time></trkpt><trkpt lat="43.3687867" lon="11.59111"><ele>464.0</ele><time>2026-04-19T12:11:45.623Z</time></trkpt><trkpt lat="43.36886" lon="11.5910783"><ele>463.99999999999994</ele><time>2026-04-19T12:11:46.623Z</time></trkpt><trkpt lat="43.3689333" lon="11.5910583"><ele>464.0</ele><time>2026-04-19T12:11:47.623Z</time></trkpt><trkpt lat="43.368995" lon="11.5910333"><ele>466.66666666666663</ele><time>2026-04-19T12:11:48.623Z</time></trkpt><trkpt lat="43.3690767" lon="11.5909383"><ele>469.3333333333333</ele><time>2026-04-19T12:11:50.623Z</time></trkpt><trkpt lat="43.3691483" lon="11.5908067"><ele>472.0</ele><time>2026-04-19T12:11:52.623Z</time></trkpt><trkpt lat="43.3692033" lon="11.590735"><ele>474.66666666666663</ele><time>2026-04-19T12:11:53.623Z</time></trkpt><trkpt lat="43.3692667" lon="11.59068"><ele>477.3333333333333</ele><time>2026-04-19T12:11:54.624Z</time></trkpt><trkpt lat="43.369335" lon="11.590655"><ele>480.0</ele><time>2026-04-19T12:11:55.623Z</time></trkpt><trkpt lat="43.3694133" lon="11.5906433"><ele>480.0</ele><time>2026-04-19T12:11:56.623Z</time></trkpt><trkpt lat="43.3695067" lon="11.5906217"><ele>480.0</ele><time>2026-04-19T12:11:57.623Z</time></trkpt><trkpt lat="43.3696017" lon="11.5905733"><ele>480.0</ele><time>2026-04-19T12:11:58.624Z</time></trkpt><trkpt lat="43.3696917" lon="11.5904967"><ele>480.0</ele><time>2026-04-19T12:11:59.623Z</time></trkpt><trkpt lat="43.3697783" lon="11.5904333"><ele>480.0</ele><time>2026-04-19T12:12:00.623Z</time></trkpt><trkpt lat="43.369875" lon="11.590375"><ele>483.6</ele><time>2026-04-19T12:12:01.624Z</time></trkpt><trkpt lat="43.3699683" lon="11.5903217"><ele>487.2</ele><time>2026-04-19T12:12:02.623Z</time></trkpt><trkpt lat="43.3700633" lon="11.5902817"><ele>490.79999999999995</ele><time>2026-04-19T12:12:03.624Z</time></trkpt><trkpt lat="43.3701717" lon="11.5902467"><ele>494.4</ele><time>2026-04-19T12:12:04.624Z</time></trkpt><trkpt lat="43.3702833" lon="11.59021"><ele>498.0</ele><time>2026-04-19T12:12:05.623Z</time></trkpt><trkpt lat="43.3703933" lon="11.5901667"><ele>498.0</ele><time>2026-04-19T12:12:06.623Z</time></trkpt><trkpt lat="43.3705083" lon="11.5901217"><ele>497.99999999999994</ele><time>2026-04-19T12:12:07.623Z</time></trkpt><trkpt lat="43.37061" lon="11.5900717"><ele>497.99999999999994</ele><time>2026-04-19T12:12:08.624Z</time></trkpt><trkpt lat="43.3707" lon="11.5900367"><ele>498.0</ele><time>2026-04-19T12:12:09.623Z</time></trkpt><trkpt lat="43.3707917" lon="11.5900217"><ele>498.0</ele><time>2026-04-19T12:12:10.623Z</time></trkpt><trkpt lat="43.3708767" lon="11.590025"><ele>497.79999999999995</ele><time>2026-04-19T12:12:11.623Z</time></trkpt><trkpt lat="43.3709617" lon="11.59004"><ele>497.59999999999997</ele><time>2026-04-19T12:12:12.624Z</time></trkpt><trkpt lat="43.3710517" lon="11.5900783"><ele>497.40000000000003</ele><time>2026-04-19T12:12:13.624Z</time></trkpt><trkpt lat="43.3711483" lon="11.5901367"><ele>497.20000000000005</ele><time>2026-04-19T12:12:14.623Z</time></trkpt><trkpt lat="43.3712517" lon="11.590205"><ele>497.0</ele><time>2026-04-19T12:12:15.624Z</time></trkpt><trkpt lat="43.371345" lon="11.5902717"><ele>496.20000000000005</ele><time>2026-04-19T12:12:16.623Z</time></trkpt><trkpt lat="43.3714267" lon="11.590345"><ele>495.40000000000003</ele><time>2026-04-19T12:12:17.624Z</time></trkpt><trkpt lat="43.3715033" lon="11.5904183"><ele>494.59999999999997</ele><time>2026-04-19T12:12:18.623Z</time></trkpt><trkpt lat="43.3715917" lon="11.5904983"><ele>493.79999999999995</ele><time>2026-04-19T12:12:19.623Z</time></trkpt><trkpt lat="43.3716733" lon="11.5905733"><ele>493.0</ele><time>2026-04-19T12:12:20.623Z</time></trkpt><trkpt lat="43.3717467" lon="11.5906467"><ele>493.0</ele><time>2026-04-19T12:12:21.623Z</time></trkpt><trkpt lat="43.371835" lon="11.59072"><ele>492.99999999999994</ele><time>2026-04-19T12:12:22.623Z</time></trkpt><trkpt lat="43.3719167" lon="11.590805"><ele>492.99999999999994</ele><time>2026-04-19T12:12:23.623Z</time></trkpt><trkpt lat="43.3720033" lon="11.5908883"><ele>493.0</ele><time>2026-04-19T12:12:24.624Z</time></trkpt><trkpt lat="43.3720833" lon="11.590985"><ele>493.0</ele><time>2026-04-19T12:12:25.623Z</time></trkpt><trkpt lat="43.3721567" lon="11.591075"><ele>491.33333333333337</ele><time>2026-04-19T12:12:26.623Z</time></trkpt><trkpt lat="43.37223" lon="11.5911433"><ele>489.6666666666667</ele><time>2026-04-19T12:12:27.623Z</time></trkpt><trkpt lat="43.3722967" lon="11.5911983"><ele>488.0</ele><time>2026-04-19T12:12:28.624Z</time></trkpt><trkpt lat="43.3723583" lon="11.5912533"><ele>486.33333333333337</ele><time>2026-04-19T12:12:29.624Z</time></trkpt><trkpt lat="43.372435" lon="11.5913617"><ele>484.6666666666667</ele><time>2026-04-19T12:12:31.623Z</time></trkpt><trkpt lat="43.3724783" lon="11.5914683"><ele>483.0</ele><time>2026-04-19T12:12:33.624Z</time></trkpt><trkpt lat="43.37254" lon="11.5915017"><ele>483.0</ele><time>2026-04-19T12:12:38.623Z</time></trkpt><trkpt lat="43.37255" lon="11.5914133"><ele>482.99999999999994</ele><time>2026-04-19T12:12:40.623Z</time></trkpt><trkpt lat="43.372505" lon="11.5912733"><ele>482.99999999999994</ele><time>2026-04-19T12:12:42.624Z</time></trkpt><trkpt lat="43.37245" lon="11.5911867"><ele>483.0</ele><time>2026-04-19T12:12:43.623Z</time></trkpt><trkpt lat="43.3723767" lon="11.5911067"><ele>483.0</ele><time>2026-04-19T12:12:44.623Z</time></trkpt><trkpt lat="43.372295" lon="11.5910233"><ele>482.3333333333333</ele><time>2026-04-19T12:12:45.623Z</time></trkpt><trkpt lat="43.3722217" lon="11.5909433"><ele>481.66666666666663</ele><time>2026-04-19T12:12:46.623Z</time></trkpt><trkpt lat="43.3721667" lon="11.590855"><ele>481.0</ele><time>2026-04-19T12:12:47.624Z</time></trkpt><trkpt lat="43.37213" lon="11.5907617"><ele>480.3333333333333</ele><time>2026-04-19T12:12:48.624Z</time></trkpt><trkpt lat="43.3721133" lon="11.590655"><ele>479.66666666666663</ele><time>2026-04-19T12:12:49.624Z</time></trkpt><trkpt lat="43.3721183" lon="11.5905417"><ele>479.0</ele><time>2026-04-19T12:12:50.623Z</time></trkpt><trkpt lat="43.37215" lon="11.590405"><ele>478.2</ele><time>2026-04-19T12:12:51.624Z</time></trkpt><trkpt lat="43.3721883" lon="11.5902733"><ele>477.4</ele><time>2026-04-19T12:12:52.623Z</time></trkpt><trkpt lat="43.3722383" lon="11.5901367"><ele>476.6</ele><time>2026-04-19T12:12:53.623Z</time></trkpt><trkpt lat="43.37229" lon="11.5899967"><ele>475.8</ele><time>2026-04-19T12:12:54.623Z</time></trkpt><trkpt lat="43.3723217" lon="11.5898667"><ele>475.0</ele><time>2026-04-19T12:12:55.624Z</time></trkpt><trkpt lat="43.3723533" lon="11.589735"><ele>475.0</ele><time>2026-04-19T12:12:56.624Z</time></trkpt><trkpt lat="43.3723617" lon="11.5896183"><ele>475.0</ele><time>2026-04-19T12:12:57.623Z</time></trkpt><trkpt lat="43.3723483" lon="11.5895033"><ele>475.0</ele><time>2026-04-19T12:12:58.624Z</time></trkpt><trkpt lat="43.3723083" lon="11.5893883"><ele>475.0</ele><time>2026-04-19T12:12:59.623Z</time></trkpt><trkpt lat="43.37225" lon="11.5892667"><ele>475.0</ele><time>2026-04-19T12:13:00.624Z</time></trkpt><trkpt lat="43.37216" lon="11.5891433"><ele>475.2</ele><time>2026-04-19T12:13:01.624Z</time></trkpt><trkpt lat="43.3720617" lon="11.5890383"><ele>475.4</ele><time>2026-04-19T12:13:02.623Z</time></trkpt><trkpt lat="43.371965" lon="11.588965"><ele>475.6</ele><time>2026-04-19T12:13:03.623Z</time></trkpt><trkpt lat="43.3718767" lon="11.5888833"><ele>475.8</ele><time>2026-04-19T12:13:04.624Z</time></trkpt><trkpt lat="43.3717983" lon="11.5887833"><ele>476.0</ele><time>2026-04-19T12:13:05.623Z</time></trkpt><trkpt lat="43.3717433" lon="11.5886733"><ele>476.0</ele><time>2026-04-19T12:13:06.624Z</time></trkpt><trkpt lat="43.3717083" lon="11.58855"><ele>476.0</ele><time>2026-04-19T12:13:07.624Z</time></trkpt><trkpt lat="43.3716683" lon="11.5884317"><ele>476.0</ele><time>2026-04-19T12:13:08.623Z</time></trkpt><trkpt lat="43.3716117" lon="11.5883233"><ele>476.0</ele><time>2026-04-19T12:13:09.624Z</time></trkpt><trkpt lat="43.3715267" lon="11.5882067"><ele>476.0</ele><time>2026-04-19T12:13:10.623Z</time></trkpt><trkpt lat="43.3714267" lon="11.588115"><ele>474.6</ele><time>2026-04-19T12:13:11.624Z</time></trkpt><trkpt lat="43.371325" lon="11.5880333"><ele>473.20000000000005</ele><time>2026-04-19T12:13:12.623Z</time></trkpt><trkpt lat="43.3712433" lon="11.587965"><ele>471.79999999999995</ele><time>2026-04-19T12:13:13.624Z</time></trkpt><trkpt lat="43.3711867" lon="11.5878933"><ele>470.4</ele><time>2026-04-19T12:13:14.623Z</time></trkpt><trkpt lat="43.37114" lon="11.5877367"><ele>469.0</ele><time>2026-04-19T12:13:16.623Z</time></trkpt><trkpt lat="43.371195" lon="11.5876633"><ele>469.0</ele><time>2026-04-19T12:13:17.624Z</time></trkpt><trkpt lat="43.371275" lon="11.5875883"><ele>469.0</ele><time>2026-04-19T12:13:18.624Z</time></trkpt><trkpt lat="43.3713717" lon="11.58753"><ele>469.0</ele><time>2026-04-19T12:13:19.623Z</time></trkpt><trkpt lat="43.3714733" lon="11.587455"><ele>469.0</ele><time>2026-04-19T12:13:20.624Z</time></trkpt><trkpt lat="43.37156" lon="11.5873433"><ele>469.0</ele><time>2026-04-19T12:13:21.624Z</time></trkpt><trkpt lat="43.3716217" lon="11.5872017"><ele>467.75</ele><time>2026-04-19T12:13:22.623Z</time></trkpt><trkpt lat="43.3716783" lon="11.5870367"><ele>466.5</ele><time>2026-04-19T12:13:23.623Z</time></trkpt><trkpt lat="43.37173" lon="11.5868433"><ele>465.25</ele><time>2026-04-19T12:13:24.624Z</time></trkpt><trkpt lat="43.3717783" lon="11.5866633"><ele>464.0</ele><time>2026-04-19T12:13:25.623Z</time></trkpt><trkpt lat="43.37182" lon="11.586485"><ele>462.75</ele><time>2026-04-19T12:13:26.624Z</time></trkpt><trkpt lat="43.3718617" lon="11.586325"><ele>461.5</ele><time>2026-04-19T12:13:27.623Z</time></trkpt><trkpt lat="43.3719117" lon="11.586175"><ele>460.25</ele><time>2026-04-19T12:13:28.623Z</time></trkpt><trkpt lat="43.3719517" lon="11.5860417"><ele>459.0</ele><time>2026-04-19T12:13:29.624Z</time></trkpt><trkpt lat="43.371975" lon="11.585905"><ele>457.8333333333333</ele><time>2026-04-19T12:13:30.624Z</time></trkpt><trkpt lat="43.3719867" lon="11.5857667"><ele>456.66666666666663</ele><time>2026-04-19T12:13:31.623Z</time></trkpt><trkpt lat="43.3719933" lon="11.5856483"><ele>455.5</ele><time>2026-04-19T12:13:32.623Z</time></trkpt><trkpt lat="43.3719683" lon="11.5855483"><ele>454.3333333333333</ele><time>2026-04-19T12:13:33.623Z</time></trkpt><trkpt lat="43.371945" lon="11.5854617"><ele>453.16666666666663</ele><time>2026-04-19T12:13:34.623Z</time></trkpt><trkpt lat="43.3718717" lon="11.58544"><ele>452.0</ele><time>2026-04-19T12:13:35.624Z</time></trkpt><trkpt lat="43.371805" lon="11.5854517"><ele>452.0</ele><time>2026-04-19T12:13:36.624Z</time></trkpt><trkpt lat="43.3716933" lon="11.5854417"><ele>452.00000000000006</ele><time>2026-04-19T12:13:38.624Z</time></trkpt><trkpt lat="43.3716833" lon="11.5853083"><ele>452.00000000000006</ele><time>2026-04-19T12:13:40.624Z</time></trkpt><trkpt lat="43.3717333" lon="11.585225"><ele>452.0</ele><time>2026-04-19T12:13:41.623Z</time></trkpt><trkpt lat="43.371795" lon="11.585135"><ele>452.0</ele><time>2026-04-19T12:13:42.624Z</time></trkpt><trkpt lat="43.37185" lon="11.5850267"><ele>450.6</ele><time>2026-04-19T12:13:43.623Z</time></trkpt><trkpt lat="43.371885" lon="11.5849117"><ele>449.20000000000005</ele><time>2026-04-19T12:13:44.623Z</time></trkpt><trkpt lat="43.3718983" lon="11.58478"><ele>447.8</ele><time>2026-04-19T12:13:45.623Z</time></trkpt><trkpt lat="43.3718783" lon="11.5846283"><ele>446.4</ele><time>2026-04-19T12:13:46.624Z</time></trkpt><trkpt lat="43.37183" lon="11.5844883"><ele>445.0</ele><time>2026-04-19T12:13:47.624Z</time></trkpt><trkpt lat="43.3717583" lon="11.5843483"><ele>443.8</ele><time>2026-04-19T12:13:48.623Z</time></trkpt><trkpt lat="43.3716833" lon="11.58421"><ele>442.6</ele><time>2026-04-19T12:13:49.624Z</time></trkpt><trkpt lat="43.3716267" lon="11.5840783"><ele>441.4</ele><time>2026-04-19T12:13:50.623Z</time></trkpt><trkpt lat="43.3715717" lon="11.58395"><ele>440.2</ele><time>2026-04-19T12:13:51.624Z</time></trkpt><trkpt lat="43.371545" lon="11.5838417"><ele>439.0</ele><time>2026-04-19T12:13:52.624Z</time></trkpt><trkpt lat="43.3715483" lon="11.5837217"><ele>437.5</ele><time>2026-04-19T12:13:53.624Z</time></trkpt><trkpt lat="43.37159" lon="11.58361"><ele>436.0</ele><time>2026-04-19T12:13:54.624Z</time></trkpt><trkpt lat="43.3716583" lon="11.5834817"><ele>434.5</ele><time>2026-04-19T12:13:55.623Z</time></trkpt><trkpt lat="43.3717283" lon="11.5833567"><ele>433.0</ele><time>2026-04-19T12:13:56.623Z</time></trkpt><trkpt lat="43.3717867" lon="11.5832"><ele>433.0</ele><time>2026-04-19T12:13:57.624Z</time></trkpt><trkpt lat="43.3718383" lon="11.58306"><ele>433.0</ele><time>2026-04-19T12:13:58.624Z</time></trkpt><trkpt lat="43.371865" lon="11.5829083"><ele>433.0</ele><time>2026-04-19T12:13:59.623Z</time></trkpt><trkpt lat="43.3718683" lon="11.582745"><ele>433.0</ele><time>2026-04-19T12:14:00.624Z</time></trkpt><trkpt lat="43.3718233" lon="11.5825917"><ele>431.5</ele><time>2026-04-19T12:14:01.623Z</time></trkpt><trkpt lat="43.3717467" lon="11.58243"><ele>430.0</ele><time>2026-04-19T12:14:02.623Z</time></trkpt><trkpt lat="43.3716633" lon="11.5822767"><ele>428.5</ele><time>2026-04-19T12:14:03.623Z</time></trkpt><trkpt lat="43.3715717" lon="11.5821367"><ele>427.0</ele><time>2026-04-19T12:14:04.623Z</time></trkpt><trkpt lat="43.371485" lon="11.5820217"><ele>427.00000000000006</ele><time>2026-04-19T12:14:05.623Z</time></trkpt><trkpt lat="43.371405" lon="11.5819383"><ele>427.0</ele><time>2026-04-19T12:14:06.624Z</time></trkpt><trkpt lat="43.3713283" lon="11.5818633"><ele>427.0</ele><time>2026-04-19T12:14:07.624Z</time></trkpt><trkpt lat="43.37125" lon="11.58179"><ele>427.0</ele><time>2026-04-19T12:14:08.623Z</time></trkpt><trkpt lat="43.3711883" lon="11.581715"><ele>427.00000000000006</ele><time>2026-04-19T12:14:09.623Z</time></trkpt><trkpt lat="43.37114" lon="11.5816317"><ele>427.0</ele><time>2026-04-19T12:14:10.623Z</time></trkpt><trkpt lat="43.3711183" lon="11.5815433"><ele>423.8</ele><time>2026-04-19T12:14:11.623Z</time></trkpt><trkpt lat="43.3711217" lon="11.5814317"><ele>420.6</ele><time>2026-04-19T12:14:12.624Z</time></trkpt><trkpt lat="43.3711417" lon="11.581305"><ele>417.40000000000003</ele><time>2026-04-19T12:14:13.623Z</time></trkpt><trkpt lat="43.3711933" lon="11.58116"><ele>414.20000000000005</ele><time>2026-04-19T12:14:14.623Z</time></trkpt><trkpt lat="43.3712583" lon="11.5810183"><ele>411.0</ele><time>2026-04-19T12:14:15.624Z</time></trkpt><trkpt lat="43.3713233" lon="11.58089"><ele>411.0</ele><time>2026-04-19T12:14:16.623Z</time></trkpt><trkpt lat="43.3713783" lon="11.5807633"><ele>411.0</ele><time>2026-04-19T12:14:17.624Z</time></trkpt><trkpt lat="43.3714133" lon="11.5806"><ele>411.0</ele><time>2026-04-19T12:14:18.624Z</time></trkpt><trkpt lat="43.3714417" lon="11.5804333"><ele>411.0</ele><time>2026-04-19T12:14:19.623Z</time></trkpt><trkpt lat="43.3714617" lon="11.5802683"><ele>411.0</ele><time>2026-04-19T12:14:20.623Z</time></trkpt><trkpt lat="43.3714583" lon="11.5801283"><ele>411.0</ele><time>2026-04-19T12:14:21.623Z</time></trkpt><trkpt lat="43.3714167" lon="11.5799817"><ele>411.0</ele><time>2026-04-19T12:14:22.623Z</time></trkpt><trkpt lat="43.3713483" lon="11.5798333"><ele>411.0</ele><time>2026-04-19T12:14:23.623Z</time></trkpt><trkpt lat="43.3712967" lon="11.5796967"><ele>408.0</ele><time>2026-04-19T12:14:24.623Z</time></trkpt><trkpt lat="43.3712567" lon="11.579565"><ele>405.0</ele><time>2026-04-19T12:14:25.624Z</time></trkpt><trkpt lat="43.3712183" lon="11.579445"><ele>402.0</ele><time>2026-04-19T12:14:26.623Z</time></trkpt><trkpt lat="43.3711717" lon="11.5793533"><ele>399.0</ele><time>2026-04-19T12:14:27.624Z</time></trkpt><trkpt lat="43.3711083" lon="11.579265"><ele>396.0</ele><time>2026-04-19T12:14:28.624Z</time></trkpt><trkpt lat="43.3710233" lon="11.5792133"><ele>394.75</ele><time>2026-04-19T12:14:29.624Z</time></trkpt><trkpt lat="43.3709117" lon="11.5791733"><ele>393.5</ele><time>2026-04-19T12:14:30.623Z</time></trkpt><trkpt lat="43.3708017" lon="11.5791417"><ele>392.25</ele><time>2026-04-19T12:14:31.624Z</time></trkpt><trkpt lat="43.37069" lon="11.5791067"><ele>391.0</ele><time>2026-04-19T12:14:32.623Z</time></trkpt><trkpt lat="43.3705917" lon="11.5790417"><ele>388.25</ele><time>2026-04-19T12:14:33.623Z</time></trkpt><trkpt lat="43.37051" lon="11.5789417"><ele>385.5</ele><time>2026-04-19T12:14:34.623Z</time></trkpt><trkpt lat="43.37044" lon="11.5788183"><ele>382.75</ele><time>2026-04-19T12:14:35.623Z</time></trkpt><trkpt lat="43.3703617" lon="11.5787017"><ele>380.0</ele><time>2026-04-19T12:14:36.624Z</time></trkpt><trkpt lat="43.3702717" lon="11.5785867"><ele>379.25</ele><time>2026-04-19T12:14:37.623Z</time></trkpt><trkpt lat="43.3701583" lon="11.5784933"><ele>378.5</ele><time>2026-04-19T12:14:38.623Z</time></trkpt><trkpt lat="43.3700483" lon="11.5784133"><ele>377.75</ele><time>2026-04-19T12:14:39.623Z</time></trkpt><trkpt lat="43.3699317" lon="11.5783333"><ele>377.0</ele><time>2026-04-19T12:14:40.624Z</time></trkpt><trkpt lat="43.3698233" lon="11.5782767"><ele>377.0</ele><time>2026-04-19T12:14:41.623Z</time></trkpt><trkpt lat="43.3697333" lon="11.5782"><ele>377.0</ele><time>2026-04-19T12:14:42.624Z</time></trkpt><trkpt lat="43.369655" lon="11.5780917"><ele>377.0</ele><time>2026-04-19T12:14:43.624Z</time></trkpt><trkpt lat="43.3695933" lon="11.5779533"><ele>377.0</ele><time>2026-04-19T12:14:44.624Z</time></trkpt><trkpt lat="43.3695367" lon="11.577795"><ele>374.5</ele><time>2026-04-19T12:14:45.623Z</time></trkpt><trkpt lat="43.369455" lon="11.57763"><ele>372.0</ele><time>2026-04-19T12:14:46.624Z</time></trkpt><trkpt lat="43.369365" lon="11.5774767"><ele>369.5</ele><time>2026-04-19T12:14:47.623Z</time></trkpt><trkpt lat="43.3692633" lon="11.5773133"><ele>367.0</ele><time>2026-04-19T12:14:48.624Z</time></trkpt><trkpt lat="43.3691583" lon="11.57717"><ele>367.0</ele><time>2026-04-19T12:14:49.624Z</time></trkpt><trkpt lat="43.3690417" lon="11.5770417"><ele>367.0</ele><time>2026-04-19T12:14:50.623Z</time></trkpt><trkpt lat="43.368925" lon="11.576925"><ele>367.0</ele><time>2026-04-19T12:14:51.623Z</time></trkpt><trkpt lat="43.3688067" lon="11.5767783"><ele>364.25</ele><time>2026-04-19T12:14:52.624Z</time></trkpt><trkpt lat="43.3687017" lon="11.5766367"><ele>361.5</ele><time>2026-04-19T12:14:53.623Z</time></trkpt><trkpt lat="43.3686017" lon="11.5765083"><ele>358.75</ele><time>2026-04-19T12:14:54.624Z</time></trkpt><trkpt lat="43.368505" lon="11.576405"><ele>356.0</ele><time>2026-04-19T12:14:55.624Z</time></trkpt><trkpt lat="43.3684183" lon="11.57631"><ele>355.25</ele><time>2026-04-19T12:14:56.624Z</time></trkpt><trkpt lat="43.368335" lon="11.576185"><ele>354.5</ele><time>2026-04-19T12:14:57.623Z</time></trkpt><trkpt lat="43.3682717" lon="11.5760433"><ele>353.75</ele><time>2026-04-19T12:14:58.623Z</time></trkpt><trkpt lat="43.3682167" lon="11.575885"><ele>353.0</ele><time>2026-04-19T12:14:59.623Z</time></trkpt><trkpt lat="43.36814" lon="11.5757267"><ele>353.0</ele><time>2026-04-19T12:15:00.623Z</time></trkpt><trkpt lat="43.368035" lon="11.5756017"><ele>353.0</ele><time>2026-04-19T12:15:01.623Z</time></trkpt><trkpt lat="43.367935" lon="11.5754833"><ele>353.0</ele><time>2026-04-19T12:15:02.623Z</time></trkpt><trkpt lat="43.3678417" lon="11.575355"><ele>353.0</ele><time>2026-04-19T12:15:03.623Z</time></trkpt><trkpt lat="43.3677767" lon="11.575205"><ele>349.5</ele><time>2026-04-19T12:15:04.623Z</time></trkpt><trkpt lat="43.3677333" lon="11.5750483"><ele>346.0</ele><time>2026-04-19T12:15:05.624Z</time></trkpt><trkpt lat="43.367695" lon="11.574875"><ele>342.5</ele><time>2026-04-19T12:15:06.624Z</time></trkpt><trkpt lat="43.36766" lon="11.5747017"><ele>339.0</ele><time>2026-04-19T12:15:07.623Z</time></trkpt><trkpt lat="43.3676067" lon="11.574525"><ele>337.5</ele><time>2026-04-19T12:15:08.623Z</time></trkpt><trkpt lat="43.3675317" lon="11.5743583"><ele>336.0</ele><time>2026-04-19T12:15:09.623Z</time></trkpt><trkpt lat="43.3674233" lon="11.5742033"><ele>334.5</ele><time>2026-04-19T12:15:10.624Z</time></trkpt><trkpt lat="43.36731" lon="11.5740683"><ele>333.0</ele><time>2026-04-19T12:15:11.624Z</time></trkpt><trkpt lat="43.3672017" lon="11.5739733"><ele>331.5</ele><time>2026-04-19T12:15:12.624Z</time></trkpt><trkpt lat="43.3671" lon="11.5738917"><ele>330.0</ele><time>2026-04-19T12:15:13.624Z</time></trkpt><trkpt lat="43.3670033" lon="11.57379"><ele>328.5</ele><time>2026-04-19T12:15:14.624Z</time></trkpt><trkpt lat="43.3669233" lon="11.5736583"><ele>327.0</ele><time>2026-04-19T12:15:15.623Z</time></trkpt><trkpt lat="43.3668667" lon="11.5734967"><ele>327.0</ele><time>2026-04-19T12:15:16.624Z</time></trkpt><trkpt lat="43.3668017" lon="11.5733383"><ele>327.0</ele><time>2026-04-19T12:15:17.624Z</time></trkpt><trkpt lat="43.366725" lon="11.5731783"><ele>327.0</ele><time>2026-04-19T12:15:18.624Z</time></trkpt><trkpt lat="43.3666583" lon="11.5730117"><ele>327.0</ele><time>2026-04-19T12:15:19.623Z</time></trkpt><trkpt lat="43.36659" lon="11.5728483"><ele>325.5</ele><time>2026-04-19T12:15:20.623Z</time></trkpt><trkpt lat="43.3665283" lon="11.5726833"><ele>324.0</ele><time>2026-04-19T12:15:21.624Z</time></trkpt><trkpt lat="43.3664633" lon="11.57253"><ele>322.5</ele><time>2026-04-19T12:15:22.624Z</time></trkpt><trkpt lat="43.3664133" lon="11.5723883"><ele>321.0</ele><time>2026-04-19T12:15:23.624Z</time></trkpt><trkpt lat="43.3663633" lon="11.5722383"><ele>320.25</ele><time>2026-04-19T12:15:24.624Z</time></trkpt><trkpt lat="43.3663333" lon="11.5720667"><ele>319.5</ele><time>2026-04-19T12:15:25.623Z</time></trkpt><trkpt lat="43.366325" lon="11.5718733"><ele>318.75</ele><time>2026-04-19T12:15:26.623Z</time></trkpt><trkpt lat="43.3663117" lon="11.5716767"><ele>318.0</ele><time>2026-04-19T12:15:27.623Z</time></trkpt><trkpt lat="43.3662717" lon="11.571495"><ele>317.0</ele><time>2026-04-19T12:15:28.624Z</time></trkpt><trkpt lat="43.3662183" lon="11.571335"><ele>316.0</ele><time>2026-04-19T12:15:29.624Z</time></trkpt><trkpt lat="43.366155" lon="11.5711833"><ele>315.0</ele><time>2026-04-19T12:15:30.623Z</time></trkpt><trkpt lat="43.36609" lon="11.57105"><ele>314.0</ele><time>2026-04-19T12:15:31.624Z</time></trkpt><trkpt lat="43.3660317" lon="11.5709383"><ele>313.5</ele><time>2026-04-19T12:15:32.623Z</time></trkpt><trkpt lat="43.3659983" lon="11.57085"><ele>313.0</ele><time>2026-04-19T12:15:33.623Z</time></trkpt><trkpt lat="43.366005" lon="11.5707033"><ele>312.5</ele><time>2026-04-19T12:15:35.624Z</time></trkpt><trkpt lat="43.3660667" lon="11.570675"><ele>312.0</ele><time>2026-04-19T12:15:36.623Z</time></trkpt><trkpt lat="43.3661383" lon="11.5706833"><ele>311.5</ele><time>2026-04-19T12:15:37.623Z</time></trkpt><trkpt lat="43.3662114" lon="11.5706989"><ele>311.0</ele><time>2026-04-19T12:15:38.623Z</time></trkpt><trkpt lat="43.366279" lon="11.5707061"><ele>311.0</ele><time>2026-04-19T12:15:39.623Z</time></trkpt><trkpt lat="43.3663514" lon="11.5706188"><ele>311.0</ele><time>2026-04-19T12:15:41.623Z</time></trkpt><trkpt lat="43.3663463" lon="11.5705081"><ele>311.0</ele><time>2026-04-19T12:15:42.623Z</time></trkpt><trkpt lat="43.3663248" lon="11.5703839"><ele>311.0</ele><time>2026-04-19T12:15:43.623Z</time></trkpt><trkpt lat="43.3662797" lon="11.5702406"><ele>311.0</ele><time>2026-04-19T12:15:44.624Z</time></trkpt><trkpt lat="43.3662245" lon="11.5700741"><ele>310.5</ele><time>2026-04-19T12:15:45.622Z</time></trkpt><trkpt lat="43.3661755" lon="11.5698969"><ele>310.0</ele><time>2026-04-19T12:15:46.622Z</time></trkpt><trkpt lat="43.3661549" lon="11.5697078"><ele>309.5</ele><time>2026-04-19T12:15:47.623Z</time></trkpt><trkpt lat="43.3661238" lon="11.5695318"><ele>309.0</ele><time>2026-04-19T12:15:48.622Z</time></trkpt><trkpt lat="43.3660785" lon="11.5693722"><ele>307.5</ele><time>2026-04-19T12:15:49.623Z</time></trkpt><trkpt lat="43.3660129" lon="11.5692289"><ele>306.0</ele><time>2026-04-19T12:15:50.622Z</time></trkpt><trkpt lat="43.3659294" lon="11.569091"><ele>304.5</ele><time>2026-04-19T12:15:51.622Z</time></trkpt><trkpt lat="43.3658274" lon="11.5689516"><ele>303.0</ele><time>2026-04-19T12:15:52.622Z</time></trkpt><trkpt lat="43.3657218" lon="11.568813"><ele>301.75</ele><time>2026-04-19T12:15:53.623Z</time></trkpt><trkpt lat="43.3656139" lon="11.5686822"><ele>300.5</ele><time>2026-04-19T12:15:54.623Z</time></trkpt><trkpt lat="43.3655162" lon="11.5685667"><ele>299.25</ele><time>2026-04-19T12:15:55.622Z</time></trkpt><trkpt lat="43.3654198" lon="11.5684624"><ele>298.0</ele><time>2026-04-19T12:15:56.622Z</time></trkpt><trkpt lat="43.3653076" lon="11.5683715"><ele>298.0</ele><time>2026-04-19T12:15:57.622Z</time></trkpt><trkpt lat="43.3651814" lon="11.5682995"><ele>298.0</ele><time>2026-04-19T12:15:58.622Z</time></trkpt><trkpt lat="43.3650512" lon="11.5682334"><ele>298.0</ele><time>2026-04-19T12:15:59.622Z</time></trkpt><trkpt lat="43.3649331" lon="11.5681691"><ele>298.0</ele><time>2026-04-19T12:16:00.622Z</time></trkpt><trkpt lat="43.3648298" lon="11.5681054"><ele>298.0</ele><time>2026-04-19T12:16:01.623Z</time></trkpt><trkpt lat="43.3647481" lon="11.568005"><ele>298.0</ele><time>2026-04-19T12:16:02.623Z</time></trkpt><trkpt lat="43.3646978" lon="11.5678742"><ele>298.0</ele><time>2026-04-19T12:16:03.622Z</time></trkpt><trkpt lat="43.364672" lon="11.5677198"><ele>298.0</ele><time>2026-04-19T12:16:04.623Z</time></trkpt><trkpt lat="43.3646782" lon="11.5675484"><ele>296.25</ele><time>2026-04-19T12:16:05.622Z</time></trkpt><trkpt lat="43.3646952" lon="11.5673563"><ele>294.5</ele><time>2026-04-19T12:16:06.623Z</time></trkpt><trkpt lat="43.3647238" lon="11.5671586"><ele>292.75</ele><time>2026-04-19T12:16:07.623Z</time></trkpt><trkpt lat="43.3647582" lon="11.5669561"><ele>291.0</ele><time>2026-04-19T12:16:08.622Z</time></trkpt><trkpt lat="43.3647933" lon="11.5667633"><ele>290.8</ele><time>2026-04-19T12:16:09.623Z</time></trkpt><trkpt lat="43.3648233" lon="11.5665967"><ele>290.6</ele><time>2026-04-19T12:16:10.622Z</time></trkpt><trkpt lat="43.3648483" lon="11.5664617"><ele>290.4</ele><time>2026-04-19T12:16:11.622Z</time></trkpt><trkpt lat="43.364865" lon="11.5663583"><ele>290.2</ele><time>2026-04-19T12:16:12.622Z</time></trkpt><trkpt lat="43.3648983" lon="11.5662167"><ele>290.0</ele><time>2026-04-19T12:16:14.622Z</time></trkpt><trkpt lat="43.364905" lon="11.56613"><ele>290.0</ele><time>2026-04-19T12:16:17.622Z</time></trkpt><trkpt lat="43.364815" lon="11.5661067"><ele>290.0</ele><time>2026-04-19T12:16:23.622Z</time></trkpt><trkpt lat="43.364705" lon="11.5660983"><ele>290.0</ele><time>2026-04-19T12:16:24.622Z</time></trkpt><trkpt lat="43.3645933" lon="11.5661033"><ele>290.0</ele><time>2026-04-19T12:16:25.622Z</time></trkpt><trkpt lat="43.364475" lon="11.566115"><ele>290.0</ele><time>2026-04-19T12:16:26.622Z</time></trkpt><trkpt lat="43.3643383" lon="11.566135"><ele>290.0</ele><time>2026-04-19T12:16:27.623Z</time></trkpt><trkpt lat="43.3642033" lon="11.5661583"><ele>290.0</ele><time>2026-04-19T12:16:28.623Z</time></trkpt><trkpt lat="43.3640617" lon="11.5661733"><ele>290.0</ele><time>2026-04-19T12:16:29.622Z</time></trkpt><trkpt lat="43.36391" lon="11.5661733"><ele>290.0</ele><time>2026-04-19T12:16:30.623Z</time></trkpt><trkpt lat="43.3637417" lon="11.5661583"><ele>290.0</ele><time>2026-04-19T12:16:31.622Z</time></trkpt><trkpt lat="43.3635717" lon="11.566135"><ele>290.0</ele><time>2026-04-19T12:16:32.623Z</time></trkpt><trkpt lat="43.3634017" lon="11.5661133"><ele>290.0</ele><time>2026-04-19T12:16:33.622Z</time></trkpt><trkpt lat="43.3632233" lon="11.5660867"><ele>290.0</ele><time>2026-04-19T12:16:34.622Z</time></trkpt><trkpt lat="43.3630417" lon="11.5660567"><ele>290.0</ele><time>2026-04-19T12:16:35.623Z</time></trkpt><trkpt lat="43.3628567" lon="11.5660333"><ele>290.0</ele><time>2026-04-19T12:16:36.623Z</time></trkpt><trkpt lat="43.362675" lon="11.5660217"><ele>289.6666666666667</ele><time>2026-04-19T12:16:37.622Z</time></trkpt><trkpt lat="43.3624933" lon="11.5660267"><ele>289.3333333333333</ele><time>2026-04-19T12:16:38.623Z</time></trkpt><trkpt lat="43.36231" lon="11.56604"><ele>289.0</ele><time>2026-04-19T12:16:39.622Z</time></trkpt><trkpt lat="43.3621333" lon="11.5660833"><ele>288.3333333333333</ele><time>2026-04-19T12:16:40.622Z</time></trkpt><trkpt lat="43.3619433" lon="11.5661383"><ele>287.6666666666667</ele><time>2026-04-19T12:16:41.622Z</time></trkpt><trkpt lat="43.3617417" lon="11.5662"><ele>287.0</ele><time>2026-04-19T12:16:42.622Z</time></trkpt><trkpt lat="43.3615467" lon="11.5662617"><ele>282.33333333333337</ele><time>2026-04-19T12:16:43.622Z</time></trkpt><trkpt lat="43.3613367" lon="11.5663367"><ele>277.6666666666667</ele><time>2026-04-19T12:16:44.622Z</time></trkpt><trkpt lat="43.361135" lon="11.5664"><ele>273.0</ele><time>2026-04-19T12:16:45.622Z</time></trkpt><trkpt lat="43.3609383" lon="11.5664617"><ele>273.0</ele><time>2026-04-19T12:16:46.623Z</time></trkpt><trkpt lat="43.3607483" lon="11.56652"><ele>273.0</ele><time>2026-04-19T12:16:47.623Z</time></trkpt><trkpt lat="43.3605583" lon="11.5665817"><ele>273.0</ele><time>2026-04-19T12:16:48.622Z</time></trkpt><trkpt lat="43.3603633" lon="11.5666317"><ele>275.0</ele><time>2026-04-19T12:16:49.623Z</time></trkpt><trkpt lat="43.3601617" lon="11.5667033"><ele>277.0</ele><time>2026-04-19T12:16:50.622Z</time></trkpt><trkpt lat="43.3599583" lon="11.5667717"><ele>279.0</ele><time>2026-04-19T12:16:51.622Z</time></trkpt><trkpt lat="43.3597533" lon="11.5668433"><ele>278.3333333333333</ele><time>2026-04-19T12:16:52.623Z</time></trkpt><trkpt lat="43.3595517" lon="11.5669133"><ele>277.66666666666663</ele><time>2026-04-19T12:16:53.623Z</time></trkpt><trkpt lat="43.35936" lon="11.5669867"><ele>277.0</ele><time>2026-04-19T12:16:54.622Z</time></trkpt><trkpt lat="43.3591767" lon="11.5670567"><ele>277.0</ele><time>2026-04-19T12:16:55.622Z</time></trkpt><trkpt lat="43.3589783" lon="11.5671283"><ele>277.0</ele><time>2026-04-19T12:16:56.622Z</time></trkpt><trkpt lat="43.3587917" lon="11.5671833"><ele>277.0</ele><time>2026-04-19T12:16:57.623Z</time></trkpt><trkpt lat="43.3586017" lon="11.56726"><ele>277.66666666666663</ele><time>2026-04-19T12:16:58.623Z</time></trkpt><trkpt lat="43.3584067" lon="11.567335"><ele>278.3333333333333</ele><time>2026-04-19T12:16:59.622Z</time></trkpt><trkpt lat="43.3582133" lon="11.5674233"><ele>279.0</ele><time>2026-04-19T12:17:00.622Z</time></trkpt><trkpt lat="43.35803" lon="11.56752"><ele>279.6666666666667</ele><time>2026-04-19T12:17:01.623Z</time></trkpt><trkpt lat="43.35785" lon="11.5676283"><ele>280.33333333333337</ele><time>2026-04-19T12:17:02.623Z</time></trkpt><trkpt lat="43.3576733" lon="11.5677217"><ele>281.0</ele><time>2026-04-19T12:17:03.623Z</time></trkpt><trkpt lat="43.357495" lon="11.56782"><ele>278.33333333333337</ele><time>2026-04-19T12:17:04.622Z</time></trkpt><trkpt lat="43.3573133" lon="11.5679217"><ele>275.6666666666667</ele><time>2026-04-19T12:17:05.622Z</time></trkpt><trkpt lat="43.357145" lon="11.568025"><ele>273.0</ele><time>2026-04-19T12:17:06.623Z</time></trkpt><trkpt lat="43.356965" lon="11.5681283"><ele>272.6666666666667</ele><time>2026-04-19T12:17:07.622Z</time></trkpt><trkpt lat="43.3567767" lon="11.5682217"><ele>272.33333333333337</ele><time>2026-04-19T12:17:08.622Z</time></trkpt><trkpt lat="43.3565967" lon="11.5682917"><ele>272.0</ele><time>2026-04-19T12:17:09.623Z</time></trkpt><trkpt lat="43.35641" lon="11.5683383"><ele>271.6666666666667</ele><time>2026-04-19T12:17:10.622Z</time></trkpt><trkpt lat="43.356225" lon="11.568375"><ele>271.3333333333333</ele><time>2026-04-19T12:17:11.622Z</time></trkpt><trkpt lat="43.3560217" lon="11.5684"><ele>271.0</ele><time>2026-04-19T12:17:12.622Z</time></trkpt><trkpt lat="43.3558317" lon="11.5684317"><ele>271.0</ele><time>2026-04-19T12:17:13.622Z</time></trkpt><trkpt lat="43.35566" lon="11.5684367"><ele>271.0</ele><time>2026-04-19T12:17:14.622Z</time></trkpt><trkpt lat="43.3555017" lon="11.5684"><ele>271.0</ele><time>2026-04-19T12:17:15.623Z</time></trkpt><trkpt lat="43.3553333" lon="11.5683433"><ele>270.3333333333333</ele><time>2026-04-19T12:17:16.622Z</time></trkpt><trkpt lat="43.3551567" lon="11.56828"><ele>269.6666666666667</ele><time>2026-04-19T12:17:17.623Z</time></trkpt><trkpt lat="43.3549733" lon="11.5682067"><ele>269.0</ele><time>2026-04-19T12:17:18.622Z</time></trkpt><trkpt lat="43.3547817" lon="11.5681367"><ele>267.6666666666667</ele><time>2026-04-19T12:17:19.622Z</time></trkpt><trkpt lat="43.35459" lon="11.5680667"><ele>266.3333333333333</ele><time>2026-04-19T12:17:20.622Z</time></trkpt><trkpt lat="43.3544133" lon="11.5680067"><ele>265.0</ele><time>2026-04-19T12:17:21.622Z</time></trkpt><trkpt lat="43.35425" lon="11.5679467"><ele>265.0</ele><time>2026-04-19T12:17:22.623Z</time></trkpt><trkpt lat="43.3540867" lon="11.5678717"><ele>265.0</ele><time>2026-04-19T12:17:23.623Z</time></trkpt><trkpt lat="43.3539217" lon="11.5677567"><ele>265.0</ele><time>2026-04-19T12:17:24.623Z</time></trkpt><trkpt lat="43.3537817" lon="11.5675967"><ele>265.3333333333333</ele><time>2026-04-19T12:17:25.622Z</time></trkpt><trkpt lat="43.3536533" lon="11.567405"><ele>265.6666666666667</ele><time>2026-04-19T12:17:26.622Z</time></trkpt><trkpt lat="43.3535333" lon="11.5671983"><ele>266.0</ele><time>2026-04-19T12:17:27.622Z</time></trkpt><trkpt lat="43.3534067" lon="11.5669917"><ele>265.33333333333337</ele><time>2026-04-19T12:17:28.622Z</time></trkpt><trkpt lat="43.35328" lon="11.56678"><ele>264.6666666666667</ele><time>2026-04-19T12:17:29.623Z</time></trkpt><trkpt lat="43.353145" lon="11.5665783"><ele>264.0</ele><time>2026-04-19T12:17:30.622Z</time></trkpt><trkpt lat="43.3530083" lon="11.5663733"><ele>264.0</ele><time>2026-04-19T12:17:31.622Z</time></trkpt><trkpt lat="43.352875" lon="11.5661733"><ele>264.0</ele><time>2026-04-19T12:17:32.622Z</time></trkpt><trkpt lat="43.3527467" lon="11.5659733"><ele>264.0</ele><time>2026-04-19T12:17:33.622Z</time></trkpt><trkpt lat="43.3526233" lon="11.5657817"><ele>264.0</ele><time>2026-04-19T12:17:34.623Z</time></trkpt><trkpt lat="43.352505" lon="11.565585"><ele>264.0</ele><time>2026-04-19T12:17:35.622Z</time></trkpt><trkpt lat="43.3523817" lon="11.5653983"><ele>264.0</ele><time>2026-04-19T12:17:36.622Z</time></trkpt><trkpt lat="43.3522567" lon="11.56522"><ele>263.6666666666667</ele><time>2026-04-19T12:17:37.622Z</time></trkpt><trkpt lat="43.3521017" lon="11.56509"><ele>263.33333333333337</ele><time>2026-04-19T12:17:38.623Z</time></trkpt><trkpt lat="43.3519433" lon="11.564975"><ele>263.0</ele><time>2026-04-19T12:17:39.622Z</time></trkpt><trkpt lat="43.3517683" lon="11.5648783"><ele>263.0</ele><time>2026-04-19T12:17:40.623Z</time></trkpt><trkpt lat="43.3515867" lon="11.564835"><ele>263.0</ele><time>2026-04-19T12:17:41.623Z</time></trkpt><trkpt lat="43.3514033" lon="11.5648217"><ele>263.0</ele><time>2026-04-19T12:17:42.623Z</time></trkpt><trkpt lat="43.35121" lon="11.56483"><ele>262.6666666666667</ele><time>2026-04-19T12:17:43.623Z</time></trkpt><trkpt lat="43.3510167" lon="11.5648433"><ele>262.3333333333333</ele><time>2026-04-19T12:17:44.623Z</time></trkpt><trkpt lat="43.350815" lon="11.564845"><ele>262.0</ele><time>2026-04-19T12:17:45.623Z</time></trkpt><trkpt lat="43.3506183" lon="11.56485"><ele>261.66666666666663</ele><time>2026-04-19T12:17:46.622Z</time></trkpt><trkpt lat="43.3504333" lon="11.564835"><ele>261.3333333333333</ele><time>2026-04-19T12:17:47.623Z</time></trkpt><trkpt lat="43.3502417" lon="11.56481"><ele>261.0</ele><time>2026-04-19T12:17:48.622Z</time></trkpt><trkpt lat="43.35005" lon="11.564765"><ele>261.0</ele><time>2026-04-19T12:17:49.623Z</time></trkpt><trkpt lat="43.3498633" lon="11.5647133"><ele>261.0</ele><time>2026-04-19T12:17:50.622Z</time></trkpt><trkpt lat="43.3496867" lon="11.5646533"><ele>261.0</ele><time>2026-04-19T12:17:51.623Z</time></trkpt><trkpt lat="43.34952" lon="11.5645867"><ele>259.0</ele><time>2026-04-19T12:17:52.622Z</time></trkpt><trkpt lat="43.3493717" lon="11.5644867"><ele>257.0</ele><time>2026-04-19T12:17:53.622Z</time></trkpt><trkpt lat="43.349255" lon="11.5643333"><ele>255.0</ele><time>2026-04-19T12:17:54.623Z</time></trkpt><trkpt lat="43.3491417" lon="11.5641683"><ele>255.0</ele><time>2026-04-19T12:17:55.622Z</time></trkpt><trkpt lat="43.3490267" lon="11.5639733"><ele>255.0</ele><time>2026-04-19T12:17:56.623Z</time></trkpt><trkpt lat="43.3489" lon="11.5637783"><ele>255.0</ele><time>2026-04-19T12:17:57.622Z</time></trkpt><trkpt lat="43.348755" lon="11.5636"><ele>253.0</ele><time>2026-04-19T12:17:58.622Z</time></trkpt><trkpt lat="43.3486033" lon="11.5634367"><ele>251.0</ele><time>2026-04-19T12:17:59.623Z</time></trkpt><trkpt lat="43.3484317" lon="11.563305"><ele>249.0</ele><time>2026-04-19T12:18:00.623Z</time></trkpt><trkpt lat="43.3482483" lon="11.563185"><ele>249.0</ele><time>2026-04-19T12:18:01.622Z</time></trkpt><trkpt lat="43.3480667" lon="11.563055"><ele>249.0</ele><time>2026-04-19T12:18:02.622Z</time></trkpt><trkpt lat="43.3478717" lon="11.5629317"><ele>249.0</ele><time>2026-04-19T12:18:03.623Z</time></trkpt><trkpt lat="43.3476783" lon="11.562805"><ele>247.66666666666669</ele><time>2026-04-19T12:18:04.623Z</time></trkpt><trkpt lat="43.3474867" lon="11.5626783"><ele>246.33333333333334</ele><time>2026-04-19T12:18:05.623Z</time></trkpt><trkpt lat="43.3473" lon="11.5625583"><ele>245.0</ele><time>2026-04-19T12:18:06.623Z</time></trkpt><trkpt lat="43.347115" lon="11.5624433"><ele>243.33333333333334</ele><time>2026-04-19T12:18:07.622Z</time></trkpt><trkpt lat="43.3469333" lon="11.5623283"><ele>241.66666666666669</ele><time>2026-04-19T12:18:08.622Z</time></trkpt><trkpt lat="43.34676" lon="11.5622067"><ele>240.0</ele><time>2026-04-19T12:18:09.622Z</time></trkpt><trkpt lat="43.3465817" lon="11.5620917"><ele>239.66666666666669</ele><time>2026-04-19T12:18:10.622Z</time></trkpt><trkpt lat="43.3464017" lon="11.5619783"><ele>239.33333333333334</ele><time>2026-04-19T12:18:11.623Z</time></trkpt><trkpt lat="43.3462233" lon="11.56186"><ele>239.0</ele><time>2026-04-19T12:18:12.623Z</time></trkpt><trkpt lat="43.3460517" lon="11.561745"><ele>239.0</ele><time>2026-04-19T12:18:13.622Z</time></trkpt><trkpt lat="43.3455817" lon="11.5613883"><ele>238.0</ele><time>2026-04-19T12:18:16.623Z</time></trkpt><trkpt lat="43.3454283" lon="11.5612883"><ele>237.0</ele><time>2026-04-19T12:18:17.622Z</time></trkpt><trkpt lat="43.34527" lon="11.5611783"><ele>236.0</ele><time>2026-04-19T12:18:18.622Z</time></trkpt><trkpt lat="43.3451133" lon="11.5610683"><ele>236.0</ele><time>2026-04-19T12:18:19.623Z</time></trkpt><trkpt lat="43.3449517" lon="11.5609617"><ele>236.0</ele><time>2026-04-19T12:18:20.622Z</time></trkpt><trkpt lat="43.3447883" lon="11.5608517"><ele>236.0</ele><time>2026-04-19T12:18:21.622Z</time></trkpt><trkpt lat="43.3446283" lon="11.5607417"><ele>235.66666666666669</ele><time>2026-04-19T12:18:22.622Z</time></trkpt><trkpt lat="43.3444533" lon="11.5606283"><ele>235.33333333333331</ele><time>2026-04-19T12:18:23.622Z</time></trkpt><trkpt lat="43.3442883" lon="11.5604983"><ele>235.0</ele><time>2026-04-19T12:18:24.622Z</time></trkpt><trkpt lat="43.3441083" lon="11.5603933"><ele>235.66666666666666</ele><time>2026-04-19T12:18:25.623Z</time></trkpt><trkpt lat="43.34393" lon="11.5602783"><ele>236.33333333333331</ele><time>2026-04-19T12:18:26.622Z</time></trkpt><trkpt lat="43.343755" lon="11.5601567"><ele>237.0</ele><time>2026-04-19T12:18:27.622Z</time></trkpt><trkpt lat="43.3435767" lon="11.5600417"><ele>237.0</ele><time>2026-04-19T12:18:28.623Z</time></trkpt><trkpt lat="43.3433983" lon="11.55993"><ele>237.0</ele><time>2026-04-19T12:18:29.622Z</time></trkpt><trkpt lat="43.343225" lon="11.5598217"><ele>237.0</ele><time>2026-04-19T12:18:30.623Z</time></trkpt><trkpt lat="43.3430517" lon="11.5597133"><ele>235.66666666666669</ele><time>2026-04-19T12:18:31.623Z</time></trkpt><trkpt lat="43.3428883" lon="11.5596083"><ele>234.33333333333334</ele><time>2026-04-19T12:18:32.622Z</time></trkpt><trkpt lat="43.3427167" lon="11.5595033"><ele>233.0</ele><time>2026-04-19T12:18:33.623Z</time></trkpt><trkpt lat="43.3425467" lon="11.5594067"><ele>232.0</ele><time>2026-04-19T12:18:34.623Z</time></trkpt><trkpt lat="43.34238" lon="11.5592917"><ele>231.0</ele><time>2026-04-19T12:18:35.623Z</time></trkpt><trkpt lat="43.34223" lon="11.5591617"><ele>230.0</ele><time>2026-04-19T12:18:36.623Z</time></trkpt><trkpt lat="43.34207" lon="11.5590367"><ele>230.0</ele><time>2026-04-19T12:18:37.623Z</time></trkpt><trkpt lat="43.3419067" lon="11.5589167"><ele>230.0</ele><time>2026-04-19T12:18:38.622Z</time></trkpt><trkpt lat="43.3417517" lon="11.5588117"><ele>230.0</ele><time>2026-04-19T12:18:39.622Z</time></trkpt><trkpt lat="43.34162" lon="11.5587133"><ele>230.0</ele><time>2026-04-19T12:18:40.622Z</time></trkpt><trkpt lat="43.3415033" lon="11.558635"><ele>230.0</ele><time>2026-04-19T12:18:41.622Z</time></trkpt><trkpt lat="43.34141" lon="11.5585783"><ele>230.0</ele><time>2026-04-19T12:18:42.623Z</time></trkpt><trkpt lat="43.341335" lon="11.5585367"><ele>230.0</ele><time>2026-04-19T12:18:43.622Z</time></trkpt><trkpt lat="43.3412767" lon="11.55849"><ele>230.0</ele><time>2026-04-19T12:18:44.623Z</time></trkpt><trkpt lat="43.341225" lon="11.5584067"><ele>230.0</ele><time>2026-04-19T12:18:46.622Z</time></trkpt><trkpt lat="43.34126" lon="11.5583"><ele>230.0</ele><time>2026-04-19T12:18:48.623Z</time></trkpt><trkpt lat="43.3413133" lon="11.5582417"><ele>230.0</ele><time>2026-04-19T12:18:49.622Z</time></trkpt><trkpt lat="43.3413867" lon="11.5581783"><ele>230.0</ele><time>2026-04-19T12:18:50.622Z</time></trkpt><trkpt lat="43.3414717" lon="11.5581167"><ele>230.0</ele><time>2026-04-19T12:18:51.622Z</time></trkpt><trkpt lat="43.3415767" lon="11.5580333"><ele>231.75</ele><time>2026-04-19T12:18:52.622Z</time></trkpt><trkpt lat="43.3416883" lon="11.5579317"><ele>233.5</ele><time>2026-04-19T12:18:53.622Z</time></trkpt><trkpt lat="43.341805" lon="11.5578233"><ele>235.25</ele><time>2026-04-19T12:18:54.622Z</time></trkpt><trkpt lat="43.341935" lon="11.5577117"><ele>237.0</ele><time>2026-04-19T12:18:55.623Z</time></trkpt><trkpt lat="43.3420817" lon="11.5575933"><ele>242.33333333333331</ele><time>2026-04-19T12:18:56.623Z</time></trkpt><trkpt lat="43.3422167" lon="11.5574633"><ele>247.66666666666666</ele><time>2026-04-19T12:18:57.622Z</time></trkpt><trkpt lat="43.342345" lon="11.5573183"><ele>253.0</ele><time>2026-04-19T12:18:58.623Z</time></trkpt><trkpt lat="43.3424783" lon="11.5571817"><ele>250.0</ele><time>2026-04-19T12:18:59.623Z</time></trkpt><trkpt lat="43.3426017" lon="11.5570317"><ele>247.0</ele><time>2026-04-19T12:19:00.622Z</time></trkpt><trkpt lat="43.34271" lon="11.5568833"><ele>244.0</ele><time>2026-04-19T12:19:01.622Z</time></trkpt><trkpt lat="43.3428183" lon="11.55676"><ele>244.0</ele><time>2026-04-19T12:19:02.622Z</time></trkpt><trkpt lat="43.34293" lon="11.5566267"><ele>244.0</ele><time>2026-04-19T12:19:03.622Z</time></trkpt><trkpt lat="43.3430317" lon="11.5564883"><ele>244.0</ele><time>2026-04-19T12:19:04.622Z</time></trkpt><trkpt lat="43.3431117" lon="11.55633"><ele>244.0</ele><time>2026-04-19T12:19:05.622Z</time></trkpt><trkpt lat="43.3431733" lon="11.5561417"><ele>247.0</ele><time>2026-04-19T12:19:06.623Z</time></trkpt><trkpt lat="43.3432267" lon="11.555965"><ele>249.99999999999997</ele><time>2026-04-19T12:19:07.622Z</time></trkpt><trkpt lat="43.3432783" lon="11.5558333"><ele>252.99999999999997</ele><time>2026-04-19T12:19:08.623Z</time></trkpt><trkpt lat="43.343305" lon="11.5557167"><ele>256.0</ele><time>2026-04-19T12:19:09.623Z</time></trkpt><trkpt lat="43.34333" lon="11.55563"><ele>259.0</ele><time>2026-04-19T12:19:10.623Z</time></trkpt><trkpt lat="43.3434033" lon="11.5555483"><ele>259.0</ele><time>2026-04-19T12:19:12.622Z</time></trkpt><trkpt lat="43.3434467" lon="11.5556683"><ele>259.0</ele><time>2026-04-19T12:19:15.623Z</time></trkpt><trkpt lat="43.3434183" lon="11.5557933"><ele>259.0</ele><time>2026-04-19T12:19:17.623Z</time></trkpt><trkpt lat="43.3433767" lon="11.555875"><ele>259.0</ele><time>2026-04-19T12:19:18.622Z</time></trkpt><trkpt lat="43.3433417" lon="11.55598"><ele>259.0</ele><time>2026-04-19T12:19:19.622Z</time></trkpt><trkpt lat="43.3433383" lon="11.55608"><ele>259.0</ele><time>2026-04-19T12:19:20.622Z</time></trkpt><trkpt lat="43.343365" lon="11.5561767"><ele>259.59999999999997</ele><time>2026-04-19T12:19:21.622Z</time></trkpt><trkpt lat="43.3434183" lon="11.5562633"><ele>260.2</ele><time>2026-04-19T12:19:22.622Z</time></trkpt><trkpt lat="43.343505" lon="11.5563383"><ele>260.79999999999995</ele><time>2026-04-19T12:19:23.623Z</time></trkpt><trkpt lat="43.3436167" lon="11.5564"><ele>261.4</ele><time>2026-04-19T12:19:24.623Z</time></trkpt><trkpt lat="43.3436983" lon="11.5564633"><ele>262.0</ele><time>2026-04-19T12:19:25.622Z</time></trkpt><trkpt lat="43.3437567" lon="11.556555"><ele>262.0</ele><time>2026-04-19T12:19:26.623Z</time></trkpt><trkpt lat="43.3437933" lon="11.5566583"><ele>262.0</ele><time>2026-04-19T12:19:27.623Z</time></trkpt><trkpt lat="43.3438083" lon="11.5567533"><ele>262.0</ele><time>2026-04-19T12:19:28.623Z</time></trkpt><trkpt lat="43.34384" lon="11.5568733"><ele>262.0</ele><time>2026-04-19T12:19:30.622Z</time></trkpt><trkpt lat="43.3439483" lon="11.5568383"><ele>262.0</ele><time>2026-04-19T12:19:32.623Z</time></trkpt><trkpt lat="43.34401" lon="11.5567533"><ele>262.0</ele><time>2026-04-19T12:19:33.622Z</time></trkpt><trkpt lat="43.34407" lon="11.5566433"><ele>264.0</ele><time>2026-04-19T12:19:34.623Z</time></trkpt><trkpt lat="43.3441233" lon="11.5565133"><ele>266.0</ele><time>2026-04-19T12:19:35.623Z</time></trkpt><trkpt lat="43.3441583" lon="11.5563667"><ele>268.0</ele><time>2026-04-19T12:19:36.623Z</time></trkpt><trkpt lat="43.3441983" lon="11.5562117"><ele>270.0</ele><time>2026-04-19T12:19:37.622Z</time></trkpt><trkpt lat="43.3442517" lon="11.5560767"><ele>270.0</ele><time>2026-04-19T12:19:38.622Z</time></trkpt><trkpt lat="43.3443333" lon="11.5559367"><ele>270.0</ele><time>2026-04-19T12:19:39.622Z</time></trkpt><trkpt lat="43.344415" lon="11.5558117"><ele>270.0</ele><time>2026-04-19T12:19:40.622Z</time></trkpt><trkpt lat="43.344495" lon="11.5557033"><ele>270.0</ele><time>2026-04-19T12:19:41.623Z</time></trkpt><trkpt lat="43.3445867" lon="11.5556167"><ele>270.0</ele><time>2026-04-19T12:19:42.622Z</time></trkpt><trkpt lat="43.344685" lon="11.5555567"><ele>270.0</ele><time>2026-04-19T12:19:43.623Z</time></trkpt><trkpt lat="43.3447967" lon="11.5554983"><ele>270.0</ele><time>2026-04-19T12:19:44.623Z</time></trkpt><trkpt lat="43.3449083" lon="11.55545"><ele>270.0</ele><time>2026-04-19T12:19:45.623Z</time></trkpt><trkpt lat="43.3450217" lon="11.555395"><ele>269.75</ele><time>2026-04-19T12:19:46.623Z</time></trkpt><trkpt lat="43.3451367" lon="11.5553483"><ele>269.5</ele><time>2026-04-19T12:19:47.622Z</time></trkpt><trkpt lat="43.3452583" lon="11.555295"><ele>269.25</ele><time>2026-04-19T12:19:48.622Z</time></trkpt><trkpt lat="43.3453783" lon="11.5552383"><ele>269.0</ele><time>2026-04-19T12:19:49.623Z</time></trkpt><trkpt lat="43.3455017" lon="11.5551867"><ele>270.59999999999997</ele><time>2026-04-19T12:19:50.623Z</time></trkpt><trkpt lat="43.345615" lon="11.5551217"><ele>272.2</ele><time>2026-04-19T12:19:51.623Z</time></trkpt><trkpt lat="43.345715" lon="11.55507"><ele>273.79999999999995</ele><time>2026-04-19T12:19:52.622Z</time></trkpt><trkpt lat="43.3457967" lon="11.55499"><ele>275.4</ele><time>2026-04-19T12:19:53.622Z</time></trkpt><trkpt lat="43.3458683" lon="11.5548883"><ele>277.0</ele><time>2026-04-19T12:19:54.623Z</time></trkpt><trkpt lat="43.3459283" lon="11.5547633"><ele>277.0</ele><time>2026-04-19T12:19:55.622Z</time></trkpt><trkpt lat="43.3459633" lon="11.5546167"><ele>277.0</ele><time>2026-04-19T12:19:56.622Z</time></trkpt><trkpt lat="43.34598" lon="11.55446"><ele>277.0</ele><time>2026-04-19T12:19:57.623Z</time></trkpt><trkpt lat="43.34599" lon="11.5543083"><ele>277.0</ele><time>2026-04-19T12:19:58.622Z</time></trkpt><trkpt lat="43.3459967" lon="11.5541783"><ele>277.0</ele><time>2026-04-19T12:19:59.623Z</time></trkpt><trkpt lat="43.346" lon="11.5540733"><ele>277.3333333333333</ele><time>2026-04-19T12:20:00.622Z</time></trkpt><trkpt lat="43.346015" lon="11.5539317"><ele>277.66666666666663</ele><time>2026-04-19T12:20:02.623Z</time></trkpt><trkpt lat="43.3460283" lon="11.55384"><ele>278.0</ele><time>2026-04-19T12:20:05.623Z</time></trkpt><trkpt lat="43.3460317" lon="11.5537233"><ele>278.3333333333333</ele><time>2026-04-19T12:20:12.622Z</time></trkpt><trkpt lat="43.346035" lon="11.5536367"><ele>278.6666666666667</ele><time>2026-04-19T12:20:13.622Z</time></trkpt><trkpt lat="43.3460367" lon="11.5535367"><ele>279.0</ele><time>2026-04-19T12:20:14.623Z</time></trkpt><trkpt lat="43.3460417" lon="11.5534267"><ele>279.5</ele><time>2026-04-19T12:20:15.622Z</time></trkpt><trkpt lat="43.3460567" lon="11.5533083"><ele>280.0</ele><time>2026-04-19T12:20:16.623Z</time></trkpt><trkpt lat="43.3460783" lon="11.55319"><ele>280.5</ele><time>2026-04-19T12:20:17.623Z</time></trkpt><trkpt lat="43.346095" lon="11.5530817"><ele>281.0</ele><time>2026-04-19T12:20:18.623Z</time></trkpt><trkpt lat="43.3461067" lon="11.5529767"><ele>281.5</ele><time>2026-04-19T12:20:19.623Z</time></trkpt><trkpt lat="43.3461133" lon="11.5528683"><ele>282.0</ele><time>2026-04-19T12:20:20.622Z</time></trkpt><trkpt lat="43.3461283" lon="11.5527633"><ele>282.0</ele><time>2026-04-19T12:20:21.622Z</time></trkpt><trkpt lat="43.3461433" lon="11.5526567"><ele>282.0</ele><time>2026-04-19T12:20:22.623Z</time></trkpt><trkpt lat="43.346155" lon="11.5525517"><ele>282.0</ele><time>2026-04-19T12:20:23.622Z</time></trkpt><trkpt lat="43.3461683" lon="11.552445"><ele>282.0</ele><time>2026-04-19T12:20:24.623Z</time></trkpt><trkpt lat="43.3461867" lon="11.5523317"><ele>282.0</ele><time>2026-04-19T12:20:25.623Z</time></trkpt><trkpt lat="43.3462033" lon="11.552225"><ele>282.0</ele><time>2026-04-19T12:20:26.622Z</time></trkpt><trkpt lat="43.3462217" lon="11.55213"><ele>282.2</ele><time>2026-04-19T12:20:27.622Z</time></trkpt><trkpt lat="43.346245" lon="11.551965"><ele>282.4</ele><time>2026-04-19T12:20:29.622Z</time></trkpt><trkpt lat="43.3462633" lon="11.55181"><ele>282.6</ele><time>2026-04-19T12:20:31.622Z</time></trkpt><trkpt lat="43.3462567" lon="11.551685"><ele>282.8</ele><time>2026-04-19T12:20:33.621Z</time></trkpt><trkpt lat="43.3462617" lon="11.551575"><ele>283.0</ele><time>2026-04-19T12:20:35.621Z</time></trkpt><trkpt lat="43.34629" lon="11.5514817"><ele>283.0</ele><time>2026-04-19T12:20:37.621Z</time></trkpt><trkpt lat="43.34635" lon="11.551455"><ele>283.0</ele><time>2026-04-19T12:20:39.621Z</time></trkpt><trkpt lat="43.34646" lon="11.5514167"><ele>283.0</ele><time>2026-04-19T12:20:41.622Z</time></trkpt><trkpt lat="43.34653" lon="11.5513767"><ele>283.0</ele><time>2026-04-19T12:20:42.621Z</time></trkpt><trkpt lat="43.3466133" lon="11.5513267"><ele>283.0</ele><time>2026-04-19T12:20:43.621Z</time></trkpt><trkpt lat="43.346705" lon="11.5512683"><ele>283.0</ele><time>2026-04-19T12:20:44.621Z</time></trkpt><trkpt lat="43.346785" lon="11.5511983"><ele>283.6</ele><time>2026-04-19T12:20:45.621Z</time></trkpt><trkpt lat="43.34687" lon="11.5511433"><ele>284.20000000000005</ele><time>2026-04-19T12:20:46.621Z</time></trkpt><trkpt lat="43.3469683" lon="11.5510683"><ele>284.8</ele><time>2026-04-19T12:20:47.621Z</time></trkpt><trkpt lat="43.3470633" lon="11.5510183"><ele>285.40000000000003</ele><time>2026-04-19T12:20:48.621Z</time></trkpt><trkpt lat="43.34717" lon="11.5509467"><ele>286.0</ele><time>2026-04-19T12:20:49.621Z</time></trkpt><trkpt lat="43.34728" lon="11.550855"><ele>287.75</ele><time>2026-04-19T12:20:50.621Z</time></trkpt><trkpt lat="43.3473983" lon="11.5507767"><ele>289.5</ele><time>2026-04-19T12:20:51.621Z</time></trkpt><trkpt lat="43.347505" lon="11.550695"><ele>291.25</ele><time>2026-04-19T12:20:52.621Z</time></trkpt><trkpt lat="43.3476033" lon="11.5506217"><ele>293.0</ele><time>2026-04-19T12:20:53.621Z</time></trkpt><trkpt lat="43.347705" lon="11.5505567"><ele>293.0</ele><time>2026-04-19T12:20:54.621Z</time></trkpt><trkpt lat="43.3478067" lon="11.5504917"><ele>293.0</ele><time>2026-04-19T12:20:55.622Z</time></trkpt><trkpt lat="43.3479083" lon="11.55042"><ele>293.0</ele><time>2026-04-19T12:20:56.621Z</time></trkpt><trkpt lat="43.348005" lon="11.55035"><ele>293.0</ele><time>2026-04-19T12:20:57.621Z</time></trkpt><trkpt lat="43.3480983" lon="11.5502933"><ele>293.0</ele><time>2026-04-19T12:20:58.621Z</time></trkpt><trkpt lat="43.3481867" lon="11.5502367"><ele>294.83333333333337</ele><time>2026-04-19T12:20:59.622Z</time></trkpt><trkpt lat="43.34826" lon="11.55017"><ele>296.6666666666667</ele><time>2026-04-19T12:21:00.621Z</time></trkpt><trkpt lat="43.3483033" lon="11.5500917"><ele>298.5</ele><time>2026-04-19T12:21:01.621Z</time></trkpt><trkpt lat="43.3483367" lon="11.5500017"><ele>300.3333333333333</ele><time>2026-04-19T12:21:02.621Z</time></trkpt><trkpt lat="43.3483633" lon="11.5498933"><ele>302.16666666666663</ele><time>2026-04-19T12:21:03.622Z</time></trkpt><trkpt lat="43.3483867" lon="11.54976"><ele>304.0</ele><time>2026-04-19T12:21:04.621Z</time></trkpt><trkpt lat="43.3484067" lon="11.5496017"><ele>306.0</ele><time>2026-04-19T12:21:05.621Z</time></trkpt><trkpt lat="43.3484283" lon="11.5494433"><ele>308.0</ele><time>2026-04-19T12:21:06.621Z</time></trkpt><trkpt lat="43.3484517" lon="11.549265"><ele>310.0</ele><time>2026-04-19T12:21:07.622Z</time></trkpt><trkpt lat="43.3484783" lon="11.5490933"><ele>312.0</ele><time>2026-04-19T12:21:08.621Z</time></trkpt><trkpt lat="43.348505" lon="11.5489267"><ele>312.0</ele><time>2026-04-19T12:21:09.622Z</time></trkpt><trkpt lat="43.34853" lon="11.5487717"><ele>312.0</ele><time>2026-04-19T12:21:10.621Z</time></trkpt><trkpt lat="43.3485567" lon="11.5486483"><ele>312.0</ele><time>2026-04-19T12:21:11.621Z</time></trkpt><trkpt lat="43.3485817" lon="11.54854"><ele>312.0</ele><time>2026-04-19T12:21:12.621Z</time></trkpt><trkpt lat="43.3486683" lon="11.548405"><ele>312.0</ele><time>2026-04-19T12:21:14.621Z</time></trkpt><trkpt lat="43.3487283" lon="11.54837"><ele>312.75</ele><time>2026-04-19T12:21:15.622Z</time></trkpt><trkpt lat="43.3488083" lon="11.5483283"><ele>313.5</ele><time>2026-04-19T12:21:16.622Z</time></trkpt><trkpt lat="43.3489133" lon="11.5482817"><ele>314.25</ele><time>2026-04-19T12:21:17.621Z</time></trkpt><trkpt lat="43.3490367" lon="11.5482283"><ele>315.0</ele><time>2026-04-19T12:21:18.622Z</time></trkpt><trkpt lat="43.3491583" lon="11.5481683"><ele>316.75</ele><time>2026-04-19T12:21:19.621Z</time></trkpt><trkpt lat="43.3493783" lon="11.548055"><ele>318.5</ele><time>2026-04-19T12:21:21.622Z</time></trkpt><trkpt lat="43.3494717" lon="11.547985"><ele>320.25</ele><time>2026-04-19T12:21:22.622Z</time></trkpt><trkpt lat="43.3495517" lon="11.5479017"><ele>322.0</ele><time>2026-04-19T12:21:23.622Z</time></trkpt><trkpt lat="43.3496217" lon="11.5478017"><ele>322.0</ele><time>2026-04-19T12:21:24.622Z</time></trkpt><trkpt lat="43.3497" lon="11.5476917"><ele>322.0</ele><time>2026-04-19T12:21:25.621Z</time></trkpt><trkpt lat="43.349795" lon="11.5475733"><ele>322.0</ele><time>2026-04-19T12:21:26.622Z</time></trkpt><trkpt lat="43.349895" lon="11.54745"><ele>322.0</ele><time>2026-04-19T12:21:27.621Z</time></trkpt><trkpt lat="43.3499917" lon="11.547325"><ele>323.75</ele><time>2026-04-19T12:21:28.621Z</time></trkpt><trkpt lat="43.3500867" lon="11.5471917"><ele>325.5</ele><time>2026-04-19T12:21:29.621Z</time></trkpt><trkpt lat="43.350165" lon="11.5470433"><ele>327.25</ele><time>2026-04-19T12:21:30.622Z</time></trkpt><trkpt lat="43.3502283" lon="11.54688"><ele>329.0</ele><time>2026-04-19T12:21:31.622Z</time></trkpt><trkpt lat="43.3502833" lon="11.5467017"><ele>329.0</ele><time>2026-04-19T12:21:32.622Z</time></trkpt><trkpt lat="43.35034" lon="11.54653"><ele>329.0</ele><time>2026-04-19T12:21:33.622Z</time></trkpt><trkpt lat="43.3504033" lon="11.54635"><ele>329.0</ele><time>2026-04-19T12:21:34.621Z</time></trkpt><trkpt lat="43.3504667" lon="11.5461733"><ele>329.0</ele><time>2026-04-19T12:21:35.621Z</time></trkpt><trkpt lat="43.3505333" lon="11.5459817"><ele>331.5</ele><time>2026-04-19T12:21:36.621Z</time></trkpt><trkpt lat="43.3505933" lon="11.5457967"><ele>334.0</ele><time>2026-04-19T12:21:37.622Z</time></trkpt><trkpt lat="43.350655" lon="11.5456167"><ele>336.5</ele><time>2026-04-19T12:21:38.621Z</time></trkpt><trkpt lat="43.350715" lon="11.5454617"><ele>339.0</ele><time>2026-04-19T12:21:39.621Z</time></trkpt><trkpt lat="43.3507733" lon="11.54531"><ele>341.25</ele><time>2026-04-19T12:21:40.621Z</time></trkpt><trkpt lat="43.35083" lon="11.545165"><ele>343.5</ele><time>2026-04-19T12:21:41.622Z</time></trkpt><trkpt lat="43.3508783" lon="11.5450183"><ele>345.75</ele><time>2026-04-19T12:21:42.621Z</time></trkpt><trkpt lat="43.3509317" lon="11.5448717"><ele>348.0</ele><time>2026-04-19T12:21:43.621Z</time></trkpt><trkpt lat="43.3509733" lon="11.54474"><ele>348.0</ele><time>2026-04-19T12:21:44.621Z</time></trkpt><trkpt lat="43.3510067" lon="11.5446433"><ele>348.0</ele><time>2026-04-19T12:21:45.622Z</time></trkpt><trkpt lat="43.3510383" lon="11.54455"><ele>348.0</ele><time>2026-04-19T12:21:46.621Z</time></trkpt><trkpt lat="43.3510767" lon="11.5444683"><ele>348.0</ele><time>2026-04-19T12:21:47.621Z</time></trkpt><trkpt lat="43.3511317" lon="11.5444033"><ele>348.0</ele><time>2026-04-19T12:21:48.621Z</time></trkpt><trkpt lat="43.3511917" lon="11.54434"><ele>348.0</ele><time>2026-04-19T12:21:49.621Z</time></trkpt><trkpt lat="43.3512567" lon="11.5442833"><ele>348.0</ele><time>2026-04-19T12:21:50.621Z</time></trkpt><trkpt lat="43.3513333" lon="11.5442217"><ele>349.79999999999995</ele><time>2026-04-19T12:21:51.621Z</time></trkpt><trkpt lat="43.35141" lon="11.544155"><ele>351.6</ele><time>2026-04-19T12:21:52.621Z</time></trkpt><trkpt lat="43.3514867" lon="11.5440833"><ele>353.4</ele><time>2026-04-19T12:21:53.621Z</time></trkpt><trkpt lat="43.3515517" lon="11.5439967"><ele>355.20000000000005</ele><time>2026-04-19T12:21:54.621Z</time></trkpt><trkpt lat="43.35162" lon="11.5438933"><ele>357.0</ele><time>2026-04-19T12:21:55.621Z</time></trkpt><trkpt lat="43.35169" lon="11.5437733"><ele>357.25</ele><time>2026-04-19T12:21:56.621Z</time></trkpt><trkpt lat="43.351765" lon="11.5436333"><ele>357.5</ele><time>2026-04-19T12:21:57.621Z</time></trkpt><trkpt lat="43.3518383" lon="11.5434733"><ele>357.75</ele><time>2026-04-19T12:21:58.621Z</time></trkpt><trkpt lat="43.3519067" lon="11.5433217"><ele>358.0</ele><time>2026-04-19T12:21:59.621Z</time></trkpt><trkpt lat="43.3519783" lon="11.5431583"><ele>358.0</ele><time>2026-04-19T12:22:00.621Z</time></trkpt><trkpt lat="43.35205" lon="11.542985"><ele>358.0</ele><time>2026-04-19T12:22:01.621Z</time></trkpt><trkpt lat="43.3521117" lon="11.5428183"><ele>358.0</ele><time>2026-04-19T12:22:02.621Z</time></trkpt><trkpt lat="43.352165" lon="11.5426567"><ele>358.0</ele><time>2026-04-19T12:22:03.622Z</time></trkpt><trkpt lat="43.3522117" lon="11.5425"><ele>357.5</ele><time>2026-04-19T12:22:04.621Z</time></trkpt><trkpt lat="43.352265" lon="11.54234"><ele>357.0</ele><time>2026-04-19T12:22:05.621Z</time></trkpt><trkpt lat="43.3523233" lon="11.5421817"><ele>356.5</ele><time>2026-04-19T12:22:06.621Z</time></trkpt><trkpt lat="43.3523817" lon="11.5420367"><ele>356.0</ele><time>2026-04-19T12:22:07.622Z</time></trkpt><trkpt lat="43.3524583" lon="11.5419183"><ele>357.0</ele><time>2026-04-19T12:22:08.622Z</time></trkpt><trkpt lat="43.3525567" lon="11.5418067"><ele>358.0</ele><time>2026-04-19T12:22:09.622Z</time></trkpt><trkpt lat="43.3526667" lon="11.5417083"><ele>359.0</ele><time>2026-04-19T12:22:10.622Z</time></trkpt><trkpt lat="43.35279" lon="11.54162"><ele>360.0</ele><time>2026-04-19T12:22:11.621Z</time></trkpt><trkpt lat="43.3529167" lon="11.54152"><ele>360.0</ele><time>2026-04-19T12:22:12.621Z</time></trkpt><trkpt lat="43.3530467" lon="11.5414183"><ele>360.0</ele><time>2026-04-19T12:22:13.622Z</time></trkpt><trkpt lat="43.35317" lon="11.5413183"><ele>360.0</ele><time>2026-04-19T12:22:14.621Z</time></trkpt><trkpt lat="43.3532883" lon="11.541215"><ele>360.0</ele><time>2026-04-19T12:22:15.621Z</time></trkpt><trkpt lat="43.353405" lon="11.5410867"><ele>360.6666666666667</ele><time>2026-04-19T12:22:16.622Z</time></trkpt><trkpt lat="43.3535117" lon="11.5409467"><ele>361.33333333333337</ele><time>2026-04-19T12:22:17.621Z</time></trkpt><trkpt lat="43.35362" lon="11.5408067"><ele>362.0</ele><time>2026-04-19T12:22:18.621Z</time></trkpt><trkpt lat="43.3537333" lon="11.5406583"><ele>362.0</ele><time>2026-04-19T12:22:19.621Z</time></trkpt><trkpt lat="43.3538517" lon="11.5405083"><ele>362.0</ele><time>2026-04-19T12:22:20.622Z</time></trkpt><trkpt lat="43.3539617" lon="11.5403617"><ele>362.0</ele><time>2026-04-19T12:22:21.622Z</time></trkpt><trkpt lat="43.3540617" lon="11.54021"><ele>363.25</ele><time>2026-04-19T12:22:22.621Z</time></trkpt><trkpt lat="43.3541517" lon="11.5400683"><ele>364.5</ele><time>2026-04-19T12:22:23.621Z</time></trkpt><trkpt lat="43.354225" lon="11.5399233"><ele>365.75</ele><time>2026-04-19T12:22:24.621Z</time></trkpt><trkpt lat="43.3542883" lon="11.539775"><ele>367.0</ele><time>2026-04-19T12:22:25.621Z</time></trkpt><trkpt lat="43.3543383" lon="11.539605"><ele>367.0</ele><time>2026-04-19T12:22:26.621Z</time></trkpt><trkpt lat="43.3543817" lon="11.5394283"><ele>367.0</ele><time>2026-04-19T12:22:27.622Z</time></trkpt><trkpt lat="43.35443" lon="11.539235"><ele>367.0</ele><time>2026-04-19T12:22:28.621Z</time></trkpt><trkpt lat="43.35447" lon="11.5390433"><ele>367.0</ele><time>2026-04-19T12:22:29.621Z</time></trkpt><trkpt lat="43.3545083" lon="11.5388667"><ele>367.0</ele><time>2026-04-19T12:22:30.622Z</time></trkpt><trkpt lat="43.3545383" lon="11.5387167"><ele>367.0</ele><time>2026-04-19T12:22:31.621Z</time></trkpt><trkpt lat="43.3545617" lon="11.5385767"><ele>367.0</ele><time>2026-04-19T12:22:32.622Z</time></trkpt><trkpt lat="43.3545667" lon="11.5384433"><ele>367.0</ele><time>2026-04-19T12:22:33.621Z</time></trkpt><trkpt lat="43.3545417" lon="11.5383217"><ele>367.0</ele><time>2026-04-19T12:22:34.621Z</time></trkpt><trkpt lat="43.354505" lon="11.5381967"><ele>367.0</ele><time>2026-04-19T12:22:35.622Z</time></trkpt><trkpt lat="43.354475" lon="11.5380617"><ele>367.0</ele><time>2026-04-19T12:22:36.621Z</time></trkpt><trkpt lat="43.3544583" lon="11.537935"><ele>367.0</ele><time>2026-04-19T12:22:37.621Z</time></trkpt><trkpt lat="43.35445" lon="11.5377983"><ele>367.0</ele><time>2026-04-19T12:22:38.621Z</time></trkpt><trkpt lat="43.3544717" lon="11.5376583"><ele>367.0</ele><time>2026-04-19T12:22:39.621Z</time></trkpt><trkpt lat="43.354505" lon="11.5375033"><ele>367.20000000000005</ele><time>2026-04-19T12:22:40.621Z</time></trkpt><trkpt lat="43.354555" lon="11.5373617"><ele>367.4</ele><time>2026-04-19T12:22:41.621Z</time></trkpt><trkpt lat="43.354615" lon="11.5372367"><ele>367.6</ele><time>2026-04-19T12:22:42.622Z</time></trkpt><trkpt lat="43.3546833" lon="11.5371417"><ele>367.79999999999995</ele><time>2026-04-19T12:22:43.621Z</time></trkpt><trkpt lat="43.3547633" lon="11.5370617"><ele>368.0</ele><time>2026-04-19T12:22:44.621Z</time></trkpt><trkpt lat="43.354855" lon="11.5370033"><ele>368.2</ele><time>2026-04-19T12:22:45.621Z</time></trkpt><trkpt lat="43.3549533" lon="11.5369483"><ele>368.4</ele><time>2026-04-19T12:22:46.621Z</time></trkpt><trkpt lat="43.35506" lon="11.5369117"><ele>368.59999999999997</ele><time>2026-04-19T12:22:47.621Z</time></trkpt><trkpt lat="43.3551633" lon="11.5368933"><ele>368.79999999999995</ele><time>2026-04-19T12:22:48.621Z</time></trkpt><trkpt lat="43.355255" lon="11.5368917"><ele>369.0</ele><time>2026-04-19T12:22:49.621Z</time></trkpt><trkpt lat="43.3553467" lon="11.536915"><ele>369.0</ele><time>2026-04-19T12:22:50.622Z</time></trkpt><trkpt lat="43.355435" lon="11.5369667"><ele>369.0</ele><time>2026-04-19T12:22:51.622Z</time></trkpt><trkpt lat="43.35552" lon="11.5370283"><ele>369.0</ele><time>2026-04-19T12:22:52.621Z</time></trkpt><trkpt lat="43.3556117" lon="11.5370867"><ele>369.0</ele><time>2026-04-19T12:22:53.621Z</time></trkpt><trkpt lat="43.35571" lon="11.5371367"><ele>369.0</ele><time>2026-04-19T12:22:54.621Z</time></trkpt><trkpt lat="43.355825" lon="11.53717"><ele>368.0</ele><time>2026-04-19T12:22:55.621Z</time></trkpt><trkpt lat="43.3559517" lon="11.5371883"><ele>367.0</ele><time>2026-04-19T12:22:56.622Z</time></trkpt><trkpt lat="43.356075" lon="11.5372"><ele>366.0</ele><time>2026-04-19T12:22:57.621Z</time></trkpt><trkpt lat="43.3561917" lon="11.5372"><ele>365.0</ele><time>2026-04-19T12:22:58.622Z</time></trkpt><trkpt lat="43.35631" lon="11.537165"><ele>365.0</ele><time>2026-04-19T12:22:59.621Z</time></trkpt><trkpt lat="43.356435" lon="11.5371067"><ele>365.0</ele><time>2026-04-19T12:23:00.621Z</time></trkpt><trkpt lat="43.3565617" lon="11.53704"><ele>365.0</ele><time>2026-04-19T12:23:01.622Z</time></trkpt><trkpt lat="43.356695" lon="11.5369967"><ele>365.0</ele><time>2026-04-19T12:23:02.622Z</time></trkpt><trkpt lat="43.3568233" lon="11.5369683"><ele>365.0</ele><time>2026-04-19T12:23:03.621Z</time></trkpt><trkpt lat="43.35696" lon="11.53695"><ele>365.0</ele><time>2026-04-19T12:23:04.622Z</time></trkpt><trkpt lat="43.3571083" lon="11.536955"><ele>365.0</ele><time>2026-04-19T12:23:05.621Z</time></trkpt><trkpt lat="43.3572483" lon="11.5369633"><ele>365.0</ele><time>2026-04-19T12:23:06.621Z</time></trkpt><trkpt lat="43.3574" lon="11.5369633"><ele>365.25</ele><time>2026-04-19T12:23:07.622Z</time></trkpt><trkpt lat="43.3575417" lon="11.536955"><ele>365.5</ele><time>2026-04-19T12:23:08.621Z</time></trkpt><trkpt lat="43.3576767" lon="11.53694"><ele>365.75</ele><time>2026-04-19T12:23:09.621Z</time></trkpt><trkpt lat="43.3577967" lon="11.536925"><ele>366.0</ele><time>2026-04-19T12:23:10.622Z</time></trkpt><trkpt lat="43.35791" lon="11.5369233"><ele>366.0</ele><time>2026-04-19T12:23:11.621Z</time></trkpt><trkpt lat="43.3580333" lon="11.536955"><ele>366.0</ele><time>2026-04-19T12:23:12.621Z</time></trkpt><trkpt lat="43.3581517" lon="11.5370117"><ele>366.0</ele><time>2026-04-19T12:23:13.621Z</time></trkpt><trkpt lat="43.3582833" lon="11.5370783"><ele>366.0</ele><time>2026-04-19T12:23:14.621Z</time></trkpt><trkpt lat="43.35842" lon="11.5371583"><ele>366.0</ele><time>2026-04-19T12:23:15.621Z</time></trkpt><trkpt lat="43.3585533" lon="11.5372267"><ele>366.0</ele><time>2026-04-19T12:23:16.621Z</time></trkpt><trkpt lat="43.3586817" lon="11.53731"><ele>366.0</ele><time>2026-04-19T12:23:17.621Z</time></trkpt><trkpt lat="43.358805" lon="11.5374133"><ele>366.0</ele><time>2026-04-19T12:23:18.622Z</time></trkpt><trkpt lat="43.35893" lon="11.5375217"><ele>366.0</ele><time>2026-04-19T12:23:19.622Z</time></trkpt><trkpt lat="43.3590483" lon="11.5376517"><ele>366.0</ele><time>2026-04-19T12:23:20.622Z</time></trkpt><trkpt lat="43.3591567" lon="11.537785"><ele>366.0</ele><time>2026-04-19T12:23:21.622Z</time></trkpt><trkpt lat="43.35926" lon="11.5379417"><ele>366.75</ele><time>2026-04-19T12:23:22.621Z</time></trkpt><trkpt lat="43.3593717" lon="11.5380883"><ele>367.5</ele><time>2026-04-19T12:23:23.621Z</time></trkpt><trkpt lat="43.3594767" lon="11.5382217"><ele>368.25</ele><time>2026-04-19T12:23:24.621Z</time></trkpt><trkpt lat="43.3595817" lon="11.5383317"><ele>369.0</ele><time>2026-04-19T12:23:25.621Z</time></trkpt><trkpt lat="43.3596917" lon="11.53843"><ele>369.25</ele><time>2026-04-19T12:23:26.622Z</time></trkpt><trkpt lat="43.3597983" lon="11.5385083"><ele>369.5</ele><time>2026-04-19T12:23:27.621Z</time></trkpt><trkpt lat="43.359925" lon="11.538555"><ele>369.75</ele><time>2026-04-19T12:23:28.622Z</time></trkpt><trkpt lat="43.3600617" lon="11.538575"><ele>370.0</ele><time>2026-04-19T12:23:29.621Z</time></trkpt><trkpt lat="43.3601933" lon="11.538615"><ele>370.0</ele><time>2026-04-19T12:23:30.622Z</time></trkpt><trkpt lat="43.3603017" lon="11.5386533"><ele>370.0</ele><time>2026-04-19T12:23:31.621Z</time></trkpt><trkpt lat="43.3603983" lon="11.538685"><ele>370.0</ele><time>2026-04-19T12:23:32.621Z</time></trkpt><trkpt lat="43.3604833" lon="11.5386883"><ele>370.0</ele><time>2026-04-19T12:23:33.622Z</time></trkpt><trkpt lat="43.3605633" lon="11.538675"><ele>370.0</ele><time>2026-04-19T12:23:34.621Z</time></trkpt><trkpt lat="43.360665" lon="11.53865"><ele>371.0</ele><time>2026-04-19T12:23:35.622Z</time></trkpt><trkpt lat="43.3607767" lon="11.53861"><ele>372.0</ele><time>2026-04-19T12:23:36.622Z</time></trkpt><trkpt lat="43.360895" lon="11.538575"><ele>373.0</ele><time>2026-04-19T12:23:37.622Z</time></trkpt><trkpt lat="43.361015" lon="11.5385267"><ele>374.0</ele><time>2026-04-19T12:23:38.621Z</time></trkpt><trkpt lat="43.3611433" lon="11.53846"><ele>374.0</ele><time>2026-04-19T12:23:39.622Z</time></trkpt><trkpt lat="43.3612717" lon="11.5383533"><ele>374.0</ele><time>2026-04-19T12:23:40.622Z</time></trkpt><trkpt lat="43.3614" lon="11.538245"><ele>374.0</ele><time>2026-04-19T12:23:41.621Z</time></trkpt><trkpt lat="43.3615183" lon="11.5381483"><ele>374.0</ele><time>2026-04-19T12:23:42.621Z</time></trkpt><trkpt lat="43.3616317" lon="11.53805"><ele>374.5</ele><time>2026-04-19T12:23:43.622Z</time></trkpt><trkpt lat="43.361735" lon="11.5379517"><ele>375.0</ele><time>2026-04-19T12:23:44.622Z</time></trkpt><trkpt lat="43.36184" lon="11.5378733"><ele>375.5</ele><time>2026-04-19T12:23:45.621Z</time></trkpt><trkpt lat="43.3619683" lon="11.537815"><ele>376.0</ele><time>2026-04-19T12:23:46.621Z</time></trkpt><trkpt lat="43.362115" lon="11.5377617"><ele>375.66666666666663</ele><time>2026-04-19T12:23:47.622Z</time></trkpt><trkpt lat="43.3622717" lon="11.5377067"><ele>375.3333333333333</ele><time>2026-04-19T12:23:48.621Z</time></trkpt><trkpt lat="43.362425" lon="11.5376333"><ele>375.0</ele><time>2026-04-19T12:23:49.622Z</time></trkpt><trkpt lat="43.3625767" lon="11.5375767"><ele>375.0</ele><time>2026-04-19T12:23:50.621Z</time></trkpt><trkpt lat="43.3627233" lon="11.53752"><ele>375.0</ele><time>2026-04-19T12:23:51.621Z</time></trkpt><trkpt lat="43.3628583" lon="11.537465"><ele>375.0</ele><time>2026-04-19T12:23:52.621Z</time></trkpt><trkpt lat="43.3629867" lon="11.537405"><ele>375.0</ele><time>2026-04-19T12:23:53.621Z</time></trkpt><trkpt lat="43.3630933" lon="11.5373183"><ele>375.25</ele><time>2026-04-19T12:23:54.621Z</time></trkpt><trkpt lat="43.363185" lon="11.5372067"><ele>375.5</ele><time>2026-04-19T12:23:55.621Z</time></trkpt><trkpt lat="43.3632583" lon="11.537075"><ele>375.75</ele><time>2026-04-19T12:23:56.622Z</time></trkpt><trkpt lat="43.36333" lon="11.536925"><ele>376.0</ele><time>2026-04-19T12:23:57.622Z</time></trkpt><trkpt lat="43.3633833" lon="11.5367583"><ele>376.0</ele><time>2026-04-19T12:23:58.621Z</time></trkpt><trkpt lat="43.363425" lon="11.5365717"><ele>376.0</ele><time>2026-04-19T12:23:59.621Z</time></trkpt><trkpt lat="43.3634567" lon="11.5363917"><ele>376.0</ele><time>2026-04-19T12:24:00.621Z</time></trkpt><trkpt lat="43.36349" lon="11.5362367"><ele>376.0</ele><time>2026-04-19T12:24:01.622Z</time></trkpt><trkpt lat="43.3635433" lon="11.536105"><ele>376.25</ele><time>2026-04-19T12:24:02.622Z</time></trkpt><trkpt lat="43.3636183" lon="11.5359933"><ele>376.5</ele><time>2026-04-19T12:24:03.621Z</time></trkpt><trkpt lat="43.3637167" lon="11.5358767"><ele>376.75</ele><time>2026-04-19T12:24:04.622Z</time></trkpt><trkpt lat="43.3638333" lon="11.5357633"><ele>377.0</ele><time>2026-04-19T12:24:05.621Z</time></trkpt><trkpt lat="43.36395" lon="11.5356567"><ele>377.0</ele><time>2026-04-19T12:24:06.621Z</time></trkpt><trkpt lat="43.36407" lon="11.535565"><ele>377.0</ele><time>2026-04-19T12:24:07.621Z</time></trkpt><trkpt lat="43.3641733" lon="11.5354783"><ele>377.0</ele><time>2026-04-19T12:24:08.621Z</time></trkpt><trkpt lat="43.3642617" lon="11.5353667"><ele>377.0</ele><time>2026-04-19T12:24:09.622Z</time></trkpt><trkpt lat="43.36433" lon="11.53525"><ele>377.0</ele><time>2026-04-19T12:24:10.622Z</time></trkpt><trkpt lat="43.3643867" lon="11.53513"><ele>377.0</ele><time>2026-04-19T12:24:11.622Z</time></trkpt><trkpt lat="43.3644433" lon="11.535015"><ele>377.0</ele><time>2026-04-19T12:24:12.621Z</time></trkpt><trkpt lat="43.3645" lon="11.5349217"><ele>377.0</ele><time>2026-04-19T12:24:13.621Z</time></trkpt><trkpt lat="43.364565" lon="11.5348483"><ele>377.0</ele><time>2026-04-19T12:24:14.622Z</time></trkpt><trkpt lat="43.3646283" lon="11.5348"><ele>376.33333333333337</ele><time>2026-04-19T12:24:15.621Z</time></trkpt><trkpt lat="43.3647017" lon="11.5347367"><ele>375.6666666666667</ele><time>2026-04-19T12:24:17.622Z</time></trkpt><trkpt lat="43.3647233" lon="11.5345983"><ele>375.0</ele><time>2026-04-19T12:24:19.621Z</time></trkpt><trkpt lat="43.3647317" lon="11.5345"><ele>374.3333333333333</ele><time>2026-04-19T12:24:20.621Z</time></trkpt><trkpt lat="43.3647183" lon="11.534375"><ele>373.66666666666663</ele><time>2026-04-19T12:24:21.622Z</time></trkpt><trkpt lat="43.3647017" lon="11.53425"><ele>373.0</ele><time>2026-04-19T12:24:22.622Z</time></trkpt><trkpt lat="43.36468" lon="11.5341283"><ele>373.0</ele><time>2026-04-19T12:24:23.621Z</time></trkpt><trkpt lat="43.3646717" lon="11.5339917"><ele>373.0</ele><time>2026-04-19T12:24:24.621Z</time></trkpt><trkpt lat="43.3646733" lon="11.53386"><ele>373.0</ele><time>2026-04-19T12:24:25.621Z</time></trkpt><trkpt lat="43.364665" lon="11.53373"><ele>373.0</ele><time>2026-04-19T12:24:26.622Z</time></trkpt><trkpt lat="43.36466" lon="11.5336133"><ele>373.0</ele><time>2026-04-19T12:24:27.621Z</time></trkpt><trkpt lat="43.36465" lon="11.533505"><ele>373.0</ele><time>2026-04-19T12:24:28.622Z</time></trkpt><trkpt lat="43.3646283" lon="11.5333967"><ele>373.0</ele><time>2026-04-19T12:24:29.622Z</time></trkpt><trkpt lat="43.3646083" lon="11.5332967"><ele>373.0</ele><time>2026-04-19T12:24:30.621Z</time></trkpt><trkpt lat="43.364575" lon="11.5331983"><ele>373.0</ele><time>2026-04-19T12:24:31.622Z</time></trkpt><trkpt lat="43.3645483" lon="11.5331033"><ele>373.0</ele><time>2026-04-19T12:24:32.621Z</time></trkpt><trkpt lat="43.364505" lon="11.533005"><ele>373.0</ele><time>2026-04-19T12:24:33.622Z</time></trkpt><trkpt lat="43.3644683" lon="11.5329217"><ele>373.16666666666663</ele><time>2026-04-19T12:24:34.621Z</time></trkpt><trkpt lat="43.3644233" lon="11.5328583"><ele>373.3333333333333</ele><time>2026-04-19T12:24:35.621Z</time></trkpt><trkpt lat="43.3643783" lon="11.5327883"><ele>373.5</ele><time>2026-04-19T12:24:36.621Z</time></trkpt><trkpt lat="43.3643433" lon="11.5326183"><ele>373.6666666666667</ele><time>2026-04-19T12:24:38.621Z</time></trkpt><trkpt lat="43.3643483" lon="11.532505"><ele>373.83333333333337</ele><time>2026-04-19T12:24:39.621Z</time></trkpt><trkpt lat="43.3643717" lon="11.5323767"><ele>374.0</ele><time>2026-04-19T12:24:40.621Z</time></trkpt><trkpt lat="43.3644067" lon="11.5322333"><ele>374.0</ele><time>2026-04-19T12:24:41.621Z</time></trkpt><trkpt lat="43.3644433" lon="11.53208"><ele>374.0</ele><time>2026-04-19T12:24:42.622Z</time></trkpt><trkpt lat="43.3644933" lon="11.531925"><ele>374.0</ele><time>2026-04-19T12:24:43.622Z</time></trkpt><trkpt lat="43.3645567" lon="11.531775"><ele>374.0</ele><time>2026-04-19T12:24:44.622Z</time></trkpt><trkpt lat="43.3646283" lon="11.5316317"><ele>371.0</ele><time>2026-04-19T12:24:45.622Z</time></trkpt><trkpt lat="43.364705" lon="11.5314833"><ele>368.0</ele><time>2026-04-19T12:24:46.622Z</time></trkpt><trkpt lat="43.3647833" lon="11.5313433"><ele>365.0</ele><time>2026-04-19T12:24:47.622Z</time></trkpt><trkpt lat="43.3648633" lon="11.5312"><ele>362.0</ele><time>2026-04-19T12:24:48.622Z</time></trkpt><trkpt lat="43.3649433" lon="11.5310633"><ele>362.0</ele><time>2026-04-19T12:24:49.622Z</time></trkpt><trkpt lat="43.3650233" lon="11.5309233"><ele>362.0</ele><time>2026-04-19T12:24:50.621Z</time></trkpt><trkpt lat="43.3651033" lon="11.5307717"><ele>362.0</ele><time>2026-04-19T12:24:51.621Z</time></trkpt><trkpt lat="43.3651833" lon="11.5306183"><ele>362.0</ele><time>2026-04-19T12:24:52.622Z</time></trkpt><trkpt lat="43.3652633" lon="11.5304717"><ele>360.75</ele><time>2026-04-19T12:24:53.621Z</time></trkpt><trkpt lat="43.3653433" lon="11.53033"><ele>359.5</ele><time>2026-04-19T12:24:54.622Z</time></trkpt><trkpt lat="43.3654233" lon="11.530185"><ele>358.25</ele><time>2026-04-19T12:24:55.622Z</time></trkpt><trkpt lat="43.36551" lon="11.5300367"><ele>357.0</ele><time>2026-04-19T12:24:56.621Z</time></trkpt><trkpt lat="43.3655967" lon="11.5298883"><ele>356.6</ele><time>2026-04-19T12:24:57.621Z</time></trkpt><trkpt lat="43.3656683" lon="11.5297533"><ele>356.20000000000005</ele><time>2026-04-19T12:24:58.622Z</time></trkpt><trkpt lat="43.3657267" lon="11.5296283"><ele>355.8</ele><time>2026-04-19T12:24:59.622Z</time></trkpt><trkpt lat="43.3657783" lon="11.5295067"><ele>355.4</ele><time>2026-04-19T12:25:00.62Z</time></trkpt><trkpt lat="43.3658217" lon="11.5293917"><ele>355.0</ele><time>2026-04-19T12:25:01.62Z</time></trkpt><trkpt lat="43.36585" lon="11.529275"><ele>355.0</ele><time>2026-04-19T12:25:02.621Z</time></trkpt><trkpt lat="43.365875" lon="11.5291617"><ele>355.0</ele><time>2026-04-19T12:25:03.621Z</time></trkpt><trkpt lat="43.3658967" lon="11.529055"><ele>355.0</ele><time>2026-04-19T12:25:04.62Z</time></trkpt><trkpt lat="43.365925" lon="11.5289367"><ele>355.0</ele><time>2026-04-19T12:25:05.621Z</time></trkpt><trkpt lat="43.3659567" lon="11.5288183"><ele>355.0</ele><time>2026-04-19T12:25:06.62Z</time></trkpt><trkpt lat="43.3659917" lon="11.528685"><ele>354.8</ele><time>2026-04-19T12:25:07.621Z</time></trkpt><trkpt lat="43.366025" lon="11.5285433"><ele>354.6</ele><time>2026-04-19T12:25:08.62Z</time></trkpt><trkpt lat="43.3660583" lon="11.5284033"><ele>354.4</ele><time>2026-04-19T12:25:09.62Z</time></trkpt><trkpt lat="43.3660967" lon="11.5282633"><ele>354.2</ele><time>2026-04-19T12:25:10.62Z</time></trkpt><trkpt lat="43.366135" lon="11.5281283"><ele>354.0</ele><time>2026-04-19T12:25:11.62Z</time></trkpt><trkpt lat="43.3661717" lon="11.528005"><ele>354.0</ele><time>2026-04-19T12:25:12.62Z</time></trkpt><trkpt lat="43.3662283" lon="11.5279017"><ele>354.0</ele><time>2026-04-19T12:25:13.62Z</time></trkpt><trkpt lat="43.3662983" lon="11.5278117"><ele>354.0</ele><time>2026-04-19T12:25:14.621Z</time></trkpt><trkpt lat="43.3663767" lon="11.5277217"><ele>354.0</ele><time>2026-04-19T12:25:15.621Z</time></trkpt><trkpt lat="43.36645" lon="11.5276367"><ele>354.0</ele><time>2026-04-19T12:25:16.62Z</time></trkpt><trkpt lat="43.36651" lon="11.5275483"><ele>353.5</ele><time>2026-04-19T12:25:17.62Z</time></trkpt><trkpt lat="43.3665417" lon="11.5274683"><ele>353.0</ele><time>2026-04-19T12:25:18.62Z</time></trkpt><trkpt lat="43.3666067" lon="11.52732"><ele>352.5</ele><time>2026-04-19T12:25:20.621Z</time></trkpt><trkpt lat="43.36665" lon="11.5272567"><ele>352.0</ele><time>2026-04-19T12:25:21.62Z</time></trkpt><trkpt lat="43.3667033" lon="11.5271783"><ele>351.5</ele><time>2026-04-19T12:25:22.62Z</time></trkpt><trkpt lat="43.3667583" lon="11.52708"><ele>351.0</ele><time>2026-04-19T12:25:23.621Z</time></trkpt><trkpt lat="43.3668167" lon="11.5269583"><ele>351.0</ele><time>2026-04-19T12:25:24.621Z</time></trkpt><trkpt lat="43.3668717" lon="11.526825"><ele>351.0</ele><time>2026-04-19T12:25:25.62Z</time></trkpt><trkpt lat="43.3669383" lon="11.5266917"><ele>351.0</ele><time>2026-04-19T12:25:26.62Z</time></trkpt><trkpt lat="43.366995" lon="11.52657"><ele>351.0</ele><time>2026-04-19T12:25:27.62Z</time></trkpt><trkpt lat="43.3670517" lon="11.5264367"><ele>351.0</ele><time>2026-04-19T12:25:28.62Z</time></trkpt><trkpt lat="43.367125" lon="11.526295"><ele>352.75</ele><time>2026-04-19T12:25:29.621Z</time></trkpt><trkpt lat="43.367205" lon="11.5261533"><ele>354.5</ele><time>2026-04-19T12:25:30.62Z</time></trkpt><trkpt lat="43.3672933" lon="11.5260333"><ele>356.25</ele><time>2026-04-19T12:25:31.62Z</time></trkpt><trkpt lat="43.3673867" lon="11.525925"><ele>358.0</ele><time>2026-04-19T12:25:32.621Z</time></trkpt><trkpt lat="43.3674817" lon="11.5258233"><ele>358.0</ele><time>2026-04-19T12:25:33.621Z</time></trkpt><trkpt lat="43.36758" lon="11.52571"><ele>358.0</ele><time>2026-04-19T12:25:34.62Z</time></trkpt><trkpt lat="43.367675" lon="11.525605"><ele>358.0</ele><time>2026-04-19T12:25:35.62Z</time></trkpt><trkpt lat="43.36777" lon="11.5255017"><ele>358.0</ele><time>2026-04-19T12:25:36.62Z</time></trkpt><trkpt lat="43.3678617" lon="11.5253983"><ele>359.25</ele><time>2026-04-19T12:25:37.62Z</time></trkpt><trkpt lat="43.3679533" lon="11.5253"><ele>360.5</ele><time>2026-04-19T12:25:38.62Z</time></trkpt><trkpt lat="43.3680467" lon="11.5251967"><ele>361.75</ele><time>2026-04-19T12:25:39.621Z</time></trkpt><trkpt lat="43.368145" lon="11.525085"><ele>363.0</ele><time>2026-04-19T12:25:40.621Z</time></trkpt><trkpt lat="43.3682333" lon="11.5249983"><ele>365.75</ele><time>2026-04-19T12:25:41.62Z</time></trkpt><trkpt lat="43.3683217" lon="11.524905"><ele>368.5</ele><time>2026-04-19T12:25:42.62Z</time></trkpt><trkpt lat="43.3684183" lon="11.5248083"><ele>371.25</ele><time>2026-04-19T12:25:43.62Z</time></trkpt><trkpt lat="43.3685217" lon="11.524715"><ele>374.0</ele><time>2026-04-19T12:25:44.62Z</time></trkpt><trkpt lat="43.36863" lon="11.5246117"><ele>375.0</ele><time>2026-04-19T12:25:45.62Z</time></trkpt><trkpt lat="43.3687367" lon="11.52449"><ele>376.0</ele><time>2026-04-19T12:25:46.62Z</time></trkpt><trkpt lat="43.3688567" lon="11.5243667"><ele>377.0</ele><time>2026-04-19T12:25:47.621Z</time></trkpt><trkpt lat="43.3689683" lon="11.5242467"><ele>378.0</ele><time>2026-04-19T12:25:48.62Z</time></trkpt><trkpt lat="43.3690817" lon="11.52412"><ele>380.66666666666663</ele><time>2026-04-19T12:25:49.62Z</time></trkpt><trkpt lat="43.3692" lon="11.5239917"><ele>383.3333333333333</ele><time>2026-04-19T12:25:50.621Z</time></trkpt><trkpt lat="43.369325" lon="11.5238567"><ele>386.0</ele><time>2026-04-19T12:25:51.621Z</time></trkpt><trkpt lat="43.3694517" lon="11.52373"><ele>386.0</ele><time>2026-04-19T12:25:52.621Z</time></trkpt><trkpt lat="43.3695733" lon="11.5236067"><ele>386.0</ele><time>2026-04-19T12:25:53.62Z</time></trkpt><trkpt lat="43.369685" lon="11.5235017"><ele>386.0</ele><time>2026-04-19T12:25:54.62Z</time></trkpt><trkpt lat="43.3697867" lon="11.523395"><ele>386.0</ele><time>2026-04-19T12:25:55.621Z</time></trkpt><trkpt lat="43.3698817" lon="11.5233"><ele>389.0</ele><time>2026-04-19T12:25:56.621Z</time></trkpt><trkpt lat="43.369975" lon="11.523205"><ele>392.0</ele><time>2026-04-19T12:25:57.62Z</time></trkpt><trkpt lat="43.370075" lon="11.5231233"><ele>395.0</ele><time>2026-04-19T12:25:58.62Z</time></trkpt><trkpt lat="43.37019" lon="11.5230633"><ele>398.0</ele><time>2026-04-19T12:25:59.62Z</time></trkpt><trkpt lat="43.3703033" lon="11.52302"><ele>398.0</ele><time>2026-04-19T12:26:00.621Z</time></trkpt><trkpt lat="43.3704283" lon="11.5229933"><ele>398.0</ele><time>2026-04-19T12:26:01.621Z</time></trkpt><trkpt lat="43.3705567" lon="11.5229833"><ele>398.0</ele><time>2026-04-19T12:26:02.62Z</time></trkpt><trkpt lat="43.3707017" lon="11.5229783"><ele>398.0</ele><time>2026-04-19T12:26:03.62Z</time></trkpt><trkpt lat="43.3708533" lon="11.5229783"><ele>400.0</ele><time>2026-04-19T12:26:04.621Z</time></trkpt><trkpt lat="43.371005" lon="11.5229817"><ele>402.0</ele><time>2026-04-19T12:26:05.621Z</time></trkpt><trkpt lat="43.3711583" lon="11.5229867"><ele>404.0</ele><time>2026-04-19T12:26:06.621Z</time></trkpt><trkpt lat="43.3713183" lon="11.5229783"><ele>405.3333333333333</ele><time>2026-04-19T12:26:07.62Z</time></trkpt><trkpt lat="43.3714833" lon="11.5229717"><ele>406.66666666666663</ele><time>2026-04-19T12:26:08.62Z</time></trkpt><trkpt lat="43.3716533" lon="11.52297"><ele>408.0</ele><time>2026-04-19T12:26:09.62Z</time></trkpt><trkpt lat="43.3718233" lon="11.5229717"><ele>408.0</ele><time>2026-04-19T12:26:10.621Z</time></trkpt><trkpt lat="43.3719983" lon="11.52298"><ele>408.0</ele><time>2026-04-19T12:26:11.621Z</time></trkpt><trkpt lat="43.372175" lon="11.5229817"><ele>408.0</ele><time>2026-04-19T12:26:12.62Z</time></trkpt><trkpt lat="43.3723533" lon="11.5229683"><ele>411.33333333333337</ele><time>2026-04-19T12:26:13.62Z</time></trkpt><trkpt lat="43.3725217" lon="11.5229683"><ele>414.6666666666667</ele><time>2026-04-19T12:26:14.621Z</time></trkpt><trkpt lat="43.3726767" lon="11.5229717"><ele>418.0</ele><time>2026-04-19T12:26:15.62Z</time></trkpt><trkpt lat="43.3728117" lon="11.5229633"><ele>418.0</ele><time>2026-04-19T12:26:16.621Z</time></trkpt><trkpt lat="43.3729317" lon="11.5229633"><ele>418.0</ele><time>2026-04-19T12:26:17.62Z</time></trkpt><trkpt lat="43.3730517" lon="11.5229533"><ele>418.0</ele><time>2026-04-19T12:26:18.62Z</time></trkpt><trkpt lat="43.3731833" lon="11.52292"><ele>418.0</ele><time>2026-04-19T12:26:19.62Z</time></trkpt><trkpt lat="43.3733267" lon="11.5228733"><ele>420.0</ele><time>2026-04-19T12:26:20.62Z</time></trkpt><trkpt lat="43.3734717" lon="11.5228217"><ele>422.0</ele><time>2026-04-19T12:26:21.621Z</time></trkpt><trkpt lat="43.3736083" lon="11.5227767"><ele>424.0</ele><time>2026-04-19T12:26:22.62Z</time></trkpt><trkpt lat="43.373735" lon="11.5227367"><ele>426.0</ele><time>2026-04-19T12:26:23.62Z</time></trkpt><trkpt lat="43.3738483" lon="11.5227067"><ele>426.75</ele><time>2026-04-19T12:26:24.62Z</time></trkpt><trkpt lat="43.3739533" lon="11.5226633"><ele>427.5</ele><time>2026-04-19T12:26:25.62Z</time></trkpt><trkpt lat="43.37406" lon="11.5226067"><ele>428.25</ele><time>2026-04-19T12:26:26.621Z</time></trkpt><trkpt lat="43.3741717" lon="11.5225283"><ele>429.0</ele><time>2026-04-19T12:26:27.621Z</time></trkpt><trkpt lat="43.3742933" lon="11.52244"><ele>429.0</ele><time>2026-04-19T12:26:28.621Z</time></trkpt><trkpt lat="43.3744333" lon="11.5223433"><ele>429.0</ele><time>2026-04-19T12:26:29.62Z</time></trkpt><trkpt lat="43.374585" lon="11.522235"><ele>429.0</ele><time>2026-04-19T12:26:30.62Z</time></trkpt><trkpt lat="43.3747617" lon="11.522125"><ele>430.33333333333337</ele><time>2026-04-19T12:26:31.62Z</time></trkpt><trkpt lat="43.3749417" lon="11.5220033"><ele>431.6666666666667</ele><time>2026-04-19T12:26:32.62Z</time></trkpt><trkpt lat="43.37513" lon="11.521885"><ele>433.0</ele><time>2026-04-19T12:26:33.62Z</time></trkpt><trkpt lat="43.3753183" lon="11.52176"><ele>433.0</ele><time>2026-04-19T12:26:34.621Z</time></trkpt><trkpt lat="43.375495" lon="11.5216333"><ele>433.0</ele><time>2026-04-19T12:26:35.62Z</time></trkpt><trkpt lat="43.3756517" lon="11.5215033"><ele>433.0</ele><time>2026-04-19T12:26:36.62Z</time></trkpt><trkpt lat="43.37579" lon="11.5213983"><ele>434.75</ele><time>2026-04-19T12:26:37.62Z</time></trkpt><trkpt lat="43.37593" lon="11.521295"><ele>436.5</ele><time>2026-04-19T12:26:38.621Z</time></trkpt><trkpt lat="43.3760467" lon="11.5212017"><ele>438.25</ele><time>2026-04-19T12:26:39.62Z</time></trkpt><trkpt lat="43.3761633" lon="11.521115"><ele>440.0</ele><time>2026-04-19T12:26:40.621Z</time></trkpt><trkpt lat="43.376275" lon="11.5210533"><ele>441.75</ele><time>2026-04-19T12:26:41.62Z</time></trkpt><trkpt lat="43.3763883" lon="11.521015"><ele>443.5</ele><time>2026-04-19T12:26:42.621Z</time></trkpt><trkpt lat="43.3765067" lon="11.5209967"><ele>445.25</ele><time>2026-04-19T12:26:43.62Z</time></trkpt><trkpt lat="43.37664" lon="11.5209867"><ele>447.0</ele><time>2026-04-19T12:26:44.621Z</time></trkpt><trkpt lat="43.3767817" lon="11.520995"><ele>447.0</ele><time>2026-04-19T12:26:45.621Z</time></trkpt><trkpt lat="43.3769333" lon="11.521005"><ele>447.0</ele><time>2026-04-19T12:26:46.621Z</time></trkpt><trkpt lat="43.3770983" lon="11.5210217"><ele>447.0</ele><time>2026-04-19T12:26:47.62Z</time></trkpt><trkpt lat="43.3772533" lon="11.5210467"><ele>447.5</ele><time>2026-04-19T12:26:48.62Z</time></trkpt><trkpt lat="43.3773983" lon="11.5210817"><ele>448.0</ele><time>2026-04-19T12:26:49.621Z</time></trkpt><trkpt lat="43.3775317" lon="11.5211233"><ele>448.5</ele><time>2026-04-19T12:26:50.62Z</time></trkpt><trkpt lat="43.37766" lon="11.5211817"><ele>449.0</ele><time>2026-04-19T12:26:51.621Z</time></trkpt><trkpt lat="43.37779" lon="11.5212283"><ele>448.25</ele><time>2026-04-19T12:26:52.621Z</time></trkpt><trkpt lat="43.3779183" lon="11.5212933"><ele>447.5</ele><time>2026-04-19T12:26:53.62Z</time></trkpt><trkpt lat="43.378045" lon="11.52135"><ele>446.75</ele><time>2026-04-19T12:26:54.62Z</time></trkpt><trkpt lat="43.3781683" lon="11.521405"><ele>446.0</ele><time>2026-04-19T12:26:55.621Z</time></trkpt><trkpt lat="43.37829" lon="11.52145"><ele>446.0</ele><time>2026-04-19T12:26:56.62Z</time></trkpt><trkpt lat="43.3784033" lon="11.5215017"><ele>446.0</ele><time>2026-04-19T12:26:57.62Z</time></trkpt><trkpt lat="43.3785133" lon="11.521545"><ele>446.0</ele><time>2026-04-19T12:26:58.621Z</time></trkpt><trkpt lat="43.3786067" lon="11.5216"><ele>446.0</ele><time>2026-04-19T12:26:59.621Z</time></trkpt><trkpt lat="43.3787033" lon="11.52165"><ele>446.0</ele><time>2026-04-19T12:27:00.621Z</time></trkpt><trkpt lat="43.3787867" lon="11.5216983"><ele>445.99999999999994</ele><time>2026-04-19T12:27:01.62Z</time></trkpt><trkpt lat="43.37885" lon="11.5217333"><ele>446.0</ele><time>2026-04-19T12:27:02.621Z</time></trkpt><trkpt lat="43.3789183" lon="11.5217683"><ele>446.0</ele><time>2026-04-19T12:27:03.62Z</time></trkpt><trkpt lat="43.379025" lon="11.5218"><ele>446.0</ele><time>2026-04-19T12:27:05.621Z</time></trkpt><trkpt lat="43.3791017" lon="11.5217733"><ele>445.99999999999994</ele><time>2026-04-19T12:27:07.62Z</time></trkpt><trkpt lat="43.3791517" lon="11.5216717"><ele>446.0</ele><time>2026-04-19T12:27:09.62Z</time></trkpt><trkpt lat="43.379175" lon="11.5215833"><ele>444.75</ele><time>2026-04-19T12:27:10.621Z</time></trkpt><trkpt lat="43.3792033" lon="11.5214633"><ele>443.5</ele><time>2026-04-19T12:27:11.62Z</time></trkpt><trkpt lat="43.37923" lon="11.5213117"><ele>442.25</ele><time>2026-04-19T12:27:12.62Z</time></trkpt><trkpt lat="43.3792633" lon="11.52112"><ele>441.0</ele><time>2026-04-19T12:27:13.62Z</time></trkpt><trkpt lat="43.37929" lon="11.5209233"><ele>439.33333333333337</ele><time>2026-04-19T12:27:14.62Z</time></trkpt><trkpt lat="43.3793233" lon="11.5207233"><ele>437.6666666666667</ele><time>2026-04-19T12:27:15.62Z</time></trkpt><trkpt lat="43.3793617" lon="11.5205233"><ele>436.0</ele><time>2026-04-19T12:27:16.621Z</time></trkpt><trkpt lat="43.3793983" lon="11.52031"><ele>434.33333333333337</ele><time>2026-04-19T12:27:17.62Z</time></trkpt><trkpt lat="43.3794483" lon="11.52009"><ele>432.66666666666663</ele><time>2026-04-19T12:27:18.62Z</time></trkpt><trkpt lat="43.37949" lon="11.5198667"><ele>431.0</ele><time>2026-04-19T12:27:19.621Z</time></trkpt><trkpt lat="43.3795333" lon="11.51965"><ele>428.66666666666663</ele><time>2026-04-19T12:27:20.621Z</time></trkpt><trkpt lat="43.379575" lon="11.5194433"><ele>426.33333333333337</ele><time>2026-04-19T12:27:21.621Z</time></trkpt><trkpt lat="43.379605" lon="11.51922"><ele>424.0</ele><time>2026-04-19T12:27:22.62Z</time></trkpt><trkpt lat="43.37964" lon="11.519"><ele>424.0</ele><time>2026-04-19T12:27:23.62Z</time></trkpt><trkpt lat="43.3796783" lon="11.518755"><ele>424.0</ele><time>2026-04-19T12:27:24.621Z</time></trkpt><trkpt lat="43.3797133" lon="11.518525"><ele>424.0</ele><time>2026-04-19T12:27:25.62Z</time></trkpt><trkpt lat="43.3797517" lon="11.518295"><ele>422.6666666666667</ele><time>2026-04-19T12:27:26.62Z</time></trkpt><trkpt lat="43.3797917" lon="11.5180567"><ele>421.33333333333337</ele><time>2026-04-19T12:27:27.62Z</time></trkpt><trkpt lat="43.3798367" lon="11.51782"><ele>420.0</ele><time>2026-04-19T12:27:28.62Z</time></trkpt><trkpt lat="43.3798783" lon="11.5175817"><ele>419.33333333333337</ele><time>2026-04-19T12:27:29.62Z</time></trkpt><trkpt lat="43.3799117" lon="11.51734"><ele>418.6666666666667</ele><time>2026-04-19T12:27:30.62Z</time></trkpt><trkpt lat="43.3799467" lon="11.5170983"><ele>418.0</ele><time>2026-04-19T12:27:31.621Z</time></trkpt><trkpt lat="43.37998" lon="11.5168433"><ele>417.33333333333337</ele><time>2026-04-19T12:27:32.62Z</time></trkpt><trkpt lat="43.380015" lon="11.5165867"><ele>416.66666666666663</ele><time>2026-04-19T12:27:33.62Z</time></trkpt><trkpt lat="43.3800383" lon="11.5163383"><ele>416.0</ele><time>2026-04-19T12:27:34.62Z</time></trkpt><trkpt lat="43.380085" lon="11.5161083"><ele>415.0</ele><time>2026-04-19T12:27:35.621Z</time></trkpt><trkpt lat="43.3801317" lon="11.5158617"><ele>414.0</ele><time>2026-04-19T12:27:36.62Z</time></trkpt><trkpt lat="43.3801683" lon="11.5156167"><ele>413.0</ele><time>2026-04-19T12:27:37.621Z</time></trkpt><trkpt lat="43.380195" lon="11.51538"><ele>411.3333333333333</ele><time>2026-04-19T12:27:38.62Z</time></trkpt><trkpt lat="43.38024" lon="11.51513"><ele>409.66666666666663</ele><time>2026-04-19T12:27:39.62Z</time></trkpt><trkpt lat="43.3802833" lon="11.5148667"><ele>408.0</ele><time>2026-04-19T12:27:40.62Z</time></trkpt><trkpt lat="43.3803367" lon="11.5146033"><ele>407.0</ele><time>2026-04-19T12:27:41.62Z</time></trkpt><trkpt lat="43.3803783" lon="11.514335"><ele>406.0</ele><time>2026-04-19T12:27:42.62Z</time></trkpt><trkpt lat="43.3804233" lon="11.5140683"><ele>405.0</ele><time>2026-04-19T12:27:43.621Z</time></trkpt><trkpt lat="43.3804683" lon="11.5138017"><ele>404.0</ele><time>2026-04-19T12:27:44.62Z</time></trkpt><trkpt lat="43.3805133" lon="11.5135367"><ele>403.0</ele><time>2026-04-19T12:27:45.621Z</time></trkpt><trkpt lat="43.3805417" lon="11.51328"><ele>402.0</ele><time>2026-04-19T12:27:46.62Z</time></trkpt><trkpt lat="43.380575" lon="11.51305"><ele>404.33333333333337</ele><time>2026-04-19T12:27:47.62Z</time></trkpt><trkpt lat="43.3806133" lon="11.51284"><ele>406.6666666666667</ele><time>2026-04-19T12:27:48.62Z</time></trkpt><trkpt lat="43.3806467" lon="11.5126233"><ele>409.0</ele><time>2026-04-19T12:27:49.62Z</time></trkpt><trkpt lat="43.38068" lon="11.51243"><ele>409.0</ele><time>2026-04-19T12:27:50.62Z</time></trkpt><trkpt lat="43.380705" lon="11.5122533"><ele>409.0</ele><time>2026-04-19T12:27:51.62Z</time></trkpt><trkpt lat="43.3807317" lon="11.5120833"><ele>409.0</ele><time>2026-04-19T12:27:52.621Z</time></trkpt><trkpt lat="43.3807617" lon="11.5119417"><ele>409.0</ele><time>2026-04-19T12:27:53.62Z</time></trkpt><trkpt lat="43.3807883" lon="11.5118083"><ele>409.00000000000006</ele><time>2026-04-19T12:27:54.62Z</time></trkpt><trkpt lat="43.38081" lon="11.511695"><ele>409.0</ele><time>2026-04-19T12:27:55.62Z</time></trkpt><trkpt lat="43.3808283" lon="11.51159"><ele>409.0</ele><time>2026-04-19T12:27:56.62Z</time></trkpt><trkpt lat="43.380845" lon="11.5114917"><ele>409.0</ele><time>2026-04-19T12:27:57.621Z</time></trkpt><trkpt lat="43.38087" lon="11.5113283"><ele>409.00000000000006</ele><time>2026-04-19T12:27:59.62Z</time></trkpt><trkpt lat="43.3808867" lon="11.5112183"><ele>409.0</ele><time>2026-04-19T12:28:01.62Z</time></trkpt><trkpt lat="43.3808483" lon="11.51129"><ele>409.0</ele><time>2026-04-19T12:28:08.62Z</time></trkpt><trkpt lat="43.380815" lon="11.5114733"><ele>409.0</ele><time>2026-04-19T12:28:10.62Z</time></trkpt><trkpt lat="43.380795" lon="11.5115783"><ele>409.0</ele><time>2026-04-19T12:28:11.62Z</time></trkpt><trkpt lat="43.3807583" lon="11.51172"><ele>409.0</ele><time>2026-04-19T12:28:13.621Z</time></trkpt><trkpt lat="43.3807133" lon="11.5117883"><ele>409.0</ele><time>2026-04-19T12:28:15.62Z</time></trkpt><trkpt lat="43.3805717" lon="11.5118117"><ele>407.25</ele><time>2026-04-19T12:28:17.62Z</time></trkpt><trkpt lat="43.380465" lon="11.511845"><ele>405.5</ele><time>2026-04-19T12:28:18.62Z</time></trkpt><trkpt lat="43.380355" lon="11.511895"><ele>403.75</ele><time>2026-04-19T12:28:19.621Z</time></trkpt><trkpt lat="43.3802383" lon="11.51195"><ele>402.0</ele><time>2026-04-19T12:28:20.621Z</time></trkpt><trkpt lat="43.3801267" lon="11.5120167"><ele>401.75</ele><time>2026-04-19T12:28:21.621Z</time></trkpt><trkpt lat="43.3800133" lon="11.5120867"><ele>401.5</ele><time>2026-04-19T12:28:22.62Z</time></trkpt><trkpt lat="43.37989" lon="11.5121633"><ele>401.25</ele><time>2026-04-19T12:28:23.621Z</time></trkpt><trkpt lat="43.37976" lon="11.51224"><ele>401.0</ele><time>2026-04-19T12:28:24.62Z</time></trkpt><trkpt lat="43.3796483" lon="11.512315"><ele>400.25</ele><time>2026-04-19T12:28:25.62Z</time></trkpt><trkpt lat="43.379525" lon="11.512395"><ele>399.5</ele><time>2026-04-19T12:28:26.62Z</time></trkpt><trkpt lat="43.3794033" lon="11.512475"><ele>398.75</ele><time>2026-04-19T12:28:27.621Z</time></trkpt><trkpt lat="43.3792867" lon="11.5125633"><ele>398.0</ele><time>2026-04-19T12:28:28.62Z</time></trkpt><trkpt lat="43.3791667" lon="11.5126567"><ele>398.0</ele><time>2026-04-19T12:28:29.62Z</time></trkpt><trkpt lat="43.379055" lon="11.5127417"><ele>398.0</ele><time>2026-04-19T12:28:30.621Z</time></trkpt><trkpt lat="43.378945" lon="11.512815"><ele>398.0</ele><time>2026-04-19T12:28:31.62Z</time></trkpt><trkpt lat="43.378825" lon="11.5128817"><ele>398.0</ele><time>2026-04-19T12:28:32.62Z</time></trkpt><trkpt lat="43.37871" lon="11.5129117"><ele>398.0</ele><time>2026-04-19T12:28:33.62Z</time></trkpt><trkpt lat="43.3785833" lon="11.5129067"><ele>398.0</ele><time>2026-04-19T12:28:34.62Z</time></trkpt><trkpt lat="43.378455" lon="11.5128817"><ele>398.0</ele><time>2026-04-19T12:28:35.621Z</time></trkpt><trkpt lat="43.3783183" lon="11.5128433"><ele>398.0</ele><time>2026-04-19T12:28:36.62Z</time></trkpt><trkpt lat="43.3781833" lon="11.51281"><ele>398.0</ele><time>2026-04-19T12:28:37.62Z</time></trkpt><trkpt lat="43.3780383" lon="11.5127633"><ele>398.0</ele><time>2026-04-19T12:28:38.62Z</time></trkpt><trkpt lat="43.3778933" lon="11.5127067"><ele>398.0</ele><time>2026-04-19T12:28:39.621Z</time></trkpt><trkpt lat="43.3777567" lon="11.5126567"><ele>398.0</ele><time>2026-04-19T12:28:40.62Z</time></trkpt><trkpt lat="43.37763" lon="11.5126133"><ele>397.25</ele><time>2026-04-19T12:28:41.621Z</time></trkpt><trkpt lat="43.3775067" lon="11.5125583"><ele>396.5</ele><time>2026-04-19T12:28:42.621Z</time></trkpt><trkpt lat="43.3773733" lon="11.5125083"><ele>395.75</ele><time>2026-04-19T12:28:43.62Z</time></trkpt><trkpt lat="43.3772383" lon="11.5124683"><ele>395.0</ele><time>2026-04-19T12:28:44.62Z</time></trkpt><trkpt lat="43.3770983" lon="11.5124083"><ele>394.5</ele><time>2026-04-19T12:28:45.62Z</time></trkpt><trkpt lat="43.376975" lon="11.5123567"><ele>394.0</ele><time>2026-04-19T12:28:46.621Z</time></trkpt><trkpt lat="43.3768583" lon="11.5123033"><ele>393.5</ele><time>2026-04-19T12:28:47.62Z</time></trkpt><trkpt lat="43.3767617" lon="11.51226"><ele>393.0</ele><time>2026-04-19T12:28:48.621Z</time></trkpt><trkpt lat="43.3766667" lon="11.5122133"><ele>393.0</ele><time>2026-04-19T12:28:49.62Z</time></trkpt><trkpt lat="43.37658" lon="11.5121783"><ele>393.0</ele><time>2026-04-19T12:28:50.621Z</time></trkpt><trkpt lat="43.3765" lon="11.5121333"><ele>393.0</ele><time>2026-04-19T12:28:51.62Z</time></trkpt><trkpt lat="43.37643" lon="11.512085"><ele>393.0</ele><time>2026-04-19T12:28:52.62Z</time></trkpt><trkpt lat="43.3763683" lon="11.5120117"><ele>393.0</ele><time>2026-04-19T12:28:53.621Z</time></trkpt><trkpt lat="43.3763233" lon="11.5119167"><ele>393.0</ele><time>2026-04-19T12:28:54.621Z</time></trkpt><trkpt lat="43.3763" lon="11.511795"><ele>392.75</ele><time>2026-04-19T12:28:55.62Z</time></trkpt><trkpt lat="43.3763033" lon="11.51164"><ele>392.5</ele><time>2026-04-19T12:28:56.621Z</time></trkpt><trkpt lat="43.37633" lon="11.5114633"><ele>392.25</ele><time>2026-04-19T12:28:57.621Z</time></trkpt><trkpt lat="43.37635" lon="11.5113117"><ele>392.0</ele><time>2026-04-19T12:28:58.621Z</time></trkpt><trkpt lat="43.376365" lon="11.5111667"><ele>392.0</ele><time>2026-04-19T12:28:59.62Z</time></trkpt><trkpt lat="43.3763683" lon="11.5110283"><ele>392.0</ele><time>2026-04-19T12:29:00.62Z</time></trkpt><trkpt lat="43.3763483" lon="11.5109017"><ele>392.0</ele><time>2026-04-19T12:29:01.62Z</time></trkpt><trkpt lat="43.3763083" lon="11.5107833"><ele>392.0</ele><time>2026-04-19T12:29:02.62Z</time></trkpt><trkpt lat="43.3762517" lon="11.5106767"><ele>392.0</ele><time>2026-04-19T12:29:03.621Z</time></trkpt><trkpt lat="43.37617" lon="11.510575"><ele>390.0</ele><time>2026-04-19T12:29:04.621Z</time></trkpt><trkpt lat="43.37607" lon="11.510475"><ele>388.0</ele><time>2026-04-19T12:29:05.621Z</time></trkpt><trkpt lat="43.3759467" lon="11.510375"><ele>386.0</ele><time>2026-04-19T12:29:06.621Z</time></trkpt><trkpt lat="43.3758267" lon="11.5102667"><ele>384.0</ele><time>2026-04-19T12:29:07.62Z</time></trkpt><trkpt lat="43.375705" lon="11.5101617"><ele>384.0</ele><time>2026-04-19T12:29:08.62Z</time></trkpt><trkpt lat="43.375595" lon="11.5100733"><ele>384.0</ele><time>2026-04-19T12:29:09.62Z</time></trkpt><trkpt lat="43.37549" lon="11.5099767"><ele>384.0</ele><time>2026-04-19T12:29:10.62Z</time></trkpt><trkpt lat="43.3753967" lon="11.5098783"><ele>384.0</ele><time>2026-04-19T12:29:11.62Z</time></trkpt><trkpt lat="43.3753033" lon="11.5097817"><ele>383.25</ele><time>2026-04-19T12:29:12.62Z</time></trkpt><trkpt lat="43.3752217" lon="11.5096733"><ele>382.5</ele><time>2026-04-19T12:29:13.62Z</time></trkpt><trkpt lat="43.3751483" lon="11.5095533"><ele>381.75</ele><time>2026-04-19T12:29:14.621Z</time></trkpt><trkpt lat="43.3750917" lon="11.5094233"><ele>381.0</ele><time>2026-04-19T12:29:15.621Z</time></trkpt><trkpt lat="43.3750467" lon="11.509275"><ele>381.0</ele><time>2026-04-19T12:29:16.62Z</time></trkpt><trkpt lat="43.37501" lon="11.5091233"><ele>381.0</ele><time>2026-04-19T12:29:17.62Z</time></trkpt><trkpt lat="43.37498" lon="11.5089917"><ele>381.0</ele><time>2026-04-19T12:29:18.621Z</time></trkpt><trkpt lat="43.3749367" lon="11.5088717"><ele>381.0</ele><time>2026-04-19T12:29:19.62Z</time></trkpt><trkpt lat="43.3748983" lon="11.50877"><ele>381.0</ele><time>2026-04-19T12:29:20.62Z</time></trkpt><trkpt lat="43.3748367" lon="11.5086867"><ele>381.20000000000005</ele><time>2026-04-19T12:29:21.62Z</time></trkpt><trkpt lat="43.3747617" lon="11.508625"><ele>381.40000000000003</ele><time>2026-04-19T12:29:22.621Z</time></trkpt><trkpt lat="43.3746683" lon="11.50857"><ele>381.6</ele><time>2026-04-19T12:29:23.621Z</time></trkpt><trkpt lat="43.374565" lon="11.50852"><ele>381.8</ele><time>2026-04-19T12:29:24.62Z</time></trkpt><trkpt lat="43.3744517" lon="11.5084667"><ele>382.0</ele><time>2026-04-19T12:29:25.62Z</time></trkpt><trkpt lat="43.374335" lon="11.50842"><ele>379.75</ele><time>2026-04-19T12:29:26.62Z</time></trkpt><trkpt lat="43.374225" lon="11.50836"><ele>377.5</ele><time>2026-04-19T12:29:27.621Z</time></trkpt><trkpt lat="43.3741133" lon="11.508295"><ele>375.25</ele><time>2026-04-19T12:29:28.62Z</time></trkpt><trkpt lat="43.3740117" lon="11.5082233"><ele>373.0</ele><time>2026-04-19T12:29:29.62Z</time></trkpt><trkpt lat="43.3739067" lon="11.50814"><ele>370.25</ele><time>2026-04-19T12:29:30.62Z</time></trkpt><trkpt lat="43.37381" lon="11.508035"><ele>367.5</ele><time>2026-04-19T12:29:31.62Z</time></trkpt><trkpt lat="43.373725" lon="11.5079133"><ele>364.75</ele><time>2026-04-19T12:29:32.62Z</time></trkpt><trkpt lat="43.3736533" lon="11.5077967"><ele>362.0</ele><time>2026-04-19T12:29:33.62Z</time></trkpt><trkpt lat="43.37359" lon="11.5076783"><ele>361.6666666666667</ele><time>2026-04-19T12:29:34.619Z</time></trkpt><trkpt lat="43.373545" lon="11.5075633"><ele>361.33333333333337</ele><time>2026-04-19T12:29:35.619Z</time></trkpt><trkpt lat="43.3735233" lon="11.5074683"><ele>361.0</ele><time>2026-04-19T12:29:36.619Z</time></trkpt><trkpt lat="43.3735233" lon="11.5073717"><ele>360.6666666666667</ele><time>2026-04-19T12:29:37.62Z</time></trkpt><trkpt lat="43.3736017" lon="11.5072417"><ele>360.3333333333333</ele><time>2026-04-19T12:29:39.619Z</time></trkpt><trkpt lat="43.373675" lon="11.5072083"><ele>360.0</ele><time>2026-04-19T12:29:40.619Z</time></trkpt><trkpt lat="43.37374" lon="11.5071617"><ele>360.0</ele><time>2026-04-19T12:29:41.619Z</time></trkpt><trkpt lat="43.3738067" lon="11.5070967"><ele>360.0</ele><time>2026-04-19T12:29:42.619Z</time></trkpt><trkpt lat="43.3738683" lon="11.5069817"><ele>360.0</ele><time>2026-04-19T12:29:43.619Z</time></trkpt><trkpt lat="43.3739317" lon="11.5068333"><ele>360.0</ele><time>2026-04-19T12:29:44.62Z</time></trkpt><trkpt lat="43.37399" lon="11.50669"><ele>360.0</ele><time>2026-04-19T12:29:45.619Z</time></trkpt><trkpt lat="43.3740517" lon="11.5065683"><ele>361.4</ele><time>2026-04-19T12:29:46.62Z</time></trkpt><trkpt lat="43.3741017" lon="11.5064517"><ele>362.8</ele><time>2026-04-19T12:29:47.619Z</time></trkpt><trkpt lat="43.3741533" lon="11.5063617"><ele>364.20000000000005</ele><time>2026-04-19T12:29:48.619Z</time></trkpt><trkpt lat="43.3742033" lon="11.5063"><ele>365.6</ele><time>2026-04-19T12:29:49.619Z</time></trkpt><trkpt lat="43.3742983" lon="11.50628"><ele>367.0</ele><time>2026-04-19T12:29:51.619Z</time></trkpt><trkpt lat="43.3743733" lon="11.50639"><ele>367.0</ele><time>2026-04-19T12:29:53.619Z</time></trkpt><trkpt lat="43.3744267" lon="11.5064433"><ele>367.0</ele><time>2026-04-19T12:29:54.62Z</time></trkpt><trkpt lat="43.3745083" lon="11.5064633"><ele>367.0</ele><time>2026-04-19T12:29:56.62Z</time></trkpt><trkpt lat="43.3745867" lon="11.5064"><ele>367.0</ele><time>2026-04-19T12:29:58.619Z</time></trkpt><trkpt lat="43.3746367" lon="11.5062267"><ele>367.0</ele><time>2026-04-19T12:30:00.619Z</time></trkpt><trkpt lat="43.3746583" lon="11.5061"><ele>364.40000000000003</ele><time>2026-04-19T12:30:01.619Z</time></trkpt><trkpt lat="43.3746567" lon="11.5059683"><ele>361.8</ele><time>2026-04-19T12:30:02.62Z</time></trkpt><trkpt lat="43.3746367" lon="11.50582"><ele>359.2</ele><time>2026-04-19T12:30:03.619Z</time></trkpt><trkpt lat="43.3746017" lon="11.505675"><ele>356.6</ele><time>2026-04-19T12:30:04.619Z</time></trkpt><trkpt lat="43.3745567" lon="11.5055483"><ele>354.0</ele><time>2026-04-19T12:30:05.62Z</time></trkpt><trkpt lat="43.3745333" lon="11.5054417"><ele>353.8333333333333</ele><time>2026-04-19T12:30:06.619Z</time></trkpt><trkpt lat="43.37452" lon="11.5053483"><ele>353.6666666666667</ele><time>2026-04-19T12:30:07.619Z</time></trkpt><trkpt lat="43.37452" lon="11.5052567"><ele>353.5</ele><time>2026-04-19T12:30:08.619Z</time></trkpt><trkpt lat="43.37455" lon="11.5051733"><ele>353.33333333333337</ele><time>2026-04-19T12:30:09.619Z</time></trkpt><trkpt lat="43.3746183" lon="11.5051033"><ele>353.1666666666667</ele><time>2026-04-19T12:30:10.62Z</time></trkpt><trkpt lat="43.374715" lon="11.5050433"><ele>353.0</ele><time>2026-04-19T12:30:11.619Z</time></trkpt><trkpt lat="43.37484" lon="11.50498"><ele>353.0</ele><time>2026-04-19T12:30:12.619Z</time></trkpt><trkpt lat="43.3749717" lon="11.504905"><ele>353.0</ele><time>2026-04-19T12:30:13.619Z</time></trkpt><trkpt lat="43.375095" lon="11.5048517"><ele>353.0</ele><time>2026-04-19T12:30:14.619Z</time></trkpt><trkpt lat="43.3752267" lon="11.504825"><ele>353.0</ele><time>2026-04-19T12:30:15.62Z</time></trkpt><trkpt lat="43.37537" lon="11.5048117"><ele>352.0</ele><time>2026-04-19T12:30:16.619Z</time></trkpt><trkpt lat="43.3755317" lon="11.504785"><ele>351.0</ele><time>2026-04-19T12:30:17.62Z</time></trkpt><trkpt lat="43.3757033" lon="11.50474"><ele>350.0</ele><time>2026-04-19T12:30:18.619Z</time></trkpt><trkpt lat="43.3758883" lon="11.5046883"><ele>350.0</ele><time>2026-04-19T12:30:19.619Z</time></trkpt><trkpt lat="43.376065" lon="11.5046333"><ele>350.0</ele><time>2026-04-19T12:30:20.619Z</time></trkpt><trkpt lat="43.3762283" lon="11.5045883"><ele>350.0</ele><time>2026-04-19T12:30:21.619Z</time></trkpt><trkpt lat="43.376375" lon="11.5045333"><ele>350.6</ele><time>2026-04-19T12:30:22.619Z</time></trkpt><trkpt lat="43.376505" lon="11.5044867"><ele>351.2</ele><time>2026-04-19T12:30:23.62Z</time></trkpt><trkpt lat="43.3766217" lon="11.504445"><ele>351.79999999999995</ele><time>2026-04-19T12:30:24.619Z</time></trkpt><trkpt lat="43.37672" lon="11.5044"><ele>352.4</ele><time>2026-04-19T12:30:25.619Z</time></trkpt><trkpt lat="43.3767883" lon="11.5043283"><ele>353.0</ele><time>2026-04-19T12:30:26.62Z</time></trkpt><trkpt lat="43.37684" lon="11.50424"><ele>353.0</ele><time>2026-04-19T12:30:27.619Z</time></trkpt><trkpt lat="43.3768667" lon="11.5041433"><ele>353.0</ele><time>2026-04-19T12:30:28.619Z</time></trkpt><trkpt lat="43.37687" lon="11.5040433"><ele>353.0</ele><time>2026-04-19T12:30:29.619Z</time></trkpt><trkpt lat="43.376845" lon="11.5039533"><ele>353.0</ele><time>2026-04-19T12:30:30.619Z</time></trkpt><trkpt lat="43.3767883" lon="11.5038733"><ele>353.0</ele><time>2026-04-19T12:30:31.62Z</time></trkpt><trkpt lat="43.37671" lon="11.503815"><ele>353.0</ele><time>2026-04-19T12:30:32.619Z</time></trkpt><trkpt lat="43.3766117" lon="11.5038017"><ele>353.0</ele><time>2026-04-19T12:30:33.619Z</time></trkpt><trkpt lat="43.3765133" lon="11.5038"><ele>353.0</ele><time>2026-04-19T12:30:34.619Z</time></trkpt><trkpt lat="43.376415" lon="11.503805"><ele>353.0</ele><time>2026-04-19T12:30:35.62Z</time></trkpt><trkpt lat="43.37632" lon="11.5037967"><ele>353.0</ele><time>2026-04-19T12:30:36.619Z</time></trkpt><trkpt lat="43.3762467" lon="11.5037633"><ele>353.0</ele><time>2026-04-19T12:30:37.619Z</time></trkpt><trkpt lat="43.3761967" lon="11.5037083"><ele>353.0</ele><time>2026-04-19T12:30:38.62Z</time></trkpt><trkpt lat="43.37616" lon="11.5035683"><ele>353.0</ele><time>2026-04-19T12:30:40.619Z</time></trkpt><trkpt lat="43.3761367" lon="11.503425"><ele>353.0</ele><time>2026-04-19T12:30:42.62Z</time></trkpt><trkpt lat="43.3761233" lon="11.5033383"><ele>353.0</ele><time>2026-04-19T12:30:44.619Z</time></trkpt><trkpt lat="43.3761317" lon="11.5032117"><ele>353.0</ele><time>2026-04-19T12:30:46.619Z</time></trkpt><trkpt lat="43.3761567" lon="11.5031283"><ele>353.0</ele><time>2026-04-19T12:30:48.619Z</time></trkpt><trkpt lat="43.3760983" lon="11.503185"><ele>353.0</ele><time>2026-04-19T12:31:00.62Z</time></trkpt><trkpt lat="43.3761" lon="11.5033133"><ele>353.0</ele><time>2026-04-19T12:31:02.619Z</time></trkpt><trkpt lat="43.3761267" lon="11.5034733"><ele>353.0</ele><time>2026-04-19T12:31:04.62Z</time></trkpt><trkpt lat="43.376145" lon="11.503565"><ele>353.0</ele><time>2026-04-19T12:31:05.62Z</time></trkpt><trkpt lat="43.3761733" lon="11.50365"><ele>353.0</ele><time>2026-04-19T12:31:06.62Z</time></trkpt><trkpt lat="43.3762633" lon="11.50376"><ele>353.0</ele><time>2026-04-19T12:31:08.619Z</time></trkpt><trkpt lat="43.3763317" lon="11.503795"><ele>353.0</ele><time>2026-04-19T12:31:09.619Z</time></trkpt><trkpt lat="43.3764167" lon="11.503805"><ele>353.0</ele><time>2026-04-19T12:31:10.62Z</time></trkpt><trkpt lat="43.3765067" lon="11.5038083"><ele>353.0</ele><time>2026-04-19T12:31:11.619Z</time></trkpt><trkpt lat="43.3765917" lon="11.503805"><ele>353.0</ele><time>2026-04-19T12:31:12.619Z</time></trkpt><trkpt lat="43.3767417" lon="11.5038317"><ele>353.0</ele><time>2026-04-19T12:31:14.619Z</time></trkpt><trkpt lat="43.3767967" lon="11.5038817"><ele>353.0</ele><time>2026-04-19T12:31:15.619Z</time></trkpt><trkpt lat="43.3769067" lon="11.503945"><ele>353.0</ele><time>2026-04-19T12:31:17.619Z</time></trkpt><trkpt lat="43.3770267" lon="11.5039267"><ele>353.0</ele><time>2026-04-19T12:31:19.62Z</time></trkpt><trkpt lat="43.3771017" lon="11.5038617"><ele>353.0</ele><time>2026-04-19T12:31:20.62Z</time></trkpt><trkpt lat="43.3771983" lon="11.5037717"><ele>353.0</ele><time>2026-04-19T12:31:21.619Z</time></trkpt><trkpt lat="43.3773033" lon="11.5036817"><ele>355.0</ele><time>2026-04-19T12:31:22.619Z</time></trkpt><trkpt lat="43.3774133" lon="11.503575"><ele>357.0</ele><time>2026-04-19T12:31:23.619Z</time></trkpt><trkpt lat="43.3775283" lon="11.5034583"><ele>359.0</ele><time>2026-04-19T12:31:24.62Z</time></trkpt><trkpt lat="43.377655" lon="11.503355"><ele>361.0</ele><time>2026-04-19T12:31:25.62Z</time></trkpt><trkpt lat="43.377785" lon="11.503235"><ele>361.0</ele><time>2026-04-19T12:31:26.619Z</time></trkpt><trkpt lat="43.37792" lon="11.5031367"><ele>361.0</ele><time>2026-04-19T12:31:27.62Z</time></trkpt><trkpt lat="43.3780517" lon="11.5030283"><ele>361.0</ele><time>2026-04-19T12:31:28.619Z</time></trkpt><trkpt lat="43.3781683" lon="11.5029267"><ele>361.0</ele><time>2026-04-19T12:31:29.62Z</time></trkpt><trkpt lat="43.3782933" lon="11.50282"><ele>361.75</ele><time>2026-04-19T12:31:30.62Z</time></trkpt><trkpt lat="43.378415" lon="11.5027283"><ele>362.5</ele><time>2026-04-19T12:31:31.619Z</time></trkpt><trkpt lat="43.37853" lon="11.5026467"><ele>363.25</ele><time>2026-04-19T12:31:32.62Z</time></trkpt><trkpt lat="43.3786467" lon="11.50257"><ele>364.0</ele><time>2026-04-19T12:31:33.619Z</time></trkpt><trkpt lat="43.3787517" lon="11.502505"><ele>367.0</ele><time>2026-04-19T12:31:34.62Z</time></trkpt><trkpt lat="43.3788717" lon="11.5024317"><ele>370.0</ele><time>2026-04-19T12:31:35.619Z</time></trkpt><trkpt lat="43.3789833" lon="11.5023533"><ele>373.0</ele><time>2026-04-19T12:31:36.62Z</time></trkpt><trkpt lat="43.3790817" lon="11.50228"><ele>376.0</ele><time>2026-04-19T12:31:37.619Z</time></trkpt><trkpt lat="43.3791683" lon="11.50221"><ele>376.0</ele><time>2026-04-19T12:31:38.62Z</time></trkpt><trkpt lat="43.3792383" lon="11.5021417"><ele>376.0</ele><time>2026-04-19T12:31:39.62Z</time></trkpt><trkpt lat="43.3792933" lon="11.5020833"><ele>376.0</ele><time>2026-04-19T12:31:40.619Z</time></trkpt><trkpt lat="43.37935" lon="11.502025"><ele>376.0</ele><time>2026-04-19T12:31:42.619Z</time></trkpt><trkpt lat="43.379275" lon="11.50204"><ele>376.0</ele><time>2026-04-19T12:31:51.619Z</time></trkpt><trkpt lat="43.3792283" lon="11.50212"><ele>376.0</ele><time>2026-04-19T12:31:54.62Z</time></trkpt><trkpt lat="43.3791633" lon="11.5021867"><ele>376.0</ele><time>2026-04-19T12:31:56.62Z</time></trkpt><trkpt lat="43.3791017" lon="11.5022333"><ele>376.0</ele><time>2026-04-19T12:31:57.62Z</time></trkpt><trkpt lat="43.3790333" lon="11.5022783"><ele>376.0</ele><time>2026-04-19T12:31:58.619Z</time></trkpt><trkpt lat="43.378965" lon="11.5023367"><ele>376.0</ele><time>2026-04-19T12:31:59.619Z</time></trkpt><trkpt lat="43.37889" lon="11.5023983"><ele>376.0</ele><time>2026-04-19T12:32:00.619Z</time></trkpt><trkpt lat="43.3788117" lon="11.5024533"><ele>376.0</ele><time>2026-04-19T12:32:01.62Z</time></trkpt><trkpt lat="43.3787267" lon="11.5025067"><ele>373.6</ele><time>2026-04-19T12:32:02.619Z</time></trkpt><trkpt lat="43.3786433" lon="11.5025567"><ele>371.20000000000005</ele><time>2026-04-19T12:32:03.619Z</time></trkpt><trkpt lat="43.3785617" lon="11.502605"><ele>368.79999999999995</ele><time>2026-04-19T12:32:04.62Z</time></trkpt><trkpt lat="43.3784783" lon="11.5026733"><ele>366.4</ele><time>2026-04-19T12:32:05.619Z</time></trkpt><trkpt lat="43.3783833" lon="11.502755"><ele>364.0</ele><time>2026-04-19T12:32:06.62Z</time></trkpt><trkpt lat="43.3782817" lon="11.5028467"><ele>363.75</ele><time>2026-04-19T12:32:07.619Z</time></trkpt><trkpt lat="43.37817" lon="11.5029467"><ele>363.5</ele><time>2026-04-19T12:32:08.62Z</time></trkpt><trkpt lat="43.37805" lon="11.5030533"><ele>363.25</ele><time>2026-04-19T12:32:09.619Z</time></trkpt><trkpt lat="43.377915" lon="11.5031583"><ele>363.0</ele><time>2026-04-19T12:32:10.619Z</time></trkpt><trkpt lat="43.3777733" lon="11.5032567"><ele>362.5</ele><time>2026-04-19T12:32:11.619Z</time></trkpt><trkpt lat="43.3776333" lon="11.5033567"><ele>362.0</ele><time>2026-04-19T12:32:12.619Z</time></trkpt><trkpt lat="43.37751" lon="11.50346"><ele>361.5</ele><time>2026-04-19T12:32:13.619Z</time></trkpt><trkpt lat="43.3773983" lon="11.5035667"><ele>361.0</ele><time>2026-04-19T12:32:14.619Z</time></trkpt><trkpt lat="43.3772983" lon="11.5036517"><ele>361.8</ele><time>2026-04-19T12:32:15.619Z</time></trkpt><trkpt lat="43.377195" lon="11.5037483"><ele>362.6</ele><time>2026-04-19T12:32:16.62Z</time></trkpt><trkpt lat="43.377115" lon="11.5038383"><ele>363.4</ele><time>2026-04-19T12:32:17.619Z</time></trkpt><trkpt lat="43.3770467" lon="11.5038967"><ele>364.2</ele><time>2026-04-19T12:32:18.619Z</time></trkpt><trkpt lat="43.3769783" lon="11.50395"><ele>365.0</ele><time>2026-04-19T12:32:20.62Z</time></trkpt><trkpt lat="43.37689" lon="11.50397"><ele>362.6</ele><time>2026-04-19T12:32:43.62Z</time></trkpt><trkpt lat="43.3768067" lon="11.5038983"><ele>360.2</ele><time>2026-04-19T12:32:45.619Z</time></trkpt><trkpt lat="43.3767" lon="11.5038133"><ele>357.79999999999995</ele><time>2026-04-19T12:32:47.619Z</time></trkpt><trkpt lat="43.3766267" lon="11.503795"><ele>355.4</ele><time>2026-04-19T12:32:48.62Z</time></trkpt><trkpt lat="43.376545" lon="11.5037917"><ele>353.0</ele><time>2026-04-19T12:32:49.62Z</time></trkpt><trkpt lat="43.37645" lon="11.5037967"><ele>353.0</ele><time>2026-04-19T12:32:50.62Z</time></trkpt><trkpt lat="43.3763583" lon="11.5037983"><ele>353.0</ele><time>2026-04-19T12:32:51.62Z</time></trkpt><trkpt lat="43.3762733" lon="11.5037733"><ele>353.0</ele><time>2026-04-19T12:32:52.62Z</time></trkpt><trkpt lat="43.3762033" lon="11.5037083"><ele>353.0</ele><time>2026-04-19T12:32:53.619Z</time></trkpt><trkpt lat="43.3761533" lon="11.50362"><ele>353.0</ele><time>2026-04-19T12:32:54.619Z</time></trkpt><trkpt lat="43.37612" lon="11.5034983"><ele>353.0</ele><time>2026-04-19T12:32:55.62Z</time></trkpt><trkpt lat="43.376105" lon="11.5033617"><ele>353.0</ele><time>2026-04-19T12:32:56.619Z</time></trkpt><trkpt lat="43.3761167" lon="11.5032333"><ele>353.0</ele><time>2026-04-19T12:32:57.62Z</time></trkpt><trkpt lat="43.3761367" lon="11.5031017"><ele>353.0</ele><time>2026-04-19T12:32:58.619Z</time></trkpt><trkpt lat="43.3761633" lon="11.502955"><ele>353.0</ele><time>2026-04-19T12:32:59.619Z</time></trkpt><trkpt lat="43.3761783" lon="11.5027917"><ele>353.0</ele><time>2026-04-19T12:33:00.619Z</time></trkpt><trkpt lat="43.37617" lon="11.5026333"><ele>354.5</ele><time>2026-04-19T12:33:01.619Z</time></trkpt><trkpt lat="43.3761417" lon="11.5024717"><ele>356.0</ele><time>2026-04-19T12:33:02.619Z</time></trkpt><trkpt lat="43.3761167" lon="11.502305"><ele>357.5</ele><time>2026-04-19T12:33:03.619Z</time></trkpt><trkpt lat="43.3760933" lon="11.5021083"><ele>359.0</ele><time>2026-04-19T12:33:04.62Z</time></trkpt><trkpt lat="43.3760667" lon="11.5019033"><ele>360.6666666666667</ele><time>2026-04-19T12:33:05.62Z</time></trkpt><trkpt lat="43.3760333" lon="11.5016933"><ele>362.3333333333333</ele><time>2026-04-19T12:33:06.62Z</time></trkpt><trkpt lat="43.3760033" lon="11.5015"><ele>364.0</ele><time>2026-04-19T12:33:07.62Z</time></trkpt><trkpt lat="43.3759733" lon="11.5012967"><ele>366.25</ele><time>2026-04-19T12:33:08.619Z</time></trkpt><trkpt lat="43.3759483" lon="11.5010967"><ele>368.5</ele><time>2026-04-19T12:33:09.619Z</time></trkpt><trkpt lat="43.375935" lon="11.5009083"><ele>370.75</ele><time>2026-04-19T12:33:10.619Z</time></trkpt><trkpt lat="43.3759033" lon="11.5007317"><ele>373.0</ele><time>2026-04-19T12:33:11.619Z</time></trkpt><trkpt lat="43.3758633" lon="11.5005683"><ele>373.0</ele><time>2026-04-19T12:33:12.62Z</time></trkpt><trkpt lat="43.3758133" lon="11.5004233"><ele>373.0</ele><time>2026-04-19T12:33:13.62Z</time></trkpt><trkpt lat="43.3757533" lon="11.5003083"><ele>373.0</ele><time>2026-04-19T12:33:14.619Z</time></trkpt><trkpt lat="43.375685" lon="11.5002067"><ele>373.0</ele><time>2026-04-19T12:33:15.62Z</time></trkpt><trkpt lat="43.37562" lon="11.5001"><ele>373.0</ele><time>2026-04-19T12:33:16.619Z</time></trkpt><trkpt lat="43.3755767" lon="11.49998"><ele>374.4</ele><time>2026-04-19T12:33:17.62Z</time></trkpt><trkpt lat="43.3755667" lon="11.4998483"><ele>375.79999999999995</ele><time>2026-04-19T12:33:18.62Z</time></trkpt><trkpt lat="43.3755583" lon="11.4997233"><ele>377.2</ele><time>2026-04-19T12:33:19.619Z</time></trkpt><trkpt lat="43.375565" lon="11.4996"><ele>378.6</ele><time>2026-04-19T12:33:20.619Z</time></trkpt><trkpt lat="43.3755683" lon="11.499475"><ele>380.0</ele><time>2026-04-19T12:33:21.619Z</time></trkpt><trkpt lat="43.3755717" lon="11.49934"><ele>380.0</ele><time>2026-04-19T12:33:22.62Z</time></trkpt><trkpt lat="43.3755767" lon="11.4991617"><ele>380.0</ele><time>2026-04-19T12:33:23.619Z</time></trkpt><trkpt lat="43.3755817" lon="11.4989767"><ele>380.0</ele><time>2026-04-19T12:33:24.62Z</time></trkpt><trkpt lat="43.37562" lon="11.4988167"><ele>380.0</ele><time>2026-04-19T12:33:25.62Z</time></trkpt><trkpt lat="43.3756417" lon="11.49868"><ele>380.0</ele><time>2026-04-19T12:33:26.619Z</time></trkpt><trkpt lat="43.375645" lon="11.4985633"><ele>380.0</ele><time>2026-04-19T12:33:27.62Z</time></trkpt><trkpt lat="43.375655" lon="11.4984383"><ele>380.0</ele><time>2026-04-19T12:33:28.619Z</time></trkpt><trkpt lat="43.3756733" lon="11.49829"><ele>380.0</ele><time>2026-04-19T12:33:29.619Z</time></trkpt><trkpt lat="43.3756817" lon="11.4981317"><ele>380.0</ele><time>2026-04-19T12:33:30.619Z</time></trkpt><trkpt lat="43.37569" lon="11.4979667"><ele>380.0</ele><time>2026-04-19T12:33:31.619Z</time></trkpt><trkpt lat="43.3757067" lon="11.4977917"><ele>380.0</ele><time>2026-04-19T12:33:32.619Z</time></trkpt><trkpt lat="43.375775" lon="11.49762"><ele>380.0</ele><time>2026-04-19T12:33:33.62Z</time></trkpt><trkpt lat="43.3758633" lon="11.497465"><ele>380.0</ele><time>2026-04-19T12:33:34.619Z</time></trkpt><trkpt lat="43.375955" lon="11.4973033"><ele>380.0</ele><time>2026-04-19T12:33:35.619Z</time></trkpt><trkpt lat="43.37606" lon="11.49715"><ele>380.0</ele><time>2026-04-19T12:33:36.62Z</time></trkpt><trkpt lat="43.37618" lon="11.4970117"><ele>380.0</ele><time>2026-04-19T12:33:37.62Z</time></trkpt><trkpt lat="43.3763133" lon="11.4968933"><ele>381.6666666666667</ele><time>2026-04-19T12:33:38.62Z</time></trkpt><trkpt lat="43.3764483" lon="11.49678"><ele>383.33333333333337</ele><time>2026-04-19T12:33:39.619Z</time></trkpt><trkpt lat="43.3765817" lon="11.49667"><ele>385.0</ele><time>2026-04-19T12:33:40.619Z</time></trkpt><trkpt lat="43.37669" lon="11.4965467"><ele>385.0</ele><time>2026-04-19T12:33:41.619Z</time></trkpt><trkpt lat="43.3767883" lon="11.49639"><ele>385.0</ele><time>2026-04-19T12:33:42.619Z</time></trkpt><trkpt lat="43.3768833" lon="11.496225"><ele>385.0</ele><time>2026-04-19T12:33:43.619Z</time></trkpt><trkpt lat="43.377" lon="11.4960867"><ele>384.0</ele><time>2026-04-19T12:33:44.619Z</time></trkpt><trkpt lat="43.3771333" lon="11.495985"><ele>383.0</ele><time>2026-04-19T12:33:45.619Z</time></trkpt><trkpt lat="43.377285" lon="11.4959017"><ele>382.0</ele><time>2026-04-19T12:33:46.619Z</time></trkpt><trkpt lat="43.3774383" lon="11.4958367"><ele>384.0</ele><time>2026-04-19T12:33:47.619Z</time></trkpt><trkpt lat="43.3775967" lon="11.4957667"><ele>386.0</ele><time>2026-04-19T12:33:48.62Z</time></trkpt><trkpt lat="43.37775" lon="11.4956867"><ele>388.0</ele><time>2026-04-19T12:33:49.62Z</time></trkpt><trkpt lat="43.3779233" lon="11.4956117"><ele>391.33333333333337</ele><time>2026-04-19T12:33:50.619Z</time></trkpt><trkpt lat="43.3780983" lon="11.4955483"><ele>394.66666666666663</ele><time>2026-04-19T12:33:51.619Z</time></trkpt><trkpt lat="43.3782717" lon="11.4954867"><ele>398.0</ele><time>2026-04-19T12:33:52.62Z</time></trkpt><trkpt lat="43.3784367" lon="11.4954333"><ele>397.0</ele><time>2026-04-19T12:33:53.62Z</time></trkpt><trkpt lat="43.37861" lon="11.4953767"><ele>396.0</ele><time>2026-04-19T12:33:54.619Z</time></trkpt><trkpt lat="43.378785" lon="11.4953217"><ele>395.0</ele><time>2026-04-19T12:33:55.62Z</time></trkpt><trkpt lat="43.3789617" lon="11.4952717"><ele>395.0</ele><time>2026-04-19T12:33:56.619Z</time></trkpt><trkpt lat="43.3791467" lon="11.4952283"><ele>395.0</ele><time>2026-04-19T12:33:57.619Z</time></trkpt><trkpt lat="43.3793267" lon="11.495185"><ele>395.0</ele><time>2026-04-19T12:33:58.619Z</time></trkpt><trkpt lat="43.37951" lon="11.4951517"><ele>395.66666666666663</ele><time>2026-04-19T12:33:59.619Z</time></trkpt><trkpt lat="43.37969" lon="11.49511"><ele>396.33333333333337</ele><time>2026-04-19T12:34:00.619Z</time></trkpt><trkpt lat="43.3798683" lon="11.4950683"><ele>397.0</ele><time>2026-04-19T12:34:01.619Z</time></trkpt><trkpt lat="43.3800467" lon="11.49504"><ele>397.0</ele><time>2026-04-19T12:34:02.62Z</time></trkpt><trkpt lat="43.380225" lon="11.4950017"><ele>397.0</ele><time>2026-04-19T12:34:03.62Z</time></trkpt><trkpt lat="43.3804067" lon="11.49496"><ele>397.0</ele><time>2026-04-19T12:34:04.619Z</time></trkpt><trkpt lat="43.380585" lon="11.4949167"><ele>398.33333333333337</ele><time>2026-04-19T12:34:05.619Z</time></trkpt><trkpt lat="43.3807617" lon="11.4948783"><ele>399.66666666666663</ele><time>2026-04-19T12:34:06.618Z</time></trkpt><trkpt lat="43.3809283" lon="11.494845"><ele>401.0</ele><time>2026-04-19T12:34:07.619Z</time></trkpt><trkpt lat="43.3810817" lon="11.4948217"><ele>401.0</ele><time>2026-04-19T12:34:08.618Z</time></trkpt><trkpt lat="43.38124" lon="11.494825"><ele>401.0</ele><time>2026-04-19T12:34:09.618Z</time></trkpt><trkpt lat="43.3813967" lon="11.4948483"><ele>401.0</ele><time>2026-04-19T12:34:10.619Z</time></trkpt><trkpt lat="43.3815367" lon="11.494885"><ele>402.0</ele><time>2026-04-19T12:34:11.619Z</time></trkpt><trkpt lat="43.38165" lon="11.4949367"><ele>403.0</ele><time>2026-04-19T12:34:12.619Z</time></trkpt><trkpt lat="43.381745" lon="11.4949817"><ele>404.0</ele><time>2026-04-19T12:34:13.619Z</time></trkpt><trkpt lat="43.3818217" lon="11.4950133"><ele>405.0</ele><time>2026-04-19T12:34:14.619Z</time></trkpt><trkpt lat="43.3818883" lon="11.4950333"><ele>406.0</ele><time>2026-04-19T12:34:15.619Z</time></trkpt><trkpt lat="43.3819617" lon="11.4949817"><ele>406.0</ele><time>2026-04-19T12:34:17.618Z</time></trkpt><trkpt lat="43.3819017" lon="11.4948783"><ele>406.0</ele><time>2026-04-19T12:34:19.619Z</time></trkpt><trkpt lat="43.3818267" lon="11.4948217"><ele>406.0</ele><time>2026-04-19T12:34:20.618Z</time></trkpt><trkpt lat="43.3817267" lon="11.4947433"><ele>406.0</ele><time>2026-04-19T12:34:21.619Z</time></trkpt><trkpt lat="43.3816117" lon="11.4946367"><ele>406.0</ele><time>2026-04-19T12:34:22.619Z</time></trkpt><trkpt lat="43.3814883" lon="11.4945117"><ele>404.33333333333337</ele><time>2026-04-19T12:34:23.618Z</time></trkpt><trkpt lat="43.38136" lon="11.4943867"><ele>402.66666666666663</ele><time>2026-04-19T12:34:24.619Z</time></trkpt><trkpt lat="43.3812283" lon="11.4942633"><ele>401.0</ele><time>2026-04-19T12:34:25.618Z</time></trkpt><trkpt lat="43.3810917" lon="11.494125"><ele>401.0</ele><time>2026-04-19T12:34:26.618Z</time></trkpt><trkpt lat="43.3809417" lon="11.4939817"><ele>401.0</ele><time>2026-04-19T12:34:27.618Z</time></trkpt><trkpt lat="43.3807867" lon="11.4938317"><ele>401.0</ele><time>2026-04-19T12:34:28.619Z</time></trkpt><trkpt lat="43.3806367" lon="11.4936933"><ele>400.66666666666663</ele><time>2026-04-19T12:34:29.618Z</time></trkpt><trkpt lat="43.3804867" lon="11.4935567"><ele>400.33333333333337</ele><time>2026-04-19T12:34:30.618Z</time></trkpt><trkpt lat="43.3803383" lon="11.4934133"><ele>400.0</ele><time>2026-04-19T12:34:31.618Z</time></trkpt><trkpt lat="43.3801917" lon="11.4932733"><ele>400.0</ele><time>2026-04-19T12:34:32.618Z</time></trkpt><trkpt lat="43.3800417" lon="11.493135"><ele>400.0</ele><time>2026-04-19T12:34:33.618Z</time></trkpt><trkpt lat="43.3798783" lon="11.4930233"><ele>400.0</ele><time>2026-04-19T12:34:34.619Z</time></trkpt><trkpt lat="43.37972" lon="11.4929333"><ele>401.33333333333337</ele><time>2026-04-19T12:34:35.619Z</time></trkpt><trkpt lat="43.37958" lon="11.49284"><ele>402.66666666666663</ele><time>2026-04-19T12:34:36.619Z</time></trkpt><trkpt lat="43.379435" lon="11.4927167"><ele>404.0</ele><time>2026-04-19T12:34:37.619Z</time></trkpt><trkpt lat="43.3793117" lon="11.4925667"><ele>404.0</ele><time>2026-04-19T12:34:38.619Z</time></trkpt><trkpt lat="43.3791833" lon="11.4924183"><ele>404.0</ele><time>2026-04-19T12:34:39.618Z</time></trkpt><trkpt lat="43.3790467" lon="11.4922683"><ele>404.0</ele><time>2026-04-19T12:34:40.618Z</time></trkpt><trkpt lat="43.3789033" lon="11.4921033"><ele>401.0</ele><time>2026-04-19T12:34:41.619Z</time></trkpt><trkpt lat="43.3787583" lon="11.4919383"><ele>398.0</ele><time>2026-04-19T12:34:42.619Z</time></trkpt><trkpt lat="43.3786" lon="11.49179"><ele>395.0</ele><time>2026-04-19T12:34:43.619Z</time></trkpt><trkpt lat="43.378445" lon="11.49165"><ele>395.0</ele><time>2026-04-19T12:34:44.618Z</time></trkpt><trkpt lat="43.3782767" lon="11.4915167"><ele>395.0</ele><time>2026-04-19T12:34:45.619Z</time></trkpt><trkpt lat="43.3781133" lon="11.4913783"><ele>395.0</ele><time>2026-04-19T12:34:46.618Z</time></trkpt><trkpt lat="43.3779533" lon="11.4912467"><ele>393.3333333333333</ele><time>2026-04-19T12:34:47.619Z</time></trkpt><trkpt lat="43.377795" lon="11.4911167"><ele>391.66666666666663</ele><time>2026-04-19T12:34:48.619Z</time></trkpt><trkpt lat="43.3776333" lon="11.4909883"><ele>390.0</ele><time>2026-04-19T12:34:49.618Z</time></trkpt><trkpt lat="43.3774667" lon="11.490875"><ele>390.0</ele><time>2026-04-19T12:34:50.618Z</time></trkpt><trkpt lat="43.3773117" lon="11.49077"><ele>390.0</ele><time>2026-04-19T12:34:51.618Z</time></trkpt><trkpt lat="43.377155" lon="11.4906783"><ele>390.0</ele><time>2026-04-19T12:34:52.618Z</time></trkpt><trkpt lat="43.3770083" lon="11.4905783"><ele>389.0</ele><time>2026-04-19T12:34:53.618Z</time></trkpt><trkpt lat="43.376865" lon="11.4904717"><ele>388.0</ele><time>2026-04-19T12:34:54.618Z</time></trkpt><trkpt lat="43.376725" lon="11.4903533"><ele>387.0</ele><time>2026-04-19T12:34:55.619Z</time></trkpt><trkpt lat="43.3765783" lon="11.4902183"><ele>387.0</ele><time>2026-04-19T12:34:56.618Z</time></trkpt><trkpt lat="43.3764433" lon="11.4900783"><ele>387.0</ele><time>2026-04-19T12:34:57.619Z</time></trkpt><trkpt lat="43.3763183" lon="11.48992"><ele>387.0</ele><time>2026-04-19T12:34:58.618Z</time></trkpt><trkpt lat="43.3762167" lon="11.4897417"><ele>388.0</ele><time>2026-04-19T12:34:59.618Z</time></trkpt><trkpt lat="43.37616" lon="11.4895433"><ele>389.0</ele><time>2026-04-19T12:35:00.619Z</time></trkpt><trkpt lat="43.37611" lon="11.4893583"><ele>390.0</ele><time>2026-04-19T12:35:01.618Z</time></trkpt><trkpt lat="43.3760733" lon="11.489185"><ele>391.0</ele><time>2026-04-19T12:35:02.619Z</time></trkpt><trkpt lat="43.376035" lon="11.4890183"><ele>391.0</ele><time>2026-04-19T12:35:03.619Z</time></trkpt><trkpt lat="43.3759767" lon="11.48885"><ele>391.0</ele><time>2026-04-19T12:35:04.618Z</time></trkpt><trkpt lat="43.37591" lon="11.4887033"><ele>391.0</ele><time>2026-04-19T12:35:05.618Z</time></trkpt><trkpt lat="43.3758267" lon="11.4885583"><ele>391.0</ele><time>2026-04-19T12:35:06.619Z</time></trkpt><trkpt lat="43.3757117" lon="11.4884067"><ele>391.0</ele><time>2026-04-19T12:35:07.618Z</time></trkpt><trkpt lat="43.3756317" lon="11.4882383"><ele>391.0</ele><time>2026-04-19T12:35:08.618Z</time></trkpt><trkpt lat="43.3755517" lon="11.48807"><ele>391.0</ele><time>2026-04-19T12:35:09.618Z</time></trkpt><trkpt lat="43.3754767" lon="11.48788"><ele>391.5</ele><time>2026-04-19T12:35:10.619Z</time></trkpt><trkpt lat="43.3754017" lon="11.4877133"><ele>392.0</ele><time>2026-04-19T12:35:11.619Z</time></trkpt><trkpt lat="43.3753167" lon="11.4875383"><ele>392.5</ele><time>2026-04-19T12:35:12.618Z</time></trkpt><trkpt lat="43.375235" lon="11.4873733"><ele>393.0</ele><time>2026-04-19T12:35:13.619Z</time></trkpt><trkpt lat="43.3751467" lon="11.48721"><ele>392.66666666666663</ele><time>2026-04-19T12:35:14.619Z</time></trkpt><trkpt lat="43.3750467" lon="11.4870367"><ele>392.3333333333333</ele><time>2026-04-19T12:35:15.618Z</time></trkpt><trkpt lat="43.37495" lon="11.48687"><ele>392.0</ele><time>2026-04-19T12:35:16.618Z</time></trkpt><trkpt lat="43.37485" lon="11.486705"><ele>392.0</ele><time>2026-04-19T12:35:17.618Z</time></trkpt><trkpt lat="43.3747633" lon="11.486525"><ele>392.0</ele><time>2026-04-19T12:35:18.618Z</time></trkpt><trkpt lat="43.3746983" lon="11.48634"><ele>392.0</ele><time>2026-04-19T12:35:19.618Z</time></trkpt><trkpt lat="43.37463" lon="11.4861367"><ele>392.66666666666663</ele><time>2026-04-19T12:35:20.619Z</time></trkpt><trkpt lat="43.3745783" lon="11.4859267"><ele>393.33333333333337</ele><time>2026-04-19T12:35:21.619Z</time></trkpt><trkpt lat="43.37453" lon="11.48571"><ele>394.0</ele><time>2026-04-19T12:35:22.619Z</time></trkpt><trkpt lat="43.3744733" lon="11.485505"><ele>394.0</ele><time>2026-04-19T12:35:23.618Z</time></trkpt><trkpt lat="43.3743867" lon="11.4853067"><ele>394.0</ele><time>2026-04-19T12:35:24.618Z</time></trkpt><trkpt lat="43.3742917" lon="11.48512"><ele>394.0</ele><time>2026-04-19T12:35:25.619Z</time></trkpt><trkpt lat="43.3741883" lon="11.484945"><ele>394.0</ele><time>2026-04-19T12:35:26.618Z</time></trkpt><trkpt lat="43.3740783" lon="11.4847767"><ele>394.0</ele><time>2026-04-19T12:35:27.619Z</time></trkpt><trkpt lat="43.3739667" lon="11.4846217"><ele>394.0</ele><time>2026-04-19T12:35:28.618Z</time></trkpt><trkpt lat="43.3738533" lon="11.484475"><ele>392.6666666666667</ele><time>2026-04-19T12:35:29.619Z</time></trkpt><trkpt lat="43.3737283" lon="11.4843233"><ele>391.33333333333337</ele><time>2026-04-19T12:35:30.618Z</time></trkpt><trkpt lat="43.3736" lon="11.4841933"><ele>390.0</ele><time>2026-04-19T12:35:31.618Z</time></trkpt><trkpt lat="43.3734583" lon="11.48408"><ele>390.0</ele><time>2026-04-19T12:35:32.619Z</time></trkpt><trkpt lat="43.3733133" lon="11.483975"><ele>390.0</ele><time>2026-04-19T12:35:33.619Z</time></trkpt><trkpt lat="43.3731767" lon="11.4838667"><ele>390.0</ele><time>2026-04-19T12:35:34.619Z</time></trkpt><trkpt lat="43.3730467" lon="11.4837417"><ele>387.3333333333333</ele><time>2026-04-19T12:35:35.619Z</time></trkpt><trkpt lat="43.3729217" lon="11.4836083"><ele>384.66666666666663</ele><time>2026-04-19T12:35:36.619Z</time></trkpt><trkpt lat="43.3728133" lon="11.4834367"><ele>382.0</ele><time>2026-04-19T12:35:37.618Z</time></trkpt><trkpt lat="43.3727267" lon="11.4832717"><ele>382.0</ele><time>2026-04-19T12:35:38.618Z</time></trkpt><trkpt lat="43.37265" lon="11.4831083"><ele>382.0</ele><time>2026-04-19T12:35:39.618Z</time></trkpt><trkpt lat="43.3725783" lon="11.4829567"><ele>382.0</ele><time>2026-04-19T12:35:40.618Z</time></trkpt><trkpt lat="43.3724983" lon="11.4828217"><ele>382.0</ele><time>2026-04-19T12:35:41.618Z</time></trkpt><trkpt lat="43.3724183" lon="11.4826933"><ele>381.5</ele><time>2026-04-19T12:35:42.619Z</time></trkpt><trkpt lat="43.37234" lon="11.4825883"><ele>381.0</ele><time>2026-04-19T12:35:43.618Z</time></trkpt><trkpt lat="43.3722717" lon="11.482515"><ele>380.5</ele><time>2026-04-19T12:35:44.619Z</time></trkpt><trkpt lat="43.3722267" lon="11.48245"><ele>380.0</ele><time>2026-04-19T12:35:45.619Z</time></trkpt><trkpt lat="43.37216" lon="11.4823533"><ele>379.5</ele><time>2026-04-19T12:35:47.619Z</time></trkpt><trkpt lat="43.3720917" lon="11.4823367"><ele>379.0</ele><time>2026-04-19T12:35:54.619Z</time></trkpt><trkpt lat="43.372075" lon="11.4822367"><ele>377.0</ele><time>2026-04-19T12:36:29.619Z</time></trkpt><trkpt lat="43.37201" lon="11.4821633"><ele>375.0</ele><time>2026-04-19T12:36:30.619Z</time></trkpt><trkpt lat="43.3719083" lon="11.482085"><ele>373.0</ele><time>2026-04-19T12:36:31.618Z</time></trkpt><trkpt lat="43.371775" lon="11.4819933"><ele>371.0</ele><time>2026-04-19T12:36:32.618Z</time></trkpt><trkpt lat="43.37165" lon="11.4818867"><ele>370.5</ele><time>2026-04-19T12:36:33.618Z</time></trkpt><trkpt lat="43.3715233" lon="11.481775"><ele>370.0</ele><time>2026-04-19T12:36:34.619Z</time></trkpt><trkpt lat="43.3713983" lon="11.4816583"><ele>369.5</ele><time>2026-04-19T12:36:35.619Z</time></trkpt><trkpt lat="43.37127" lon="11.4815583"><ele>369.0</ele><time>2026-04-19T12:36:36.619Z</time></trkpt><trkpt lat="43.37113" lon="11.4814533"><ele>369.0</ele><time>2026-04-19T12:36:37.619Z</time></trkpt><trkpt lat="43.3709767" lon="11.4813667"><ele>369.0</ele><time>2026-04-19T12:36:38.618Z</time></trkpt><trkpt lat="43.37082" lon="11.48131"><ele>369.0</ele><time>2026-04-19T12:36:39.618Z</time></trkpt><trkpt lat="43.3706733" lon="11.48127"><ele>369.5</ele><time>2026-04-19T12:36:40.618Z</time></trkpt><trkpt lat="43.3705383" lon="11.4812267"><ele>370.0</ele><time>2026-04-19T12:36:41.619Z</time></trkpt><trkpt lat="43.3704033" lon="11.481165"><ele>370.5</ele><time>2026-04-19T12:36:42.619Z</time></trkpt><trkpt lat="43.3702683" lon="11.4810767"><ele>371.0</ele><time>2026-04-19T12:36:43.619Z</time></trkpt><trkpt lat="43.3701233" lon="11.4809733"><ele>368.33333333333337</ele><time>2026-04-19T12:36:44.618Z</time></trkpt><trkpt lat="43.36997" lon="11.4808717"><ele>365.6666666666667</ele><time>2026-04-19T12:36:45.619Z</time></trkpt><trkpt lat="43.3698067" lon="11.480775"><ele>363.0</ele><time>2026-04-19T12:36:46.619Z</time></trkpt><trkpt lat="43.36966" lon="11.48069"><ele>361.5</ele><time>2026-04-19T12:36:47.618Z</time></trkpt><trkpt lat="43.369535" lon="11.4806033"><ele>360.0</ele><time>2026-04-19T12:36:48.618Z</time></trkpt><trkpt lat="43.369415" lon="11.4805083"><ele>358.5</ele><time>2026-04-19T12:36:49.619Z</time></trkpt><trkpt lat="43.3693133" lon="11.4803733"><ele>357.0</ele><time>2026-04-19T12:36:50.619Z</time></trkpt><trkpt lat="43.3692283" lon="11.480225"><ele>357.0</ele><time>2026-04-19T12:36:51.619Z</time></trkpt><trkpt lat="43.369175" lon="11.4800683"><ele>357.0</ele><time>2026-04-19T12:36:52.619Z</time></trkpt><trkpt lat="43.3691333" lon="11.4799017"><ele>357.0</ele><time>2026-04-19T12:36:53.619Z</time></trkpt><trkpt lat="43.3691267" lon="11.4797217"><ele>357.0</ele><time>2026-04-19T12:36:54.618Z</time></trkpt><trkpt lat="43.3691417" lon="11.4795433"><ele>356.25</ele><time>2026-04-19T12:36:55.619Z</time></trkpt><trkpt lat="43.3691617" lon="11.4793833"><ele>355.5</ele><time>2026-04-19T12:36:56.618Z</time></trkpt><trkpt lat="43.369205" lon="11.4792267"><ele>354.75</ele><time>2026-04-19T12:36:57.619Z</time></trkpt><trkpt lat="43.3692467" lon="11.4790717"><ele>354.0</ele><time>2026-04-19T12:36:58.618Z</time></trkpt><trkpt lat="43.369275" lon="11.4789417"><ele>354.0</ele><time>2026-04-19T12:36:59.619Z</time></trkpt><trkpt lat="43.369305" lon="11.4788417"><ele>354.0</ele><time>2026-04-19T12:37:00.618Z</time></trkpt><trkpt lat="43.3693267" lon="11.4787483"><ele>354.0</ele><time>2026-04-19T12:37:01.618Z</time></trkpt><trkpt lat="43.369345" lon="11.4786317"><ele>354.0</ele><time>2026-04-19T12:37:03.619Z</time></trkpt><trkpt lat="43.369315" lon="11.4787833"><ele>354.0</ele><time>2026-04-19T12:37:10.619Z</time></trkpt><trkpt lat="43.3693" lon="11.4788783"><ele>354.0</ele><time>2026-04-19T12:37:11.619Z</time></trkpt><trkpt lat="43.3692717" lon="11.4790083"><ele>354.0</ele><time>2026-04-19T12:37:12.618Z</time></trkpt><trkpt lat="43.3692267" lon="11.4791517"><ele>354.0</ele><time>2026-04-19T12:37:13.619Z</time></trkpt><trkpt lat="43.369135" lon="11.4794183"><ele>354.0</ele><time>2026-04-19T12:37:15.619Z</time></trkpt><trkpt lat="43.3690983" lon="11.4795267"><ele>354.0</ele><time>2026-04-19T12:37:16.619Z</time></trkpt><trkpt lat="43.3690567" lon="11.47962"><ele>354.5</ele><time>2026-04-19T12:37:17.619Z</time></trkpt><trkpt lat="43.3690117" lon="11.47969"><ele>355.0</ele><time>2026-04-19T12:37:18.619Z</time></trkpt><trkpt lat="43.3689217" lon="11.4797983"><ele>355.5</ele><time>2026-04-19T12:37:20.618Z</time></trkpt><trkpt lat="43.3688667" lon="11.479845"><ele>356.0</ele><time>2026-04-19T12:37:21.619Z</time></trkpt><trkpt lat="43.3688" lon="11.4798633"><ele>356.5</ele><time>2026-04-19T12:37:22.618Z</time></trkpt><trkpt lat="43.368705" lon="11.4798333"><ele>357.0</ele><time>2026-04-19T12:37:23.619Z</time></trkpt><trkpt lat="43.3685917" lon="11.4797667"><ele>353.3333333333333</ele><time>2026-04-19T12:37:24.618Z</time></trkpt><trkpt lat="43.36847" lon="11.479675"><ele>349.66666666666663</ele><time>2026-04-19T12:37:25.619Z</time></trkpt><trkpt lat="43.3683383" lon="11.4795667"><ele>346.0</ele><time>2026-04-19T12:37:26.618Z</time></trkpt><trkpt lat="43.3681967" lon="11.4794367"><ele>345.66666666666663</ele><time>2026-04-19T12:37:27.618Z</time></trkpt><trkpt lat="43.3680467" lon="11.4793133"><ele>345.3333333333333</ele><time>2026-04-19T12:37:28.619Z</time></trkpt><trkpt lat="43.3679033" lon="11.479205"><ele>345.0</ele><time>2026-04-19T12:37:29.619Z</time></trkpt><trkpt lat="43.36776" lon="11.47911"><ele>342.6666666666667</ele><time>2026-04-19T12:37:30.618Z</time></trkpt><trkpt lat="43.3676083" lon="11.4790233"><ele>340.33333333333337</ele><time>2026-04-19T12:37:31.618Z</time></trkpt><trkpt lat="43.3674617" lon="11.478945"><ele>338.0</ele><time>2026-04-19T12:37:32.618Z</time></trkpt><trkpt lat="43.3673283" lon="11.4788717"><ele>338.0</ele><time>2026-04-19T12:37:33.618Z</time></trkpt><trkpt lat="43.3672" lon="11.47879"><ele>338.0</ele><time>2026-04-19T12:37:34.618Z</time></trkpt><trkpt lat="43.367075" lon="11.4787267"><ele>338.0</ele><time>2026-04-19T12:37:35.618Z</time></trkpt><trkpt lat="43.36697" lon="11.478665"><ele>338.0</ele><time>2026-04-19T12:37:36.618Z</time></trkpt><trkpt lat="43.3668733" lon="11.4785983"><ele>339.25</ele><time>2026-04-19T12:37:37.618Z</time></trkpt><trkpt lat="43.366785" lon="11.47854"><ele>340.5</ele><time>2026-04-19T12:37:38.618Z</time></trkpt><trkpt lat="43.366695" lon="11.4784567"><ele>341.75</ele><time>2026-04-19T12:37:39.618Z</time></trkpt><trkpt lat="43.3666033" lon="11.4783467"><ele>343.0</ele><time>2026-04-19T12:37:40.618Z</time></trkpt><trkpt lat="43.3664983" lon="11.4782317"><ele>343.0</ele><time>2026-04-19T12:37:41.618Z</time></trkpt><trkpt lat="43.3663783" lon="11.4781233"><ele>343.0</ele><time>2026-04-19T12:37:42.618Z</time></trkpt><trkpt lat="43.3662617" lon="11.47799"><ele>343.0</ele><time>2026-04-19T12:37:43.618Z</time></trkpt><trkpt lat="43.3661417" lon="11.4778433"><ele>341.75</ele><time>2026-04-19T12:37:44.619Z</time></trkpt><trkpt lat="43.3660233" lon="11.47771"><ele>340.5</ele><time>2026-04-19T12:37:45.618Z</time></trkpt><trkpt lat="43.3659083" lon="11.4776017"><ele>339.25</ele><time>2026-04-19T12:37:46.618Z</time></trkpt><trkpt lat="43.3658" lon="11.4775167"><ele>338.0</ele><time>2026-04-19T12:37:47.618Z</time></trkpt><trkpt lat="43.3656833" lon="11.4774617"><ele>338.0</ele><time>2026-04-19T12:37:48.618Z</time></trkpt><trkpt lat="43.3655583" lon="11.4774233"><ele>338.0</ele><time>2026-04-19T12:37:49.618Z</time></trkpt><trkpt lat="43.365455" lon="11.4773967"><ele>338.0</ele><time>2026-04-19T12:37:50.618Z</time></trkpt><trkpt lat="43.3653767" lon="11.4773467"><ele>338.0</ele><time>2026-04-19T12:37:51.618Z</time></trkpt><trkpt lat="43.3653117" lon="11.4772767"><ele>338.0</ele><time>2026-04-19T12:37:52.618Z</time></trkpt><trkpt lat="43.3652533" lon="11.4771967"><ele>338.59999999999997</ele><time>2026-04-19T12:37:53.618Z</time></trkpt><trkpt lat="43.3651917" lon="11.4770967"><ele>339.2</ele><time>2026-04-19T12:37:54.618Z</time></trkpt><trkpt lat="43.3651233" lon="11.47698"><ele>339.8</ele><time>2026-04-19T12:37:55.618Z</time></trkpt><trkpt lat="43.3650483" lon="11.4768483"><ele>340.4</ele><time>2026-04-19T12:37:56.618Z</time></trkpt><trkpt lat="43.3649667" lon="11.4767217"><ele>341.0</ele><time>2026-04-19T12:37:57.619Z</time></trkpt><trkpt lat="43.3648767" lon="11.4765967"><ele>341.0</ele><time>2026-04-19T12:37:58.619Z</time></trkpt><trkpt lat="43.3647917" lon="11.4764717"><ele>341.0</ele><time>2026-04-19T12:37:59.619Z</time></trkpt><trkpt lat="43.3647133" lon="11.4763417"><ele>341.0</ele><time>2026-04-19T12:38:00.618Z</time></trkpt><trkpt lat="43.3646467" lon="11.47622"><ele>341.0</ele><time>2026-04-19T12:38:01.619Z</time></trkpt><trkpt lat="43.364605" lon="11.4761133"><ele>341.0</ele><time>2026-04-19T12:38:02.619Z</time></trkpt><trkpt lat="43.364575" lon="11.4760017"><ele>340.4</ele><time>2026-04-19T12:38:03.618Z</time></trkpt><trkpt lat="43.3645633" lon="11.4758733"><ele>339.8</ele><time>2026-04-19T12:38:04.619Z</time></trkpt><trkpt lat="43.3645667" lon="11.4757333"><ele>339.2</ele><time>2026-04-19T12:38:05.618Z</time></trkpt><trkpt lat="43.3645717" lon="11.47559"><ele>338.59999999999997</ele><time>2026-04-19T12:38:06.618Z</time></trkpt><trkpt lat="43.3645733" lon="11.475455"><ele>338.0</ele><time>2026-04-19T12:38:07.618Z</time></trkpt><trkpt lat="43.3645733" lon="11.475335"><ele>337.4</ele><time>2026-04-19T12:38:08.618Z</time></trkpt><trkpt lat="43.3645583" lon="11.4752033"><ele>336.79999999999995</ele><time>2026-04-19T12:38:09.618Z</time></trkpt><trkpt lat="43.3645167" lon="11.4750617"><ele>336.2</ele><time>2026-04-19T12:38:10.618Z</time></trkpt><trkpt lat="43.3644683" lon="11.474905"><ele>335.6</ele><time>2026-04-19T12:38:11.619Z</time></trkpt><trkpt lat="43.36442" lon="11.4747633"><ele>335.0</ele><time>2026-04-19T12:38:12.618Z</time></trkpt><trkpt lat="43.3643617" lon="11.47465"><ele>335.8</ele><time>2026-04-19T12:38:13.619Z</time></trkpt><trkpt lat="43.3642983" lon="11.4745467"><ele>336.6</ele><time>2026-04-19T12:38:14.618Z</time></trkpt><trkpt lat="43.3642217" lon="11.4744583"><ele>337.4</ele><time>2026-04-19T12:38:15.618Z</time></trkpt><trkpt lat="43.364145" lon="11.4743667"><ele>338.2</ele><time>2026-04-19T12:38:16.618Z</time></trkpt><trkpt lat="43.3640767" lon="11.4742667"><ele>339.0</ele><time>2026-04-19T12:38:17.618Z</time></trkpt><trkpt lat="43.3640333" lon="11.4741667"><ele>339.0</ele><time>2026-04-19T12:38:18.618Z</time></trkpt><trkpt lat="43.3640067" lon="11.474065"><ele>339.0</ele><time>2026-04-19T12:38:19.618Z</time></trkpt><trkpt lat="43.3639883" lon="11.4739583"><ele>339.0</ele><time>2026-04-19T12:38:20.618Z</time></trkpt><trkpt lat="43.3639767" lon="11.4738267"><ele>339.0</ele><time>2026-04-19T12:38:21.619Z</time></trkpt><trkpt lat="43.3639667" lon="11.47369"><ele>339.0</ele><time>2026-04-19T12:38:22.619Z</time></trkpt><trkpt lat="43.3639517" lon="11.473535"><ele>338.0</ele><time>2026-04-19T12:38:23.619Z</time></trkpt><trkpt lat="43.36396" lon="11.4733683"><ele>337.0</ele><time>2026-04-19T12:38:24.619Z</time></trkpt><trkpt lat="43.363965" lon="11.4732017"><ele>336.0</ele><time>2026-04-19T12:38:25.618Z</time></trkpt><trkpt lat="43.36397" lon="11.473045"><ele>335.0</ele><time>2026-04-19T12:38:26.618Z</time></trkpt><trkpt lat="43.3639633" lon="11.4728967"><ele>335.5</ele><time>2026-04-19T12:38:27.619Z</time></trkpt><trkpt lat="43.3639433" lon="11.4727433"><ele>336.0</ele><time>2026-04-19T12:38:28.618Z</time></trkpt><trkpt lat="43.363915" lon="11.4725817"><ele>336.5</ele><time>2026-04-19T12:38:29.618Z</time></trkpt><trkpt lat="43.3638517" lon="11.4724217"><ele>337.0</ele><time>2026-04-19T12:38:30.619Z</time></trkpt><trkpt lat="43.3637883" lon="11.4722683"><ele>337.0</ele><time>2026-04-19T12:38:31.618Z</time></trkpt><trkpt lat="43.3637183" lon="11.472145"><ele>337.0</ele><time>2026-04-19T12:38:32.618Z</time></trkpt><trkpt lat="43.363655" lon="11.4720383"><ele>337.0</ele><time>2026-04-19T12:38:33.618Z</time></trkpt><trkpt lat="43.3635967" lon="11.4719333"><ele>337.0</ele><time>2026-04-19T12:38:34.618Z</time></trkpt><trkpt lat="43.36355" lon="11.4718467"><ele>337.0</ele><time>2026-04-19T12:38:35.618Z</time></trkpt><trkpt lat="43.36353" lon="11.4717567"><ele>335.8</ele><time>2026-04-19T12:38:36.618Z</time></trkpt><trkpt lat="43.3635183" lon="11.471645"><ele>334.6</ele><time>2026-04-19T12:38:37.618Z</time></trkpt><trkpt lat="43.3635167" lon="11.4715067"><ele>333.40000000000003</ele><time>2026-04-19T12:38:38.617Z</time></trkpt><trkpt lat="43.3635083" lon="11.4713517"><ele>332.20000000000005</ele><time>2026-04-19T12:38:39.618Z</time></trkpt><trkpt lat="43.3634933" lon="11.4711717"><ele>331.0</ele><time>2026-04-19T12:38:40.617Z</time></trkpt><trkpt lat="43.36346" lon="11.4709983"><ele>331.0</ele><time>2026-04-19T12:38:41.617Z</time></trkpt><trkpt lat="43.36342" lon="11.4708267"><ele>331.0</ele><time>2026-04-19T12:38:42.617Z</time></trkpt><trkpt lat="43.3633817" lon="11.4706467"><ele>331.0</ele><time>2026-04-19T12:38:43.617Z</time></trkpt><trkpt lat="43.3633533" lon="11.4704633"><ele>331.0</ele><time>2026-04-19T12:38:44.617Z</time></trkpt><trkpt lat="43.363335" lon="11.47029"><ele>331.0</ele><time>2026-04-19T12:38:45.617Z</time></trkpt><trkpt lat="43.36332" lon="11.4701533"><ele>331.0</ele><time>2026-04-19T12:38:46.618Z</time></trkpt><trkpt lat="43.3633017" lon="11.4700233"><ele>331.0</ele><time>2026-04-19T12:38:47.617Z</time></trkpt><trkpt lat="43.3632633" lon="11.4699033"><ele>331.0</ele><time>2026-04-19T12:38:48.617Z</time></trkpt><trkpt lat="43.3632083" lon="11.4697683"><ele>331.0</ele><time>2026-04-19T12:38:49.617Z</time></trkpt><trkpt lat="43.3631533" lon="11.4696167"><ele>330.5</ele><time>2026-04-19T12:38:50.617Z</time></trkpt><trkpt lat="43.3630983" lon="11.4694467"><ele>330.0</ele><time>2026-04-19T12:38:51.617Z</time></trkpt><trkpt lat="43.3630517" lon="11.46926"><ele>329.5</ele><time>2026-04-19T12:38:52.618Z</time></trkpt><trkpt lat="43.3630183" lon="11.4690733"><ele>329.0</ele><time>2026-04-19T12:38:53.618Z</time></trkpt><trkpt lat="43.363005" lon="11.4688967"><ele>329.0</ele><time>2026-04-19T12:38:54.617Z</time></trkpt><trkpt lat="43.3630083" lon="11.4687217"><ele>329.0</ele><time>2026-04-19T12:38:55.617Z</time></trkpt><trkpt lat="43.3630217" lon="11.4685533"><ele>329.0</ele><time>2026-04-19T12:38:56.617Z</time></trkpt><trkpt lat="43.363055" lon="11.4683883"><ele>329.0</ele><time>2026-04-19T12:38:57.617Z</time></trkpt><trkpt lat="43.3630867" lon="11.4682317"><ele>329.0</ele><time>2026-04-19T12:38:58.617Z</time></trkpt><trkpt lat="43.3631133" lon="11.4680867"><ele>329.0</ele><time>2026-04-19T12:38:59.618Z</time></trkpt><trkpt lat="43.3631517" lon="11.4679417"><ele>329.0</ele><time>2026-04-19T12:39:00.617Z</time></trkpt><trkpt lat="43.3631983" lon="11.4678117"><ele>329.0</ele><time>2026-04-19T12:39:01.617Z</time></trkpt><trkpt lat="43.36325" lon="11.467695"><ele>329.0</ele><time>2026-04-19T12:39:02.618Z</time></trkpt><trkpt lat="43.36332" lon="11.4675833"><ele>329.6</ele><time>2026-04-19T12:39:03.617Z</time></trkpt><trkpt lat="43.3633833" lon="11.4675"><ele>330.2</ele><time>2026-04-19T12:39:04.618Z</time></trkpt><trkpt lat="43.3634533" lon="11.467405"><ele>330.8</ele><time>2026-04-19T12:39:05.617Z</time></trkpt><trkpt lat="43.3635417" lon="11.4673183"><ele>331.40000000000003</ele><time>2026-04-19T12:39:06.618Z</time></trkpt><trkpt lat="43.3636367" lon="11.46725"><ele>332.0</ele><time>2026-04-19T12:39:07.618Z</time></trkpt><trkpt lat="43.3637367" lon="11.46721"><ele>332.0</ele><time>2026-04-19T12:39:08.618Z</time></trkpt><trkpt lat="43.3638467" lon="11.4671483"><ele>332.0</ele><time>2026-04-19T12:39:09.618Z</time></trkpt><trkpt lat="43.3639483" lon="11.46709"><ele>332.0</ele><time>2026-04-19T12:39:10.617Z</time></trkpt><trkpt lat="43.3640467" lon="11.4670117"><ele>332.0</ele><time>2026-04-19T12:39:11.617Z</time></trkpt><trkpt lat="43.3641367" lon="11.466925"><ele>332.33333333333337</ele><time>2026-04-19T12:39:12.618Z</time></trkpt><trkpt lat="43.3642067" lon="11.4668433"><ele>332.6666666666667</ele><time>2026-04-19T12:39:13.618Z</time></trkpt><trkpt lat="43.3642867" lon="11.4667567"><ele>333.0</ele><time>2026-04-19T12:39:15.617Z</time></trkpt><trkpt lat="43.3643433" lon="11.466695"><ele>333.3333333333333</ele><time>2026-04-19T12:39:17.618Z</time></trkpt><trkpt lat="43.3644" lon="11.4666"><ele>333.66666666666663</ele><time>2026-04-19T12:39:19.618Z</time></trkpt><trkpt lat="43.3644217" lon="11.4665167"><ele>334.0</ele><time>2026-04-19T12:39:20.618Z</time></trkpt><trkpt lat="43.3644367" lon="11.466405"><ele>334.0</ele><time>2026-04-19T12:39:21.617Z</time></trkpt><trkpt lat="43.3644517" lon="11.4662883"><ele>334.0</ele><time>2026-04-19T12:39:22.617Z</time></trkpt><trkpt lat="43.364455" lon="11.46615"><ele>334.0</ele><time>2026-04-19T12:39:23.618Z</time></trkpt><trkpt lat="43.3644433" lon="11.466025"><ele>334.0</ele><time>2026-04-19T12:39:24.617Z</time></trkpt><trkpt lat="43.3644383" lon="11.46589"><ele>334.0</ele><time>2026-04-19T12:39:25.618Z</time></trkpt><trkpt lat="43.36443" lon="11.4657733"><ele>333.3333333333333</ele><time>2026-04-19T12:39:26.618Z</time></trkpt><trkpt lat="43.3644283" lon="11.4656567"><ele>332.66666666666663</ele><time>2026-04-19T12:39:27.617Z</time></trkpt><trkpt lat="43.36444" lon="11.46556"><ele>332.0</ele><time>2026-04-19T12:39:28.618Z</time></trkpt><trkpt lat="43.3644383" lon="11.4654217"><ele>331.3333333333333</ele><time>2026-04-19T12:39:30.617Z</time></trkpt><trkpt lat="43.36444" lon="11.4653217"><ele>330.6666666666667</ele><time>2026-04-19T12:39:32.617Z</time></trkpt><trkpt lat="43.364415" lon="11.4652267"><ele>330.0</ele><time>2026-04-19T12:39:34.618Z</time></trkpt><trkpt lat="43.3643217" lon="11.4651267"><ele>329.1666666666667</ele><time>2026-04-19T12:39:36.617Z</time></trkpt><trkpt lat="43.3642667" lon="11.46508"><ele>328.3333333333333</ele><time>2026-04-19T12:39:37.617Z</time></trkpt><trkpt lat="43.3642117" lon="11.4650283"><ele>327.5</ele><time>2026-04-19T12:39:38.617Z</time></trkpt><trkpt lat="43.364125" lon="11.4649883"><ele>326.66666666666663</ele><time>2026-04-19T12:39:40.618Z</time></trkpt><trkpt lat="43.364035" lon="11.46507"><ele>325.8333333333333</ele><time>2026-04-19T12:39:42.617Z</time></trkpt><trkpt lat="43.3639817" lon="11.4651417"><ele>325.0</ele><time>2026-04-19T12:39:43.617Z</time></trkpt><trkpt lat="43.36393" lon="11.4652"><ele>322.2</ele><time>2026-04-19T12:39:44.617Z</time></trkpt><trkpt lat="43.36385" lon="11.4652783"><ele>319.4</ele><time>2026-04-19T12:39:46.617Z</time></trkpt><trkpt lat="43.3637767" lon="11.46529"><ele>316.6</ele><time>2026-04-19T12:39:49.618Z</time></trkpt><trkpt lat="43.363745" lon="11.46518"><ele>313.8</ele><time>2026-04-19T12:39:52.618Z</time></trkpt><trkpt lat="43.3637067" lon="11.4650267"><ele>311.0</ele><time>2026-04-19T12:39:54.617Z</time></trkpt><trkpt lat="43.363665" lon="11.4649133"><ele>311.0</ele><time>2026-04-19T12:39:55.617Z</time></trkpt><trkpt lat="43.36362" lon="11.4647767"><ele>311.0</ele><time>2026-04-19T12:39:56.618Z</time></trkpt><trkpt lat="43.3635717" lon="11.4646367"><ele>311.0</ele><time>2026-04-19T12:39:57.617Z</time></trkpt><trkpt lat="43.363525" lon="11.4644817"><ele>311.0</ele><time>2026-04-19T12:39:58.617Z</time></trkpt><trkpt lat="43.3634883" lon="11.46434"><ele>312.0</ele><time>2026-04-19T12:39:59.618Z</time></trkpt><trkpt lat="43.3634467" lon="11.46421"><ele>313.0</ele><time>2026-04-19T12:40:00.617Z</time></trkpt><trkpt lat="43.3634117" lon="11.4640767"><ele>314.0</ele><time>2026-04-19T12:40:01.617Z</time></trkpt><trkpt lat="43.3633783" lon="11.4639417"><ele>315.0</ele><time>2026-04-19T12:40:02.617Z</time></trkpt><trkpt lat="43.3633217" lon="11.4638083"><ele>316.0</ele><time>2026-04-19T12:40:03.618Z</time></trkpt><trkpt lat="43.3632717" lon="11.4637"><ele>316.16666666666663</ele><time>2026-04-19T12:40:04.618Z</time></trkpt><trkpt lat="43.3632133" lon="11.4636133"><ele>316.3333333333333</ele><time>2026-04-19T12:40:05.617Z</time></trkpt><trkpt lat="43.363145" lon="11.4635383"><ele>316.5</ele><time>2026-04-19T12:40:06.617Z</time></trkpt><trkpt lat="43.3630683" lon="11.4634733"><ele>316.6666666666667</ele><time>2026-04-19T12:40:07.618Z</time></trkpt><trkpt lat="43.3629783" lon="11.4634233"><ele>316.83333333333337</ele><time>2026-04-19T12:40:08.617Z</time></trkpt><trkpt lat="43.3628967" lon="11.46338"><ele>317.0</ele><time>2026-04-19T12:40:09.618Z</time></trkpt><trkpt lat="43.362805" lon="11.4633333"><ele>315.33333333333337</ele><time>2026-04-19T12:40:10.617Z</time></trkpt><trkpt lat="43.3627317" lon="11.4632867"><ele>313.6666666666667</ele><time>2026-04-19T12:40:11.618Z</time></trkpt><trkpt lat="43.36264" lon="11.4632483"><ele>312.0</ele><time>2026-04-19T12:40:12.618Z</time></trkpt><trkpt lat="43.3625567" lon="11.4632217"><ele>310.3333333333333</ele><time>2026-04-19T12:40:13.618Z</time></trkpt><trkpt lat="43.3624683" lon="11.4632017"><ele>308.66666666666663</ele><time>2026-04-19T12:40:14.617Z</time></trkpt><trkpt lat="43.3623733" lon="11.4631783"><ele>307.0</ele><time>2026-04-19T12:40:15.617Z</time></trkpt><trkpt lat="43.3622883" lon="11.4631533"><ele>307.0</ele><time>2026-04-19T12:40:16.617Z</time></trkpt><trkpt lat="43.3622033" lon="11.4631167"><ele>307.0</ele><time>2026-04-19T12:40:17.617Z</time></trkpt><trkpt lat="43.3621117" lon="11.4630817"><ele>307.0</ele><time>2026-04-19T12:40:18.618Z</time></trkpt><trkpt lat="43.3620233" lon="11.4630467"><ele>307.0</ele><time>2026-04-19T12:40:19.617Z</time></trkpt><trkpt lat="43.3619467" lon="11.4629933"><ele>307.0</ele><time>2026-04-19T12:40:20.618Z</time></trkpt><trkpt lat="43.361875" lon="11.4629283"><ele>307.0</ele><time>2026-04-19T12:40:21.618Z</time></trkpt><trkpt lat="43.3617983" lon="11.46283"><ele>304.75</ele><time>2026-04-19T12:40:22.617Z</time></trkpt><trkpt lat="43.3617233" lon="11.4627133"><ele>302.5</ele><time>2026-04-19T12:40:23.617Z</time></trkpt><trkpt lat="43.361625" lon="11.4626017"><ele>300.25</ele><time>2026-04-19T12:40:24.618Z</time></trkpt><trkpt lat="43.3615383" lon="11.4624933"><ele>298.0</ele><time>2026-04-19T12:40:25.617Z</time></trkpt><trkpt lat="43.36145" lon="11.46239"><ele>294.75</ele><time>2026-04-19T12:40:26.618Z</time></trkpt><trkpt lat="43.36136" lon="11.4622783"><ele>291.5</ele><time>2026-04-19T12:40:27.617Z</time></trkpt><trkpt lat="43.3612783" lon="11.4621633"><ele>288.25</ele><time>2026-04-19T12:40:28.618Z</time></trkpt><trkpt lat="43.3611933" lon="11.46205"><ele>285.0</ele><time>2026-04-19T12:40:29.618Z</time></trkpt><trkpt lat="43.3611117" lon="11.4619367"><ele>285.0</ele><time>2026-04-19T12:40:30.617Z</time></trkpt><trkpt lat="43.3610383" lon="11.4618283"><ele>285.0</ele><time>2026-04-19T12:40:31.617Z</time></trkpt><trkpt lat="43.3609583" lon="11.46173"><ele>285.0</ele><time>2026-04-19T12:40:32.618Z</time></trkpt><trkpt lat="43.3608867" lon="11.4616317"><ele>285.0</ele><time>2026-04-19T12:40:33.617Z</time></trkpt><trkpt lat="43.3608183" lon="11.4615317"><ele>285.0</ele><time>2026-04-19T12:40:34.617Z</time></trkpt><trkpt lat="43.3607467" lon="11.4614417"><ele>285.0</ele><time>2026-04-19T12:40:35.617Z</time></trkpt><trkpt lat="43.3606683" lon="11.4613617"><ele>285.0</ele><time>2026-04-19T12:40:36.617Z</time></trkpt><trkpt lat="43.3605867" lon="11.4612883"><ele>285.0</ele><time>2026-04-19T12:40:37.617Z</time></trkpt><trkpt lat="43.360505" lon="11.4612317"><ele>285.0</ele><time>2026-04-19T12:40:38.618Z</time></trkpt><trkpt lat="43.36041" lon="11.46119"><ele>285.0</ele><time>2026-04-19T12:40:39.617Z</time></trkpt><trkpt lat="43.3603017" lon="11.4611633"><ele>284.57142857142856</ele><time>2026-04-19T12:40:40.617Z</time></trkpt><trkpt lat="43.36021" lon="11.4611433"><ele>284.14285714285717</ele><time>2026-04-19T12:40:41.617Z</time></trkpt><trkpt lat="43.3601383" lon="11.4611167"><ele>283.7142857142857</ele><time>2026-04-19T12:40:42.617Z</time></trkpt><trkpt lat="43.3600783" lon="11.461075"><ele>283.2857142857143</ele><time>2026-04-19T12:40:43.617Z</time></trkpt><trkpt lat="43.3600233" lon="11.461025"><ele>282.85714285714283</ele><time>2026-04-19T12:40:44.617Z</time></trkpt><trkpt lat="43.3599717" lon="11.4609683"><ele>282.42857142857144</ele><time>2026-04-19T12:40:45.617Z</time></trkpt><trkpt lat="43.35991" lon="11.4609033"><ele>282.0</ele><time>2026-04-19T12:40:46.617Z</time></trkpt><trkpt lat="43.359855" lon="11.4608267"><ele>282.0</ele><time>2026-04-19T12:40:47.617Z</time></trkpt><trkpt lat="43.359805" lon="11.4607167"><ele>282.0</ele><time>2026-04-19T12:40:48.617Z</time></trkpt><trkpt lat="43.3597483" lon="11.4605817"><ele>282.0</ele><time>2026-04-19T12:40:49.617Z</time></trkpt><trkpt lat="43.3596933" lon="11.4604417"><ele>282.0</ele><time>2026-04-19T12:40:50.618Z</time></trkpt><trkpt lat="43.3596433" lon="11.4603"><ele>282.0</ele><time>2026-04-19T12:40:51.617Z</time></trkpt><trkpt lat="43.359605" lon="11.4601633"><ele>279.0</ele><time>2026-04-19T12:40:52.617Z</time></trkpt><trkpt lat="43.3595683" lon="11.46005"><ele>276.0</ele><time>2026-04-19T12:40:53.618Z</time></trkpt><trkpt lat="43.3595467" lon="11.4599283"><ele>273.0</ele><time>2026-04-19T12:40:54.618Z</time></trkpt><trkpt lat="43.3595367" lon="11.4597917"><ele>270.0</ele><time>2026-04-19T12:40:55.618Z</time></trkpt><trkpt lat="43.3595367" lon="11.4596517"><ele>267.0</ele><time>2026-04-19T12:40:56.617Z</time></trkpt><trkpt lat="43.35954" lon="11.4595"><ele>267.0</ele><time>2026-04-19T12:40:57.618Z</time></trkpt><trkpt lat="43.3595417" lon="11.4593617"><ele>267.0</ele><time>2026-04-19T12:40:58.617Z</time></trkpt><trkpt lat="43.35953" lon="11.45923"><ele>267.0</ele><time>2026-04-19T12:40:59.618Z</time></trkpt><trkpt lat="43.359515" lon="11.4591067"><ele>267.0</ele><time>2026-04-19T12:41:00.617Z</time></trkpt><trkpt lat="43.35949" lon="11.4589917"><ele>267.0</ele><time>2026-04-19T12:41:01.617Z</time></trkpt><trkpt lat="43.3594767" lon="11.4588833"><ele>266.1666666666667</ele><time>2026-04-19T12:41:02.618Z</time></trkpt><trkpt lat="43.35947" lon="11.4587567"><ele>265.3333333333333</ele><time>2026-04-19T12:41:03.618Z</time></trkpt><trkpt lat="43.3594783" lon="11.4586483"><ele>264.5</ele><time>2026-04-19T12:41:04.618Z</time></trkpt><trkpt lat="43.3594817" lon="11.458535"><ele>263.66666666666663</ele><time>2026-04-19T12:41:05.618Z</time></trkpt><trkpt lat="43.3594567" lon="11.4584267"><ele>262.8333333333333</ele><time>2026-04-19T12:41:06.618Z</time></trkpt><trkpt lat="43.359425" lon="11.4583267"><ele>262.0</ele><time>2026-04-19T12:41:07.617Z</time></trkpt><trkpt lat="43.3593717" lon="11.45822"><ele>262.0</ele><time>2026-04-19T12:41:08.617Z</time></trkpt><trkpt lat="43.3593317" lon="11.4581183"><ele>262.0</ele><time>2026-04-19T12:41:09.617Z</time></trkpt><trkpt lat="43.3592983" lon="11.4579917"><ele>262.0</ele><time>2026-04-19T12:41:10.617Z</time></trkpt><trkpt lat="43.3592733" lon="11.45787"><ele>262.0</ele><time>2026-04-19T12:41:11.617Z</time></trkpt><trkpt lat="43.359265" lon="11.4577517"><ele>262.0</ele><time>2026-04-19T12:41:12.617Z</time></trkpt><trkpt lat="43.359225" lon="11.4575833"><ele>260.4</ele><time>2026-04-19T12:41:14.618Z</time></trkpt><trkpt lat="43.3591733" lon="11.4575183"><ele>258.79999999999995</ele><time>2026-04-19T12:41:15.617Z</time></trkpt><trkpt lat="43.3590633" lon="11.45743"><ele>257.2</ele><time>2026-04-19T12:41:17.618Z</time></trkpt><trkpt lat="43.3589767" lon="11.45743"><ele>255.6</ele><time>2026-04-19T12:41:18.618Z</time></trkpt><trkpt lat="43.3588833" lon="11.4574167"><ele>254.0</ele><time>2026-04-19T12:41:19.618Z</time></trkpt><trkpt lat="43.3587783" lon="11.457425"><ele>253.5</ele><time>2026-04-19T12:41:20.617Z</time></trkpt><trkpt lat="43.3586567" lon="11.4574217"><ele>253.0</ele><time>2026-04-19T12:41:21.617Z</time></trkpt><trkpt lat="43.3585433" lon="11.457425"><ele>252.5</ele><time>2026-04-19T12:41:22.617Z</time></trkpt><trkpt lat="43.35844" lon="11.4574233"><ele>252.0</ele><time>2026-04-19T12:41:23.617Z</time></trkpt><trkpt lat="43.358325" lon="11.4574083"><ele>252.0</ele><time>2026-04-19T12:41:24.618Z</time></trkpt><trkpt lat="43.3582333" lon="11.4573633"><ele>252.0</ele><time>2026-04-19T12:41:25.617Z</time></trkpt><trkpt lat="43.35817" lon="11.4573067"><ele>252.0</ele><time>2026-04-19T12:41:26.617Z</time></trkpt><trkpt lat="43.3581033" lon="11.4572567"><ele>252.0</ele><time>2026-04-19T12:41:27.617Z</time></trkpt><trkpt lat="43.3580433" lon="11.4571833"><ele>252.0</ele><time>2026-04-19T12:41:29.618Z</time></trkpt><trkpt lat="43.35802" lon="11.4570683"><ele>252.0</ele><time>2026-04-19T12:41:45.617Z</time></trkpt><trkpt lat="43.3580033" lon="11.4569817"><ele>252.6</ele><time>2026-04-19T12:41:46.618Z</time></trkpt><trkpt lat="43.35798" lon="11.4568767"><ele>253.2</ele><time>2026-04-19T12:41:47.617Z</time></trkpt><trkpt lat="43.357935" lon="11.4567533"><ele>253.8</ele><time>2026-04-19T12:41:48.617Z</time></trkpt><trkpt lat="43.3578783" lon="11.4566317"><ele>254.4</ele><time>2026-04-19T12:41:49.617Z</time></trkpt><trkpt lat="43.3578" lon="11.456505"><ele>255.0</ele><time>2026-04-19T12:41:50.617Z</time></trkpt><trkpt lat="43.3577167" lon="11.4563817"><ele>252.4</ele><time>2026-04-19T12:41:51.617Z</time></trkpt><trkpt lat="43.3576433" lon="11.4562583"><ele>249.8</ele><time>2026-04-19T12:41:52.618Z</time></trkpt><trkpt lat="43.3575817" lon="11.4561367"><ele>247.2</ele><time>2026-04-19T12:41:53.617Z</time></trkpt><trkpt lat="43.3575217" lon="11.4560217"><ele>244.6</ele><time>2026-04-19T12:41:54.617Z</time></trkpt><trkpt lat="43.3574767" lon="11.455925"><ele>242.0</ele><time>2026-04-19T12:41:55.617Z</time></trkpt><trkpt lat="43.3573917" lon="11.4558433"><ele>242.0</ele><time>2026-04-19T12:41:57.618Z</time></trkpt><trkpt lat="43.3572867" lon="11.455845"><ele>242.0</ele><time>2026-04-19T12:41:59.618Z</time></trkpt><trkpt lat="43.357215" lon="11.45587"><ele>242.0</ele><time>2026-04-19T12:42:00.617Z</time></trkpt><trkpt lat="43.3571267" lon="11.4559033"><ele>242.0</ele><time>2026-04-19T12:42:01.618Z</time></trkpt><trkpt lat="43.3570317" lon="11.455945"><ele>242.0</ele><time>2026-04-19T12:42:02.618Z</time></trkpt><trkpt lat="43.3569283" lon="11.45598"><ele>243.25</ele><time>2026-04-19T12:42:03.617Z</time></trkpt><trkpt lat="43.3568233" lon="11.4560167"><ele>244.5</ele><time>2026-04-19T12:42:04.617Z</time></trkpt><trkpt lat="43.3567067" lon="11.4560583"><ele>245.75</ele><time>2026-04-19T12:42:05.618Z</time></trkpt><trkpt lat="43.35659" lon="11.4560967"><ele>247.0</ele><time>2026-04-19T12:42:06.617Z</time></trkpt><trkpt lat="43.3564733" lon="11.4561417"><ele>248.0</ele><time>2026-04-19T12:42:07.618Z</time></trkpt><trkpt lat="43.3563667" lon="11.4561983"><ele>249.0</ele><time>2026-04-19T12:42:08.617Z</time></trkpt><trkpt lat="43.3562533" lon="11.456255"><ele>250.0</ele><time>2026-04-19T12:42:09.618Z</time></trkpt><trkpt lat="43.3561467" lon="11.456325"><ele>251.0</ele><time>2026-04-19T12:42:10.618Z</time></trkpt><trkpt lat="43.356045" lon="11.456385"><ele>254.20000000000002</ele><time>2026-04-19T12:42:11.617Z</time></trkpt><trkpt lat="43.3559483" lon="11.4564167"><ele>257.40000000000003</ele><time>2026-04-19T12:42:12.617Z</time></trkpt><trkpt lat="43.3558517" lon="11.4564533"><ele>260.6</ele><time>2026-04-19T12:42:13.617Z</time></trkpt><trkpt lat="43.3557633" lon="11.4565067"><ele>263.8</ele><time>2026-04-19T12:42:14.617Z</time></trkpt><trkpt lat="43.3556833" lon="11.4565783"><ele>267.0</ele><time>2026-04-19T12:42:15.617Z</time></trkpt><trkpt lat="43.3556083" lon="11.4566367"><ele>267.0</ele><time>2026-04-19T12:42:16.617Z</time></trkpt><trkpt lat="43.35555" lon="11.456695"><ele>267.0</ele><time>2026-04-19T12:42:17.618Z</time></trkpt><trkpt lat="43.35546" lon="11.456795"><ele>267.0</ele><time>2026-04-19T12:42:19.617Z</time></trkpt><trkpt lat="43.3553733" lon="11.456775"><ele>267.0</ele><time>2026-04-19T12:42:21.617Z</time></trkpt><trkpt lat="43.3553183" lon="11.4567183"><ele>267.0</ele><time>2026-04-19T12:42:22.617Z</time></trkpt><trkpt lat="43.355255" lon="11.45659"><ele>267.5</ele><time>2026-04-19T12:42:24.618Z</time></trkpt><trkpt lat="43.3552067" lon="11.4563733"><ele>268.0</ele><time>2026-04-19T12:42:26.617Z</time></trkpt><trkpt lat="43.3551933" lon="11.456235"><ele>268.5</ele><time>2026-04-19T12:42:27.617Z</time></trkpt><trkpt lat="43.3551917" lon="11.4560917"><ele>269.0</ele><time>2026-04-19T12:42:28.617Z</time></trkpt><trkpt lat="43.3551917" lon="11.4559467"><ele>269.0</ele><time>2026-04-19T12:42:29.617Z</time></trkpt><trkpt lat="43.3551817" lon="11.45583"><ele>269.0</ele><time>2026-04-19T12:42:30.617Z</time></trkpt><trkpt lat="43.355165" lon="11.4557333"><ele>269.0</ele><time>2026-04-19T12:42:31.617Z</time></trkpt><trkpt lat="43.3551367" lon="11.4556433"><ele>269.0</ele><time>2026-04-19T12:42:32.617Z</time></trkpt><trkpt lat="43.355095" lon="11.455565"><ele>269.0</ele><time>2026-04-19T12:42:33.618Z</time></trkpt><trkpt lat="43.3550083" lon="11.4554583"><ele>269.0</ele><time>2026-04-19T12:42:35.618Z</time></trkpt><trkpt lat="43.35488" lon="11.4553883"><ele>267.6666666666667</ele><time>2026-04-19T12:42:37.617Z</time></trkpt><trkpt lat="43.3547867" lon="11.4553633"><ele>266.33333333333337</ele><time>2026-04-19T12:42:38.617Z</time></trkpt><trkpt lat="43.35469" lon="11.4553367"><ele>265.0</ele><time>2026-04-19T12:42:39.617Z</time></trkpt><trkpt lat="43.3546017" lon="11.4553067"><ele>263.6666666666667</ele><time>2026-04-19T12:42:40.618Z</time></trkpt><trkpt lat="43.3545217" lon="11.4553033"><ele>262.3333333333333</ele><time>2026-04-19T12:42:41.617Z</time></trkpt><trkpt lat="43.3544467" lon="11.4553217"><ele>261.0</ele><time>2026-04-19T12:42:42.617Z</time></trkpt><trkpt lat="43.3543817" lon="11.4553517"><ele>261.0</ele><time>2026-04-19T12:42:43.618Z</time></trkpt><trkpt lat="43.3542883" lon="11.45539"><ele>261.0</ele><time>2026-04-19T12:42:45.618Z</time></trkpt><trkpt lat="43.354225" lon="11.4553583"><ele>261.0</ele><time>2026-04-19T12:42:47.617Z</time></trkpt><trkpt lat="43.354175" lon="11.4552883"><ele>261.0</ele><time>2026-04-19T12:42:51.618Z</time></trkpt><trkpt lat="43.3541283" lon="11.4552183"><ele>261.0</ele><time>2026-04-19T12:42:55.618Z</time></trkpt><trkpt lat="43.354065" lon="11.4551117"><ele>261.0</ele><time>2026-04-19T12:42:57.618Z</time></trkpt><trkpt lat="43.3540367" lon="11.4550133"><ele>261.0</ele><time>2026-04-19T12:42:58.618Z</time></trkpt><trkpt lat="43.3540083" lon="11.4549017"><ele>261.0</ele><time>2026-04-19T12:42:59.617Z</time></trkpt><trkpt lat="43.3539733" lon="11.454765"><ele>261.0</ele><time>2026-04-19T12:43:00.618Z</time></trkpt><trkpt lat="43.3539383" lon="11.4546117"><ele>261.0</ele><time>2026-04-19T12:43:01.617Z</time></trkpt><trkpt lat="43.3538917" lon="11.4544483"><ele>261.0</ele><time>2026-04-19T12:43:02.617Z</time></trkpt><trkpt lat="43.353835" lon="11.45427"><ele>259.0</ele><time>2026-04-19T12:43:03.618Z</time></trkpt><trkpt lat="43.353775" lon="11.45408"><ele>257.0</ele><time>2026-04-19T12:43:04.617Z</time></trkpt><trkpt lat="43.3536983" lon="11.4539133"><ele>255.0</ele><time>2026-04-19T12:43:05.617Z</time></trkpt><trkpt lat="43.3536117" lon="11.4537383"><ele>253.0</ele><time>2026-04-19T12:43:06.618Z</time></trkpt><trkpt lat="43.353535" lon="11.4535783"><ele>252.25</ele><time>2026-04-19T12:43:07.617Z</time></trkpt><trkpt lat="43.3534383" lon="11.4534283"><ele>251.5</ele><time>2026-04-19T12:43:08.617Z</time></trkpt><trkpt lat="43.3533633" lon="11.453295"><ele>250.75</ele><time>2026-04-19T12:43:09.617Z</time></trkpt><trkpt lat="43.3532867" lon="11.453185"><ele>250.0</ele><time>2026-04-19T12:43:10.617Z</time></trkpt><trkpt lat="43.3532117" lon="11.453095"><ele>250.0</ele><time>2026-04-19T12:43:11.618Z</time></trkpt><trkpt lat="43.35314" lon="11.4530167"><ele>250.0</ele><time>2026-04-19T12:43:12.617Z</time></trkpt><trkpt lat="43.3530733" lon="11.4529383"><ele>250.0</ele><time>2026-04-19T12:43:13.618Z</time></trkpt><trkpt lat="43.353015" lon="11.4528467"><ele>250.0</ele><time>2026-04-19T12:43:14.618Z</time></trkpt><trkpt lat="43.3529517" lon="11.4527417"><ele>250.0</ele><time>2026-04-19T12:43:15.618Z</time></trkpt><trkpt lat="43.3528283" lon="11.452485"><ele>247.0</ele><time>2026-04-19T12:43:17.617Z</time></trkpt><trkpt lat="43.352785" lon="11.45233"><ele>244.0</ele><time>2026-04-19T12:43:18.617Z</time></trkpt><trkpt lat="43.3527383" lon="11.4521767"><ele>241.0</ele><time>2026-04-19T12:43:19.618Z</time></trkpt><trkpt lat="43.35271" lon="11.4520167"><ele>238.0</ele><time>2026-04-19T12:43:20.618Z</time></trkpt><trkpt lat="43.3526817" lon="11.4518383"><ele>235.66666666666666</ele><time>2026-04-19T12:43:21.617Z</time></trkpt><trkpt lat="43.3526767" lon="11.4516317"><ele>233.33333333333331</ele><time>2026-04-19T12:43:22.618Z</time></trkpt><trkpt lat="43.35269" lon="11.451385"><ele>231.0</ele><time>2026-04-19T12:43:23.618Z</time></trkpt><trkpt lat="43.3527217" lon="11.45113"><ele>229.66666666666669</ele><time>2026-04-19T12:43:24.617Z</time></trkpt><trkpt lat="43.352755" lon="11.4508717"><ele>228.33333333333334</ele><time>2026-04-19T12:43:25.616Z</time></trkpt><trkpt lat="43.352785" lon="11.4506183"><ele>227.0</ele><time>2026-04-19T12:43:26.617Z</time></trkpt><trkpt lat="43.35281" lon="11.4503683"><ele>226.66666666666669</ele><time>2026-04-19T12:43:27.616Z</time></trkpt><trkpt lat="43.352835" lon="11.45013"><ele>226.33333333333331</ele><time>2026-04-19T12:43:28.617Z</time></trkpt><trkpt lat="43.3528633" lon="11.4499083"><ele>226.0</ele><time>2026-04-19T12:43:29.616Z</time></trkpt><trkpt lat="43.3528683" lon="11.449705"><ele>227.5</ele><time>2026-04-19T12:43:30.616Z</time></trkpt><trkpt lat="43.3528367" lon="11.4495067"><ele>229.0</ele><time>2026-04-19T12:43:31.616Z</time></trkpt><trkpt lat="43.3527717" lon="11.4493333"><ele>230.5</ele><time>2026-04-19T12:43:32.617Z</time></trkpt><trkpt lat="43.35268" lon="11.4491783"><ele>232.0</ele><time>2026-04-19T12:43:33.617Z</time></trkpt><trkpt lat="43.3525383" lon="11.449035"><ele>232.0</ele><time>2026-04-19T12:43:34.616Z</time></trkpt><trkpt lat="43.3523783" lon="11.44892"><ele>232.0</ele><time>2026-04-19T12:43:35.616Z</time></trkpt><trkpt lat="43.3522217" lon="11.4488267"><ele>232.0</ele><time>2026-04-19T12:43:36.617Z</time></trkpt><trkpt lat="43.3520917" lon="11.448735"><ele>232.5</ele><time>2026-04-19T12:43:37.616Z</time></trkpt><trkpt lat="43.3519833" lon="11.4486167"><ele>233.0</ele><time>2026-04-19T12:43:38.616Z</time></trkpt><trkpt lat="43.3519" lon="11.4484633"><ele>233.5</ele><time>2026-04-19T12:43:39.617Z</time></trkpt><trkpt lat="43.3518483" lon="11.448265"><ele>234.0</ele><time>2026-04-19T12:43:40.616Z</time></trkpt><trkpt lat="43.3518217" lon="11.4480417"><ele>234.0</ele><time>2026-04-19T12:43:41.616Z</time></trkpt><trkpt lat="43.3518133" lon="11.4477833"><ele>234.0</ele><time>2026-04-19T12:43:42.615Z</time></trkpt><trkpt lat="43.35181" lon="11.4475083"><ele>234.0</ele><time>2026-04-19T12:43:43.616Z</time></trkpt><trkpt lat="43.35181" lon="11.447205"><ele>234.5</ele><time>2026-04-19T12:43:44.617Z</time></trkpt><trkpt lat="43.3518067" lon="11.44688"><ele>235.0</ele><time>2026-04-19T12:43:45.616Z</time></trkpt><trkpt lat="43.3518033" lon="11.446545"><ele>237.5</ele><time>2026-04-19T12:43:46.616Z</time></trkpt><trkpt lat="43.3518" lon="11.44622"><ele>240.0</ele><time>2026-04-19T12:43:47.617Z</time></trkpt><trkpt lat="43.3517983" lon="11.4459033"><ele>240.0</ele><time>2026-04-19T12:43:48.617Z</time></trkpt><trkpt lat="43.3517967" lon="11.4456117"><ele>240.0</ele><time>2026-04-19T12:43:49.616Z</time></trkpt><trkpt lat="43.3517877" lon="11.4453368"><ele>240.0</ele><time>2026-04-19T12:43:50.617Z</time></trkpt><trkpt lat="43.3517752" lon="11.4450971"><ele>241.0</ele><time>2026-04-19T12:43:51.616Z</time></trkpt><trkpt lat="43.3517518" lon="11.4448823"><ele>242.0</ele><time>2026-04-19T12:43:52.617Z</time></trkpt><trkpt lat="43.3517173" lon="11.4446945"><ele>243.0</ele><time>2026-04-19T12:43:53.617Z</time></trkpt><trkpt lat="43.3516735" lon="11.4445251"><ele>244.0</ele><time>2026-04-19T12:43:54.616Z</time></trkpt><trkpt lat="43.351631" lon="11.4443502"><ele>244.5</ele><time>2026-04-19T12:43:55.616Z</time></trkpt><trkpt lat="43.3515931" lon="11.444158"><ele>245.0</ele><time>2026-04-19T12:43:56.616Z</time></trkpt><trkpt lat="43.3515619" lon="11.4439528"><ele>245.5</ele><time>2026-04-19T12:43:57.617Z</time></trkpt><trkpt lat="43.3515507" lon="11.4437552"><ele>246.0</ele><time>2026-04-19T12:43:58.616Z</time></trkpt><trkpt lat="43.3515656" lon="11.4435744"><ele>244.25</ele><time>2026-04-19T12:43:59.617Z</time></trkpt><trkpt lat="43.3516075" lon="11.4434133"><ele>242.5</ele><time>2026-04-19T12:44:00.616Z</time></trkpt><trkpt lat="43.3516831" lon="11.4432733"><ele>240.75</ele><time>2026-04-19T12:44:01.616Z</time></trkpt><trkpt lat="43.3517964" lon="11.443171"><ele>239.0</ele><time>2026-04-19T12:44:02.616Z</time></trkpt><trkpt lat="43.3519441" lon="11.443098"><ele>239.0</ele><time>2026-04-19T12:44:03.616Z</time></trkpt><trkpt lat="43.3521147" lon="11.4430542"><ele>239.0</ele><time>2026-04-19T12:44:04.616Z</time></trkpt><trkpt lat="43.352292" lon="11.443017"><ele>239.0</ele><time>2026-04-19T12:44:05.616Z</time></trkpt><trkpt lat="43.3524562" lon="11.4429809"><ele>237.25</ele><time>2026-04-19T12:44:06.617Z</time></trkpt><trkpt lat="43.3526035" lon="11.4429348"><ele>235.5</ele><time>2026-04-19T12:44:07.616Z</time></trkpt><trkpt lat="43.3527254" lon="11.4428359"><ele>233.75</ele><time>2026-04-19T12:44:08.617Z</time></trkpt><trkpt lat="43.3528063" lon="11.4427075"><ele>232.0</ele><time>2026-04-19T12:44:09.617Z</time></trkpt><trkpt lat="43.3528554" lon="11.4425488"><ele>232.0</ele><time>2026-04-19T12:44:10.617Z</time></trkpt><trkpt lat="43.3528607" lon="11.442372"><ele>232.0</ele><time>2026-04-19T12:44:11.617Z</time></trkpt><trkpt lat="43.3528305" lon="11.4421817"><ele>232.0</ele><time>2026-04-19T12:44:12.616Z</time></trkpt><trkpt lat="43.3527637" lon="11.4419776"><ele>232.0</ele><time>2026-04-19T12:44:13.616Z</time></trkpt><trkpt lat="43.3526819" lon="11.4417633"><ele>234.66666666666666</ele><time>2026-04-19T12:44:14.616Z</time></trkpt><trkpt lat="43.3525733" lon="11.4415728"><ele>237.33333333333331</ele><time>2026-04-19T12:44:15.617Z</time></trkpt><trkpt lat="43.3524324" lon="11.4414238"><ele>240.0</ele><time>2026-04-19T12:44:16.617Z</time></trkpt><trkpt lat="43.3522664" lon="11.4413078"><ele>241.66666666666669</ele><time>2026-04-19T12:44:17.616Z</time></trkpt><trkpt lat="43.3520934" lon="11.4412375"><ele>243.33333333333334</ele><time>2026-04-19T12:44:18.616Z</time></trkpt><trkpt lat="43.3519153" lon="11.4411958"><ele>245.0</ele><time>2026-04-19T12:44:19.616Z</time></trkpt><trkpt lat="43.3517611" lon="11.4411706"><ele>245.0</ele><time>2026-04-19T12:44:20.616Z</time></trkpt><trkpt lat="43.3516334" lon="11.4411402"><ele>245.0</ele><time>2026-04-19T12:44:21.616Z</time></trkpt><trkpt lat="43.3515307" lon="11.4410605"><ele>245.0</ele><time>2026-04-19T12:44:22.617Z</time></trkpt><trkpt lat="43.3514617" lon="11.4409167"><ele>245.0</ele><time>2026-04-19T12:44:23.616Z</time></trkpt><trkpt lat="43.3514217" lon="11.4407583"><ele>245.0</ele><time>2026-04-19T12:44:24.616Z</time></trkpt><trkpt lat="43.3513967" lon="11.44057"><ele>245.0</ele><time>2026-04-19T12:44:25.617Z</time></trkpt><trkpt lat="43.3513917" lon="11.440385"><ele>245.0</ele><time>2026-04-19T12:44:26.616Z</time></trkpt><trkpt lat="43.3514" lon="11.4402183"><ele>245.0</ele><time>2026-04-19T12:44:27.617Z</time></trkpt><trkpt lat="43.3514233" lon="11.4400717"><ele>246.2</ele><time>2026-04-19T12:44:28.617Z</time></trkpt><trkpt lat="43.3514367" lon="11.4399483"><ele>247.4</ele><time>2026-04-19T12:44:29.616Z</time></trkpt><trkpt lat="43.3514767" lon="11.439845"><ele>248.60000000000002</ele><time>2026-04-19T12:44:30.616Z</time></trkpt><trkpt lat="43.3515467" lon="11.4397317"><ele>249.8</ele><time>2026-04-19T12:44:31.616Z</time></trkpt><trkpt lat="43.3516483" lon="11.43963"><ele>251.0</ele><time>2026-04-19T12:44:32.617Z</time></trkpt><trkpt lat="43.3517633" lon="11.4395467"><ele>251.0</ele><time>2026-04-19T12:44:33.617Z</time></trkpt><trkpt lat="43.3518917" lon="11.4394617"><ele>251.0</ele><time>2026-04-19T12:44:34.617Z</time></trkpt><trkpt lat="43.3520267" lon="11.43941"><ele>251.0</ele><time>2026-04-19T12:44:35.616Z</time></trkpt><trkpt lat="43.3521683" lon="11.4393717"><ele>251.0</ele><time>2026-04-19T12:44:36.616Z</time></trkpt><trkpt lat="43.3523033" lon="11.439315"><ele>252.75</ele><time>2026-04-19T12:44:37.616Z</time></trkpt><trkpt lat="43.35241" lon="11.439215"><ele>254.5</ele><time>2026-04-19T12:44:38.617Z</time></trkpt><trkpt lat="43.352515" lon="11.4390867"><ele>256.25</ele><time>2026-04-19T12:44:39.616Z</time></trkpt><trkpt lat="43.35262" lon="11.4389667"><ele>258.0</ele><time>2026-04-19T12:44:40.616Z</time></trkpt><trkpt lat="43.35274" lon="11.4388533"><ele>258.0</ele><time>2026-04-19T12:44:41.617Z</time></trkpt><trkpt lat="43.352865" lon="11.4387367"><ele>258.0</ele><time>2026-04-19T12:44:42.616Z</time></trkpt><trkpt lat="43.3529967" lon="11.4386317"><ele>258.0</ele><time>2026-04-19T12:44:43.616Z</time></trkpt><trkpt lat="43.353135" lon="11.4385367"><ele>260.3333333333333</ele><time>2026-04-19T12:44:44.616Z</time></trkpt><trkpt lat="43.35328" lon="11.4384633"><ele>262.66666666666663</ele><time>2026-04-19T12:44:45.616Z</time></trkpt><trkpt lat="43.35342" lon="11.43841"><ele>265.0</ele><time>2026-04-19T12:44:46.617Z</time></trkpt><trkpt lat="43.3535683" lon="11.4383717"><ele>265.0</ele><time>2026-04-19T12:44:47.616Z</time></trkpt><trkpt lat="43.3537267" lon="11.4383233"><ele>265.0</ele><time>2026-04-19T12:44:48.617Z</time></trkpt><trkpt lat="43.3538933" lon="11.43828"><ele>265.0</ele><time>2026-04-19T12:44:49.616Z</time></trkpt><trkpt lat="43.3540483" lon="11.4382333"><ele>265.3333333333333</ele><time>2026-04-19T12:44:50.616Z</time></trkpt><trkpt lat="43.3542017" lon="11.438205"><ele>265.6666666666667</ele><time>2026-04-19T12:44:51.616Z</time></trkpt><trkpt lat="43.3543667" lon="11.4381717"><ele>266.0</ele><time>2026-04-19T12:44:52.616Z</time></trkpt><trkpt lat="43.3545133" lon="11.4381567"><ele>266.0</ele><time>2026-04-19T12:44:53.616Z</time></trkpt><trkpt lat="43.3546667" lon="11.4381567"><ele>266.0</ele><time>2026-04-19T12:44:54.616Z</time></trkpt><trkpt lat="43.3548367" lon="11.438165"><ele>266.0</ele><time>2026-04-19T12:44:55.616Z</time></trkpt><trkpt lat="43.355" lon="11.4381933"><ele>266.6666666666667</ele><time>2026-04-19T12:44:56.616Z</time></trkpt><trkpt lat="43.3551633" lon="11.4382183"><ele>267.3333333333333</ele><time>2026-04-19T12:44:57.616Z</time></trkpt><trkpt lat="43.3553267" lon="11.4382567"><ele>268.0</ele><time>2026-04-19T12:44:58.616Z</time></trkpt><trkpt lat="43.3554833" lon="11.4382867"><ele>267.3333333333333</ele><time>2026-04-19T12:44:59.617Z</time></trkpt><trkpt lat="43.3556467" lon="11.438315"><ele>266.6666666666667</ele><time>2026-04-19T12:45:00.616Z</time></trkpt><trkpt lat="43.3558" lon="11.4383533"><ele>266.0</ele><time>2026-04-19T12:45:01.617Z</time></trkpt><trkpt lat="43.35596" lon="11.43839"><ele>266.0</ele><time>2026-04-19T12:45:02.616Z</time></trkpt><trkpt lat="43.356115" lon="11.4384333"><ele>266.0</ele><time>2026-04-19T12:45:03.616Z</time></trkpt><trkpt lat="43.35628" lon="11.438465"><ele>266.0</ele><time>2026-04-19T12:45:04.616Z</time></trkpt><trkpt lat="43.3564533" lon="11.438505"><ele>265.6666666666667</ele><time>2026-04-19T12:45:05.616Z</time></trkpt><trkpt lat="43.3566367" lon="11.4385417"><ele>265.3333333333333</ele><time>2026-04-19T12:45:06.617Z</time></trkpt><trkpt lat="43.3568117" lon="11.4385867"><ele>265.0</ele><time>2026-04-19T12:45:07.616Z</time></trkpt><trkpt lat="43.3569883" lon="11.43861"><ele>265.0</ele><time>2026-04-19T12:45:08.616Z</time></trkpt><trkpt lat="43.3571633" lon="11.438595"><ele>265.0</ele><time>2026-04-19T12:45:09.617Z</time></trkpt><trkpt lat="43.35734" lon="11.4385583"><ele>265.0</ele><time>2026-04-19T12:45:10.616Z</time></trkpt><trkpt lat="43.3575033" lon="11.4385183"><ele>265.0</ele><time>2026-04-19T12:45:11.617Z</time></trkpt><trkpt lat="43.3576733" lon="11.438465"><ele>265.0</ele><time>2026-04-19T12:45:12.616Z</time></trkpt><trkpt lat="43.357845" lon="11.4384"><ele>265.0</ele><time>2026-04-19T12:45:13.616Z</time></trkpt><trkpt lat="43.35801" lon="11.4383383"><ele>265.66666666666663</ele><time>2026-04-19T12:45:14.616Z</time></trkpt><trkpt lat="43.3581483" lon="11.4382417"><ele>266.3333333333333</ele><time>2026-04-19T12:45:15.617Z</time></trkpt><trkpt lat="43.358255" lon="11.4381067"><ele>267.0</ele><time>2026-04-19T12:45:16.616Z</time></trkpt><trkpt lat="43.358335" lon="11.4379317"><ele>267.5</ele><time>2026-04-19T12:45:17.617Z</time></trkpt><trkpt lat="43.3583933" lon="11.4377517"><ele>268.0</ele><time>2026-04-19T12:45:18.617Z</time></trkpt><trkpt lat="43.3584183" lon="11.437545"><ele>268.5</ele><time>2026-04-19T12:45:19.616Z</time></trkpt><trkpt lat="43.358415" lon="11.4373417"><ele>269.0</ele><time>2026-04-19T12:45:20.616Z</time></trkpt><trkpt lat="43.3583883" lon="11.4371233"><ele>269.0</ele><time>2026-04-19T12:45:21.616Z</time></trkpt><trkpt lat="43.3583733" lon="11.4369367"><ele>269.0</ele><time>2026-04-19T12:45:22.616Z</time></trkpt><trkpt lat="43.3583683" lon="11.4367517"><ele>269.0</ele><time>2026-04-19T12:45:23.616Z</time></trkpt><trkpt lat="43.3583867" lon="11.436545"><ele>269.0</ele><time>2026-04-19T12:45:24.617Z</time></trkpt><trkpt lat="43.358415" lon="11.4363333"><ele>269.0</ele><time>2026-04-19T12:45:25.616Z</time></trkpt><trkpt lat="43.3584467" lon="11.4361183"><ele>269.0</ele><time>2026-04-19T12:45:26.617Z</time></trkpt><trkpt lat="43.3584883" lon="11.4359033"><ele>269.0</ele><time>2026-04-19T12:45:27.616Z</time></trkpt><trkpt lat="43.3585417" lon="11.43569"><ele>269.0</ele><time>2026-04-19T12:45:28.616Z</time></trkpt><trkpt lat="43.3586117" lon="11.4354817"><ele>269.0</ele><time>2026-04-19T12:45:29.616Z</time></trkpt><trkpt lat="43.35868" lon="11.4352583"><ele>269.0</ele><time>2026-04-19T12:45:30.617Z</time></trkpt><trkpt lat="43.3587617" lon="11.4350483"><ele>269.6666666666667</ele><time>2026-04-19T12:45:31.617Z</time></trkpt><trkpt lat="43.35884" lon="11.4348383"><ele>270.3333333333333</ele><time>2026-04-19T12:45:32.616Z</time></trkpt><trkpt lat="43.3589033" lon="11.4346183"><ele>271.0</ele><time>2026-04-19T12:45:33.617Z</time></trkpt><trkpt lat="43.3589483" lon="11.434385"><ele>268.3333333333333</ele><time>2026-04-19T12:45:34.616Z</time></trkpt><trkpt lat="43.358975" lon="11.4341433"><ele>265.6666666666667</ele><time>2026-04-19T12:45:35.617Z</time></trkpt><trkpt lat="43.3589733" lon="11.4339"><ele>263.0</ele><time>2026-04-19T12:45:36.617Z</time></trkpt><trkpt lat="43.3589583" lon="11.4336633"><ele>263.0</ele><time>2026-04-19T12:45:37.616Z</time></trkpt><trkpt lat="43.358915" lon="11.4334233"><ele>263.0</ele><time>2026-04-19T12:45:38.617Z</time></trkpt><trkpt lat="43.3588783" lon="11.4331683"><ele>263.0</ele><time>2026-04-19T12:45:39.616Z</time></trkpt><trkpt lat="43.3588583" lon="11.432915"><ele>263.0</ele><time>2026-04-19T12:45:40.617Z</time></trkpt><trkpt lat="43.35885" lon="11.43267"><ele>263.0</ele><time>2026-04-19T12:45:41.616Z</time></trkpt><trkpt lat="43.358855" lon="11.43242"><ele>263.0</ele><time>2026-04-19T12:45:42.617Z</time></trkpt><trkpt lat="43.3588817" lon="11.43219"><ele>262.33333333333337</ele><time>2026-04-19T12:45:43.616Z</time></trkpt><trkpt lat="43.3589117" lon="11.43194"><ele>261.6666666666667</ele><time>2026-04-19T12:45:44.617Z</time></trkpt><trkpt lat="43.3589683" lon="11.43169"><ele>261.0</ele><time>2026-04-19T12:45:45.616Z</time></trkpt><trkpt lat="43.35902" lon="11.4314567"><ele>262.0</ele><time>2026-04-19T12:45:46.617Z</time></trkpt><trkpt lat="43.3590733" lon="11.43121"><ele>263.0</ele><time>2026-04-19T12:45:47.617Z</time></trkpt><trkpt lat="43.35912" lon="11.4309717"><ele>264.0</ele><time>2026-04-19T12:45:48.616Z</time></trkpt><trkpt lat="43.3591633" lon="11.4307317"><ele>264.0</ele><time>2026-04-19T12:45:49.616Z</time></trkpt><trkpt lat="43.35919" lon="11.4304933"><ele>264.0</ele><time>2026-04-19T12:45:50.617Z</time></trkpt><trkpt lat="43.3592" lon="11.43025"><ele>264.0</ele><time>2026-04-19T12:45:51.616Z</time></trkpt><trkpt lat="43.3592033" lon="11.4300033"><ele>264.3333333333333</ele><time>2026-04-19T12:45:52.616Z</time></trkpt><trkpt lat="43.3591767" lon="11.4297467"><ele>264.66666666666663</ele><time>2026-04-19T12:45:53.616Z</time></trkpt><trkpt lat="43.359135" lon="11.42949"><ele>265.0</ele><time>2026-04-19T12:45:54.616Z</time></trkpt><trkpt lat="43.3590833" lon="11.4292533"><ele>265.66666666666663</ele><time>2026-04-19T12:45:55.616Z</time></trkpt><trkpt lat="43.3590267" lon="11.429025"><ele>266.3333333333333</ele><time>2026-04-19T12:45:56.616Z</time></trkpt><trkpt lat="43.35895" lon="11.42879"><ele>267.0</ele><time>2026-04-19T12:45:57.616Z</time></trkpt><trkpt lat="43.3588467" lon="11.42857"><ele>267.0</ele><time>2026-04-19T12:45:58.617Z</time></trkpt><trkpt lat="43.358705" lon="11.4283633"><ele>267.0</ele><time>2026-04-19T12:45:59.616Z</time></trkpt><trkpt lat="43.35857" lon="11.428175"><ele>267.0</ele><time>2026-04-19T12:46:00.617Z</time></trkpt><trkpt lat="43.358425" lon="11.4279783"><ele>263.3333333333333</ele><time>2026-04-19T12:46:01.616Z</time></trkpt><trkpt lat="43.35831" lon="11.42778"><ele>259.66666666666663</ele><time>2026-04-19T12:46:02.616Z</time></trkpt><trkpt lat="43.3582033" lon="11.42759"><ele>256.0</ele><time>2026-04-19T12:46:03.617Z</time></trkpt><trkpt lat="43.358085" lon="11.4274183"><ele>255.0</ele><time>2026-04-19T12:46:04.616Z</time></trkpt><trkpt lat="43.357955" lon="11.4272683"><ele>254.0</ele><time>2026-04-19T12:46:05.616Z</time></trkpt><trkpt lat="43.357815" lon="11.4271367"><ele>253.0</ele><time>2026-04-19T12:46:06.616Z</time></trkpt><trkpt lat="43.35766" lon="11.4270217"><ele>253.0</ele><time>2026-04-19T12:46:07.616Z</time></trkpt><trkpt lat="43.3574833" lon="11.42694"><ele>253.0</ele><time>2026-04-19T12:46:08.616Z</time></trkpt><trkpt lat="43.3573033" lon="11.4268517"><ele>253.0</ele><time>2026-04-19T12:46:09.617Z</time></trkpt><trkpt lat="43.357115" lon="11.426745"><ele>254.0</ele><time>2026-04-19T12:46:10.616Z</time></trkpt><trkpt lat="43.3569283" lon="11.4266333"><ele>255.0</ele><time>2026-04-19T12:46:11.617Z</time></trkpt><trkpt lat="43.356755" lon="11.4264917"><ele>256.0</ele><time>2026-04-19T12:46:12.616Z</time></trkpt><trkpt lat="43.3565867" lon="11.4263333"><ele>252.66666666666666</ele><time>2026-04-19T12:46:13.617Z</time></trkpt><trkpt lat="43.3564183" lon="11.42616"><ele>249.33333333333331</ele><time>2026-04-19T12:46:14.616Z</time></trkpt><trkpt lat="43.3562667" lon="11.425975"><ele>246.0</ele><time>2026-04-19T12:46:15.616Z</time></trkpt><trkpt lat="43.3561333" lon="11.425785"><ele>246.0</ele><time>2026-04-19T12:46:16.617Z</time></trkpt><trkpt lat="43.3560033" lon="11.4256"><ele>246.0</ele><time>2026-04-19T12:46:17.617Z</time></trkpt><trkpt lat="43.355865" lon="11.42541"><ele>246.0</ele><time>2026-04-19T12:46:18.616Z</time></trkpt><trkpt lat="43.3557283" lon="11.4252283"><ele>244.0</ele><time>2026-04-19T12:46:19.616Z</time></trkpt><trkpt lat="43.3555983" lon="11.4250383"><ele>242.0</ele><time>2026-04-19T12:46:20.617Z</time></trkpt><trkpt lat="43.3554417" lon="11.4248633"><ele>240.0</ele><time>2026-04-19T12:46:21.616Z</time></trkpt><trkpt lat="43.3553183" lon="11.4247"><ele>239.0</ele><time>2026-04-19T12:46:22.616Z</time></trkpt><trkpt lat="43.3552067" lon="11.4245467"><ele>238.0</ele><time>2026-04-19T12:46:23.616Z</time></trkpt><trkpt lat="43.35511" lon="11.4243983"><ele>237.0</ele><time>2026-04-19T12:46:24.617Z</time></trkpt><trkpt lat="43.3550217" lon="11.42424"><ele>236.0</ele><time>2026-04-19T12:46:25.616Z</time></trkpt><trkpt lat="43.3549717" lon="11.42408"><ele>236.0</ele><time>2026-04-19T12:46:26.617Z</time></trkpt><trkpt lat="43.3549767" lon="11.4239"><ele>236.0</ele><time>2026-04-19T12:46:27.616Z</time></trkpt><trkpt lat="43.3550167" lon="11.4236983"><ele>236.0</ele><time>2026-04-19T12:46:28.616Z</time></trkpt><trkpt lat="43.3550683" lon="11.42348"><ele>234.66666666666669</ele><time>2026-04-19T12:46:29.617Z</time></trkpt><trkpt lat="43.3551183" lon="11.423265"><ele>233.33333333333331</ele><time>2026-04-19T12:46:30.617Z</time></trkpt><trkpt lat="43.3551633" lon="11.4230433"><ele>232.0</ele><time>2026-04-19T12:46:31.616Z</time></trkpt><trkpt lat="43.3552033" lon="11.4228233"><ele>229.66666666666666</ele><time>2026-04-19T12:46:32.617Z</time></trkpt><trkpt lat="43.3552417" lon="11.4225933"><ele>227.33333333333331</ele><time>2026-04-19T12:46:33.616Z</time></trkpt><trkpt lat="43.3552767" lon="11.4223667"><ele>225.0</ele><time>2026-04-19T12:46:34.617Z</time></trkpt><trkpt lat="43.3553067" lon="11.4221467"><ele>222.66666666666669</ele><time>2026-04-19T12:46:35.617Z</time></trkpt><trkpt lat="43.35533" lon="11.4219267"><ele>220.33333333333334</ele><time>2026-04-19T12:46:36.616Z</time></trkpt><trkpt lat="43.3553383" lon="11.4217033"><ele>218.0</ele><time>2026-04-19T12:46:37.616Z</time></trkpt><trkpt lat="43.35536" lon="11.42147"><ele>217.0</ele><time>2026-04-19T12:46:38.616Z</time></trkpt><trkpt lat="43.3553967" lon="11.4212333"><ele>216.0</ele><time>2026-04-19T12:46:39.616Z</time></trkpt><trkpt lat="43.35543" lon="11.4210233"><ele>215.0</ele><time>2026-04-19T12:46:40.617Z</time></trkpt><trkpt lat="43.3554583" lon="11.4208167"><ele>215.0</ele><time>2026-04-19T12:46:41.617Z</time></trkpt><trkpt lat="43.355495" lon="11.4206267"><ele>215.0</ele><time>2026-04-19T12:46:42.616Z</time></trkpt><trkpt lat="43.3555367" lon="11.42044"><ele>215.0</ele><time>2026-04-19T12:46:43.616Z</time></trkpt><trkpt lat="43.35557" lon="11.4202667"><ele>215.0</ele><time>2026-04-19T12:46:44.616Z</time></trkpt><trkpt lat="43.3556067" lon="11.4201117"><ele>215.2</ele><time>2026-04-19T12:46:45.616Z</time></trkpt><trkpt lat="43.3556383" lon="11.4199717"><ele>215.4</ele><time>2026-04-19T12:46:46.616Z</time></trkpt><trkpt lat="43.35567" lon="11.4198567"><ele>215.60000000000002</ele><time>2026-04-19T12:46:47.617Z</time></trkpt><trkpt lat="43.3556917" lon="11.4197733"><ele>215.8</ele><time>2026-04-19T12:46:48.617Z</time></trkpt><trkpt lat="43.3556867" lon="11.4196233"><ele>216.0</ele><time>2026-04-19T12:46:50.617Z</time></trkpt><trkpt lat="43.355635" lon="11.4194967"><ele>216.0</ele><time>2026-04-19T12:46:52.616Z</time></trkpt><trkpt lat="43.3556017" lon="11.419405"><ele>216.0</ele><time>2026-04-19T12:46:54.616Z</time></trkpt><trkpt lat="43.355635" lon="11.4194633"><ele>216.0</ele><time>2026-04-19T12:49:20.615Z</time></trkpt><trkpt lat="43.3556583" lon="11.4195633"><ele>216.0</ele><time>2026-04-19T12:49:23.616Z</time></trkpt><trkpt lat="43.3557217" lon="11.419545"><ele>216.0</ele><time>2026-04-19T12:49:25.615Z</time></trkpt><trkpt lat="43.35577" lon="11.4194833"><ele>216.0</ele><time>2026-04-19T12:49:26.615Z</time></trkpt><trkpt lat="43.35582" lon="11.41939"><ele>216.0</ele><time>2026-04-19T12:49:27.615Z</time></trkpt><trkpt lat="43.355875" lon="11.419285"><ele>216.0</ele><time>2026-04-19T12:49:28.616Z</time></trkpt><trkpt lat="43.3559217" lon="11.419195"><ele>216.00000000000003</ele><time>2026-04-19T12:49:29.615Z</time></trkpt><trkpt lat="43.3559783" lon="11.41907"><ele>216.00000000000003</ele><time>2026-04-19T12:49:30.616Z</time></trkpt><trkpt lat="43.3560383" lon="11.4189367"><ele>216.0</ele><time>2026-04-19T12:49:31.616Z</time></trkpt><trkpt lat="43.3561133" lon="11.4187867"><ele>216.0</ele><time>2026-04-19T12:49:32.615Z</time></trkpt><trkpt lat="43.356185" lon="11.4186283"><ele>216.25</ele><time>2026-04-19T12:49:33.616Z</time></trkpt><trkpt lat="43.3562583" lon="11.41847"><ele>216.5</ele><time>2026-04-19T12:49:34.615Z</time></trkpt><trkpt lat="43.3563283" lon="11.41832"><ele>216.75</ele><time>2026-04-19T12:49:35.615Z</time></trkpt><trkpt lat="43.3564033" lon="11.418155"><ele>217.0</ele><time>2026-04-19T12:49:36.615Z</time></trkpt><trkpt lat="43.3564867" lon="11.41799"><ele>217.5</ele><time>2026-04-19T12:49:37.615Z</time></trkpt><trkpt lat="43.3565683" lon="11.41782"><ele>218.0</ele><time>2026-04-19T12:49:38.615Z</time></trkpt><trkpt lat="43.3566517" lon="11.417645"><ele>218.5</ele><time>2026-04-19T12:49:39.616Z</time></trkpt><trkpt lat="43.3567233" lon="11.41749"><ele>219.0</ele><time>2026-04-19T12:49:40.615Z</time></trkpt><trkpt lat="43.3567783" lon="11.417345"><ele>219.0</ele><time>2026-04-19T12:49:41.615Z</time></trkpt><trkpt lat="43.3568217" lon="11.4172067"><ele>218.99999999999997</ele><time>2026-04-19T12:49:42.615Z</time></trkpt><trkpt lat="43.3568433" lon="11.417085"><ele>218.99999999999997</ele><time>2026-04-19T12:49:43.615Z</time></trkpt><trkpt lat="43.3568583" lon="11.4169917"><ele>219.0</ele><time>2026-04-19T12:49:44.615Z</time></trkpt><trkpt lat="43.35688" lon="11.4168667"><ele>219.0</ele><time>2026-04-19T12:49:46.616Z</time></trkpt><trkpt lat="43.3568417" lon="11.416715"><ele>219.0</ele><time>2026-04-19T12:49:49.615Z</time></trkpt><trkpt lat="43.356805" lon="11.4166183"><ele>218.99999999999997</ele><time>2026-04-19T12:49:50.615Z</time></trkpt><trkpt lat="43.3567567" lon="11.41651"><ele>218.99999999999997</ele><time>2026-04-19T12:49:51.615Z</time></trkpt><trkpt lat="43.3566983" lon="11.416395"><ele>219.0</ele><time>2026-04-19T12:49:52.616Z</time></trkpt><trkpt lat="43.35664" lon="11.416285"><ele>219.0</ele><time>2026-04-19T12:49:53.615Z</time></trkpt><trkpt lat="43.3565817" lon="11.416175"><ele>219.66666666666669</ele><time>2026-04-19T12:49:54.615Z</time></trkpt><trkpt lat="43.3564467" lon="11.4159533"><ele>220.33333333333334</ele><time>2026-04-19T12:49:56.616Z</time></trkpt><trkpt lat="43.356355" lon="11.415735"><ele>221.0</ele><time>2026-04-19T12:49:58.616Z</time></trkpt><trkpt lat="43.3563583" lon="11.4155933"><ele>222.5</ele><time>2026-04-19T12:49:59.616Z</time></trkpt><trkpt lat="43.3563833" lon="11.4154367"><ele>224.0</ele><time>2026-04-19T12:50:00.615Z</time></trkpt><trkpt lat="43.35642" lon="11.4152417"><ele>225.5</ele><time>2026-04-19T12:50:01.615Z</time></trkpt><trkpt lat="43.35646" lon="11.415065"><ele>227.0</ele><time>2026-04-19T12:50:02.615Z</time></trkpt><trkpt lat="43.3564933" lon="11.4148917"><ele>227.0</ele><time>2026-04-19T12:50:03.615Z</time></trkpt><trkpt lat="43.35653" lon="11.4147083"><ele>227.0</ele><time>2026-04-19T12:50:04.615Z</time></trkpt><trkpt lat="43.3565733" lon="11.4145083"><ele>227.0</ele><time>2026-04-19T12:50:05.616Z</time></trkpt><trkpt lat="43.3566267" lon="11.4142883"><ele>228.33333333333334</ele><time>2026-04-19T12:50:06.615Z</time></trkpt><trkpt lat="43.3566817" lon="11.414065"><ele>229.66666666666669</ele><time>2026-04-19T12:50:07.616Z</time></trkpt><trkpt lat="43.3567417" lon="11.4138467"><ele>231.0</ele><time>2026-04-19T12:50:08.616Z</time></trkpt><trkpt lat="43.3568017" lon="11.41362"><ele>232.0</ele><time>2026-04-19T12:50:09.616Z</time></trkpt><trkpt lat="43.3568583" lon="11.4133983"><ele>233.0</ele><time>2026-04-19T12:50:10.615Z</time></trkpt><trkpt lat="43.3569233" lon="11.4131917"><ele>234.0</ele><time>2026-04-19T12:50:11.615Z</time></trkpt><trkpt lat="43.3569867" lon="11.4129983"><ele>234.75</ele><time>2026-04-19T12:50:12.615Z</time></trkpt><trkpt lat="43.3570483" lon="11.4128267"><ele>235.5</ele><time>2026-04-19T12:50:13.616Z</time></trkpt><trkpt lat="43.3571133" lon="11.41268"><ele>236.25</ele><time>2026-04-19T12:50:14.615Z</time></trkpt><trkpt lat="43.3571883" lon="11.4125567"><ele>237.0</ele><time>2026-04-19T12:50:15.615Z</time></trkpt><trkpt lat="43.3572817" lon="11.4124617"><ele>238.0</ele><time>2026-04-19T12:50:16.615Z</time></trkpt><trkpt lat="43.3573783" lon="11.4123883"><ele>239.0</ele><time>2026-04-19T12:50:17.616Z</time></trkpt><trkpt lat="43.3574883" lon="11.4123217"><ele>240.0</ele><time>2026-04-19T12:50:18.616Z</time></trkpt><trkpt lat="43.3575983" lon="11.412295"><ele>241.0</ele><time>2026-04-19T12:50:19.615Z</time></trkpt><trkpt lat="43.357705" lon="11.4122983"><ele>242.0</ele><time>2026-04-19T12:50:20.615Z</time></trkpt><trkpt lat="43.357815" lon="11.4123333"><ele>242.0</ele><time>2026-04-19T12:50:21.616Z</time></trkpt><trkpt lat="43.3579283" lon="11.4123933"><ele>242.0</ele><time>2026-04-19T12:50:22.615Z</time></trkpt><trkpt lat="43.3580383" lon="11.412435"><ele>242.0</ele><time>2026-04-19T12:50:23.615Z</time></trkpt><trkpt lat="43.35815" lon="11.4124633"><ele>242.0</ele><time>2026-04-19T12:50:24.615Z</time></trkpt><trkpt lat="43.3582667" lon="11.41247"><ele>243.0</ele><time>2026-04-19T12:50:25.615Z</time></trkpt><trkpt lat="43.3583817" lon="11.4124683"><ele>244.0</ele><time>2026-04-19T12:50:26.616Z</time></trkpt><trkpt lat="43.3584933" lon="11.41246"><ele>245.0</ele><time>2026-04-19T12:50:27.615Z</time></trkpt><trkpt lat="43.3586033" lon="11.4124333"><ele>246.0</ele><time>2026-04-19T12:50:28.615Z</time></trkpt><trkpt lat="43.3587067" lon="11.4123883"><ele>247.0</ele><time>2026-04-19T12:50:29.615Z</time></trkpt><trkpt lat="43.3587967" lon="11.4123383"><ele>247.39999999999998</ele><time>2026-04-19T12:50:30.615Z</time></trkpt><trkpt lat="43.3588767" lon="11.412275"><ele>247.79999999999998</ele><time>2026-04-19T12:50:31.616Z</time></trkpt><trkpt lat="43.3589367" lon="11.4122"><ele>248.2</ele><time>2026-04-19T12:50:32.615Z</time></trkpt><trkpt lat="43.3590017" lon="11.412025"><ele>248.6</ele><time>2026-04-19T12:50:34.615Z</time></trkpt><trkpt lat="43.3590117" lon="11.4119033"><ele>249.0</ele><time>2026-04-19T12:50:35.615Z</time></trkpt><trkpt lat="43.3590083" lon="11.4117667"><ele>251.25</ele><time>2026-04-19T12:50:36.616Z</time></trkpt><trkpt lat="43.3590083" lon="11.4115983"><ele>253.5</ele><time>2026-04-19T12:50:37.615Z</time></trkpt><trkpt lat="43.3590217" lon="11.411425"><ele>255.75</ele><time>2026-04-19T12:50:38.615Z</time></trkpt><trkpt lat="43.3590367" lon="11.4112617"><ele>258.0</ele><time>2026-04-19T12:50:39.615Z</time></trkpt><trkpt lat="43.3590733" lon="11.4111367"><ele>259.0</ele><time>2026-04-19T12:50:40.616Z</time></trkpt><trkpt lat="43.359125" lon="11.4110467"><ele>260.0</ele><time>2026-04-19T12:50:41.616Z</time></trkpt><trkpt lat="43.3591833" lon="11.4109817"><ele>261.0</ele><time>2026-04-19T12:50:42.615Z</time></trkpt><trkpt lat="43.3592567" lon="11.4109533"><ele>262.0</ele><time>2026-04-19T12:50:43.615Z</time></trkpt><trkpt lat="43.3593267" lon="11.4109633"><ele>263.0</ele><time>2026-04-19T12:50:44.615Z</time></trkpt><trkpt lat="43.3593983" lon="11.4110117"><ele>264.0</ele><time>2026-04-19T12:50:45.616Z</time></trkpt><trkpt lat="43.359465" lon="11.41109"><ele>264.0</ele><time>2026-04-19T12:50:46.616Z</time></trkpt><trkpt lat="43.3595217" lon="11.411195"><ele>264.0</ele><time>2026-04-19T12:50:47.616Z</time></trkpt><trkpt lat="43.359565" lon="11.4113233"><ele>264.0</ele><time>2026-04-19T12:50:48.615Z</time></trkpt><trkpt lat="43.3595983" lon="11.4114933"><ele>264.0</ele><time>2026-04-19T12:50:49.616Z</time></trkpt><trkpt lat="43.35961" lon="11.4116633"><ele>262.8</ele><time>2026-04-19T12:50:50.615Z</time></trkpt><trkpt lat="43.35962" lon="11.4118033"><ele>261.59999999999997</ele><time>2026-04-19T12:50:51.615Z</time></trkpt><trkpt lat="43.3596467" lon="11.411915"><ele>260.4</ele><time>2026-04-19T12:50:52.616Z</time></trkpt><trkpt lat="43.359685" lon="11.4120017"><ele>259.2</ele><time>2026-04-19T12:50:53.615Z</time></trkpt><trkpt lat="43.3597367" lon="11.4120617"><ele>258.0</ele><time>2026-04-19T12:50:54.616Z</time></trkpt><trkpt lat="43.3598583" lon="11.412075"><ele>260.4</ele><time>2026-04-19T12:50:56.616Z</time></trkpt><trkpt lat="43.3599533" lon="11.4119883"><ele>262.8</ele><time>2026-04-19T12:50:58.615Z</time></trkpt><trkpt lat="43.359975" lon="11.4118033"><ele>265.2</ele><time>2026-04-19T12:51:00.615Z</time></trkpt><trkpt lat="43.3599667" lon="11.4116783"><ele>267.6</ele><time>2026-04-19T12:51:01.616Z</time></trkpt><trkpt lat="43.3599617" lon="11.4115433"><ele>270.0</ele><time>2026-04-19T12:51:02.615Z</time></trkpt><trkpt lat="43.35997" lon="11.4114"><ele>270.0</ele><time>2026-04-19T12:51:03.615Z</time></trkpt><trkpt lat="43.35999" lon="11.4112683"><ele>270.0</ele><time>2026-04-19T12:51:04.616Z</time></trkpt><trkpt lat="43.3600417" lon="11.4111567"><ele>270.0</ele><time>2026-04-19T12:51:05.616Z</time></trkpt><trkpt lat="43.3601183" lon="11.4110683"><ele>270.0</ele><time>2026-04-19T12:51:06.615Z</time></trkpt><trkpt lat="43.36021" lon="11.410995"><ele>270.0</ele><time>2026-04-19T12:51:07.616Z</time></trkpt><trkpt lat="43.3603067" lon="11.410935"><ele>270.0</ele><time>2026-04-19T12:51:08.615Z</time></trkpt><trkpt lat="43.3604217" lon="11.4108933"><ele>270.0</ele><time>2026-04-19T12:51:09.616Z</time></trkpt><trkpt lat="43.3605467" lon="11.4108283"><ele>270.0</ele><time>2026-04-19T12:51:10.615Z</time></trkpt><trkpt lat="43.360665" lon="11.4107683"><ele>270.0</ele><time>2026-04-19T12:51:11.616Z</time></trkpt><trkpt lat="43.3607533" lon="11.4106917"><ele>272.75</ele><time>2026-04-19T12:51:12.616Z</time></trkpt><trkpt lat="43.3608617" lon="11.410455"><ele>275.5</ele><time>2026-04-19T12:51:14.616Z</time></trkpt><trkpt lat="43.36087" lon="11.410315"><ele>278.25</ele><time>2026-04-19T12:51:15.615Z</time></trkpt><trkpt lat="43.36086" lon="11.410145"><ele>281.0</ele><time>2026-04-19T12:51:16.615Z</time></trkpt><trkpt lat="43.3608283" lon="11.4099667"><ele>281.0</ele><time>2026-04-19T12:51:17.615Z</time></trkpt><trkpt lat="43.360765" lon="11.409785"><ele>281.0</ele><time>2026-04-19T12:51:18.615Z</time></trkpt><trkpt lat="43.3606867" lon="11.40961"><ele>281.0</ele><time>2026-04-19T12:51:19.615Z</time></trkpt><trkpt lat="43.3606067" lon="11.409425"><ele>280.6666666666667</ele><time>2026-04-19T12:51:20.616Z</time></trkpt><trkpt lat="43.360525" lon="11.4092533"><ele>280.3333333333333</ele><time>2026-04-19T12:51:21.615Z</time></trkpt><trkpt lat="43.3604383" lon="11.4090833"><ele>280.0</ele><time>2026-04-19T12:51:22.615Z</time></trkpt><trkpt lat="43.360335" lon="11.40892"><ele>283.0</ele><time>2026-04-19T12:51:23.615Z</time></trkpt><trkpt lat="43.3602067" lon="11.408785"><ele>286.0</ele><time>2026-04-19T12:51:24.615Z</time></trkpt><trkpt lat="43.36006" lon="11.4086533"><ele>289.0</ele><time>2026-04-19T12:51:25.616Z</time></trkpt><trkpt lat="43.3599167" lon="11.4085383"><ele>289.0</ele><time>2026-04-19T12:51:26.616Z</time></trkpt><trkpt lat="43.3597933" lon="11.4084483"><ele>289.0</ele><time>2026-04-19T12:51:27.616Z</time></trkpt><trkpt lat="43.3596817" lon="11.4083717"><ele>289.0</ele><time>2026-04-19T12:51:28.616Z</time></trkpt><trkpt lat="43.359595" lon="11.408285"><ele>289.0</ele><time>2026-04-19T12:51:29.616Z</time></trkpt><trkpt lat="43.3595283" lon="11.4081783"><ele>289.0</ele><time>2026-04-19T12:51:30.616Z</time></trkpt><trkpt lat="43.3594967" lon="11.40806"><ele>289.0</ele><time>2026-04-19T12:51:31.616Z</time></trkpt><trkpt lat="43.359495" lon="11.407935"><ele>289.0</ele><time>2026-04-19T12:51:32.616Z</time></trkpt><trkpt lat="43.3595167" lon="11.4078017"><ele>289.0</ele><time>2026-04-19T12:51:33.616Z</time></trkpt><trkpt lat="43.3595583" lon="11.4076833"><ele>289.0</ele><time>2026-04-19T12:51:34.615Z</time></trkpt><trkpt lat="43.35963" lon="11.4075783"><ele>290.2</ele><time>2026-04-19T12:51:35.616Z</time></trkpt><trkpt lat="43.3597167" lon="11.4074933"><ele>291.4</ele><time>2026-04-19T12:51:36.616Z</time></trkpt><trkpt lat="43.3598217" lon="11.4074367"><ele>292.6</ele><time>2026-04-19T12:51:37.616Z</time></trkpt><trkpt lat="43.3599267" lon="11.4074083"><ele>293.8</ele><time>2026-04-19T12:51:38.616Z</time></trkpt><trkpt lat="43.36004" lon="11.4074117"><ele>295.0</ele><time>2026-04-19T12:51:39.616Z</time></trkpt><trkpt lat="43.3601617" lon="11.4074517"><ele>295.0</ele><time>2026-04-19T12:51:40.615Z</time></trkpt><trkpt lat="43.3603133" lon="11.407485"><ele>295.0</ele><time>2026-04-19T12:51:41.615Z</time></trkpt><trkpt lat="43.3604883" lon="11.4075167"><ele>295.0</ele><time>2026-04-19T12:51:42.616Z</time></trkpt><trkpt lat="43.360675" lon="11.40754"><ele>296.0</ele><time>2026-04-19T12:51:43.616Z</time></trkpt><trkpt lat="43.3608767" lon="11.4075383"><ele>297.0</ele><time>2026-04-19T12:51:44.616Z</time></trkpt><trkpt lat="43.3610883" lon="11.407535"><ele>298.0</ele><time>2026-04-19T12:51:45.615Z</time></trkpt><trkpt lat="43.36128" lon="11.4075217"><ele>300.66666666666663</ele><time>2026-04-19T12:51:46.615Z</time></trkpt><trkpt lat="43.3614767" lon="11.4075017"><ele>303.3333333333333</ele><time>2026-04-19T12:51:47.616Z</time></trkpt><trkpt lat="43.3616733" lon="11.4074567"><ele>306.0</ele><time>2026-04-19T12:51:48.615Z</time></trkpt><trkpt lat="43.3618733" lon="11.4074083"><ele>306.0</ele><time>2026-04-19T12:51:49.616Z</time></trkpt><trkpt lat="43.36207" lon="11.4073517"><ele>306.0</ele><time>2026-04-19T12:51:50.615Z</time></trkpt><trkpt lat="43.3622667" lon="11.4072983"><ele>306.0</ele><time>2026-04-19T12:51:51.616Z</time></trkpt><trkpt lat="43.3624533" lon="11.4072267"><ele>307.6666666666667</ele><time>2026-04-19T12:51:52.616Z</time></trkpt><trkpt lat="43.3626383" lon="11.4071567"><ele>309.33333333333337</ele><time>2026-04-19T12:51:53.616Z</time></trkpt><trkpt lat="43.362825" lon="11.40707"><ele>311.0</ele><time>2026-04-19T12:51:54.616Z</time></trkpt><trkpt lat="43.3630133" lon="11.4069767"><ele>313.6666666666667</ele><time>2026-04-19T12:51:55.615Z</time></trkpt><trkpt lat="43.3631917" lon="11.4068717"><ele>316.3333333333333</ele><time>2026-04-19T12:51:56.616Z</time></trkpt><trkpt lat="43.3633683" lon="11.406765"><ele>319.0</ele><time>2026-04-19T12:51:57.616Z</time></trkpt><trkpt lat="43.3635533" lon="11.4066533"><ele>319.0</ele><time>2026-04-19T12:51:58.615Z</time></trkpt><trkpt lat="43.363735" lon="11.4065333"><ele>319.0</ele><time>2026-04-19T12:51:59.615Z</time></trkpt><trkpt lat="43.3639133" lon="11.4064167"><ele>319.0</ele><time>2026-04-19T12:52:00.615Z</time></trkpt><trkpt lat="43.3640767" lon="11.4063033"><ele>321.5</ele><time>2026-04-19T12:52:01.615Z</time></trkpt><trkpt lat="43.3642167" lon="11.4062133"><ele>324.0</ele><time>2026-04-19T12:52:02.616Z</time></trkpt><trkpt lat="43.3643383" lon="11.4061283"><ele>326.5</ele><time>2026-04-19T12:52:03.616Z</time></trkpt><trkpt lat="43.3644517" lon="11.4060767"><ele>329.0</ele><time>2026-04-19T12:52:04.616Z</time></trkpt><trkpt lat="43.36455" lon="11.4060383"><ele>329.0</ele><time>2026-04-19T12:52:05.615Z</time></trkpt><trkpt lat="43.364625" lon="11.4060433"><ele>329.0</ele><time>2026-04-19T12:52:06.615Z</time></trkpt><trkpt lat="43.3646967" lon="11.4060983"><ele>329.0</ele><time>2026-04-19T12:52:07.615Z</time></trkpt><trkpt lat="43.3647717" lon="11.40619"><ele>329.0</ele><time>2026-04-19T12:52:08.616Z</time></trkpt><trkpt lat="43.3648483" lon="11.406315"><ele>329.0</ele><time>2026-04-19T12:52:09.616Z</time></trkpt><trkpt lat="43.3649167" lon="11.40642"><ele>331.0</ele><time>2026-04-19T12:52:10.615Z</time></trkpt><trkpt lat="43.3649883" lon="11.4064867"><ele>333.0</ele><time>2026-04-19T12:52:11.615Z</time></trkpt><trkpt lat="43.3650833" lon="11.4065133"><ele>335.0</ele><time>2026-04-19T12:52:12.616Z</time></trkpt><trkpt lat="43.36517" lon="11.40651"><ele>337.0</ele><time>2026-04-19T12:52:13.616Z</time></trkpt><trkpt lat="43.365275" lon="11.4064967"><ele>339.0</ele><time>2026-04-19T12:52:14.615Z</time></trkpt><trkpt lat="43.36541" lon="11.40643"><ele>338.5</ele><time>2026-04-19T12:52:15.615Z</time></trkpt><trkpt lat="43.365545" lon="11.4063717"><ele>338.0</ele><time>2026-04-19T12:52:16.615Z</time></trkpt><trkpt lat="43.3656717" lon="11.4063133"><ele>337.5</ele><time>2026-04-19T12:52:17.616Z</time></trkpt><trkpt lat="43.3657767" lon="11.4062533"><ele>337.0</ele><time>2026-04-19T12:52:18.616Z</time></trkpt><trkpt lat="43.3658717" lon="11.4061917"><ele>338.75</ele><time>2026-04-19T12:52:19.615Z</time></trkpt><trkpt lat="43.365945" lon="11.4061017"><ele>340.5</ele><time>2026-04-19T12:52:20.615Z</time></trkpt><trkpt lat="43.36601" lon="11.406"><ele>342.25</ele><time>2026-04-19T12:52:21.616Z</time></trkpt><trkpt lat="43.3660683" lon="11.4058483"><ele>344.0</ele><time>2026-04-19T12:52:22.615Z</time></trkpt><trkpt lat="43.366125" lon="11.4056833"><ele>344.0</ele><time>2026-04-19T12:52:23.615Z</time></trkpt><trkpt lat="43.3661867" lon="11.4055117"><ele>344.0</ele><time>2026-04-19T12:52:24.616Z</time></trkpt><trkpt lat="43.3662583" lon="11.4053217"><ele>344.0</ele><time>2026-04-19T12:52:25.615Z</time></trkpt><trkpt lat="43.3663367" lon="11.4051383"><ele>344.0</ele><time>2026-04-19T12:52:26.615Z</time></trkpt><trkpt lat="43.3664167" lon="11.4049667"><ele>344.0</ele><time>2026-04-19T12:52:27.616Z</time></trkpt><trkpt lat="43.3665083" lon="11.4047883"><ele>344.0</ele><time>2026-04-19T12:52:28.616Z</time></trkpt><trkpt lat="43.366605" lon="11.40464"><ele>344.0</ele><time>2026-04-19T12:52:29.615Z</time></trkpt><trkpt lat="43.3667217" lon="11.40452"><ele>344.0</ele><time>2026-04-19T12:52:30.616Z</time></trkpt><trkpt lat="43.366845" lon="11.4044167"><ele>345.25</ele><time>2026-04-19T12:52:31.615Z</time></trkpt><trkpt lat="43.3669717" lon="11.40434"><ele>346.5</ele><time>2026-04-19T12:52:32.616Z</time></trkpt><trkpt lat="43.3671117" lon="11.4042967"><ele>347.75</ele><time>2026-04-19T12:52:33.615Z</time></trkpt><trkpt lat="43.36725" lon="11.4042983"><ele>349.0</ele><time>2026-04-19T12:52:34.615Z</time></trkpt><trkpt lat="43.3674033" lon="11.4043067"><ele>349.0</ele><time>2026-04-19T12:52:35.616Z</time></trkpt><trkpt lat="43.367565" lon="11.4043217"><ele>349.0</ele><time>2026-04-19T12:52:36.615Z</time></trkpt><trkpt lat="43.367735" lon="11.404355"><ele>349.0</ele><time>2026-04-19T12:52:37.615Z</time></trkpt><trkpt lat="43.36791" lon="11.4043983"><ele>350.0</ele><time>2026-04-19T12:52:38.614Z</time></trkpt><trkpt lat="43.3680767" lon="11.4044267"><ele>351.0</ele><time>2026-04-19T12:52:39.615Z</time></trkpt><trkpt lat="43.3682283" lon="11.4044483"><ele>352.0</ele><time>2026-04-19T12:52:40.614Z</time></trkpt><trkpt lat="43.3683933" lon="11.4044817"><ele>352.0</ele><time>2026-04-19T12:52:41.614Z</time></trkpt><trkpt lat="43.3685633" lon="11.4045"><ele>352.0</ele><time>2026-04-19T12:52:42.614Z</time></trkpt><trkpt lat="43.3687483" lon="11.4045083"><ele>352.0</ele><time>2026-04-19T12:52:43.614Z</time></trkpt><trkpt lat="43.3689333" lon="11.4045017"><ele>353.0</ele><time>2026-04-19T12:52:44.614Z</time></trkpt><trkpt lat="43.3691217" lon="11.40448"><ele>354.0</ele><time>2026-04-19T12:52:45.614Z</time></trkpt><trkpt lat="43.3693217" lon="11.4044783"><ele>355.0</ele><time>2026-04-19T12:52:46.615Z</time></trkpt><trkpt lat="43.3695217" lon="11.4044933"><ele>357.0</ele><time>2026-04-19T12:52:47.615Z</time></trkpt><trkpt lat="43.3697267" lon="11.40451"><ele>359.0</ele><time>2026-04-19T12:52:48.614Z</time></trkpt><trkpt lat="43.36992" lon="11.40452"><ele>361.0</ele><time>2026-04-19T12:52:49.614Z</time></trkpt><trkpt lat="43.3701033" lon="11.4045267"><ele>361.0</ele><time>2026-04-19T12:52:50.615Z</time></trkpt><trkpt lat="43.3702683" lon="11.404535"><ele>361.0</ele><time>2026-04-19T12:52:51.614Z</time></trkpt><trkpt lat="43.37043" lon="11.4045317"><ele>361.0</ele><time>2026-04-19T12:52:52.614Z</time></trkpt><trkpt lat="43.3705633" lon="11.4045167"><ele>362.25</ele><time>2026-04-19T12:52:53.615Z</time></trkpt><trkpt lat="43.3706933" lon="11.40447"><ele>363.5</ele><time>2026-04-19T12:52:54.614Z</time></trkpt><trkpt lat="43.3708133" lon="11.4044167"><ele>364.75</ele><time>2026-04-19T12:52:55.615Z</time></trkpt><trkpt lat="43.3709167" lon="11.4043367"><ele>366.0</ele><time>2026-04-19T12:52:56.615Z</time></trkpt><trkpt lat="43.3710017" lon="11.404225"><ele>366.0</ele><time>2026-04-19T12:52:57.615Z</time></trkpt><trkpt lat="43.371075" lon="11.4040933"><ele>366.0</ele><time>2026-04-19T12:52:58.615Z</time></trkpt><trkpt lat="43.37114" lon="11.40394"><ele>366.0</ele><time>2026-04-19T12:52:59.614Z</time></trkpt><trkpt lat="43.37121" lon="11.403765"><ele>366.0</ele><time>2026-04-19T12:53:00.615Z</time></trkpt><trkpt lat="43.371285" lon="11.4035867"><ele>368.0</ele><time>2026-04-19T12:53:01.614Z</time></trkpt><trkpt lat="43.3713633" lon="11.4034"><ele>370.0</ele><time>2026-04-19T12:53:02.614Z</time></trkpt><trkpt lat="43.3714417" lon="11.4032017"><ele>372.0</ele><time>2026-04-19T12:53:03.614Z</time></trkpt><trkpt lat="43.371525" lon="11.403015"><ele>374.3333333333333</ele><time>2026-04-19T12:53:04.614Z</time></trkpt><trkpt lat="43.3716033" lon="11.402835"><ele>376.66666666666663</ele><time>2026-04-19T12:53:05.614Z</time></trkpt><trkpt lat="43.3716917" lon="11.4026633"><ele>379.0</ele><time>2026-04-19T12:53:06.614Z</time></trkpt><trkpt lat="43.37176" lon="11.4024833"><ele>379.0</ele><time>2026-04-19T12:53:07.615Z</time></trkpt><trkpt lat="43.3718167" lon="11.4023217"><ele>379.0</ele><time>2026-04-19T12:53:08.615Z</time></trkpt><trkpt lat="43.371835" lon="11.4021667"><ele>379.0</ele><time>2026-04-19T12:53:09.615Z</time></trkpt><trkpt lat="43.3718583" lon="11.4020133"><ele>379.0</ele><time>2026-04-19T12:53:10.614Z</time></trkpt><trkpt lat="43.3718883" lon="11.40186"><ele>379.5</ele><time>2026-04-19T12:53:11.614Z</time></trkpt><trkpt lat="43.3719267" lon="11.401725"><ele>380.0</ele><time>2026-04-19T12:53:12.614Z</time></trkpt><trkpt lat="43.3719933" lon="11.4015883"><ele>380.5</ele><time>2026-04-19T12:53:13.614Z</time></trkpt><trkpt lat="43.3720683" lon="11.4014783"><ele>381.0</ele><time>2026-04-19T12:53:14.614Z</time></trkpt><trkpt lat="43.37216" lon="11.401375"><ele>382.66666666666663</ele><time>2026-04-19T12:53:15.614Z</time></trkpt><trkpt lat="43.37228" lon="11.4012733"><ele>384.3333333333333</ele><time>2026-04-19T12:53:16.614Z</time></trkpt><trkpt lat="43.3724117" lon="11.4011567"><ele>386.0</ele><time>2026-04-19T12:53:17.614Z</time></trkpt><trkpt lat="43.3725317" lon="11.4010233"><ele>386.0</ele><time>2026-04-19T12:53:18.614Z</time></trkpt><trkpt lat="43.3726583" lon="11.4008817"><ele>386.0</ele><time>2026-04-19T12:53:19.615Z</time></trkpt><trkpt lat="43.372785" lon="11.4007367"><ele>386.0</ele><time>2026-04-19T12:53:20.615Z</time></trkpt><trkpt lat="43.3729117" lon="11.400595"><ele>385.0</ele><time>2026-04-19T12:53:21.614Z</time></trkpt><trkpt lat="43.3730417" lon="11.4004583"><ele>384.0</ele><time>2026-04-19T12:53:22.615Z</time></trkpt><trkpt lat="43.3731733" lon="11.4003367"><ele>383.0</ele><time>2026-04-19T12:53:23.614Z</time></trkpt><trkpt lat="43.3733117" lon="11.4002417"><ele>383.0</ele><time>2026-04-19T12:53:24.614Z</time></trkpt><trkpt lat="43.3734583" lon="11.40017"><ele>383.0</ele><time>2026-04-19T12:53:25.615Z</time></trkpt><trkpt lat="43.3736083" lon="11.4001083"><ele>383.0</ele><time>2026-04-19T12:53:26.615Z</time></trkpt><trkpt lat="43.3737617" lon="11.4000417"><ele>383.0</ele><time>2026-04-19T12:53:27.615Z</time></trkpt><trkpt lat="43.3739133" lon="11.3999833"><ele>383.0</ele><time>2026-04-19T12:53:28.614Z</time></trkpt><trkpt lat="43.3740583" lon="11.3999067"><ele>383.0</ele><time>2026-04-19T12:53:29.614Z</time></trkpt><trkpt lat="43.3741933" lon="11.3998217"><ele>383.0</ele><time>2026-04-19T12:53:30.614Z</time></trkpt><trkpt lat="43.3743233" lon="11.3997117"><ele>383.0</ele><time>2026-04-19T12:53:31.614Z</time></trkpt><trkpt lat="43.3744467" lon="11.3995883"><ele>383.0</ele><time>2026-04-19T12:53:32.614Z</time></trkpt><trkpt lat="43.3745733" lon="11.3994417"><ele>382.6666666666667</ele><time>2026-04-19T12:53:33.614Z</time></trkpt><trkpt lat="43.3747117" lon="11.3992833"><ele>382.3333333333333</ele><time>2026-04-19T12:53:34.614Z</time></trkpt><trkpt lat="43.3748483" lon="11.3991217"><ele>382.0</ele><time>2026-04-19T12:53:35.615Z</time></trkpt><trkpt lat="43.3749867" lon="11.3989633"><ele>382.3333333333333</ele><time>2026-04-19T12:53:36.615Z</time></trkpt><trkpt lat="43.3751267" lon="11.398815"><ele>382.6666666666667</ele><time>2026-04-19T12:53:37.614Z</time></trkpt><trkpt lat="43.3752733" lon="11.3986767"><ele>383.0</ele><time>2026-04-19T12:53:38.614Z</time></trkpt><trkpt lat="43.3754167" lon="11.398555"><ele>383.0</ele><time>2026-04-19T12:53:39.614Z</time></trkpt><trkpt lat="43.37557" lon="11.3984533"><ele>383.0</ele><time>2026-04-19T12:53:40.615Z</time></trkpt><trkpt lat="43.3757333" lon="11.3983817"><ele>383.0</ele><time>2026-04-19T12:53:41.615Z</time></trkpt><trkpt lat="43.3759033" lon="11.3983317"><ele>383.0</ele><time>2026-04-19T12:53:42.614Z</time></trkpt><trkpt lat="43.3760783" lon="11.3982717"><ele>383.0</ele><time>2026-04-19T12:53:43.615Z</time></trkpt><trkpt lat="43.3762467" lon="11.3982133"><ele>383.0</ele><time>2026-04-19T12:53:44.614Z</time></trkpt><trkpt lat="43.3764117" lon="11.3981367"><ele>382.33333333333337</ele><time>2026-04-19T12:53:45.614Z</time></trkpt><trkpt lat="43.3765633" lon="11.3980583"><ele>381.6666666666667</ele><time>2026-04-19T12:53:46.614Z</time></trkpt><trkpt lat="43.3766967" lon="11.397965"><ele>381.0</ele><time>2026-04-19T12:53:47.615Z</time></trkpt><trkpt lat="43.376835" lon="11.3978433"><ele>382.66666666666663</ele><time>2026-04-19T12:53:48.615Z</time></trkpt><trkpt lat="43.3769683" lon="11.3977067"><ele>384.3333333333333</ele><time>2026-04-19T12:53:49.615Z</time></trkpt><trkpt lat="43.3771083" lon="11.3975667"><ele>386.0</ele><time>2026-04-19T12:53:50.614Z</time></trkpt><trkpt lat="43.3772417" lon="11.3974467"><ele>386.0</ele><time>2026-04-19T12:53:51.614Z</time></trkpt><trkpt lat="43.3773767" lon="11.3973367"><ele>386.0</ele><time>2026-04-19T12:53:52.615Z</time></trkpt><trkpt lat="43.377505" lon="11.3972583"><ele>386.0</ele><time>2026-04-19T12:53:53.614Z</time></trkpt><trkpt lat="43.3776467" lon="11.3971883"><ele>386.0</ele><time>2026-04-19T12:53:54.615Z</time></trkpt><trkpt lat="43.3778017" lon="11.3971417"><ele>387.0</ele><time>2026-04-19T12:53:55.615Z</time></trkpt><trkpt lat="43.3779617" lon="11.3971117"><ele>388.0</ele><time>2026-04-19T12:53:56.615Z</time></trkpt><trkpt lat="43.37813" lon="11.3970667"><ele>389.0</ele><time>2026-04-19T12:53:57.615Z</time></trkpt><trkpt lat="43.37831" lon="11.3970167"><ele>390.66666666666663</ele><time>2026-04-19T12:53:58.615Z</time></trkpt><trkpt lat="43.3784883" lon="11.3969567"><ele>392.33333333333337</ele><time>2026-04-19T12:53:59.615Z</time></trkpt><trkpt lat="43.378665" lon="11.3969"><ele>394.0</ele><time>2026-04-19T12:54:00.614Z</time></trkpt><trkpt lat="43.378845" lon="11.396835"><ele>396.0</ele><time>2026-04-19T12:54:01.615Z</time></trkpt><trkpt lat="43.3790233" lon="11.3967667"><ele>398.0</ele><time>2026-04-19T12:54:02.615Z</time></trkpt><trkpt lat="43.3791967" lon="11.3967"><ele>400.0</ele><time>2026-04-19T12:54:03.615Z</time></trkpt><trkpt lat="43.3793667" lon="11.3966517"><ele>400.0</ele><time>2026-04-19T12:54:04.614Z</time></trkpt><trkpt lat="43.379545" lon="11.3966033"><ele>400.0</ele><time>2026-04-19T12:54:05.615Z</time></trkpt><trkpt lat="43.3797233" lon="11.3965617"><ele>400.0</ele><time>2026-04-19T12:54:06.614Z</time></trkpt><trkpt lat="43.379905" lon="11.3965217"><ele>401.33333333333337</ele><time>2026-04-19T12:54:07.614Z</time></trkpt><trkpt lat="43.380095" lon="11.396475"><ele>402.66666666666663</ele><time>2026-04-19T12:54:08.615Z</time></trkpt><trkpt lat="43.3802833" lon="11.3964283"><ele>404.0</ele><time>2026-04-19T12:54:09.614Z</time></trkpt><trkpt lat="43.3804667" lon="11.3963767"><ele>405.3333333333333</ele><time>2026-04-19T12:54:10.615Z</time></trkpt><trkpt lat="43.380645" lon="11.3963333"><ele>406.66666666666663</ele><time>2026-04-19T12:54:11.614Z</time></trkpt><trkpt lat="43.3808233" lon="11.3962967"><ele>408.0</ele><time>2026-04-19T12:54:12.614Z</time></trkpt><trkpt lat="43.3810083" lon="11.3962883"><ele>408.0</ele><time>2026-04-19T12:54:13.615Z</time></trkpt><trkpt lat="43.3811917" lon="11.396285"><ele>408.0</ele><time>2026-04-19T12:54:14.614Z</time></trkpt><trkpt lat="43.3813767" lon="11.3962867"><ele>408.0</ele><time>2026-04-19T12:54:15.615Z</time></trkpt><trkpt lat="43.38156" lon="11.3962683"><ele>408.66666666666663</ele><time>2026-04-19T12:54:16.614Z</time></trkpt><trkpt lat="43.3817517" lon="11.39624"><ele>409.3333333333333</ele><time>2026-04-19T12:54:17.614Z</time></trkpt><trkpt lat="43.3819486" lon="11.3962089"><ele>410.0</ele><time>2026-04-19T12:54:18.614Z</time></trkpt><trkpt lat="43.3821458" lon="11.3961704"><ele>411.3333333333333</ele><time>2026-04-19T12:54:19.614Z</time></trkpt><trkpt lat="43.3823369" lon="11.3961247"><ele>412.66666666666663</ele><time>2026-04-19T12:54:20.614Z</time></trkpt><trkpt lat="43.3825268" lon="11.3960746"><ele>414.0</ele><time>2026-04-19T12:54:21.614Z</time></trkpt><trkpt lat="43.3827156" lon="11.3960175"><ele>414.0</ele><time>2026-04-19T12:54:22.615Z</time></trkpt><trkpt lat="43.3829088" lon="11.3959531"><ele>414.0</ele><time>2026-04-19T12:54:23.614Z</time></trkpt><trkpt lat="43.3831035" lon="11.3958872"><ele>414.0</ele><time>2026-04-19T12:54:24.615Z</time></trkpt><trkpt lat="43.3833056" lon="11.3958141"><ele>415.33333333333337</ele><time>2026-04-19T12:54:25.614Z</time></trkpt><trkpt lat="43.3835072" lon="11.3957374"><ele>416.6666666666667</ele><time>2026-04-19T12:54:26.614Z</time></trkpt><trkpt lat="43.3837058" lon="11.3956611"><ele>418.0</ele><time>2026-04-19T12:54:27.614Z</time></trkpt><trkpt lat="43.3838977" lon="11.3955887"><ele>417.33333333333337</ele><time>2026-04-19T12:54:28.614Z</time></trkpt><trkpt lat="43.3840757" lon="11.3955234"><ele>416.66666666666663</ele><time>2026-04-19T12:54:29.614Z</time></trkpt><trkpt lat="43.3842395" lon="11.3954634"><ele>416.0</ele><time>2026-04-19T12:54:30.615Z</time></trkpt><trkpt lat="43.3843903" lon="11.3953872"><ele>416.0</ele><time>2026-04-19T12:54:31.614Z</time></trkpt><trkpt lat="43.3845257" lon="11.3953013"><ele>416.0</ele><time>2026-04-19T12:54:32.615Z</time></trkpt><trkpt lat="43.3846585" lon="11.3951838"><ele>416.0</ele><time>2026-04-19T12:54:33.615Z</time></trkpt><trkpt lat="43.3847827" lon="11.3950399"><ele>418.3333333333333</ele><time>2026-04-19T12:54:34.614Z</time></trkpt><trkpt lat="43.3848976" lon="11.3948789"><ele>420.66666666666663</ele><time>2026-04-19T12:54:35.614Z</time></trkpt><trkpt lat="43.3850025" lon="11.3947095"><ele>423.0</ele><time>2026-04-19T12:54:36.614Z</time></trkpt><trkpt lat="43.3851076" lon="11.3945358"><ele>423.66666666666663</ele><time>2026-04-19T12:54:37.614Z</time></trkpt><trkpt lat="43.3852145" lon="11.3943571"><ele>424.3333333333333</ele><time>2026-04-19T12:54:38.614Z</time></trkpt><trkpt lat="43.3853258" lon="11.3941738"><ele>425.0</ele><time>2026-04-19T12:54:39.614Z</time></trkpt><trkpt lat="43.3854479" lon="11.393993"><ele>426.0</ele><time>2026-04-19T12:54:40.614Z</time></trkpt><trkpt lat="43.3855748" lon="11.3938102"><ele>427.0</ele><time>2026-04-19T12:54:41.615Z</time></trkpt><trkpt lat="43.3857052" lon="11.3936273"><ele>428.0</ele><time>2026-04-19T12:54:42.614Z</time></trkpt><trkpt lat="43.3858382" lon="11.3934395"><ele>428.0</ele><time>2026-04-19T12:54:43.614Z</time></trkpt><trkpt lat="43.3859664" lon="11.3932534"><ele>428.0</ele><time>2026-04-19T12:54:44.614Z</time></trkpt><trkpt lat="43.3860939" lon="11.3930682"><ele>428.0</ele><time>2026-04-19T12:54:45.615Z</time></trkpt><trkpt lat="43.3862269" lon="11.3928882"><ele>429.0</ele><time>2026-04-19T12:54:46.614Z</time></trkpt><trkpt lat="43.3863517" lon="11.3927322"><ele>430.0</ele><time>2026-04-19T12:54:47.615Z</time></trkpt><trkpt lat="43.3864771" lon="11.3926027"><ele>431.0</ele><time>2026-04-19T12:54:48.614Z</time></trkpt><trkpt lat="43.3866089" lon="11.3924908"><ele>431.0</ele><time>2026-04-19T12:54:49.614Z</time></trkpt><trkpt lat="43.3867336" lon="11.3923798"><ele>431.0</ele><time>2026-04-19T12:54:50.615Z</time></trkpt><trkpt lat="43.386852" lon="11.3922422"><ele>431.0</ele><time>2026-04-19T12:54:51.615Z</time></trkpt><trkpt lat="43.3869648" lon="11.3920852"><ele>430.66666666666663</ele><time>2026-04-19T12:54:52.614Z</time></trkpt><trkpt lat="43.3870753" lon="11.3919127"><ele>430.33333333333337</ele><time>2026-04-19T12:54:53.614Z</time></trkpt><trkpt lat="43.3871874" lon="11.3917274"><ele>430.0</ele><time>2026-04-19T12:54:54.614Z</time></trkpt><trkpt lat="43.3873085" lon="11.3915433"><ele>431.33333333333337</ele><time>2026-04-19T12:54:55.615Z</time></trkpt><trkpt lat="43.3874311" lon="11.3913679"><ele>432.66666666666663</ele><time>2026-04-19T12:54:56.615Z</time></trkpt><trkpt lat="43.3875529" lon="11.3911958"><ele>434.0</ele><time>2026-04-19T12:54:57.614Z</time></trkpt><trkpt lat="43.3876707" lon="11.39103"><ele>434.5</ele><time>2026-04-19T12:54:58.615Z</time></trkpt><trkpt lat="43.3877847" lon="11.3908683"><ele>435.0</ele><time>2026-04-19T12:54:59.614Z</time></trkpt><trkpt lat="43.387875" lon="11.3907291"><ele>435.5</ele><time>2026-04-19T12:55:00.615Z</time></trkpt><trkpt lat="43.3879549" lon="11.390599"><ele>436.0</ele><time>2026-04-19T12:55:01.614Z</time></trkpt><trkpt lat="43.3880292" lon="11.3904653"><ele>434.0</ele><time>2026-04-19T12:55:02.614Z</time></trkpt><trkpt lat="43.3880802" lon="11.3903215"><ele>432.0</ele><time>2026-04-19T12:55:03.614Z</time></trkpt><trkpt lat="43.3881189" lon="11.3901592"><ele>430.0</ele><time>2026-04-19T12:55:04.614Z</time></trkpt><trkpt lat="43.3881474" lon="11.3899647"><ele>428.0</ele><time>2026-04-19T12:55:05.614Z</time></trkpt><trkpt lat="43.388182" lon="11.3897556"><ele>427.66666666666663</ele><time>2026-04-19T12:55:06.615Z</time></trkpt><trkpt lat="43.3882424" lon="11.3895386"><ele>427.33333333333337</ele><time>2026-04-19T12:55:07.614Z</time></trkpt><trkpt lat="43.3883214" lon="11.3893246"><ele>427.0</ele><time>2026-04-19T12:55:08.615Z</time></trkpt><trkpt lat="43.3884075" lon="11.3891193"><ele>427.0</ele><time>2026-04-19T12:55:09.614Z</time></trkpt><trkpt lat="43.3885076" lon="11.3889042"><ele>427.0</ele><time>2026-04-19T12:55:10.615Z</time></trkpt><trkpt lat="43.3886101" lon="11.3886854"><ele>427.0</ele><time>2026-04-19T12:55:11.614Z</time></trkpt><trkpt lat="43.3887098" lon="11.3884644"><ele>427.6666666666667</ele><time>2026-04-19T12:55:12.615Z</time></trkpt><trkpt lat="43.3888084" lon="11.3882442"><ele>428.33333333333337</ele><time>2026-04-19T12:55:13.614Z</time></trkpt><trkpt lat="43.3889043" lon="11.3880162"><ele>429.0</ele><time>2026-04-19T12:55:14.614Z</time></trkpt><trkpt lat="43.3889951" lon="11.3877902"><ele>427.66666666666663</ele><time>2026-04-19T12:55:15.615Z</time></trkpt><trkpt lat="43.3890819" lon="11.387571"><ele>426.3333333333333</ele><time>2026-04-19T12:55:16.615Z</time></trkpt><trkpt lat="43.389167" lon="11.3873501"><ele>425.0</ele><time>2026-04-19T12:55:17.615Z</time></trkpt><trkpt lat="43.3892607" lon="11.3871418"><ele>425.0</ele><time>2026-04-19T12:55:18.615Z</time></trkpt><trkpt lat="43.3893523" lon="11.3869533"><ele>425.0</ele><time>2026-04-19T12:55:19.614Z</time></trkpt><trkpt lat="43.3894425" lon="11.3867774"><ele>425.0</ele><time>2026-04-19T12:55:20.614Z</time></trkpt><trkpt lat="43.3895225" lon="11.3866174"><ele>425.0</ele><time>2026-04-19T12:55:21.615Z</time></trkpt><trkpt lat="43.3895931" lon="11.3864712"><ele>425.0</ele><time>2026-04-19T12:55:22.614Z</time></trkpt><trkpt lat="43.3896535" lon="11.3863202"><ele>425.0</ele><time>2026-04-19T12:55:23.614Z</time></trkpt><trkpt lat="43.3897059" lon="11.3861893"><ele>425.0</ele><time>2026-04-19T12:55:24.615Z</time></trkpt><trkpt lat="43.389749" lon="11.386066"><ele>424.49999999999994</ele><time>2026-04-19T12:55:25.614Z</time></trkpt><trkpt lat="43.3897826" lon="11.3859554"><ele>424.0</ele><time>2026-04-19T12:55:26.615Z</time></trkpt><trkpt lat="43.389812" lon="11.3858601"><ele>423.5</ele><time>2026-04-19T12:55:27.614Z</time></trkpt><trkpt lat="43.3898496" lon="11.3857728"><ele>423.0</ele><time>2026-04-19T12:55:28.614Z</time></trkpt><trkpt lat="43.3898941" lon="11.3856768"><ele>422.49999999999994</ele><time>2026-04-19T12:55:29.614Z</time></trkpt><trkpt lat="43.3899589" lon="11.3855933"><ele>422.0</ele><time>2026-04-19T12:55:30.614Z</time></trkpt><trkpt lat="43.3900413" lon="11.3855324"><ele>422.25</ele><time>2026-04-19T12:55:31.614Z</time></trkpt><trkpt lat="43.3901559" lon="11.385465"><ele>422.5</ele><time>2026-04-19T12:55:32.614Z</time></trkpt><trkpt lat="43.3902937" lon="11.3853882"><ele>422.75</ele><time>2026-04-19T12:55:33.614Z</time></trkpt><trkpt lat="43.3904294" lon="11.3853075"><ele>423.0</ele><time>2026-04-19T12:55:34.614Z</time></trkpt><trkpt lat="43.3905746" lon="11.3852216"><ele>423.33333333333337</ele><time>2026-04-19T12:55:35.614Z</time></trkpt><trkpt lat="43.3907113" lon="11.3851164"><ele>423.6666666666667</ele><time>2026-04-19T12:55:36.614Z</time></trkpt><trkpt lat="43.3908504" lon="11.3850026"><ele>424.0</ele><time>2026-04-19T12:55:37.615Z</time></trkpt><trkpt lat="43.3909849" lon="11.3848861"><ele>424.0</ele><time>2026-04-19T12:55:38.615Z</time></trkpt><trkpt lat="43.3911203" lon="11.3847707"><ele>424.0</ele><time>2026-04-19T12:55:39.614Z</time></trkpt><trkpt lat="43.3912572" lon="11.3846577"><ele>424.0</ele><time>2026-04-19T12:55:40.615Z</time></trkpt><trkpt lat="43.3913932" lon="11.3845359"><ele>424.33333333333337</ele><time>2026-04-19T12:55:41.615Z</time></trkpt><trkpt lat="43.3915333" lon="11.3844183"><ele>424.66666666666663</ele><time>2026-04-19T12:55:42.614Z</time></trkpt><trkpt lat="43.3916556" lon="11.3843009"><ele>425.0</ele><time>2026-04-19T12:55:43.614Z</time></trkpt><trkpt lat="43.3917661" lon="11.3841717"><ele>425.0</ele><time>2026-04-19T12:55:44.615Z</time></trkpt><trkpt lat="43.3918536" lon="11.38403"><ele>425.0</ele><time>2026-04-19T12:55:45.614Z</time></trkpt><trkpt lat="43.3919108" lon="11.3838546"><ele>425.0</ele><time>2026-04-19T12:55:46.615Z</time></trkpt><trkpt lat="43.3919662" lon="11.3834368"><ele>425.0</ele><time>2026-04-19T12:55:48.614Z</time></trkpt><trkpt lat="43.3919924" lon="11.3832268"><ele>425.0</ele><time>2026-04-19T12:55:49.615Z</time></trkpt><trkpt lat="43.3920413" lon="11.3830207"><ele>425.0</ele><time>2026-04-19T12:55:50.615Z</time></trkpt><trkpt lat="43.3921193" lon="11.3828349"><ele>425.0</ele><time>2026-04-19T12:55:51.614Z</time></trkpt><trkpt lat="43.392222" lon="11.382665"><ele>425.0</ele><time>2026-04-19T12:55:52.614Z</time></trkpt><trkpt lat="43.3923407" lon="11.3825157"><ele>425.0</ele><time>2026-04-19T12:55:53.615Z</time></trkpt><trkpt lat="43.392486" lon="11.3823808"><ele>425.0</ele><time>2026-04-19T12:55:54.614Z</time></trkpt><trkpt lat="43.3926433" lon="11.3822592"><ele>425.0</ele><time>2026-04-19T12:55:55.614Z</time></trkpt><trkpt lat="43.3928008" lon="11.382127"><ele>425.0</ele><time>2026-04-19T12:55:56.614Z</time></trkpt><trkpt lat="43.3929684" lon="11.3819923"><ele>423.66666666666663</ele><time>2026-04-19T12:55:57.614Z</time></trkpt><trkpt lat="43.3931336" lon="11.3818513"><ele>422.33333333333337</ele><time>2026-04-19T12:55:58.615Z</time></trkpt><trkpt lat="43.39331" lon="11.3817183"><ele>421.0</ele><time>2026-04-19T12:55:59.614Z</time></trkpt><trkpt lat="43.3934817" lon="11.38158"><ele>421.0</ele><time>2026-04-19T12:56:00.615Z</time></trkpt><trkpt lat="43.3936567" lon="11.3814517"><ele>421.0</ele><time>2026-04-19T12:56:01.614Z</time></trkpt><trkpt lat="43.39384" lon="11.3813383"><ele>421.0</ele><time>2026-04-19T12:56:02.614Z</time></trkpt><trkpt lat="43.3940233" lon="11.381235"><ele>419.0</ele><time>2026-04-19T12:56:03.615Z</time></trkpt><trkpt lat="43.3942167" lon="11.38115"><ele>417.0</ele><time>2026-04-19T12:56:04.614Z</time></trkpt><trkpt lat="43.394405" lon="11.3810867"><ele>415.0</ele><time>2026-04-19T12:56:05.615Z</time></trkpt><trkpt lat="43.394585" lon="11.3810417"><ele>415.33333333333337</ele><time>2026-04-19T12:56:06.614Z</time></trkpt><trkpt lat="43.39476" lon="11.3810083"><ele>415.66666666666663</ele><time>2026-04-19T12:56:07.614Z</time></trkpt><trkpt lat="43.3949283" lon="11.3809917"><ele>416.0</ele><time>2026-04-19T12:56:08.615Z</time></trkpt><trkpt lat="43.39509" lon="11.3809883"><ele>416.0</ele><time>2026-04-19T12:56:09.614Z</time></trkpt><trkpt lat="43.39525" lon="11.3809867"><ele>416.0</ele><time>2026-04-19T12:56:10.615Z</time></trkpt><trkpt lat="43.3954167" lon="11.381"><ele>416.0</ele><time>2026-04-19T12:56:11.614Z</time></trkpt><trkpt lat="43.39559" lon="11.3810167"><ele>414.66666666666663</ele><time>2026-04-19T12:56:12.614Z</time></trkpt><trkpt lat="43.39576" lon="11.381035"><ele>413.33333333333337</ele><time>2026-04-19T12:56:13.614Z</time></trkpt><trkpt lat="43.39592" lon="11.381025"><ele>412.0</ele><time>2026-04-19T12:56:14.615Z</time></trkpt><trkpt lat="43.396075" lon="11.380995"><ele>412.0</ele><time>2026-04-19T12:56:15.614Z</time></trkpt><trkpt lat="43.3962183" lon="11.3809267"><ele>412.0</ele><time>2026-04-19T12:56:16.614Z</time></trkpt><trkpt lat="43.39634" lon="11.3808117"><ele>412.0</ele><time>2026-04-19T12:56:17.614Z</time></trkpt><trkpt lat="43.3964383" lon="11.3806583"><ele>412.0</ele><time>2026-04-19T12:56:18.615Z</time></trkpt><trkpt lat="43.3965283" lon="11.3804817"><ele>411.0</ele><time>2026-04-19T12:56:19.614Z</time></trkpt><trkpt lat="43.3965983" lon="11.3802883"><ele>410.0</ele><time>2026-04-19T12:56:20.615Z</time></trkpt><trkpt lat="43.3966467" lon="11.380075"><ele>409.0</ele><time>2026-04-19T12:56:21.615Z</time></trkpt><trkpt lat="43.3966833" lon="11.3798533"><ele>410.25</ele><time>2026-04-19T12:56:22.615Z</time></trkpt><trkpt lat="43.39672" lon="11.3796467"><ele>411.5</ele><time>2026-04-19T12:56:23.614Z</time></trkpt><trkpt lat="43.3967567" lon="11.379465"><ele>412.75</ele><time>2026-04-19T12:56:24.615Z</time></trkpt><trkpt lat="43.39679" lon="11.3793017"><ele>414.0</ele><time>2026-04-19T12:56:25.614Z</time></trkpt><trkpt lat="43.3968117" lon="11.3791667"><ele>414.0</ele><time>2026-04-19T12:56:26.614Z</time></trkpt><trkpt lat="43.3968283" lon="11.3790667"><ele>414.0</ele><time>2026-04-19T12:56:27.614Z</time></trkpt><trkpt lat="43.396865" lon="11.3789817"><ele>414.0</ele><time>2026-04-19T12:56:29.614Z</time></trkpt><trkpt lat="43.3969267" lon="11.37888"><ele>414.0</ele><time>2026-04-19T12:56:32.615Z</time></trkpt><trkpt lat="43.3969817" lon="11.3787"><ele>414.0</ele><time>2026-04-19T12:56:34.614Z</time></trkpt><trkpt lat="43.3970217" lon="11.3786017"><ele>414.0</ele><time>2026-04-19T12:56:35.614Z</time></trkpt><trkpt lat="43.39706" lon="11.3785217"><ele>414.0</ele><time>2026-04-19T12:56:36.614Z</time></trkpt><trkpt lat="43.3971583" lon="11.37842"><ele>414.0</ele><time>2026-04-19T12:56:38.614Z</time></trkpt><trkpt lat="43.3972633" lon="11.3784083"><ele>414.0</ele><time>2026-04-19T12:56:40.614Z</time></trkpt><trkpt lat="43.397345" lon="11.3783617"><ele>414.0</ele><time>2026-04-19T12:56:42.614Z</time></trkpt><trkpt lat="43.3974383" lon="11.3782283"><ele>414.0</ele><time>2026-04-19T12:56:44.615Z</time></trkpt><trkpt lat="43.3974883" lon="11.3781583"><ele>414.0</ele><time>2026-04-19T12:56:45.615Z</time></trkpt><trkpt lat="43.39757" lon="11.3780567"><ele>414.0</ele><time>2026-04-19T12:56:47.614Z</time></trkpt><trkpt lat="43.3976383" lon="11.3778883"><ele>414.0</ele><time>2026-04-19T12:56:49.614Z</time></trkpt><trkpt lat="43.3976867" lon="11.3777767"><ele>414.0</ele><time>2026-04-19T12:56:50.615Z</time></trkpt><trkpt lat="43.397745" lon="11.3776717"><ele>414.1666666666667</ele><time>2026-04-19T12:56:51.615Z</time></trkpt><trkpt lat="43.3978017" lon="11.3775583"><ele>414.33333333333337</ele><time>2026-04-19T12:56:52.614Z</time></trkpt><trkpt lat="43.3978633" lon="11.3774467"><ele>414.5</ele><time>2026-04-19T12:56:53.614Z</time></trkpt><trkpt lat="43.3979233" lon="11.3773483"><ele>414.6666666666667</ele><time>2026-04-19T12:56:54.614Z</time></trkpt><trkpt lat="43.3979717" lon="11.3772633"><ele>414.83333333333337</ele><time>2026-04-19T12:56:55.615Z</time></trkpt><trkpt lat="43.398015" lon="11.37719"><ele>415.0</ele><time>2026-04-19T12:56:56.614Z</time></trkpt><trkpt lat="43.3980567" lon="11.3771233"><ele>416.2</ele><time>2026-04-19T12:56:57.614Z</time></trkpt><trkpt lat="43.3980967" lon="11.37705"><ele>417.4</ele><time>2026-04-19T12:56:58.614Z</time></trkpt><trkpt lat="43.3981517" lon="11.3769433"><ele>418.6</ele><time>2026-04-19T12:57:00.614Z</time></trkpt><trkpt lat="43.398185" lon="11.3768333"><ele>419.8</ele><time>2026-04-19T12:57:02.614Z</time></trkpt><trkpt lat="43.3982633" lon="11.3767017"><ele>421.0</ele><time>2026-04-19T12:57:04.614Z</time></trkpt><trkpt lat="43.3983317" lon="11.376635"><ele>421.00000000000006</ele><time>2026-04-19T12:57:05.615Z</time></trkpt><trkpt lat="43.3984083" lon="11.3765617"><ele>421.0</ele><time>2026-04-19T12:57:06.614Z</time></trkpt><trkpt lat="43.398485" lon="11.3765"><ele>421.0</ele><time>2026-04-19T12:57:07.615Z</time></trkpt><trkpt lat="43.3985567" lon="11.376465"><ele>421.0</ele><time>2026-04-19T12:57:08.614Z</time></trkpt><trkpt lat="43.3986267" lon="11.376435"><ele>421.00000000000006</ele><time>2026-04-19T12:57:09.614Z</time></trkpt><trkpt lat="43.3986983" lon="11.3764067"><ele>421.0</ele><time>2026-04-19T12:57:10.613Z</time></trkpt><trkpt lat="43.39876" lon="11.3763767"><ele>421.83333333333337</ele><time>2026-04-19T12:57:11.613Z</time></trkpt><trkpt lat="43.398855" lon="11.3763433"><ele>422.6666666666667</ele><time>2026-04-19T12:57:13.613Z</time></trkpt><trkpt lat="43.39893" lon="11.3763733"><ele>423.5</ele><time>2026-04-19T12:57:15.614Z</time></trkpt><trkpt lat="43.3990183" lon="11.3764467"><ele>424.33333333333337</ele><time>2026-04-19T12:57:17.613Z</time></trkpt><trkpt lat="43.399085" lon="11.3764733"><ele>425.1666666666667</ele><time>2026-04-19T12:57:18.613Z</time></trkpt><trkpt lat="43.399155" lon="11.3764917"><ele>426.0</ele><time>2026-04-19T12:57:19.613Z</time></trkpt><trkpt lat="43.3992267" lon="11.3765067"><ele>426.0</ele><time>2026-04-19T12:57:20.614Z</time></trkpt><trkpt lat="43.3993033" lon="11.37652"><ele>426.0</ele><time>2026-04-19T12:57:21.613Z</time></trkpt><trkpt lat="43.3993733" lon="11.37654"><ele>426.0</ele><time>2026-04-19T12:57:22.613Z</time></trkpt><trkpt lat="43.3994967" lon="11.3765317"><ele>426.0</ele><time>2026-04-19T12:57:24.613Z</time></trkpt><trkpt lat="43.399565" lon="11.376515"><ele>426.0</ele><time>2026-04-19T12:57:25.614Z</time></trkpt><trkpt lat="43.3996333" lon="11.3764717"><ele>426.0</ele><time>2026-04-19T12:57:26.614Z</time></trkpt><trkpt lat="43.39969" lon="11.376425"><ele>432.0</ele><time>2026-04-19T12:57:27.613Z</time></trkpt><trkpt lat="43.3997517" lon="11.3763467"><ele>433.0</ele><time>2026-04-19T12:57:29.613Z</time></trkpt><trkpt lat="43.39981" lon="11.37628"><ele>433.0</ele><time>2026-04-19T12:57:32.613Z</time></trkpt></trkseg><trkseg><trkpt lat="43.399865" lon="11.3761983"><ele>433.00000000000006</ele><time>2026-04-19T13:13:46.61Z</time></trkpt><trkpt lat="43.3998967" lon="11.3760833"><ele>433.0</ele><time>2026-04-19T13:13:48.61Z</time></trkpt><trkpt lat="43.39992" lon="11.3759967"><ele>433.0</ele><time>2026-04-19T13:13:49.611Z</time></trkpt><trkpt lat="43.39995" lon="11.3759017"><ele>433.0</ele><time>2026-04-19T13:13:50.61Z</time></trkpt><trkpt lat="43.3999767" lon="11.3757867"><ele>433.00000000000006</ele><time>2026-04-19T13:13:51.61Z</time></trkpt><trkpt lat="43.3999967" lon="11.3757"><ele>433.0</ele><time>2026-04-19T13:13:52.61Z</time></trkpt><trkpt lat="43.4000133" lon="11.3756133"><ele>433.00000000000006</ele><time>2026-04-19T13:13:53.611Z</time></trkpt><trkpt lat="43.400015" lon="11.375525"><ele>433.0</ele><time>2026-04-19T13:13:54.609Z</time></trkpt><trkpt lat="43.4000217" lon="11.3754"><ele>433.0</ele><time>2026-04-19T13:13:56.609Z</time></trkpt><trkpt lat="43.4000033" lon="11.3752883"><ele>433.0</ele><time>2026-04-19T13:14:00.61Z</time></trkpt><trkpt lat="43.400035" lon="11.3752"><ele>433.00000000000006</ele><time>2026-04-19T13:14:04.61Z</time></trkpt><trkpt lat="43.4000717" lon="11.3751183"><ele>433.0</ele><time>2026-04-19T13:14:06.609Z</time></trkpt><trkpt lat="43.4001267" lon="11.3749433"><ele>433.59999999999997</ele><time>2026-04-19T13:14:13.61Z</time></trkpt><trkpt lat="43.4001717" lon="11.3748433"><ele>434.19999999999993</ele><time>2026-04-19T13:14:14.609Z</time></trkpt><trkpt lat="43.400225" lon="11.37474"><ele>434.8</ele><time>2026-04-19T13:14:15.61Z</time></trkpt><trkpt lat="43.4002933" lon="11.3746183"><ele>435.4</ele><time>2026-04-19T13:14:16.609Z</time></trkpt><trkpt lat="43.40036" lon="11.3745033"><ele>436.0</ele><time>2026-04-19T13:14:17.61Z</time></trkpt><trkpt lat="43.4004267" lon="11.37437"><ele>436.0</ele><time>2026-04-19T13:14:18.61Z</time></trkpt><trkpt lat="43.4004917" lon="11.3742383"><ele>436.0</ele><time>2026-04-19T13:14:19.609Z</time></trkpt><trkpt lat="43.4005417" lon="11.374085"><ele>436.0</ele><time>2026-04-19T13:14:20.61Z</time></trkpt><trkpt lat="43.4005733" lon="11.373935"><ele>436.0</ele><time>2026-04-19T13:14:21.609Z</time></trkpt><trkpt lat="43.4006117" lon="11.3737517"><ele>436.5</ele><time>2026-04-19T13:14:22.61Z</time></trkpt><trkpt lat="43.400645" lon="11.3735767"><ele>437.0</ele><time>2026-04-19T13:14:23.609Z</time></trkpt><trkpt lat="43.4006983" lon="11.3734217"><ele>437.5</ele><time>2026-04-19T13:14:24.609Z</time></trkpt><trkpt lat="43.40076" lon="11.3732917"><ele>438.0</ele><time>2026-04-19T13:14:25.61Z</time></trkpt><trkpt lat="43.4008333" lon="11.3731617"><ele>438.0</ele><time>2026-04-19T13:14:26.609Z</time></trkpt><trkpt lat="43.4009283" lon="11.37305"><ele>438.0</ele><time>2026-04-19T13:14:27.609Z</time></trkpt><trkpt lat="43.4010217" lon="11.37294"><ele>438.0</ele><time>2026-04-19T13:14:28.61Z</time></trkpt><trkpt lat="43.401105" lon="11.3728167"><ele>438.0</ele><time>2026-04-19T13:14:29.61Z</time></trkpt><trkpt lat="43.4011783" lon="11.3727033"><ele>437.59999999999997</ele><time>2026-04-19T13:14:30.609Z</time></trkpt><trkpt lat="43.4012333" lon="11.3725883"><ele>437.19999999999993</ele><time>2026-04-19T13:14:31.609Z</time></trkpt><trkpt lat="43.4012667" lon="11.37246"><ele>436.8</ele><time>2026-04-19T13:14:32.609Z</time></trkpt><trkpt lat="43.4012983" lon="11.372325"><ele>436.4</ele><time>2026-04-19T13:14:33.61Z</time></trkpt><trkpt lat="43.4013033" lon="11.3721933"><ele>436.0</ele><time>2026-04-19T13:14:34.61Z</time></trkpt><trkpt lat="43.4012983" lon="11.37206"><ele>435.5</ele><time>2026-04-19T13:14:35.609Z</time></trkpt><trkpt lat="43.4012883" lon="11.3719133"><ele>435.0</ele><time>2026-04-19T13:14:36.609Z</time></trkpt><trkpt lat="43.4012867" lon="11.3717583"><ele>434.5</ele><time>2026-04-19T13:14:37.61Z</time></trkpt><trkpt lat="43.4012783" lon="11.3715717"><ele>434.0</ele><time>2026-04-19T13:14:38.609Z</time></trkpt><trkpt lat="43.4012783" lon="11.3713717"><ele>432.66666666666663</ele><time>2026-04-19T13:14:39.61Z</time></trkpt><trkpt lat="43.40128" lon="11.37116"><ele>431.33333333333337</ele><time>2026-04-19T13:14:40.609Z</time></trkpt><trkpt lat="43.4012967" lon="11.3709533"><ele>430.0</ele><time>2026-04-19T13:14:41.61Z</time></trkpt><trkpt lat="43.401325" lon="11.3707467"><ele>429.6666666666667</ele><time>2026-04-19T13:14:42.609Z</time></trkpt><trkpt lat="43.401365" lon="11.37054"><ele>429.33333333333337</ele><time>2026-04-19T13:14:43.61Z</time></trkpt><trkpt lat="43.401415" lon="11.3703467"><ele>429.0</ele><time>2026-04-19T13:14:44.61Z</time></trkpt><trkpt lat="43.4014783" lon="11.37015"><ele>429.0</ele><time>2026-04-19T13:14:45.609Z</time></trkpt><trkpt lat="43.4015383" lon="11.36995"><ele>429.0</ele><time>2026-04-19T13:14:46.609Z</time></trkpt><trkpt lat="43.4015917" lon="11.3697533"><ele>429.0</ele><time>2026-04-19T13:14:47.609Z</time></trkpt><trkpt lat="43.4016333" lon="11.3695567"><ele>429.25</ele><time>2026-04-19T13:14:48.609Z</time></trkpt><trkpt lat="43.4016683" lon="11.3693617"><ele>429.5</ele><time>2026-04-19T13:14:49.61Z</time></trkpt><trkpt lat="43.4017033" lon="11.3691733"><ele>429.75</ele><time>2026-04-19T13:14:50.609Z</time></trkpt><trkpt lat="43.4017217" lon="11.3689917"><ele>430.0</ele><time>2026-04-19T13:14:51.609Z</time></trkpt><trkpt lat="43.4017367" lon="11.3688033"><ele>430.6666666666667</ele><time>2026-04-19T13:14:52.61Z</time></trkpt><trkpt lat="43.401725" lon="11.3685867"><ele>431.33333333333337</ele><time>2026-04-19T13:14:53.61Z</time></trkpt><trkpt lat="43.4017083" lon="11.3683583"><ele>432.0</ele><time>2026-04-19T13:14:54.609Z</time></trkpt><trkpt lat="43.40168" lon="11.3681117"><ele>432.66666666666663</ele><time>2026-04-19T13:14:55.609Z</time></trkpt><trkpt lat="43.4016617" lon="11.36787"><ele>433.3333333333333</ele><time>2026-04-19T13:14:56.61Z</time></trkpt><trkpt lat="43.40164" lon="11.3676583"><ele>434.0</ele><time>2026-04-19T13:14:57.609Z</time></trkpt><trkpt lat="43.4016217" lon="11.3674683"><ele>434.0</ele><time>2026-04-19T13:14:58.609Z</time></trkpt><trkpt lat="43.4016017" lon="11.3672917"><ele>434.0</ele><time>2026-04-19T13:14:59.61Z</time></trkpt><trkpt lat="43.40157" lon="11.36713"><ele>434.0</ele><time>2026-04-19T13:15:00.609Z</time></trkpt><trkpt lat="43.4015267" lon="11.366965"><ele>434.0</ele><time>2026-04-19T13:15:01.609Z</time></trkpt><trkpt lat="43.4014583" lon="11.36681"><ele>434.25</ele><time>2026-04-19T13:15:02.609Z</time></trkpt><trkpt lat="43.4013817" lon="11.3666433"><ele>434.5</ele><time>2026-04-19T13:15:03.61Z</time></trkpt><trkpt lat="43.40132" lon="11.3664567"><ele>434.75</ele><time>2026-04-19T13:15:04.61Z</time></trkpt><trkpt lat="43.4012767" lon="11.366255"><ele>435.0</ele><time>2026-04-19T13:15:05.61Z</time></trkpt><trkpt lat="43.4012433" lon="11.3660483"><ele>436.25</ele><time>2026-04-19T13:15:06.61Z</time></trkpt><trkpt lat="43.4012083" lon="11.36585"><ele>437.5</ele><time>2026-04-19T13:15:07.61Z</time></trkpt><trkpt lat="43.4011833" lon="11.3656667"><ele>438.75</ele><time>2026-04-19T13:15:08.61Z</time></trkpt><trkpt lat="43.4011567" lon="11.3654967"><ele>440.0</ele><time>2026-04-19T13:15:09.61Z</time></trkpt><trkpt lat="43.40113" lon="11.3653233"><ele>440.0</ele><time>2026-04-19T13:15:10.61Z</time></trkpt><trkpt lat="43.4011083" lon="11.3651483"><ele>440.0</ele><time>2026-04-19T13:15:11.61Z</time></trkpt><trkpt lat="43.4010767" lon="11.3649683"><ele>440.0</ele><time>2026-04-19T13:15:12.609Z</time></trkpt><trkpt lat="43.4010433" lon="11.3647833"><ele>440.0</ele><time>2026-04-19T13:15:13.609Z</time></trkpt><trkpt lat="43.4009967" lon="11.3646117"><ele>440.4</ele><time>2026-04-19T13:15:14.609Z</time></trkpt><trkpt lat="43.40094" lon="11.364455"><ele>440.8</ele><time>2026-04-19T13:15:15.61Z</time></trkpt><trkpt lat="43.4008833" lon="11.36432"><ele>441.20000000000005</ele><time>2026-04-19T13:15:16.61Z</time></trkpt><trkpt lat="43.4008417" lon="11.3641933"><ele>441.6</ele><time>2026-04-19T13:15:17.609Z</time></trkpt><trkpt lat="43.4008067" lon="11.3640533"><ele>442.0</ele><time>2026-04-19T13:15:18.61Z</time></trkpt><trkpt lat="43.4007933" lon="11.3639067"><ele>441.6</ele><time>2026-04-19T13:15:19.609Z</time></trkpt><trkpt lat="43.4008" lon="11.3637633"><ele>441.20000000000005</ele><time>2026-04-19T13:15:20.61Z</time></trkpt><trkpt lat="43.4008233" lon="11.36362"><ele>440.8</ele><time>2026-04-19T13:15:21.609Z</time></trkpt><trkpt lat="43.4008733" lon="11.36349"><ele>440.4</ele><time>2026-04-19T13:15:22.61Z</time></trkpt><trkpt lat="43.40093" lon="11.3633883"><ele>440.0</ele><time>2026-04-19T13:15:23.609Z</time></trkpt><trkpt lat="43.4010017" lon="11.3633017"><ele>440.0</ele><time>2026-04-19T13:15:24.609Z</time></trkpt><trkpt lat="43.4010933" lon="11.3632467"><ele>440.0</ele><time>2026-04-19T13:15:25.609Z</time></trkpt><trkpt lat="43.401185" lon="11.3631933"><ele>440.0</ele><time>2026-04-19T13:15:26.609Z</time></trkpt><trkpt lat="43.401275" lon="11.3631317"><ele>440.0</ele><time>2026-04-19T13:15:27.609Z</time></trkpt><trkpt lat="43.4013433" lon="11.3630333"><ele>440.0</ele><time>2026-04-19T13:15:28.61Z</time></trkpt><trkpt lat="43.4013933" lon="11.3629183"><ele>441.8</ele><time>2026-04-19T13:15:29.609Z</time></trkpt><trkpt lat="43.4014133" lon="11.3627883"><ele>443.6</ele><time>2026-04-19T13:15:30.609Z</time></trkpt><trkpt lat="43.4014133" lon="11.3626567"><ele>445.4</ele><time>2026-04-19T13:15:31.609Z</time></trkpt><trkpt lat="43.4013983" lon="11.3625117"><ele>447.2</ele><time>2026-04-19T13:15:32.609Z</time></trkpt><trkpt lat="43.4013817" lon="11.3623933"><ele>449.0</ele><time>2026-04-19T13:15:33.609Z</time></trkpt><trkpt lat="43.4013617" lon="11.3622883"><ele>448.16666666666663</ele><time>2026-04-19T13:15:34.61Z</time></trkpt><trkpt lat="43.401335" lon="11.3621783"><ele>447.3333333333333</ele><time>2026-04-19T13:15:35.609Z</time></trkpt><trkpt lat="43.4013267" lon="11.3620667"><ele>446.5</ele><time>2026-04-19T13:15:36.609Z</time></trkpt><trkpt lat="43.4013517" lon="11.3619583"><ele>445.66666666666663</ele><time>2026-04-19T13:15:37.609Z</time></trkpt><trkpt lat="43.4014017" lon="11.3618667"><ele>444.8333333333333</ele><time>2026-04-19T13:15:38.609Z</time></trkpt><trkpt lat="43.4014783" lon="11.36177"><ele>444.0</ele><time>2026-04-19T13:15:39.609Z</time></trkpt><trkpt lat="43.4015783" lon="11.3616633"><ele>444.0</ele><time>2026-04-19T13:15:40.609Z</time></trkpt><trkpt lat="43.4017117" lon="11.3615217"><ele>444.0</ele><time>2026-04-19T13:15:41.609Z</time></trkpt><trkpt lat="43.4018433" lon="11.3613683"><ele>444.0</ele><time>2026-04-19T13:15:42.609Z</time></trkpt><trkpt lat="43.4019783" lon="11.3612183"><ele>443.25</ele><time>2026-04-19T13:15:43.61Z</time></trkpt><trkpt lat="43.40209" lon="11.3610817"><ele>442.5</ele><time>2026-04-19T13:15:44.609Z</time></trkpt><trkpt lat="43.40219" lon="11.3609833"><ele>441.75</ele><time>2026-04-19T13:15:45.609Z</time></trkpt><trkpt lat="43.4022917" lon="11.3609067"><ele>441.0</ele><time>2026-04-19T13:15:46.61Z</time></trkpt><trkpt lat="43.402405" lon="11.3608667"><ele>441.0</ele><time>2026-04-19T13:15:47.609Z</time></trkpt><trkpt lat="43.4025267" lon="11.3608683"><ele>441.0</ele><time>2026-04-19T13:15:48.609Z</time></trkpt><trkpt lat="43.4026533" lon="11.360905"><ele>441.0</ele><time>2026-04-19T13:15:49.609Z</time></trkpt><trkpt lat="43.4027867" lon="11.3609283"><ele>441.0</ele><time>2026-04-19T13:15:50.61Z</time></trkpt><trkpt lat="43.40292" lon="11.360935"><ele>442.25</ele><time>2026-04-19T13:15:51.61Z</time></trkpt><trkpt lat="43.403055" lon="11.3609233"><ele>443.5</ele><time>2026-04-19T13:15:52.609Z</time></trkpt><trkpt lat="43.4031933" lon="11.3608933"><ele>444.75</ele><time>2026-04-19T13:15:53.61Z</time></trkpt><trkpt lat="43.4033033" lon="11.3608467"><ele>446.0</ele><time>2026-04-19T13:15:54.61Z</time></trkpt><trkpt lat="43.4034" lon="11.360795"><ele>446.0</ele><time>2026-04-19T13:15:55.609Z</time></trkpt><trkpt lat="43.4034783" lon="11.36072"><ele>446.0</ele><time>2026-04-19T13:15:56.609Z</time></trkpt><trkpt lat="43.4035217" lon="11.3606233"><ele>446.0</ele><time>2026-04-19T13:15:57.61Z</time></trkpt><trkpt lat="43.4035483" lon="11.3605117"><ele>446.0</ele><time>2026-04-19T13:15:58.609Z</time></trkpt><trkpt lat="43.4035517" lon="11.3603733"><ele>446.0</ele><time>2026-04-19T13:15:59.609Z</time></trkpt><trkpt lat="43.403535" lon="11.3602033"><ele>445.75</ele><time>2026-04-19T13:16:00.61Z</time></trkpt><trkpt lat="43.4035333" lon="11.360025"><ele>445.5</ele><time>2026-04-19T13:16:01.61Z</time></trkpt><trkpt lat="43.40356" lon="11.35985"><ele>445.25</ele><time>2026-04-19T13:16:02.609Z</time></trkpt><trkpt lat="43.40359" lon="11.35969"><ele>445.0</ele><time>2026-04-19T13:16:03.609Z</time></trkpt><trkpt lat="43.4036117" lon="11.359555"><ele>445.0</ele><time>2026-04-19T13:16:04.61Z</time></trkpt><trkpt lat="43.40359" lon="11.3592817"><ele>445.0</ele><time>2026-04-19T13:16:06.609Z</time></trkpt><trkpt lat="43.4035533" lon="11.359155"><ele>445.0</ele><time>2026-04-19T13:16:07.61Z</time></trkpt><trkpt lat="43.4034867" lon="11.3590517"><ele>445.0</ele><time>2026-04-19T13:16:08.61Z</time></trkpt><trkpt lat="43.4034033" lon="11.358975"><ele>445.0</ele><time>2026-04-19T13:16:09.609Z</time></trkpt><trkpt lat="43.4033017" lon="11.358925"><ele>445.0</ele><time>2026-04-19T13:16:10.609Z</time></trkpt><trkpt lat="43.4031883" lon="11.3588917"><ele>445.0</ele><time>2026-04-19T13:16:11.61Z</time></trkpt><trkpt lat="43.40309" lon="11.3588517"><ele>445.0</ele><time>2026-04-19T13:16:12.609Z</time></trkpt><trkpt lat="43.4030067" lon="11.3587833"><ele>445.0</ele><time>2026-04-19T13:16:13.609Z</time></trkpt><trkpt lat="43.4029517" lon="11.3586667"><ele>444.33333333333337</ele><time>2026-04-19T13:16:14.609Z</time></trkpt><trkpt lat="43.40291" lon="11.3585183"><ele>443.66666666666663</ele><time>2026-04-19T13:16:15.609Z</time></trkpt><trkpt lat="43.4028833" lon="11.3583317"><ele>443.0</ele><time>2026-04-19T13:16:16.609Z</time></trkpt><trkpt lat="43.4028133" lon="11.3579367"><ele>443.0</ele><time>2026-04-19T13:16:18.609Z</time></trkpt><trkpt lat="43.4027717" lon="11.357765"><ele>442.99999999999994</ele><time>2026-04-19T13:16:19.609Z</time></trkpt><trkpt lat="43.40277" lon="11.3576267"><ele>442.99999999999994</ele><time>2026-04-19T13:16:20.61Z</time></trkpt><trkpt lat="43.40279" lon="11.3574917"><ele>443.0</ele><time>2026-04-19T13:16:21.61Z</time></trkpt><trkpt lat="43.402835" lon="11.3573683"><ele>443.0</ele><time>2026-04-19T13:16:22.61Z</time></trkpt><trkpt lat="43.4029017" lon="11.3572683"><ele>442.0</ele><time>2026-04-19T13:16:23.609Z</time></trkpt><trkpt lat="43.402985" lon="11.357195"><ele>441.0</ele><time>2026-04-19T13:16:24.609Z</time></trkpt><trkpt lat="43.403085" lon="11.3571483"><ele>440.0</ele><time>2026-04-19T13:16:25.609Z</time></trkpt><trkpt lat="43.4032033" lon="11.357125"><ele>439.0</ele><time>2026-04-19T13:16:26.609Z</time></trkpt><trkpt lat="43.40333" lon="11.3571317"><ele>440.6</ele><time>2026-04-19T13:16:27.609Z</time></trkpt><trkpt lat="43.4034567" lon="11.3571283"><ele>442.2</ele><time>2026-04-19T13:16:28.609Z</time></trkpt><trkpt lat="43.4035783" lon="11.3571183"><ele>443.80000000000007</ele><time>2026-04-19T13:16:29.61Z</time></trkpt><trkpt lat="43.4036667" lon="11.3570933"><ele>445.40000000000003</ele><time>2026-04-19T13:16:30.609Z</time></trkpt><trkpt lat="43.4037433" lon="11.3570467"><ele>447.0</ele><time>2026-04-19T13:16:31.609Z</time></trkpt><trkpt lat="43.4038017" lon="11.356975"><ele>447.0</ele><time>2026-04-19T13:16:32.609Z</time></trkpt><trkpt lat="43.4038483" lon="11.3568917"><ele>447.0</ele><time>2026-04-19T13:16:33.609Z</time></trkpt><trkpt lat="43.403855" lon="11.3567883"><ele>447.0</ele><time>2026-04-19T13:16:34.61Z</time></trkpt><trkpt lat="43.4038467" lon="11.3566883"><ele>447.0</ele><time>2026-04-19T13:16:35.609Z</time></trkpt><trkpt lat="43.403815" lon="11.35657"><ele>447.0</ele><time>2026-04-19T13:16:36.61Z</time></trkpt><trkpt lat="43.403765" lon="11.3564617"><ele>447.0</ele><time>2026-04-19T13:16:37.61Z</time></trkpt><trkpt lat="43.4037" lon="11.3563467"><ele>446.8</ele><time>2026-04-19T13:16:38.609Z</time></trkpt><trkpt lat="43.403645" lon="11.3562417"><ele>446.6</ele><time>2026-04-19T13:16:39.609Z</time></trkpt><trkpt lat="43.4036283" lon="11.3561567"><ele>446.40000000000003</ele><time>2026-04-19T13:16:40.61Z</time></trkpt><trkpt lat="43.4036333" lon="11.35605"><ele>446.20000000000005</ele><time>2026-04-19T13:16:41.609Z</time></trkpt><trkpt lat="43.40371" lon="11.3559617"><ele>446.0</ele><time>2026-04-19T13:16:42.609Z</time></trkpt><trkpt lat="43.403815" lon="11.355865"><ele>447.5</ele><time>2026-04-19T13:16:43.609Z</time></trkpt><trkpt lat="43.4039317" lon="11.3557667"><ele>449.0</ele><time>2026-04-19T13:16:44.609Z</time></trkpt><trkpt lat="43.4040417" lon="11.355675"><ele>450.5</ele><time>2026-04-19T13:16:45.609Z</time></trkpt><trkpt lat="43.40415" lon="11.3556183"><ele>452.0</ele><time>2026-04-19T13:16:46.609Z</time></trkpt><trkpt lat="43.4042583" lon="11.3556083"><ele>452.0</ele><time>2026-04-19T13:16:47.61Z</time></trkpt><trkpt lat="43.4043733" lon="11.3556283"><ele>452.0</ele><time>2026-04-19T13:16:48.61Z</time></trkpt><trkpt lat="43.4044883" lon="11.35567"><ele>452.0</ele><time>2026-04-19T13:16:49.609Z</time></trkpt><trkpt lat="43.4046067" lon="11.35572"><ele>452.0</ele><time>2026-04-19T13:16:50.61Z</time></trkpt><trkpt lat="43.4047117" lon="11.3557867"><ele>452.8</ele><time>2026-04-19T13:16:51.609Z</time></trkpt><trkpt lat="43.4048167" lon="11.3558733"><ele>453.6</ele><time>2026-04-19T13:16:52.609Z</time></trkpt><trkpt lat="43.404915" lon="11.3559667"><ele>454.40000000000003</ele><time>2026-04-19T13:16:53.61Z</time></trkpt><trkpt lat="43.40501" lon="11.3560433"><ele>455.20000000000005</ele><time>2026-04-19T13:16:54.61Z</time></trkpt><trkpt lat="43.405085" lon="11.3561"><ele>456.0</ele><time>2026-04-19T13:16:55.609Z</time></trkpt><trkpt lat="43.4051533" lon="11.3561233"><ele>456.0</ele><time>2026-04-19T13:16:56.61Z</time></trkpt><trkpt lat="43.4052717" lon="11.3560933"><ele>456.0</ele><time>2026-04-19T13:16:58.609Z</time></trkpt><trkpt lat="43.405325" lon="11.35602"><ele>456.0</ele><time>2026-04-19T13:16:59.61Z</time></trkpt><trkpt lat="43.405365" lon="11.35591"><ele>456.0</ele><time>2026-04-19T13:17:00.609Z</time></trkpt><trkpt lat="43.4054033" lon="11.3557733"><ele>456.0</ele><time>2026-04-19T13:17:01.609Z</time></trkpt><trkpt lat="43.4054433" lon="11.3556383"><ele>455.4</ele><time>2026-04-19T13:17:02.61Z</time></trkpt><trkpt lat="43.4055" lon="11.3555233"><ele>454.8</ele><time>2026-04-19T13:17:03.609Z</time></trkpt><trkpt lat="43.405565" lon="11.3554533"><ele>454.19999999999993</ele><time>2026-04-19T13:17:04.61Z</time></trkpt><trkpt lat="43.4056417" lon="11.3554267"><ele>453.59999999999997</ele><time>2026-04-19T13:17:05.61Z</time></trkpt><trkpt lat="43.4057417" lon="11.3554767"><ele>453.0</ele><time>2026-04-19T13:17:06.61Z</time></trkpt><trkpt lat="43.40584" lon="11.3555367"><ele>455.5</ele><time>2026-04-19T13:17:07.609Z</time></trkpt><trkpt lat="43.4059483" lon="11.3556117"><ele>458.0</ele><time>2026-04-19T13:17:08.61Z</time></trkpt><trkpt lat="43.4060667" lon="11.3557183"><ele>460.5</ele><time>2026-04-19T13:17:09.61Z</time></trkpt><trkpt lat="43.4061867" lon="11.35582"><ele>463.0</ele><time>2026-04-19T13:17:10.609Z</time></trkpt><trkpt lat="43.40628" lon="11.3559233"><ele>463.59999999999997</ele><time>2026-04-19T13:17:11.609Z</time></trkpt><trkpt lat="43.4063817" lon="11.3560033"><ele>464.19999999999993</ele><time>2026-04-19T13:17:12.61Z</time></trkpt><trkpt lat="43.4064617" lon="11.3560617"><ele>464.8</ele><time>2026-04-19T13:17:13.61Z</time></trkpt><trkpt lat="43.4065333" lon="11.3560883"><ele>465.4</ele><time>2026-04-19T13:17:14.609Z</time></trkpt><trkpt lat="43.4066283" lon="11.35606"><ele>466.0</ele><time>2026-04-19T13:17:16.609Z</time></trkpt><trkpt lat="43.406695" lon="11.3559133"><ele>466.0</ele><time>2026-04-19T13:17:18.609Z</time></trkpt><trkpt lat="43.4067083" lon="11.355815"><ele>466.0</ele><time>2026-04-19T13:17:19.609Z</time></trkpt><trkpt lat="43.40668" lon="11.3555567"><ele>466.0</ele><time>2026-04-19T13:17:21.61Z</time></trkpt><trkpt lat="43.4066367" lon="11.3553633"><ele>466.0</ele><time>2026-04-19T13:17:22.609Z</time></trkpt><trkpt lat="43.4066033" lon="11.3551833"><ele>465.20000000000005</ele><time>2026-04-19T13:17:23.609Z</time></trkpt><trkpt lat="43.406585" lon="11.355015"><ele>464.40000000000003</ele><time>2026-04-19T13:17:24.61Z</time></trkpt><trkpt lat="43.4065917" lon="11.3548733"><ele>463.6</ele><time>2026-04-19T13:17:25.609Z</time></trkpt><trkpt lat="43.4066283" lon="11.3547617"><ele>462.8</ele><time>2026-04-19T13:17:26.61Z</time></trkpt><trkpt lat="43.4066933" lon="11.354665"><ele>462.0</ele><time>2026-04-19T13:17:27.609Z</time></trkpt><trkpt lat="43.4067717" lon="11.3545733"><ele>462.75</ele><time>2026-04-19T13:17:28.61Z</time></trkpt><trkpt lat="43.4068783" lon="11.3544933"><ele>463.5</ele><time>2026-04-19T13:17:29.61Z</time></trkpt><trkpt lat="43.4069983" lon="11.35442"><ele>464.25</ele><time>2026-04-19T13:17:30.61Z</time></trkpt><trkpt lat="43.4071183" lon="11.3543917"><ele>465.0</ele><time>2026-04-19T13:17:31.609Z</time></trkpt><trkpt lat="43.4072283" lon="11.3543817"><ele>465.0</ele><time>2026-04-19T13:17:32.609Z</time></trkpt><trkpt lat="43.4073317" lon="11.3544067"><ele>465.0</ele><time>2026-04-19T13:17:33.609Z</time></trkpt><trkpt lat="43.4074317" lon="11.3544333"><ele>465.0</ele><time>2026-04-19T13:17:34.609Z</time></trkpt><trkpt lat="43.40751" lon="11.35444"><ele>465.0</ele><time>2026-04-19T13:17:35.609Z</time></trkpt><trkpt lat="43.4075717" lon="11.354415"><ele>465.0</ele><time>2026-04-19T13:17:36.609Z</time></trkpt><trkpt lat="43.4076367" lon="11.354265"><ele>465.0</ele><time>2026-04-19T13:17:38.609Z</time></trkpt><trkpt lat="43.4076717" lon="11.3541367"><ele>465.0</ele><time>2026-04-19T13:17:39.61Z</time></trkpt><trkpt lat="43.4077083" lon="11.3540117"><ele>465.0</ele><time>2026-04-19T13:17:40.609Z</time></trkpt><trkpt lat="43.4077533" lon="11.35391"><ele>465.0</ele><time>2026-04-19T13:17:41.609Z</time></trkpt><trkpt lat="43.4078117" lon="11.353825"><ele>465.0</ele><time>2026-04-19T13:17:42.61Z</time></trkpt><trkpt lat="43.4078933" lon="11.3537683"><ele>464.0</ele><time>2026-04-19T13:17:43.609Z</time></trkpt><trkpt lat="43.407985" lon="11.3537467"><ele>463.0</ele><time>2026-04-19T13:17:44.61Z</time></trkpt><trkpt lat="43.40808" lon="11.3537883"><ele>462.0</ele><time>2026-04-19T13:17:45.609Z</time></trkpt><trkpt lat="43.4081683" lon="11.3538583"><ele>461.0</ele><time>2026-04-19T13:17:46.609Z</time></trkpt><trkpt lat="43.4082467" lon="11.353955"><ele>460.0</ele><time>2026-04-19T13:17:47.61Z</time></trkpt><trkpt lat="43.4083267" lon="11.3540467"><ele>462.00000000000006</ele><time>2026-04-19T13:17:48.609Z</time></trkpt><trkpt lat="43.4084067" lon="11.3541167"><ele>464.0</ele><time>2026-04-19T13:17:49.609Z</time></trkpt><trkpt lat="43.40849" lon="11.3541533"><ele>466.0</ele><time>2026-04-19T13:17:50.609Z</time></trkpt><trkpt lat="43.408565" lon="11.3541617"><ele>468.0</ele><time>2026-04-19T13:17:51.609Z</time></trkpt><trkpt lat="43.4086333" lon="11.354145"><ele>470.00000000000006</ele><time>2026-04-19T13:17:52.61Z</time></trkpt><trkpt lat="43.4086867" lon="11.3540583"><ele>472.0</ele><time>2026-04-19T13:17:53.609Z</time></trkpt><trkpt lat="43.4087333" lon="11.3539517"><ele>471.20000000000005</ele><time>2026-04-19T13:17:54.61Z</time></trkpt><trkpt lat="43.4087683" lon="11.3538317"><ele>470.40000000000003</ele><time>2026-04-19T13:17:55.609Z</time></trkpt><trkpt lat="43.4087833" lon="11.3536833"><ele>469.59999999999997</ele><time>2026-04-19T13:17:56.61Z</time></trkpt><trkpt lat="43.4088017" lon="11.3535383"><ele>468.79999999999995</ele><time>2026-04-19T13:17:57.609Z</time></trkpt><trkpt lat="43.4088367" lon="11.3534133"><ele>468.0</ele><time>2026-04-19T13:17:58.61Z</time></trkpt><trkpt lat="43.4088967" lon="11.35331"><ele>468.0</ele><time>2026-04-19T13:17:59.609Z</time></trkpt><trkpt lat="43.4089833" lon="11.3532433"><ele>468.0</ele><time>2026-04-19T13:18:00.61Z</time></trkpt><trkpt lat="43.4090867" lon="11.3532083"><ele>468.0</ele><time>2026-04-19T13:18:01.609Z</time></trkpt><trkpt lat="43.4092133" lon="11.3532083"><ele>468.0</ele><time>2026-04-19T13:18:02.609Z</time></trkpt><trkpt lat="43.4093433" lon="11.3532317"><ele>468.0</ele><time>2026-04-19T13:18:03.608Z</time></trkpt><trkpt lat="43.4094583" lon="11.3532717"><ele>468.0</ele><time>2026-04-19T13:18:04.608Z</time></trkpt><trkpt lat="43.40955" lon="11.3533083"><ele>468.0</ele><time>2026-04-19T13:18:05.608Z</time></trkpt><trkpt lat="43.409625" lon="11.3533267"><ele>468.0</ele><time>2026-04-19T13:18:06.609Z</time></trkpt><trkpt lat="43.4096983" lon="11.3533183"><ele>468.0</ele><time>2026-04-19T13:18:07.608Z</time></trkpt><trkpt lat="43.4097667" lon="11.3532733"><ele>468.0</ele><time>2026-04-19T13:18:08.609Z</time></trkpt><trkpt lat="43.4098117" lon="11.3531967"><ele>468.2</ele><time>2026-04-19T13:18:09.608Z</time></trkpt><trkpt lat="43.4098367" lon="11.3530933"><ele>468.4</ele><time>2026-04-19T13:18:10.609Z</time></trkpt><trkpt lat="43.40985" lon="11.352965"><ele>468.59999999999997</ele><time>2026-04-19T13:18:11.609Z</time></trkpt><trkpt lat="43.4098733" lon="11.3528483"><ele>468.79999999999995</ele><time>2026-04-19T13:18:12.608Z</time></trkpt><trkpt lat="43.4099183" lon="11.3527267"><ele>469.0</ele><time>2026-04-19T13:18:13.608Z</time></trkpt><trkpt lat="43.4099783" lon="11.352625"><ele>469.00000000000006</ele><time>2026-04-19T13:18:14.608Z</time></trkpt><trkpt lat="43.410045" lon="11.3525283"><ele>469.0</ele><time>2026-04-19T13:18:15.608Z</time></trkpt><trkpt lat="43.410105" lon="11.352465"><ele>469.0</ele><time>2026-04-19T13:18:16.608Z</time></trkpt><trkpt lat="43.4101633" lon="11.3524017"><ele>469.0</ele><time>2026-04-19T13:18:17.608Z</time></trkpt><trkpt lat="43.4102367" lon="11.35235"><ele>469.00000000000006</ele><time>2026-04-19T13:18:18.608Z</time></trkpt><trkpt lat="43.4103167" lon="11.3523133"><ele>469.0</ele><time>2026-04-19T13:18:19.609Z</time></trkpt><trkpt lat="43.4104233" lon="11.3522833"><ele>469.5</ele><time>2026-04-19T13:18:20.608Z</time></trkpt><trkpt lat="43.4105583" lon="11.3522667"><ele>470.0</ele><time>2026-04-19T13:18:21.608Z</time></trkpt><trkpt lat="43.4107133" lon="11.35225"><ele>470.5</ele><time>2026-04-19T13:18:22.608Z</time></trkpt><trkpt lat="43.4108683" lon="11.352215"><ele>471.0</ele><time>2026-04-19T13:18:23.608Z</time></trkpt><trkpt lat="43.41103" lon="11.3521683"><ele>471.0</ele><time>2026-04-19T13:18:24.609Z</time></trkpt><trkpt lat="43.41118" lon="11.35212"><ele>471.0</ele><time>2026-04-19T13:18:25.608Z</time></trkpt><trkpt lat="43.4113317" lon="11.3520783"><ele>471.0</ele><time>2026-04-19T13:18:26.608Z</time></trkpt><trkpt lat="43.4114917" lon="11.35204"><ele>467.0</ele><time>2026-04-19T13:18:27.608Z</time></trkpt><trkpt lat="43.41199" lon="11.3519033"><ele>468.66666666666663</ele><time>2026-04-19T13:18:30.609Z</time></trkpt><trkpt lat="43.4121633" lon="11.3518617"><ele>470.33333333333337</ele><time>2026-04-19T13:18:31.609Z</time></trkpt><trkpt lat="43.412335" lon="11.3518217"><ele>472.0</ele><time>2026-04-19T13:18:32.609Z</time></trkpt><trkpt lat="43.4125033" lon="11.3517783"><ele>472.0</ele><time>2026-04-19T13:18:33.608Z</time></trkpt><trkpt lat="43.4126633" lon="11.3517317"><ele>472.0</ele><time>2026-04-19T13:18:34.608Z</time></trkpt><trkpt lat="43.41281" lon="11.3516567"><ele>472.0</ele><time>2026-04-19T13:18:35.608Z</time></trkpt><trkpt lat="43.41293" lon="11.3515633"><ele>473.75</ele><time>2026-04-19T13:18:36.609Z</time></trkpt><trkpt lat="43.41304" lon="11.35144"><ele>475.5</ele><time>2026-04-19T13:18:37.608Z</time></trkpt><trkpt lat="43.41314" lon="11.3512967"><ele>477.25</ele><time>2026-04-19T13:18:38.609Z</time></trkpt><trkpt lat="43.41325" lon="11.3511483"><ele>479.0</ele><time>2026-04-19T13:18:39.608Z</time></trkpt><trkpt lat="43.4133633" lon="11.3509933"><ele>479.25</ele><time>2026-04-19T13:18:40.608Z</time></trkpt><trkpt lat="43.4134717" lon="11.35084"><ele>479.5</ele><time>2026-04-19T13:18:41.608Z</time></trkpt><trkpt lat="43.41358" lon="11.3506833"><ele>479.75</ele><time>2026-04-19T13:18:42.608Z</time></trkpt><trkpt lat="43.4136717" lon="11.3505583"><ele>480.0</ele><time>2026-04-19T13:18:43.608Z</time></trkpt><trkpt lat="43.4137617" lon="11.35045"><ele>483.5</ele><time>2026-04-19T13:18:44.609Z</time></trkpt><trkpt lat="43.4138633" lon="11.350375"><ele>487.0</ele><time>2026-04-19T13:18:45.608Z</time></trkpt><trkpt lat="43.413975" lon="11.3503467"><ele>490.5</ele><time>2026-04-19T13:18:46.609Z</time></trkpt><trkpt lat="43.4140917" lon="11.35036"><ele>494.0</ele><time>2026-04-19T13:18:47.608Z</time></trkpt><trkpt lat="43.4142067" lon="11.3504117"><ele>493.99999999999994</ele><time>2026-04-19T13:18:48.608Z</time></trkpt><trkpt lat="43.4143" lon="11.35046"><ele>494.0</ele><time>2026-04-19T13:18:49.609Z</time></trkpt><trkpt lat="43.4143867" lon="11.3504867"><ele>494.0</ele><time>2026-04-19T13:18:50.609Z</time></trkpt><trkpt lat="43.414475" lon="11.35047"><ele>494.0</ele><time>2026-04-19T13:18:51.608Z</time></trkpt><trkpt lat="43.4145383" lon="11.3504067"><ele>493.99999999999994</ele><time>2026-04-19T13:18:52.608Z</time></trkpt><trkpt lat="43.4145933" lon="11.3503233"><ele>494.0</ele><time>2026-04-19T13:18:53.609Z</time></trkpt><trkpt lat="43.4146333" lon="11.3501867"><ele>493.0</ele><time>2026-04-19T13:18:54.608Z</time></trkpt><trkpt lat="43.4146567" lon="11.35002"><ele>492.0</ele><time>2026-04-19T13:18:55.609Z</time></trkpt><trkpt lat="43.4146583" lon="11.349815"><ele>491.0</ele><time>2026-04-19T13:18:56.608Z</time></trkpt><trkpt lat="43.4146817" lon="11.3494283"><ele>491.0</ele><time>2026-04-19T13:18:58.608Z</time></trkpt><trkpt lat="43.4147317" lon="11.3492567"><ele>491.0</ele><time>2026-04-19T13:18:59.608Z</time></trkpt><trkpt lat="43.41482" lon="11.3491017"><ele>491.0</ele><time>2026-04-19T13:19:00.608Z</time></trkpt><trkpt lat="43.4149367" lon="11.348985"><ele>491.0</ele><time>2026-04-19T13:19:01.608Z</time></trkpt><trkpt lat="43.4150467" lon="11.3489067"><ele>490.75</ele><time>2026-04-19T13:19:02.608Z</time></trkpt><trkpt lat="43.4151783" lon="11.3488517"><ele>490.5</ele><time>2026-04-19T13:19:03.608Z</time></trkpt><trkpt lat="43.41531" lon="11.3488383"><ele>490.25</ele><time>2026-04-19T13:19:04.609Z</time></trkpt><trkpt lat="43.4154467" lon="11.3488733"><ele>490.0</ele><time>2026-04-19T13:19:05.609Z</time></trkpt><trkpt lat="43.4155783" lon="11.3489167"><ele>490.0</ele><time>2026-04-19T13:19:06.609Z</time></trkpt><trkpt lat="43.4157217" lon="11.348935"><ele>490.0</ele><time>2026-04-19T13:19:07.609Z</time></trkpt><trkpt lat="43.4158583" lon="11.3489233"><ele>490.0</ele><time>2026-04-19T13:19:08.608Z</time></trkpt><trkpt lat="43.41601" lon="11.3489033"><ele>490.0</ele><time>2026-04-19T13:19:09.609Z</time></trkpt><trkpt lat="43.4161717" lon="11.34887"><ele>495.0</ele><time>2026-04-19T13:19:10.608Z</time></trkpt><trkpt lat="43.41634" lon="11.3488533"><ele>500.0</ele><time>2026-04-19T13:19:11.609Z</time></trkpt><trkpt lat="43.4164917" lon="11.3488283"><ele>505.0</ele><time>2026-04-19T13:19:12.608Z</time></trkpt><trkpt lat="43.41663" lon="11.3488067"><ele>505.0</ele><time>2026-04-19T13:19:13.609Z</time></trkpt><trkpt lat="43.4167683" lon="11.34879"><ele>505.0</ele><time>2026-04-19T13:19:14.608Z</time></trkpt><trkpt lat="43.4168983" lon="11.3487567"><ele>505.0</ele><time>2026-04-19T13:19:15.608Z</time></trkpt><trkpt lat="43.4170267" lon="11.34871"><ele>505.0</ele><time>2026-04-19T13:19:16.608Z</time></trkpt><trkpt lat="43.4171183" lon="11.3486283"><ele>503.6</ele><time>2026-04-19T13:19:17.608Z</time></trkpt><trkpt lat="43.41719" lon="11.348535"><ele>502.2</ele><time>2026-04-19T13:19:18.609Z</time></trkpt><trkpt lat="43.4172267" lon="11.3484267"><ele>500.79999999999995</ele><time>2026-04-19T13:19:19.608Z</time></trkpt><trkpt lat="43.4172217" lon="11.34829"><ele>499.4</ele><time>2026-04-19T13:19:20.608Z</time></trkpt><trkpt lat="43.4172" lon="11.348135"><ele>498.0</ele><time>2026-04-19T13:19:21.608Z</time></trkpt><trkpt lat="43.4171683" lon="11.3479667"><ele>498.0</ele><time>2026-04-19T13:19:22.609Z</time></trkpt><trkpt lat="43.417135" lon="11.3477883"><ele>498.0</ele><time>2026-04-19T13:19:23.609Z</time></trkpt><trkpt lat="43.41714" lon="11.3476017"><ele>498.0</ele><time>2026-04-19T13:19:24.608Z</time></trkpt><trkpt lat="43.417175" lon="11.3474367"><ele>498.0</ele><time>2026-04-19T13:19:25.608Z</time></trkpt><trkpt lat="43.41726" lon="11.3472917"><ele>501.25</ele><time>2026-04-19T13:19:26.608Z</time></trkpt><trkpt lat="43.41736" lon="11.3471617"><ele>504.5</ele><time>2026-04-19T13:19:27.608Z</time></trkpt><trkpt lat="43.4174767" lon="11.3470533"><ele>507.75</ele><time>2026-04-19T13:19:28.609Z</time></trkpt><trkpt lat="43.4175967" lon="11.3469367"><ele>511.0</ele><time>2026-04-19T13:19:29.608Z</time></trkpt><trkpt lat="43.417725" lon="11.34683"><ele>511.0</ele><time>2026-04-19T13:19:30.608Z</time></trkpt><trkpt lat="43.4178617" lon="11.34673"><ele>511.0</ele><time>2026-04-19T13:19:31.608Z</time></trkpt><trkpt lat="43.4180117" lon="11.3466433"><ele>511.0</ele><time>2026-04-19T13:19:32.608Z</time></trkpt><trkpt lat="43.4181583" lon="11.3465783"><ele>508.0</ele><time>2026-04-19T13:19:33.609Z</time></trkpt><trkpt lat="43.4183067" lon="11.3465317"><ele>505.0</ele><time>2026-04-19T13:19:34.609Z</time></trkpt><trkpt lat="43.4184483" lon="11.3465017"><ele>502.0</ele><time>2026-04-19T13:19:35.609Z</time></trkpt><trkpt lat="43.4185883" lon="11.3464883"><ele>499.0</ele><time>2026-04-19T13:19:36.608Z</time></trkpt><trkpt lat="43.4187267" lon="11.3464967"><ele>499.5</ele><time>2026-04-19T13:19:37.608Z</time></trkpt><trkpt lat="43.4188633" lon="11.3465283"><ele>500.0</ele><time>2026-04-19T13:19:38.608Z</time></trkpt><trkpt lat="43.41898" lon="11.3466"><ele>500.5</ele><time>2026-04-19T13:19:39.608Z</time></trkpt><trkpt lat="43.4191" lon="11.3466983"><ele>501.0</ele><time>2026-04-19T13:19:40.609Z</time></trkpt><trkpt lat="43.4192167" lon="11.3468"><ele>501.0</ele><time>2026-04-19T13:19:41.609Z</time></trkpt><trkpt lat="43.41933" lon="11.3468967"><ele>501.0</ele><time>2026-04-19T13:19:42.608Z</time></trkpt><trkpt lat="43.4194533" lon="11.3469633"><ele>501.0</ele><time>2026-04-19T13:19:43.608Z</time></trkpt><trkpt lat="43.4195833" lon="11.3469867"><ele>501.0</ele><time>2026-04-19T13:19:44.608Z</time></trkpt><trkpt lat="43.4197067" lon="11.3469983"><ele>502.5</ele><time>2026-04-19T13:19:45.609Z</time></trkpt><trkpt lat="43.419825" lon="11.3469967"><ele>504.0</ele><time>2026-04-19T13:19:46.608Z</time></trkpt><trkpt lat="43.4199483" lon="11.3470067"><ele>505.5</ele><time>2026-04-19T13:19:47.608Z</time></trkpt><trkpt lat="43.4200733" lon="11.3470383"><ele>507.0</ele><time>2026-04-19T13:19:48.608Z</time></trkpt><trkpt lat="43.4201933" lon="11.347095"><ele>507.0</ele><time>2026-04-19T13:19:49.609Z</time></trkpt><trkpt lat="43.4203017" lon="11.347165"><ele>507.00000000000006</ele><time>2026-04-19T13:19:50.608Z</time></trkpt><trkpt lat="43.4203983" lon="11.3472267"><ele>507.00000000000006</ele><time>2026-04-19T13:19:51.608Z</time></trkpt><trkpt lat="43.420495" lon="11.347275"><ele>507.0</ele><time>2026-04-19T13:19:52.608Z</time></trkpt><trkpt lat="43.4205933" lon="11.3472967"><ele>507.0</ele><time>2026-04-19T13:19:53.609Z</time></trkpt><trkpt lat="43.42071" lon="11.3473033"><ele>505.5</ele><time>2026-04-19T13:19:54.609Z</time></trkpt><trkpt lat="43.4208317" lon="11.3473133"><ele>504.0</ele><time>2026-04-19T13:19:55.609Z</time></trkpt><trkpt lat="43.4209483" lon="11.34732"><ele>502.5</ele><time>2026-04-19T13:19:56.608Z</time></trkpt><trkpt lat="43.4210567" lon="11.3473367"><ele>501.0</ele><time>2026-04-19T13:19:57.608Z</time></trkpt><trkpt lat="43.4211633" lon="11.347335"><ele>501.0</ele><time>2026-04-19T13:19:58.609Z</time></trkpt><trkpt lat="43.4212383" lon="11.3473867"><ele>501.0</ele><time>2026-04-19T13:19:59.608Z</time></trkpt><trkpt lat="43.4213117" lon="11.3474583"><ele>501.0</ele><time>2026-04-19T13:20:00.609Z</time></trkpt><trkpt lat="43.421365" lon="11.347555"><ele>501.0</ele><time>2026-04-19T13:20:01.608Z</time></trkpt><trkpt lat="43.4214017" lon="11.347665"><ele>501.0</ele><time>2026-04-19T13:20:02.608Z</time></trkpt><trkpt lat="43.4214183" lon="11.3477833"><ele>501.0</ele><time>2026-04-19T13:20:03.608Z</time></trkpt><trkpt lat="43.4214283" lon="11.3479117"><ele>501.75</ele><time>2026-04-19T13:20:04.609Z</time></trkpt><trkpt lat="43.4214283" lon="11.34805"><ele>502.5</ele><time>2026-04-19T13:20:05.608Z</time></trkpt><trkpt lat="43.421415" lon="11.3482017"><ele>503.25</ele><time>2026-04-19T13:20:06.609Z</time></trkpt><trkpt lat="43.4214" lon="11.3483667"><ele>504.0</ele><time>2026-04-19T13:20:07.609Z</time></trkpt><trkpt lat="43.42135" lon="11.3486533"><ele>504.0</ele><time>2026-04-19T13:20:09.609Z</time></trkpt><trkpt lat="43.421335" lon="11.3487933"><ele>504.0</ele><time>2026-04-19T13:20:10.609Z</time></trkpt><trkpt lat="43.42133" lon="11.3489233"><ele>504.0</ele><time>2026-04-19T13:20:11.608Z</time></trkpt><trkpt lat="43.4213417" lon="11.3490217"><ele>504.0</ele><time>2026-04-19T13:20:12.608Z</time></trkpt><trkpt lat="43.4213383" lon="11.349145"><ele>504.0</ele><time>2026-04-19T13:20:13.608Z</time></trkpt><trkpt lat="43.4213417" lon="11.3492633"><ele>504.0</ele><time>2026-04-19T13:20:14.609Z</time></trkpt><trkpt lat="43.4213567" lon="11.3493617"><ele>503.0</ele><time>2026-04-19T13:20:15.608Z</time></trkpt><trkpt lat="43.421405" lon="11.3494933"><ele>502.0</ele><time>2026-04-19T13:20:17.609Z</time></trkpt><trkpt lat="43.4214333" lon="11.349575"><ele>501.0</ele><time>2026-04-19T13:20:19.608Z</time></trkpt><trkpt lat="43.42139" lon="11.3496967"><ele>500.0</ele><time>2026-04-19T13:20:22.608Z</time></trkpt><trkpt lat="43.4213283" lon="11.3497683"><ele>499.0</ele><time>2026-04-19T13:20:24.608Z</time></trkpt><trkpt lat="43.4212617" lon="11.3497917"><ele>498.0</ele><time>2026-04-19T13:20:26.609Z</time></trkpt><trkpt lat="43.4211933" lon="11.3497533"><ele>494.3333333333333</ele><time>2026-04-19T13:20:28.608Z</time></trkpt><trkpt lat="43.42113" lon="11.3497183"><ele>490.66666666666663</ele><time>2026-04-19T13:20:30.608Z</time></trkpt><trkpt lat="43.42106" lon="11.349725"><ele>487.0</ele><time>2026-04-19T13:20:32.608Z</time></trkpt><trkpt lat="43.42097" lon="11.349765"><ele>483.3333333333333</ele><time>2026-04-19T13:20:34.609Z</time></trkpt><trkpt lat="43.4209133" lon="11.349835"><ele>479.66666666666663</ele><time>2026-04-19T13:20:36.609Z</time></trkpt><trkpt lat="43.4209033" lon="11.3499517"><ele>476.0</ele><time>2026-04-19T13:20:39.609Z</time></trkpt><trkpt lat="43.4209317" lon="11.3500317"><ele>476.0</ele><time>2026-04-19T13:20:43.608Z</time></trkpt></trkseg></trk></gpx>